<?xml version="1.0" encoding="UTF-8" standalone="no" ?>
<gpx xmlns="http://www.topografix.com/GPX/1/1" xmlns:xsi="http://www.w3.org/2001/XMLSchema-instance" xsi:schemaLocation="http://www.topografix.com/GPX/1/1 http://www.topografix.com/GPX/1/1/gpx.xsd" version="1.1" creator="VisuGPX - https://www.visugpx.com">
  <metadata>
    <name>Begannerohello26 août 2019 10:30:52</name>
    <desc><![CDATA[beganne]]></desc>
  </metadata>
  <wpt lat="47.59588" lon="-2.24126">
    <ele>111.68</ele>
    <name><![CDATA[fontaine autre côté route]]></name>
    <desc><![CDATA[Coordonnées: 47.59588, -2.2412598
Altitude: 112 m
Durée: 26 août 2019 12:11:37]]></desc>
  </wpt>
  <wpt lat="47.59594" lon="-2.2414">
    <ele>109.64</ele>
    <name><![CDATA[petite croix]]></name>
    <desc><![CDATA[Coordonnées: 47.59594, -2.2414021
Altitude: 110 m
Durée: 26 août 2019 12:11:07]]></desc>
  </wpt>
  <wpt lat="47.59624" lon="-2.24285">
    <ele>111</ele>
    <name><![CDATA[château d'eau dans parc]]></name>
    <desc><![CDATA[Coordonnées: 47.596237, -2.2428489
Altitude: 111 m
Durée: 26 août 2019 12:08:17]]></desc>
  </wpt>
  <wpt lat="47.59655" lon="-2.24525">
    <ele>106.64</ele>
    <name><![CDATA[calvaire monumental]]></name>
    <desc><![CDATA[
]]></desc>
  </wpt>
  <wpt lat="47.58561" lon="-2.23985">
    <ele>50.66</ele>
    <name><![CDATA[la lire bonnevin ]]></name>
    <desc><![CDATA[Coordonnées: 47.585606, -2.2398522
Altitude: 51 m
Durée: 26 août 2019 11:35:34]]></desc>
  </wpt>
  <wpt lat="47.58545" lon="-2.23723">
    <ele>54.16</ele>
    <name><![CDATA[Panneau céramique marais ressource et vie sauvageoint sur la carte]]></name>
    <desc><![CDATA[Coordonnées: 47.585445, -2.2372277
Altitude: 54 m
Durée: 26 août 2019 11:26:35]]></desc>
  </wpt>
  <wpt lat="47.58436" lon="-2.23382">
    <ele>51.1</ele>
    <name><![CDATA[panneau rohello vilaine]]></name>
    <desc><![CDATA[Coordonnées: 47.58436, -2.2338214
Altitude: 51 m
Durée: 26 août 2019 11:18:54]]></desc>
  </wpt>
  <wpt lat="47.58533" lon="-2.23633">
    <ele>51.27</ele>
    <name><![CDATA[mention sous pancarte circuit de bonnevin ar 25 min]]></name>
    <desc><![CDATA[Coordonnées: 47.585327, -2.236325
Altitude: 51 m
Durée: 26 août 2019 11:11:04]]></desc>
  </wpt>
  <wpt lat="47.58548" lon="-2.23647">
    <ele>50.93</ele>
    <name><![CDATA[rohello zone megalithe]]></name>
    <desc><![CDATA[Coordonnées: 47.58548, -2.2364655
Altitude: 51 m
Durée: 26 août 2019 11:10:07]]></desc>
  </wpt>
  <wpt lat="47.59086" lon="-2.23792">
    <ele>61.3</ele>
    <name><![CDATA[croix petiye]]></name>
    <desc><![CDATA[Coordonnées: 47.590855, -2.2379198
Altitude: 61 m
Durée: 26 août 2019 11:00:08]]></desc>
  </wpt>
  <wpt lat="47.59254" lon="-2.24006">
    <ele>70.93</ele>
    <name><![CDATA[fontaine lavoor]]></name>
    <desc><![CDATA[Coordonnées: 47.592537, -2.2400582
Altitude: 71 m
Durée: 26 août 2019 10:56:23]]></desc>
  </wpt>
  <wpt lat="47.5932" lon="-2.2391">
    <ele>80.58</ele>
    <name><![CDATA[suivre hr]]></name>
    <desc><![CDATA[Coordonnées: 47.5932, -2.2391005
Altitude: 81 m
Durée: 26 août 2019 10:54:15]]></desc>
  </wpt>
  <wpt lat="47.59434" lon="-2.23475">
    <ele>68.95</ele>
    <name><![CDATA[choix suivre gr]]></name>
    <desc><![CDATA[Coordonnées: 47.594337, -2.2347503
Altitude: 69 m
Durée: 26 août 2019 10:48:15]]></desc>
  </wpt>
  <wpt lat="47.59528" lon="-2.23569">
    <ele>84.22</ele>
    <name><![CDATA[lavoir fontaine]]></name>
    <desc><![CDATA[Coordonnées: 47.595276, -2.2356858
Altitude: 84 m
Durée: 26 août 2019 10:44:53]]></desc>
  </wpt>
  <wpt lat="47.59633" lon="-2.23783">
    <ele>107.13</ele>
    <name><![CDATA[croix carrefour petite granit]]></name>
    <desc><![CDATA[Coordonnées: 47.596325, -2.2378316
Altitude: 107 m
Durée: 26 août 2019 10:40:34]]></desc>
  </wpt>
  <wpt lat="47.59657" lon="-2.23903">
    <ele>110.17</ele>
    <name><![CDATA[Eglise st hermelandint sur la carte]]></name>
    <desc><![CDATA[Coordonnées: 47.596573, -2.2390254
Altitude: 110 m
Durée: 26 août 2019 10:37:32]]></desc>
  </wpt>
  <trk>
    <name><![CDATA[26 août 2019 10:30:52]]></name>
    <desc><![CDATA[beganne]]></desc>
    <trkseg>
      <trkpt lat="47.59627" lon="-2.23915">
        <ele>110.29</ele>
        <time>2019-08-26T08:30:55.000Z</time>
      </trkpt>
      <trkpt lat="47.59626" lon="-2.23915">
        <ele>109.45</ele>
        <time>2019-08-26T08:30:59.000Z</time>
      </trkpt>
      <trkpt lat="47.59625" lon="-2.23914">
        <ele>110.31</ele>
        <time>2019-08-26T08:31:01.000Z</time>
      </trkpt>
      <trkpt lat="47.59623" lon="-2.23914">
        <ele>110.41</ele>
        <time>2019-08-26T08:31:03.000Z</time>
      </trkpt>
      <trkpt lat="47.59622" lon="-2.23914">
        <ele>111.72</ele>
        <time>2019-08-26T08:31:10.000Z</time>
      </trkpt>
      <trkpt lat="47.59621" lon="-2.23912">
        <ele>111.16</ele>
        <time>2019-08-26T08:35:33.000Z</time>
      </trkpt>
      <trkpt lat="47.59623" lon="-2.23913">
        <ele>111.01</ele>
        <time>2019-08-26T08:35:39.000Z</time>
      </trkpt>
      <trkpt lat="47.59624" lon="-2.23911">
        <ele>111.1</ele>
        <time>2019-08-26T08:35:41.000Z</time>
      </trkpt>
      <trkpt lat="47.59624" lon="-2.23908">
        <ele>110.56</ele>
        <time>2019-08-26T08:35:43.000Z</time>
      </trkpt>
      <trkpt lat="47.59625" lon="-2.23907">
        <ele>110.75</ele>
        <time>2019-08-26T08:35:44.000Z</time>
      </trkpt>
      <trkpt lat="47.59625" lon="-2.23906">
        <ele>110.33</ele>
        <time>2019-08-26T08:35:46.000Z</time>
      </trkpt>
      <trkpt lat="47.59624" lon="-2.23905">
        <ele>109.04</ele>
        <time>2019-08-26T08:35:52.000Z</time>
      </trkpt>
      <trkpt lat="47.59626" lon="-2.23904">
        <ele>108.61</ele>
        <time>2019-08-26T08:36:45.000Z</time>
      </trkpt>
      <trkpt lat="47.59627" lon="-2.23904">
        <ele>109.02</ele>
        <time>2019-08-26T08:36:46.000Z</time>
      </trkpt>
      <trkpt lat="47.59628" lon="-2.23905">
        <ele>109.33</ele>
        <time>2019-08-26T08:36:47.000Z</time>
      </trkpt>
      <trkpt lat="47.59629" lon="-2.23905">
        <ele>109.63</ele>
        <time>2019-08-26T08:36:48.000Z</time>
      </trkpt>
      <trkpt lat="47.59631" lon="-2.23906">
        <ele>109.92</ele>
        <time>2019-08-26T08:36:49.000Z</time>
      </trkpt>
      <trkpt lat="47.59632" lon="-2.23906">
        <ele>109.61</ele>
        <time>2019-08-26T08:36:50.000Z</time>
      </trkpt>
      <trkpt lat="47.59633" lon="-2.23906">
        <ele>108.72</ele>
        <time>2019-08-26T08:36:51.000Z</time>
      </trkpt>
      <trkpt lat="47.59634" lon="-2.23906">
        <ele>108.68</ele>
        <time>2019-08-26T08:36:52.000Z</time>
      </trkpt>
      <trkpt lat="47.59636" lon="-2.23907">
        <ele>108.96</ele>
        <time>2019-08-26T08:36:53.000Z</time>
      </trkpt>
      <trkpt lat="47.59637" lon="-2.23907">
        <ele>109.46</ele>
        <time>2019-08-26T08:36:54.000Z</time>
      </trkpt>
      <trkpt lat="47.59638" lon="-2.23908">
        <ele>109.39</ele>
        <time>2019-08-26T08:36:55.000Z</time>
      </trkpt>
      <trkpt lat="47.59639" lon="-2.23908">
        <ele>109.72</ele>
        <time>2019-08-26T08:36:56.000Z</time>
      </trkpt>
      <trkpt lat="47.59641" lon="-2.23909">
        <ele>109.28</ele>
        <time>2019-08-26T08:36:57.000Z</time>
      </trkpt>
      <trkpt lat="47.59642" lon="-2.23909">
        <ele>109.6</ele>
        <time>2019-08-26T08:36:58.000Z</time>
      </trkpt>
      <trkpt lat="47.59643" lon="-2.23909">
        <ele>109.8</ele>
        <time>2019-08-26T08:36:59.000Z</time>
      </trkpt>
      <trkpt lat="47.59644" lon="-2.2391">
        <ele>109.76</ele>
        <time>2019-08-26T08:37:00.000Z</time>
      </trkpt>
      <trkpt lat="47.59645" lon="-2.2391">
        <ele>109.58</ele>
        <time>2019-08-26T08:37:01.000Z</time>
      </trkpt>
      <trkpt lat="47.59647" lon="-2.2391">
        <ele>110.31</ele>
        <time>2019-08-26T08:37:02.000Z</time>
      </trkpt>
      <trkpt lat="47.59648" lon="-2.2391">
        <ele>109.99</ele>
        <time>2019-08-26T08:37:03.000Z</time>
      </trkpt>
      <trkpt lat="47.59649" lon="-2.2391">
        <ele>110.16</ele>
        <time>2019-08-26T08:37:04.000Z</time>
      </trkpt>
      <trkpt lat="47.5965" lon="-2.23909">
        <ele>110.13</ele>
        <time>2019-08-26T08:37:05.000Z</time>
      </trkpt>
      <trkpt lat="47.59651" lon="-2.23909">
        <ele>110.21</ele>
        <time>2019-08-26T08:37:06.000Z</time>
      </trkpt>
      <trkpt lat="47.59652" lon="-2.23909">
        <ele>110.14</ele>
        <time>2019-08-26T08:37:07.000Z</time>
      </trkpt>
      <trkpt lat="47.59653" lon="-2.23909">
        <ele>110</ele>
        <time>2019-08-26T08:37:08.000Z</time>
      </trkpt>
      <trkpt lat="47.59654" lon="-2.23908">
        <ele>110.12</ele>
        <time>2019-08-26T08:37:09.000Z</time>
      </trkpt>
      <trkpt lat="47.59655" lon="-2.23907">
        <ele>110.36</ele>
        <time>2019-08-26T08:37:10.000Z</time>
      </trkpt>
      <trkpt lat="47.59656" lon="-2.23906">
        <ele>110</ele>
        <time>2019-08-26T08:37:11.000Z</time>
      </trkpt>
      <trkpt lat="47.59657" lon="-2.23905">
        <ele>110.44</ele>
        <time>2019-08-26T08:37:12.000Z</time>
      </trkpt>
      <trkpt lat="47.59657" lon="-2.23904">
        <ele>110.03</ele>
        <time>2019-08-26T08:37:16.000Z</time>
      </trkpt>
      <trkpt lat="47.59657" lon="-2.23903">
        <ele>110.24</ele>
        <time>2019-08-26T08:37:23.000Z</time>
      </trkpt>
      <trkpt lat="47.59658" lon="-2.23901">
        <ele>109.47</ele>
        <time>2019-08-26T08:37:58.000Z</time>
      </trkpt>
      <trkpt lat="47.59658" lon="-2.239">
        <ele>109.8</ele>
        <time>2019-08-26T08:37:59.000Z</time>
      </trkpt>
      <trkpt lat="47.59659" lon="-2.23898">
        <ele>109.05</ele>
        <time>2019-08-26T08:38:00.000Z</time>
      </trkpt>
      <trkpt lat="47.59659" lon="-2.23896">
        <ele>108.24</ele>
        <time>2019-08-26T08:38:01.000Z</time>
      </trkpt>
      <trkpt lat="47.59659" lon="-2.23895">
        <ele>108.14</ele>
        <time>2019-08-26T08:38:02.000Z</time>
      </trkpt>
      <trkpt lat="47.59659" lon="-2.23893">
        <ele>108.61</ele>
        <time>2019-08-26T08:38:03.000Z</time>
      </trkpt>
      <trkpt lat="47.59659" lon="-2.23892">
        <ele>109.53</ele>
        <time>2019-08-26T08:38:04.000Z</time>
      </trkpt>
      <trkpt lat="47.5966" lon="-2.2389">
        <ele>107.35</ele>
        <time>2019-08-26T08:38:06.000Z</time>
      </trkpt>
      <trkpt lat="47.59659" lon="-2.23889">
        <ele>106.03</ele>
        <time>2019-08-26T08:38:12.000Z</time>
      </trkpt>
      <trkpt lat="47.5966" lon="-2.23886">
        <ele>107.67</ele>
        <time>2019-08-26T08:38:14.000Z</time>
      </trkpt>
      <trkpt lat="47.5966" lon="-2.23884">
        <ele>107.79</ele>
        <time>2019-08-26T08:38:15.000Z</time>
      </trkpt>
      <trkpt lat="47.5966" lon="-2.23883">
        <ele>107.07</ele>
        <time>2019-08-26T08:38:16.000Z</time>
      </trkpt>
      <trkpt lat="47.5966" lon="-2.23881">
        <ele>106.4</ele>
        <time>2019-08-26T08:38:17.000Z</time>
      </trkpt>
      <trkpt lat="47.59659" lon="-2.23879">
        <ele>106.7</ele>
        <time>2019-08-26T08:38:19.000Z</time>
      </trkpt>
      <trkpt lat="47.59659" lon="-2.23877">
        <ele>106.32</ele>
        <time>2019-08-26T08:38:21.000Z</time>
      </trkpt>
      <trkpt lat="47.59659" lon="-2.23875">
        <ele>106.33</ele>
        <time>2019-08-26T08:38:23.000Z</time>
      </trkpt>
      <trkpt lat="47.59659" lon="-2.23873">
        <ele>106.41</ele>
        <time>2019-08-26T08:38:24.000Z</time>
      </trkpt>
      <trkpt lat="47.59659" lon="-2.23872">
        <ele>106.07</ele>
        <time>2019-08-26T08:38:25.000Z</time>
      </trkpt>
      <trkpt lat="47.59658" lon="-2.2387">
        <ele>106.3</ele>
        <time>2019-08-26T08:38:26.000Z</time>
      </trkpt>
      <trkpt lat="47.59658" lon="-2.23869">
        <ele>106.63</ele>
        <time>2019-08-26T08:38:27.000Z</time>
      </trkpt>
      <trkpt lat="47.59658" lon="-2.23867">
        <ele>106.81</ele>
        <time>2019-08-26T08:38:28.000Z</time>
      </trkpt>
      <trkpt lat="47.59657" lon="-2.23866">
        <ele>106.65</ele>
        <time>2019-08-26T08:38:29.000Z</time>
      </trkpt>
      <trkpt lat="47.59657" lon="-2.23864">
        <ele>106.49</ele>
        <time>2019-08-26T08:38:30.000Z</time>
      </trkpt>
      <trkpt lat="47.59657" lon="-2.23862">
        <ele>107.08</ele>
        <time>2019-08-26T08:38:31.000Z</time>
      </trkpt>
      <trkpt lat="47.59657" lon="-2.23861">
        <ele>107.34</ele>
        <time>2019-08-26T08:38:32.000Z</time>
      </trkpt>
      <trkpt lat="47.59657" lon="-2.23859">
        <ele>107.76</ele>
        <time>2019-08-26T08:38:33.000Z</time>
      </trkpt>
      <trkpt lat="47.59657" lon="-2.23858">
        <ele>106.96</ele>
        <time>2019-08-26T08:38:34.000Z</time>
      </trkpt>
      <trkpt lat="47.59656" lon="-2.23856">
        <ele>107.3</ele>
        <time>2019-08-26T08:38:35.000Z</time>
      </trkpt>
      <trkpt lat="47.59656" lon="-2.23855">
        <ele>107.81</ele>
        <time>2019-08-26T08:38:36.000Z</time>
      </trkpt>
      <trkpt lat="47.59656" lon="-2.23853">
        <ele>108.13</ele>
        <time>2019-08-26T08:38:37.000Z</time>
      </trkpt>
      <trkpt lat="47.59655" lon="-2.23852">
        <ele>108.63</ele>
        <time>2019-08-26T08:38:38.000Z</time>
      </trkpt>
      <trkpt lat="47.59655" lon="-2.2385">
        <ele>108.49</ele>
        <time>2019-08-26T08:38:39.000Z</time>
      </trkpt>
      <trkpt lat="47.59654" lon="-2.23849">
        <ele>108.32</ele>
        <time>2019-08-26T08:38:40.000Z</time>
      </trkpt>
      <trkpt lat="47.59654" lon="-2.23847">
        <ele>108.15</ele>
        <time>2019-08-26T08:38:41.000Z</time>
      </trkpt>
      <trkpt lat="47.59653" lon="-2.23845">
        <ele>108.27</ele>
        <time>2019-08-26T08:38:42.000Z</time>
      </trkpt>
      <trkpt lat="47.59652" lon="-2.23844">
        <ele>108.15</ele>
        <time>2019-08-26T08:38:43.000Z</time>
      </trkpt>
      <trkpt lat="47.59652" lon="-2.23842">
        <ele>108.06</ele>
        <time>2019-08-26T08:38:44.000Z</time>
      </trkpt>
      <trkpt lat="47.59651" lon="-2.2384">
        <ele>107.67</ele>
        <time>2019-08-26T08:38:45.000Z</time>
      </trkpt>
      <trkpt lat="47.59651" lon="-2.23838">
        <ele>108.28</ele>
        <time>2019-08-26T08:38:46.000Z</time>
      </trkpt>
      <trkpt lat="47.5965" lon="-2.23837">
        <ele>108.26</ele>
        <time>2019-08-26T08:38:47.000Z</time>
      </trkpt>
      <trkpt lat="47.5965" lon="-2.23835">
        <ele>108.03</ele>
        <time>2019-08-26T08:38:48.000Z</time>
      </trkpt>
      <trkpt lat="47.59649" lon="-2.23834">
        <ele>107.58</ele>
        <time>2019-08-26T08:38:49.000Z</time>
      </trkpt>
      <trkpt lat="47.59649" lon="-2.23832">
        <ele>107.46</ele>
        <time>2019-08-26T08:38:50.000Z</time>
      </trkpt>
      <trkpt lat="47.59648" lon="-2.23831">
        <ele>107.78</ele>
        <time>2019-08-26T08:38:51.000Z</time>
      </trkpt>
      <trkpt lat="47.59647" lon="-2.23829">
        <ele>108.22</ele>
        <time>2019-08-26T08:38:52.000Z</time>
      </trkpt>
      <trkpt lat="47.59646" lon="-2.23828">
        <ele>107.66</ele>
        <time>2019-08-26T08:38:53.000Z</time>
      </trkpt>
      <trkpt lat="47.59646" lon="-2.23827">
        <ele>107.83</ele>
        <time>2019-08-26T08:38:54.000Z</time>
      </trkpt>
      <trkpt lat="47.59645" lon="-2.23825">
        <ele>107.58</ele>
        <time>2019-08-26T08:38:55.000Z</time>
      </trkpt>
      <trkpt lat="47.59644" lon="-2.23823">
        <ele>106.88</ele>
        <time>2019-08-26T08:38:56.000Z</time>
      </trkpt>
      <trkpt lat="47.59644" lon="-2.23822">
        <ele>107.12</ele>
        <time>2019-08-26T08:38:57.000Z</time>
      </trkpt>
      <trkpt lat="47.59643" lon="-2.2382">
        <ele>107.11</ele>
        <time>2019-08-26T08:38:58.000Z</time>
      </trkpt>
      <trkpt lat="47.59642" lon="-2.23819">
        <ele>106.42</ele>
        <time>2019-08-26T08:38:59.000Z</time>
      </trkpt>
      <trkpt lat="47.59642" lon="-2.23817">
        <ele>105.54</ele>
        <time>2019-08-26T08:39:00.000Z</time>
      </trkpt>
      <trkpt lat="47.59641" lon="-2.23816">
        <ele>105.73</ele>
        <time>2019-08-26T08:39:01.000Z</time>
      </trkpt>
      <trkpt lat="47.59641" lon="-2.23814">
        <ele>105.4</ele>
        <time>2019-08-26T08:39:02.000Z</time>
      </trkpt>
      <trkpt lat="47.5964" lon="-2.23813">
        <ele>105.48</ele>
        <time>2019-08-26T08:39:03.000Z</time>
      </trkpt>
      <trkpt lat="47.59639" lon="-2.23811">
        <ele>105.16</ele>
        <time>2019-08-26T08:39:04.000Z</time>
      </trkpt>
      <trkpt lat="47.59639" lon="-2.2381">
        <ele>103.88</ele>
        <time>2019-08-26T08:39:05.000Z</time>
      </trkpt>
      <trkpt lat="47.59639" lon="-2.23808">
        <ele>103.45</ele>
        <time>2019-08-26T08:39:06.000Z</time>
      </trkpt>
      <trkpt lat="47.59639" lon="-2.23806">
        <ele>103.42</ele>
        <time>2019-08-26T08:39:08.000Z</time>
      </trkpt>
      <trkpt lat="47.59639" lon="-2.23805">
        <ele>103.6</ele>
        <time>2019-08-26T08:39:09.000Z</time>
      </trkpt>
      <trkpt lat="47.59638" lon="-2.23803">
        <ele>103.66</ele>
        <time>2019-08-26T08:39:10.000Z</time>
      </trkpt>
      <trkpt lat="47.59637" lon="-2.23802">
        <ele>103.19</ele>
        <time>2019-08-26T08:39:11.000Z</time>
      </trkpt>
      <trkpt lat="47.59637" lon="-2.23801">
        <ele>103.9</ele>
        <time>2019-08-26T08:39:12.000Z</time>
      </trkpt>
      <trkpt lat="47.59636" lon="-2.23799">
        <ele>103.99</ele>
        <time>2019-08-26T08:39:13.000Z</time>
      </trkpt>
      <trkpt lat="47.59635" lon="-2.23798">
        <ele>103.62</ele>
        <time>2019-08-26T08:39:14.000Z</time>
      </trkpt>
      <trkpt lat="47.59635" lon="-2.23796">
        <ele>103.61</ele>
        <time>2019-08-26T08:39:15.000Z</time>
      </trkpt>
      <trkpt lat="47.59635" lon="-2.23795">
        <ele>103.53</ele>
        <time>2019-08-26T08:39:16.000Z</time>
      </trkpt>
      <trkpt lat="47.59635" lon="-2.23793">
        <ele>104.03</ele>
        <time>2019-08-26T08:39:17.000Z</time>
      </trkpt>
      <trkpt lat="47.59634" lon="-2.2379">
        <ele>101.89</ele>
        <time>2019-08-26T08:39:19.000Z</time>
      </trkpt>
      <trkpt lat="47.59634" lon="-2.23789">
        <ele>102.19</ele>
        <time>2019-08-26T08:39:20.000Z</time>
      </trkpt>
      <trkpt lat="47.59634" lon="-2.23787">
        <ele>102.63</ele>
        <time>2019-08-26T08:39:21.000Z</time>
      </trkpt>
      <trkpt lat="47.59633" lon="-2.23785">
        <ele>103.33</ele>
        <time>2019-08-26T08:39:23.000Z</time>
      </trkpt>
      <trkpt lat="47.59633" lon="-2.23784">
        <ele>106.72</ele>
        <time>2019-08-26T08:40:25.000Z</time>
      </trkpt>
      <trkpt lat="47.59633" lon="-2.23782">
        <ele>107.45</ele>
        <time>2019-08-26T08:41:01.000Z</time>
      </trkpt>
      <trkpt lat="47.59633" lon="-2.2378">
        <ele>106.42</ele>
        <time>2019-08-26T08:41:03.000Z</time>
      </trkpt>
      <trkpt lat="47.59633" lon="-2.23778">
        <ele>106.49</ele>
        <time>2019-08-26T08:41:04.000Z</time>
      </trkpt>
      <trkpt lat="47.59633" lon="-2.23777">
        <ele>105.76</ele>
        <time>2019-08-26T08:41:05.000Z</time>
      </trkpt>
      <trkpt lat="47.59633" lon="-2.23775">
        <ele>104.99</ele>
        <time>2019-08-26T08:41:06.000Z</time>
      </trkpt>
      <trkpt lat="47.59634" lon="-2.23773">
        <ele>104.55</ele>
        <time>2019-08-26T08:41:07.000Z</time>
      </trkpt>
      <trkpt lat="47.59634" lon="-2.23772">
        <ele>104.1</ele>
        <time>2019-08-26T08:41:08.000Z</time>
      </trkpt>
      <trkpt lat="47.59634" lon="-2.2377">
        <ele>104.02</ele>
        <time>2019-08-26T08:41:09.000Z</time>
      </trkpt>
      <trkpt lat="47.59635" lon="-2.23768">
        <ele>104.05</ele>
        <time>2019-08-26T08:41:10.000Z</time>
      </trkpt>
      <trkpt lat="47.59635" lon="-2.23766">
        <ele>103.89</ele>
        <time>2019-08-26T08:41:11.000Z</time>
      </trkpt>
      <trkpt lat="47.59635" lon="-2.23765">
        <ele>105.1</ele>
        <time>2019-08-26T08:41:12.000Z</time>
      </trkpt>
      <trkpt lat="47.59635" lon="-2.23763">
        <ele>105.08</ele>
        <time>2019-08-26T08:41:13.000Z</time>
      </trkpt>
      <trkpt lat="47.59635" lon="-2.23762">
        <ele>105</ele>
        <time>2019-08-26T08:41:14.000Z</time>
      </trkpt>
      <trkpt lat="47.59635" lon="-2.2376">
        <ele>103.87</ele>
        <time>2019-08-26T08:41:15.000Z</time>
      </trkpt>
      <trkpt lat="47.59635" lon="-2.23758">
        <ele>105.07</ele>
        <time>2019-08-26T08:41:16.000Z</time>
      </trkpt>
      <trkpt lat="47.59635" lon="-2.23757">
        <ele>104.9</ele>
        <time>2019-08-26T08:41:17.000Z</time>
      </trkpt>
      <trkpt lat="47.59635" lon="-2.23755">
        <ele>104.17</ele>
        <time>2019-08-26T08:41:18.000Z</time>
      </trkpt>
      <trkpt lat="47.59635" lon="-2.23753">
        <ele>104.03</ele>
        <time>2019-08-26T08:41:19.000Z</time>
      </trkpt>
      <trkpt lat="47.59635" lon="-2.23751">
        <ele>104.39</ele>
        <time>2019-08-26T08:41:20.000Z</time>
      </trkpt>
      <trkpt lat="47.59635" lon="-2.2375">
        <ele>104.63</ele>
        <time>2019-08-26T08:41:21.000Z</time>
      </trkpt>
      <trkpt lat="47.59635" lon="-2.23748">
        <ele>104.24</ele>
        <time>2019-08-26T08:41:22.000Z</time>
      </trkpt>
      <trkpt lat="47.59636" lon="-2.23746">
        <ele>104.35</ele>
        <time>2019-08-26T08:41:23.000Z</time>
      </trkpt>
      <trkpt lat="47.59636" lon="-2.23744">
        <ele>104.23</ele>
        <time>2019-08-26T08:41:24.000Z</time>
      </trkpt>
      <trkpt lat="47.59636" lon="-2.23743">
        <ele>103.73</ele>
        <time>2019-08-26T08:41:25.000Z</time>
      </trkpt>
      <trkpt lat="47.59636" lon="-2.23741">
        <ele>103.58</ele>
        <time>2019-08-26T08:41:26.000Z</time>
      </trkpt>
      <trkpt lat="47.59636" lon="-2.23739">
        <ele>103.3</ele>
        <time>2019-08-26T08:41:27.000Z</time>
      </trkpt>
      <trkpt lat="47.59636" lon="-2.23737">
        <ele>103.35</ele>
        <time>2019-08-26T08:41:29.000Z</time>
      </trkpt>
      <trkpt lat="47.59636" lon="-2.23734">
        <ele>103.06</ele>
        <time>2019-08-26T08:41:31.000Z</time>
      </trkpt>
      <trkpt lat="47.59636" lon="-2.23733">
        <ele>103.06</ele>
        <time>2019-08-26T08:41:32.000Z</time>
      </trkpt>
      <trkpt lat="47.59637" lon="-2.23731">
        <ele>101.78</ele>
        <time>2019-08-26T08:41:33.000Z</time>
      </trkpt>
      <trkpt lat="47.59637" lon="-2.23729">
        <ele>102.22</ele>
        <time>2019-08-26T08:41:34.000Z</time>
      </trkpt>
      <trkpt lat="47.59638" lon="-2.23729">
        <ele>102.72</ele>
        <time>2019-08-26T08:41:36.000Z</time>
      </trkpt>
      <trkpt lat="47.59638" lon="-2.23726">
        <ele>103.63</ele>
        <time>2019-08-26T08:41:47.000Z</time>
      </trkpt>
      <trkpt lat="47.59638" lon="-2.23724">
        <ele>103.22</ele>
        <time>2019-08-26T08:41:48.000Z</time>
      </trkpt>
      <trkpt lat="47.59636" lon="-2.23721">
        <ele>101.96</ele>
        <time>2019-08-26T08:41:49.000Z</time>
      </trkpt>
      <trkpt lat="47.59636" lon="-2.23719">
        <ele>101.1</ele>
        <time>2019-08-26T08:41:50.000Z</time>
      </trkpt>
      <trkpt lat="47.59635" lon="-2.23718">
        <ele>100.32</ele>
        <time>2019-08-26T08:41:51.000Z</time>
      </trkpt>
      <trkpt lat="47.59635" lon="-2.23716">
        <ele>101.23</ele>
        <time>2019-08-26T08:41:52.000Z</time>
      </trkpt>
      <trkpt lat="47.59635" lon="-2.23714">
        <ele>101.19</ele>
        <time>2019-08-26T08:41:53.000Z</time>
      </trkpt>
      <trkpt lat="47.59635" lon="-2.23713">
        <ele>101.96</ele>
        <time>2019-08-26T08:41:54.000Z</time>
      </trkpt>
      <trkpt lat="47.59634" lon="-2.23711">
        <ele>101.04</ele>
        <time>2019-08-26T08:41:55.000Z</time>
      </trkpt>
      <trkpt lat="47.59635" lon="-2.2371">
        <ele>100.87</ele>
        <time>2019-08-26T08:41:56.000Z</time>
      </trkpt>
      <trkpt lat="47.59635" lon="-2.23708">
        <ele>100.97</ele>
        <time>2019-08-26T08:41:57.000Z</time>
      </trkpt>
      <trkpt lat="47.59636" lon="-2.23707">
        <ele>100.11</ele>
        <time>2019-08-26T08:41:58.000Z</time>
      </trkpt>
      <trkpt lat="47.59636" lon="-2.23705">
        <ele>100.04</ele>
        <time>2019-08-26T08:41:59.000Z</time>
      </trkpt>
      <trkpt lat="47.59636" lon="-2.23704">
        <ele>99.97</ele>
        <time>2019-08-26T08:42:00.000Z</time>
      </trkpt>
      <trkpt lat="47.59636" lon="-2.23702">
        <ele>99.47</ele>
        <time>2019-08-26T08:42:01.000Z</time>
      </trkpt>
      <trkpt lat="47.59635" lon="-2.237">
        <ele>99.05</ele>
        <time>2019-08-26T08:42:02.000Z</time>
      </trkpt>
      <trkpt lat="47.59635" lon="-2.23699">
        <ele>99.14</ele>
        <time>2019-08-26T08:42:03.000Z</time>
      </trkpt>
      <trkpt lat="47.59635" lon="-2.23697">
        <ele>98.94</ele>
        <time>2019-08-26T08:42:04.000Z</time>
      </trkpt>
      <trkpt lat="47.59635" lon="-2.23695">
        <ele>98.73</ele>
        <time>2019-08-26T08:42:05.000Z</time>
      </trkpt>
      <trkpt lat="47.59634" lon="-2.23693">
        <ele>97.96</ele>
        <time>2019-08-26T08:42:06.000Z</time>
      </trkpt>
      <trkpt lat="47.59634" lon="-2.23692">
        <ele>98.53</ele>
        <time>2019-08-26T08:42:07.000Z</time>
      </trkpt>
      <trkpt lat="47.59633" lon="-2.2369">
        <ele>97.61</ele>
        <time>2019-08-26T08:42:08.000Z</time>
      </trkpt>
      <trkpt lat="47.59633" lon="-2.23689">
        <ele>97.36</ele>
        <time>2019-08-26T08:42:09.000Z</time>
      </trkpt>
      <trkpt lat="47.59633" lon="-2.23687">
        <ele>97.55</ele>
        <time>2019-08-26T08:42:10.000Z</time>
      </trkpt>
      <trkpt lat="47.59633" lon="-2.23685">
        <ele>97.5</ele>
        <time>2019-08-26T08:42:11.000Z</time>
      </trkpt>
      <trkpt lat="47.59632" lon="-2.23684">
        <ele>97.95</ele>
        <time>2019-08-26T08:42:12.000Z</time>
      </trkpt>
      <trkpt lat="47.59632" lon="-2.23682">
        <ele>98.28</ele>
        <time>2019-08-26T08:42:13.000Z</time>
      </trkpt>
      <trkpt lat="47.59632" lon="-2.23681">
        <ele>98.69</ele>
        <time>2019-08-26T08:42:14.000Z</time>
      </trkpt>
      <trkpt lat="47.59632" lon="-2.23679">
        <ele>99.69</ele>
        <time>2019-08-26T08:42:15.000Z</time>
      </trkpt>
      <trkpt lat="47.59632" lon="-2.23677">
        <ele>100.3</ele>
        <time>2019-08-26T08:42:16.000Z</time>
      </trkpt>
      <trkpt lat="47.59632" lon="-2.23675">
        <ele>100.01</ele>
        <time>2019-08-26T08:42:17.000Z</time>
      </trkpt>
      <trkpt lat="47.59631" lon="-2.23674">
        <ele>100.51</ele>
        <time>2019-08-26T08:42:18.000Z</time>
      </trkpt>
      <trkpt lat="47.59631" lon="-2.23672">
        <ele>100.26</ele>
        <time>2019-08-26T08:42:19.000Z</time>
      </trkpt>
      <trkpt lat="47.59631" lon="-2.2367">
        <ele>100.49</ele>
        <time>2019-08-26T08:42:20.000Z</time>
      </trkpt>
      <trkpt lat="47.59631" lon="-2.23669">
        <ele>100.39</ele>
        <time>2019-08-26T08:42:21.000Z</time>
      </trkpt>
      <trkpt lat="47.5963" lon="-2.23667">
        <ele>101.26</ele>
        <time>2019-08-26T08:42:22.000Z</time>
      </trkpt>
      <trkpt lat="47.5963" lon="-2.23665">
        <ele>101.4</ele>
        <time>2019-08-26T08:42:23.000Z</time>
      </trkpt>
      <trkpt lat="47.5963" lon="-2.23664">
        <ele>100.76</ele>
        <time>2019-08-26T08:42:24.000Z</time>
      </trkpt>
      <trkpt lat="47.5963" lon="-2.23662">
        <ele>101.51</ele>
        <time>2019-08-26T08:42:25.000Z</time>
      </trkpt>
      <trkpt lat="47.5963" lon="-2.2366">
        <ele>101.33</ele>
        <time>2019-08-26T08:42:26.000Z</time>
      </trkpt>
      <trkpt lat="47.5963" lon="-2.23658">
        <ele>101.66</ele>
        <time>2019-08-26T08:42:27.000Z</time>
      </trkpt>
      <trkpt lat="47.59629" lon="-2.23656">
        <ele>102.12</ele>
        <time>2019-08-26T08:42:28.000Z</time>
      </trkpt>
      <trkpt lat="47.59629" lon="-2.23655">
        <ele>102.45</ele>
        <time>2019-08-26T08:42:29.000Z</time>
      </trkpt>
      <trkpt lat="47.59629" lon="-2.23653">
        <ele>102.64</ele>
        <time>2019-08-26T08:42:30.000Z</time>
      </trkpt>
      <trkpt lat="47.59628" lon="-2.23651">
        <ele>102.03</ele>
        <time>2019-08-26T08:42:31.000Z</time>
      </trkpt>
      <trkpt lat="47.59628" lon="-2.2365">
        <ele>101.77</ele>
        <time>2019-08-26T08:42:32.000Z</time>
      </trkpt>
      <trkpt lat="47.59626" lon="-2.23648">
        <ele>102.11</ele>
        <time>2019-08-26T08:42:33.000Z</time>
      </trkpt>
      <trkpt lat="47.59626" lon="-2.23647">
        <ele>101.93</ele>
        <time>2019-08-26T08:42:34.000Z</time>
      </trkpt>
      <trkpt lat="47.59625" lon="-2.23647">
        <ele>101.74</ele>
        <time>2019-08-26T08:42:35.000Z</time>
      </trkpt>
      <trkpt lat="47.59623" lon="-2.23646">
        <ele>101.75</ele>
        <time>2019-08-26T08:42:36.000Z</time>
      </trkpt>
      <trkpt lat="47.59622" lon="-2.23645">
        <ele>101.51</ele>
        <time>2019-08-26T08:42:37.000Z</time>
      </trkpt>
      <trkpt lat="47.59621" lon="-2.23645">
        <ele>101.29</ele>
        <time>2019-08-26T08:42:38.000Z</time>
      </trkpt>
      <trkpt lat="47.5962" lon="-2.23644">
        <ele>100.43</ele>
        <time>2019-08-26T08:42:44.000Z</time>
      </trkpt>
      <trkpt lat="47.59618" lon="-2.23644">
        <ele>98.92</ele>
        <time>2019-08-26T08:42:54.000Z</time>
      </trkpt>
      <trkpt lat="47.59617" lon="-2.23644">
        <ele>98.9</ele>
        <time>2019-08-26T08:42:55.000Z</time>
      </trkpt>
      <trkpt lat="47.59617" lon="-2.23644">
        <ele>99.25</ele>
        <time>2019-08-26T08:42:56.000Z</time>
      </trkpt>
      <trkpt lat="47.59615" lon="-2.23644">
        <ele>99.34</ele>
        <time>2019-08-26T08:42:57.000Z</time>
      </trkpt>
      <trkpt lat="47.59614" lon="-2.23644">
        <ele>99.55</ele>
        <time>2019-08-26T08:42:58.000Z</time>
      </trkpt>
      <trkpt lat="47.59613" lon="-2.23645">
        <ele>99.75</ele>
        <time>2019-08-26T08:42:59.000Z</time>
      </trkpt>
      <trkpt lat="47.59612" lon="-2.23645">
        <ele>99.28</ele>
        <time>2019-08-26T08:43:00.000Z</time>
      </trkpt>
      <trkpt lat="47.5961" lon="-2.23645">
        <ele>98.94</ele>
        <time>2019-08-26T08:43:01.000Z</time>
      </trkpt>
      <trkpt lat="47.59609" lon="-2.23646">
        <ele>98.88</ele>
        <time>2019-08-26T08:43:02.000Z</time>
      </trkpt>
      <trkpt lat="47.59608" lon="-2.23646">
        <ele>98.65</ele>
        <time>2019-08-26T08:43:03.000Z</time>
      </trkpt>
      <trkpt lat="47.59607" lon="-2.23646">
        <ele>98.61</ele>
        <time>2019-08-26T08:43:04.000Z</time>
      </trkpt>
      <trkpt lat="47.59605" lon="-2.23646">
        <ele>97.44</ele>
        <time>2019-08-26T08:43:05.000Z</time>
      </trkpt>
      <trkpt lat="47.59604" lon="-2.23647">
        <ele>97.05</ele>
        <time>2019-08-26T08:43:06.000Z</time>
      </trkpt>
      <trkpt lat="47.59603" lon="-2.23647">
        <ele>97.98</ele>
        <time>2019-08-26T08:43:07.000Z</time>
      </trkpt>
      <trkpt lat="47.59602" lon="-2.23648">
        <ele>97.82</ele>
        <time>2019-08-26T08:43:08.000Z</time>
      </trkpt>
      <trkpt lat="47.596" lon="-2.23648">
        <ele>97.72</ele>
        <time>2019-08-26T08:43:09.000Z</time>
      </trkpt>
      <trkpt lat="47.59599" lon="-2.23649">
        <ele>97.67</ele>
        <time>2019-08-26T08:43:10.000Z</time>
      </trkpt>
      <trkpt lat="47.59598" lon="-2.23649">
        <ele>97.64</ele>
        <time>2019-08-26T08:43:11.000Z</time>
      </trkpt>
      <trkpt lat="47.59597" lon="-2.23649">
        <ele>96.66</ele>
        <time>2019-08-26T08:43:12.000Z</time>
      </trkpt>
      <trkpt lat="47.59596" lon="-2.23649">
        <ele>95.88</ele>
        <time>2019-08-26T08:43:13.000Z</time>
      </trkpt>
      <trkpt lat="47.59595" lon="-2.2365">
        <ele>94.34</ele>
        <time>2019-08-26T08:43:14.000Z</time>
      </trkpt>
      <trkpt lat="47.59594" lon="-2.2365">
        <ele>94.36</ele>
        <time>2019-08-26T08:43:15.000Z</time>
      </trkpt>
      <trkpt lat="47.59592" lon="-2.2365">
        <ele>94.08</ele>
        <time>2019-08-26T08:43:16.000Z</time>
      </trkpt>
      <trkpt lat="47.59591" lon="-2.2365">
        <ele>94.24</ele>
        <time>2019-08-26T08:43:17.000Z</time>
      </trkpt>
      <trkpt lat="47.5959" lon="-2.23651">
        <ele>93.63</ele>
        <time>2019-08-26T08:43:18.000Z</time>
      </trkpt>
      <trkpt lat="47.59589" lon="-2.23651">
        <ele>93.72</ele>
        <time>2019-08-26T08:43:19.000Z</time>
      </trkpt>
      <trkpt lat="47.59587" lon="-2.23651">
        <ele>94.09</ele>
        <time>2019-08-26T08:43:20.000Z</time>
      </trkpt>
      <trkpt lat="47.59586" lon="-2.23651">
        <ele>93.56</ele>
        <time>2019-08-26T08:43:21.000Z</time>
      </trkpt>
      <trkpt lat="47.59585" lon="-2.23651">
        <ele>93.12</ele>
        <time>2019-08-26T08:43:22.000Z</time>
      </trkpt>
      <trkpt lat="47.59584" lon="-2.23651">
        <ele>92.47</ele>
        <time>2019-08-26T08:43:23.000Z</time>
      </trkpt>
      <trkpt lat="47.59583" lon="-2.23651">
        <ele>92.14</ele>
        <time>2019-08-26T08:43:24.000Z</time>
      </trkpt>
      <trkpt lat="47.59581" lon="-2.23652">
        <ele>91.7</ele>
        <time>2019-08-26T08:43:25.000Z</time>
      </trkpt>
      <trkpt lat="47.5958" lon="-2.23652">
        <ele>91.07</ele>
        <time>2019-08-26T08:43:26.000Z</time>
      </trkpt>
      <trkpt lat="47.59579" lon="-2.23651">
        <ele>91.79</ele>
        <time>2019-08-26T08:43:27.000Z</time>
      </trkpt>
      <trkpt lat="47.59578" lon="-2.23651">
        <ele>91.98</ele>
        <time>2019-08-26T08:43:28.000Z</time>
      </trkpt>
      <trkpt lat="47.59577" lon="-2.23651">
        <ele>91.44</ele>
        <time>2019-08-26T08:43:29.000Z</time>
      </trkpt>
      <trkpt lat="47.59575" lon="-2.23651">
        <ele>91.99</ele>
        <time>2019-08-26T08:43:31.000Z</time>
      </trkpt>
      <trkpt lat="47.59574" lon="-2.23651">
        <ele>92.15</ele>
        <time>2019-08-26T08:43:32.000Z</time>
      </trkpt>
      <trkpt lat="47.59573" lon="-2.23651">
        <ele>92.36</ele>
        <time>2019-08-26T08:43:33.000Z</time>
      </trkpt>
      <trkpt lat="47.59572" lon="-2.23651">
        <ele>91.96</ele>
        <time>2019-08-26T08:43:34.000Z</time>
      </trkpt>
      <trkpt lat="47.5957" lon="-2.23651">
        <ele>91.42</ele>
        <time>2019-08-26T08:43:35.000Z</time>
      </trkpt>
      <trkpt lat="47.59569" lon="-2.23651">
        <ele>91.66</ele>
        <time>2019-08-26T08:43:36.000Z</time>
      </trkpt>
      <trkpt lat="47.59568" lon="-2.23651">
        <ele>91</ele>
        <time>2019-08-26T08:43:37.000Z</time>
      </trkpt>
      <trkpt lat="47.59567" lon="-2.23652">
        <ele>90.31</ele>
        <time>2019-08-26T08:43:38.000Z</time>
      </trkpt>
      <trkpt lat="47.59565" lon="-2.23652">
        <ele>89.83</ele>
        <time>2019-08-26T08:43:39.000Z</time>
      </trkpt>
      <trkpt lat="47.59564" lon="-2.23652">
        <ele>90.01</ele>
        <time>2019-08-26T08:43:40.000Z</time>
      </trkpt>
      <trkpt lat="47.59562" lon="-2.23652">
        <ele>89.4</ele>
        <time>2019-08-26T08:43:42.000Z</time>
      </trkpt>
      <trkpt lat="47.59561" lon="-2.23652">
        <ele>89.74</ele>
        <time>2019-08-26T08:43:44.000Z</time>
      </trkpt>
      <trkpt lat="47.5956" lon="-2.23652">
        <ele>89.17</ele>
        <time>2019-08-26T08:43:45.000Z</time>
      </trkpt>
      <trkpt lat="47.59559" lon="-2.23651">
        <ele>88.79</ele>
        <time>2019-08-26T08:43:46.000Z</time>
      </trkpt>
      <trkpt lat="47.59557" lon="-2.23651">
        <ele>89.15</ele>
        <time>2019-08-26T08:43:47.000Z</time>
      </trkpt>
      <trkpt lat="47.59556" lon="-2.2365">
        <ele>89.12</ele>
        <time>2019-08-26T08:43:48.000Z</time>
      </trkpt>
      <trkpt lat="47.59555" lon="-2.2365">
        <ele>89.29</ele>
        <time>2019-08-26T08:43:49.000Z</time>
      </trkpt>
      <trkpt lat="47.59554" lon="-2.23649">
        <ele>89.61</ele>
        <time>2019-08-26T08:43:50.000Z</time>
      </trkpt>
      <trkpt lat="47.59554" lon="-2.23648">
        <ele>89.69</ele>
        <time>2019-08-26T08:43:51.000Z</time>
      </trkpt>
      <trkpt lat="47.59552" lon="-2.23647">
        <ele>89.84</ele>
        <time>2019-08-26T08:43:52.000Z</time>
      </trkpt>
      <trkpt lat="47.59552" lon="-2.23646">
        <ele>89.98</ele>
        <time>2019-08-26T08:43:53.000Z</time>
      </trkpt>
      <trkpt lat="47.59551" lon="-2.23645">
        <ele>90.03</ele>
        <time>2019-08-26T08:43:54.000Z</time>
      </trkpt>
      <trkpt lat="47.59549" lon="-2.23644">
        <ele>90.23</ele>
        <time>2019-08-26T08:43:55.000Z</time>
      </trkpt>
      <trkpt lat="47.59548" lon="-2.23643">
        <ele>89.96</ele>
        <time>2019-08-26T08:43:56.000Z</time>
      </trkpt>
      <trkpt lat="47.59547" lon="-2.23642">
        <ele>89.21</ele>
        <time>2019-08-26T08:43:57.000Z</time>
      </trkpt>
      <trkpt lat="47.59546" lon="-2.23641">
        <ele>88.61</ele>
        <time>2019-08-26T08:43:58.000Z</time>
      </trkpt>
      <trkpt lat="47.59545" lon="-2.23639">
        <ele>88.37</ele>
        <time>2019-08-26T08:43:59.000Z</time>
      </trkpt>
      <trkpt lat="47.59544" lon="-2.23637">
        <ele>88.24</ele>
        <time>2019-08-26T08:44:00.000Z</time>
      </trkpt>
      <trkpt lat="47.59544" lon="-2.23636">
        <ele>87.5</ele>
        <time>2019-08-26T08:44:01.000Z</time>
      </trkpt>
      <trkpt lat="47.59543" lon="-2.23634">
        <ele>87.64</ele>
        <time>2019-08-26T08:44:02.000Z</time>
      </trkpt>
      <trkpt lat="47.59543" lon="-2.23632">
        <ele>87.01</ele>
        <time>2019-08-26T08:44:03.000Z</time>
      </trkpt>
      <trkpt lat="47.59542" lon="-2.2363">
        <ele>87.36</ele>
        <time>2019-08-26T08:44:04.000Z</time>
      </trkpt>
      <trkpt lat="47.59541" lon="-2.23629">
        <ele>87.57</ele>
        <time>2019-08-26T08:44:05.000Z</time>
      </trkpt>
      <trkpt lat="47.59541" lon="-2.23627">
        <ele>87.47</ele>
        <time>2019-08-26T08:44:06.000Z</time>
      </trkpt>
      <trkpt lat="47.5954" lon="-2.23626">
        <ele>87.67</ele>
        <time>2019-08-26T08:44:07.000Z</time>
      </trkpt>
      <trkpt lat="47.59539" lon="-2.23625">
        <ele>88.48</ele>
        <time>2019-08-26T08:44:08.000Z</time>
      </trkpt>
      <trkpt lat="47.59539" lon="-2.23623">
        <ele>89</ele>
        <time>2019-08-26T08:44:09.000Z</time>
      </trkpt>
      <trkpt lat="47.59538" lon="-2.23622">
        <ele>89.24</ele>
        <time>2019-08-26T08:44:10.000Z</time>
      </trkpt>
      <trkpt lat="47.59538" lon="-2.23621">
        <ele>88.98</ele>
        <time>2019-08-26T08:44:11.000Z</time>
      </trkpt>
      <trkpt lat="47.59536" lon="-2.2362">
        <ele>88.86</ele>
        <time>2019-08-26T08:44:12.000Z</time>
      </trkpt>
      <trkpt lat="47.59536" lon="-2.23618">
        <ele>88.21</ele>
        <time>2019-08-26T08:44:13.000Z</time>
      </trkpt>
      <trkpt lat="47.59535" lon="-2.23617">
        <ele>87.88</ele>
        <time>2019-08-26T08:44:14.000Z</time>
      </trkpt>
      <trkpt lat="47.59534" lon="-2.23615">
        <ele>87.9</ele>
        <time>2019-08-26T08:44:15.000Z</time>
      </trkpt>
      <trkpt lat="47.59533" lon="-2.23614">
        <ele>87.97</ele>
        <time>2019-08-26T08:44:16.000Z</time>
      </trkpt>
      <trkpt lat="47.59532" lon="-2.23612">
        <ele>88.01</ele>
        <time>2019-08-26T08:44:17.000Z</time>
      </trkpt>
      <trkpt lat="47.59531" lon="-2.23611">
        <ele>87.54</ele>
        <time>2019-08-26T08:44:18.000Z</time>
      </trkpt>
      <trkpt lat="47.59531" lon="-2.23609">
        <ele>87.38</ele>
        <time>2019-08-26T08:44:19.000Z</time>
      </trkpt>
      <trkpt lat="47.5953" lon="-2.23608">
        <ele>86.97</ele>
        <time>2019-08-26T08:44:20.000Z</time>
      </trkpt>
      <trkpt lat="47.59529" lon="-2.23606">
        <ele>86.74</ele>
        <time>2019-08-26T08:44:21.000Z</time>
      </trkpt>
      <trkpt lat="47.59529" lon="-2.23604">
        <ele>87.15</ele>
        <time>2019-08-26T08:44:22.000Z</time>
      </trkpt>
      <trkpt lat="47.59528" lon="-2.23603">
        <ele>86.75</ele>
        <time>2019-08-26T08:44:23.000Z</time>
      </trkpt>
      <trkpt lat="47.59527" lon="-2.23601">
        <ele>86.51</ele>
        <time>2019-08-26T08:44:24.000Z</time>
      </trkpt>
      <trkpt lat="47.59527" lon="-2.23599">
        <ele>86.22</ele>
        <time>2019-08-26T08:44:25.000Z</time>
      </trkpt>
      <trkpt lat="47.59526" lon="-2.23598">
        <ele>86.26</ele>
        <time>2019-08-26T08:44:26.000Z</time>
      </trkpt>
      <trkpt lat="47.59526" lon="-2.23596">
        <ele>85.74</ele>
        <time>2019-08-26T08:44:27.000Z</time>
      </trkpt>
      <trkpt lat="47.59526" lon="-2.23594">
        <ele>86.01</ele>
        <time>2019-08-26T08:44:28.000Z</time>
      </trkpt>
      <trkpt lat="47.59526" lon="-2.23593">
        <ele>86.14</ele>
        <time>2019-08-26T08:44:29.000Z</time>
      </trkpt>
      <trkpt lat="47.59526" lon="-2.23591">
        <ele>85.82</ele>
        <time>2019-08-26T08:44:30.000Z</time>
      </trkpt>
      <trkpt lat="47.59526" lon="-2.2359">
        <ele>85.81</ele>
        <time>2019-08-26T08:44:31.000Z</time>
      </trkpt>
      <trkpt lat="47.59526" lon="-2.23588">
        <ele>85.94</ele>
        <time>2019-08-26T08:44:32.000Z</time>
      </trkpt>
      <trkpt lat="47.59526" lon="-2.23587">
        <ele>85.84</ele>
        <time>2019-08-26T08:44:33.000Z</time>
      </trkpt>
      <trkpt lat="47.59526" lon="-2.23585">
        <ele>86.41</ele>
        <time>2019-08-26T08:44:34.000Z</time>
      </trkpt>
      <trkpt lat="47.59526" lon="-2.23584">
        <ele>86.67</ele>
        <time>2019-08-26T08:44:35.000Z</time>
      </trkpt>
      <trkpt lat="47.59526" lon="-2.23582">
        <ele>86.31</ele>
        <time>2019-08-26T08:44:36.000Z</time>
      </trkpt>
      <trkpt lat="47.59527" lon="-2.2358">
        <ele>86.22</ele>
        <time>2019-08-26T08:44:37.000Z</time>
      </trkpt>
      <trkpt lat="47.59528" lon="-2.23579">
        <ele>86.05</ele>
        <time>2019-08-26T08:44:38.000Z</time>
      </trkpt>
      <trkpt lat="47.59528" lon="-2.23577">
        <ele>85.75</ele>
        <time>2019-08-26T08:44:39.000Z</time>
      </trkpt>
      <trkpt lat="47.59528" lon="-2.23575">
        <ele>85.47</ele>
        <time>2019-08-26T08:44:40.000Z</time>
      </trkpt>
      <trkpt lat="47.59528" lon="-2.23573">
        <ele>85.45</ele>
        <time>2019-08-26T08:44:41.000Z</time>
      </trkpt>
      <trkpt lat="47.59529" lon="-2.23571">
        <ele>84.6</ele>
        <time>2019-08-26T08:44:42.000Z</time>
      </trkpt>
      <trkpt lat="47.59529" lon="-2.2357">
        <ele>84.69</ele>
        <time>2019-08-26T08:44:43.000Z</time>
      </trkpt>
      <trkpt lat="47.59528" lon="-2.23569">
        <ele>84.03</ele>
        <time>2019-08-26T08:44:50.000Z</time>
      </trkpt>
      <trkpt lat="47.59528" lon="-2.23568">
        <ele>84.52</ele>
        <time>2019-08-26T08:45:17.000Z</time>
      </trkpt>
      <trkpt lat="47.59528" lon="-2.23565">
        <ele>83.72</ele>
        <time>2019-08-26T08:45:19.000Z</time>
      </trkpt>
      <trkpt lat="47.59528" lon="-2.23564">
        <ele>82.85</ele>
        <time>2019-08-26T08:45:20.000Z</time>
      </trkpt>
      <trkpt lat="47.59528" lon="-2.23562">
        <ele>82.82</ele>
        <time>2019-08-26T08:45:21.000Z</time>
      </trkpt>
      <trkpt lat="47.59528" lon="-2.2356">
        <ele>82.17</ele>
        <time>2019-08-26T08:45:22.000Z</time>
      </trkpt>
      <trkpt lat="47.59529" lon="-2.23558">
        <ele>82.26</ele>
        <time>2019-08-26T08:45:23.000Z</time>
      </trkpt>
      <trkpt lat="47.59529" lon="-2.23556">
        <ele>82.24</ele>
        <time>2019-08-26T08:45:24.000Z</time>
      </trkpt>
      <trkpt lat="47.59528" lon="-2.23555">
        <ele>82.45</ele>
        <time>2019-08-26T08:45:25.000Z</time>
      </trkpt>
      <trkpt lat="47.59528" lon="-2.23554">
        <ele>83.33</ele>
        <time>2019-08-26T08:45:26.000Z</time>
      </trkpt>
      <trkpt lat="47.59527" lon="-2.23553">
        <ele>84.02</ele>
        <time>2019-08-26T08:45:27.000Z</time>
      </trkpt>
      <trkpt lat="47.59525" lon="-2.23552">
        <ele>84.84</ele>
        <time>2019-08-26T08:45:29.000Z</time>
      </trkpt>
      <trkpt lat="47.59525" lon="-2.23552">
        <ele>85.65</ele>
        <time>2019-08-26T08:45:30.000Z</time>
      </trkpt>
      <trkpt lat="47.59523" lon="-2.23551">
        <ele>84.35</ele>
        <time>2019-08-26T08:45:32.000Z</time>
      </trkpt>
      <trkpt lat="47.59521" lon="-2.23551">
        <ele>84.12</ele>
        <time>2019-08-26T08:45:34.000Z</time>
      </trkpt>
      <trkpt lat="47.5952" lon="-2.23551">
        <ele>83.2</ele>
        <time>2019-08-26T08:45:35.000Z</time>
      </trkpt>
      <trkpt lat="47.59518" lon="-2.23552">
        <ele>82.66</ele>
        <time>2019-08-26T08:45:36.000Z</time>
      </trkpt>
      <trkpt lat="47.59517" lon="-2.23552">
        <ele>96.59</ele>
        <time>2019-08-26T08:45:37.000Z</time>
      </trkpt>
      <trkpt lat="47.59516" lon="-2.23552">
        <ele>92.93</ele>
        <time>2019-08-26T08:45:38.000Z</time>
      </trkpt>
      <trkpt lat="47.59515" lon="-2.23551">
        <ele>91.34</ele>
        <time>2019-08-26T08:45:39.000Z</time>
      </trkpt>
      <trkpt lat="47.59514" lon="-2.2355">
        <ele>88.52</ele>
        <time>2019-08-26T08:45:40.000Z</time>
      </trkpt>
      <trkpt lat="47.59513" lon="-2.23549">
        <ele>88.21</ele>
        <time>2019-08-26T08:45:41.000Z</time>
      </trkpt>
      <trkpt lat="47.59512" lon="-2.23548">
        <ele>86.32</ele>
        <time>2019-08-26T08:45:42.000Z</time>
      </trkpt>
      <trkpt lat="47.5951" lon="-2.23546">
        <ele>85.89</ele>
        <time>2019-08-26T08:45:43.000Z</time>
      </trkpt>
      <trkpt lat="47.5951" lon="-2.23545">
        <ele>83.71</ele>
        <time>2019-08-26T08:45:44.000Z</time>
      </trkpt>
      <trkpt lat="47.59509" lon="-2.23543">
        <ele>83.07</ele>
        <time>2019-08-26T08:45:45.000Z</time>
      </trkpt>
      <trkpt lat="47.59508" lon="-2.23542">
        <ele>82.82</ele>
        <time>2019-08-26T08:45:46.000Z</time>
      </trkpt>
      <trkpt lat="47.59507" lon="-2.23541">
        <ele>82.97</ele>
        <time>2019-08-26T08:45:47.000Z</time>
      </trkpt>
      <trkpt lat="47.59506" lon="-2.23539">
        <ele>83.12</ele>
        <time>2019-08-26T08:45:48.000Z</time>
      </trkpt>
      <trkpt lat="47.59505" lon="-2.23538">
        <ele>82.95</ele>
        <time>2019-08-26T08:45:49.000Z</time>
      </trkpt>
      <trkpt lat="47.59504" lon="-2.23537">
        <ele>82.92</ele>
        <time>2019-08-26T08:45:50.000Z</time>
      </trkpt>
      <trkpt lat="47.59504" lon="-2.23535">
        <ele>81.96</ele>
        <time>2019-08-26T08:45:51.000Z</time>
      </trkpt>
      <trkpt lat="47.59503" lon="-2.23534">
        <ele>81.6</ele>
        <time>2019-08-26T08:45:52.000Z</time>
      </trkpt>
      <trkpt lat="47.59503" lon="-2.23533">
        <ele>82.11</ele>
        <time>2019-08-26T08:45:53.000Z</time>
      </trkpt>
      <trkpt lat="47.59502" lon="-2.23532">
        <ele>82.25</ele>
        <time>2019-08-26T08:45:54.000Z</time>
      </trkpt>
      <trkpt lat="47.59501" lon="-2.23531">
        <ele>80.94</ele>
        <time>2019-08-26T08:45:55.000Z</time>
      </trkpt>
      <trkpt lat="47.59501" lon="-2.23529">
        <ele>82.7</ele>
        <time>2019-08-26T08:45:56.000Z</time>
      </trkpt>
      <trkpt lat="47.595" lon="-2.23527">
        <ele>83.51</ele>
        <time>2019-08-26T08:45:57.000Z</time>
      </trkpt>
      <trkpt lat="47.595" lon="-2.23525">
        <ele>84.01</ele>
        <time>2019-08-26T08:45:58.000Z</time>
      </trkpt>
      <trkpt lat="47.59499" lon="-2.23523">
        <ele>84.55</ele>
        <time>2019-08-26T08:45:59.000Z</time>
      </trkpt>
      <trkpt lat="47.59498" lon="-2.23522">
        <ele>84.07</ele>
        <time>2019-08-26T08:46:00.000Z</time>
      </trkpt>
      <trkpt lat="47.59498" lon="-2.2352">
        <ele>84.21</ele>
        <time>2019-08-26T08:46:01.000Z</time>
      </trkpt>
      <trkpt lat="47.59497" lon="-2.23519">
        <ele>84.54</ele>
        <time>2019-08-26T08:46:02.000Z</time>
      </trkpt>
      <trkpt lat="47.59496" lon="-2.23517">
        <ele>84.66</ele>
        <time>2019-08-26T08:46:03.000Z</time>
      </trkpt>
      <trkpt lat="47.59495" lon="-2.23515">
        <ele>84.91</ele>
        <time>2019-08-26T08:46:04.000Z</time>
      </trkpt>
      <trkpt lat="47.59494" lon="-2.23514">
        <ele>85.42</ele>
        <time>2019-08-26T08:46:05.000Z</time>
      </trkpt>
      <trkpt lat="47.59494" lon="-2.23512">
        <ele>85.8</ele>
        <time>2019-08-26T08:46:06.000Z</time>
      </trkpt>
      <trkpt lat="47.59493" lon="-2.23512">
        <ele>85.77</ele>
        <time>2019-08-26T08:46:07.000Z</time>
      </trkpt>
      <trkpt lat="47.59492" lon="-2.23511">
        <ele>85.94</ele>
        <time>2019-08-26T08:46:08.000Z</time>
      </trkpt>
      <trkpt lat="47.59491" lon="-2.2351">
        <ele>86.18</ele>
        <time>2019-08-26T08:46:09.000Z</time>
      </trkpt>
      <trkpt lat="47.59489" lon="-2.23509">
        <ele>86.68</ele>
        <time>2019-08-26T08:46:10.000Z</time>
      </trkpt>
      <trkpt lat="47.59488" lon="-2.23508">
        <ele>87.14</ele>
        <time>2019-08-26T08:46:11.000Z</time>
      </trkpt>
      <trkpt lat="47.59488" lon="-2.23507">
        <ele>86.67</ele>
        <time>2019-08-26T08:46:12.000Z</time>
      </trkpt>
      <trkpt lat="47.59486" lon="-2.23505">
        <ele>85.84</ele>
        <time>2019-08-26T08:46:13.000Z</time>
      </trkpt>
      <trkpt lat="47.59485" lon="-2.23504">
        <ele>85.68</ele>
        <time>2019-08-26T08:46:14.000Z</time>
      </trkpt>
      <trkpt lat="47.59484" lon="-2.23502">
        <ele>85.72</ele>
        <time>2019-08-26T08:46:15.000Z</time>
      </trkpt>
      <trkpt lat="47.59483" lon="-2.23501">
        <ele>85.76</ele>
        <time>2019-08-26T08:46:16.000Z</time>
      </trkpt>
      <trkpt lat="47.59482" lon="-2.235">
        <ele>85.38</ele>
        <time>2019-08-26T08:46:17.000Z</time>
      </trkpt>
      <trkpt lat="47.5948" lon="-2.23499">
        <ele>85.47</ele>
        <time>2019-08-26T08:46:18.000Z</time>
      </trkpt>
      <trkpt lat="47.59479" lon="-2.23499">
        <ele>82.91</ele>
        <time>2019-08-26T08:46:19.000Z</time>
      </trkpt>
      <trkpt lat="47.59478" lon="-2.23499">
        <ele>82.14</ele>
        <time>2019-08-26T08:46:20.000Z</time>
      </trkpt>
      <trkpt lat="47.59477" lon="-2.23499">
        <ele>81.68</ele>
        <time>2019-08-26T08:46:21.000Z</time>
      </trkpt>
      <trkpt lat="47.59476" lon="-2.23499">
        <ele>82.56</ele>
        <time>2019-08-26T08:46:22.000Z</time>
      </trkpt>
      <trkpt lat="47.59475" lon="-2.23498">
        <ele>81.56</ele>
        <time>2019-08-26T08:46:23.000Z</time>
      </trkpt>
      <trkpt lat="47.59474" lon="-2.23497">
        <ele>81.62</ele>
        <time>2019-08-26T08:46:24.000Z</time>
      </trkpt>
      <trkpt lat="47.59473" lon="-2.23496">
        <ele>81.53</ele>
        <time>2019-08-26T08:46:25.000Z</time>
      </trkpt>
      <trkpt lat="47.59472" lon="-2.23495">
        <ele>81.52</ele>
        <time>2019-08-26T08:46:26.000Z</time>
      </trkpt>
      <trkpt lat="47.59471" lon="-2.23494">
        <ele>82.36</ele>
        <time>2019-08-26T08:46:27.000Z</time>
      </trkpt>
      <trkpt lat="47.5947" lon="-2.23493">
        <ele>82.04</ele>
        <time>2019-08-26T08:46:28.000Z</time>
      </trkpt>
      <trkpt lat="47.59469" lon="-2.23492">
        <ele>81.6</ele>
        <time>2019-08-26T08:46:29.000Z</time>
      </trkpt>
      <trkpt lat="47.59468" lon="-2.23491">
        <ele>82.09</ele>
        <time>2019-08-26T08:46:30.000Z</time>
      </trkpt>
      <trkpt lat="47.59467" lon="-2.2349">
        <ele>82.21</ele>
        <time>2019-08-26T08:46:31.000Z</time>
      </trkpt>
      <trkpt lat="47.59466" lon="-2.23488">
        <ele>81.78</ele>
        <time>2019-08-26T08:46:32.000Z</time>
      </trkpt>
      <trkpt lat="47.59465" lon="-2.23487">
        <ele>81.36</ele>
        <time>2019-08-26T08:46:33.000Z</time>
      </trkpt>
      <trkpt lat="47.59464" lon="-2.23485">
        <ele>81.06</ele>
        <time>2019-08-26T08:46:34.000Z</time>
      </trkpt>
      <trkpt lat="47.59463" lon="-2.23483">
        <ele>81.81</ele>
        <time>2019-08-26T08:46:35.000Z</time>
      </trkpt>
      <trkpt lat="47.59462" lon="-2.23482">
        <ele>81.63</ele>
        <time>2019-08-26T08:46:36.000Z</time>
      </trkpt>
      <trkpt lat="47.59461" lon="-2.23481">
        <ele>82.31</ele>
        <time>2019-08-26T08:46:37.000Z</time>
      </trkpt>
      <trkpt lat="47.5946" lon="-2.23479">
        <ele>82.34</ele>
        <time>2019-08-26T08:46:38.000Z</time>
      </trkpt>
      <trkpt lat="47.59459" lon="-2.23478">
        <ele>81.69</ele>
        <time>2019-08-26T08:46:39.000Z</time>
      </trkpt>
      <trkpt lat="47.59458" lon="-2.23477">
        <ele>82.25</ele>
        <time>2019-08-26T08:46:40.000Z</time>
      </trkpt>
      <trkpt lat="47.59457" lon="-2.23475">
        <ele>82.99</ele>
        <time>2019-08-26T08:46:41.000Z</time>
      </trkpt>
      <trkpt lat="47.59456" lon="-2.23474">
        <ele>83.4</ele>
        <time>2019-08-26T08:46:42.000Z</time>
      </trkpt>
      <trkpt lat="47.59454" lon="-2.23473">
        <ele>83.39</ele>
        <time>2019-08-26T08:46:43.000Z</time>
      </trkpt>
      <trkpt lat="47.59453" lon="-2.23473">
        <ele>83.02</ele>
        <time>2019-08-26T08:46:44.000Z</time>
      </trkpt>
      <trkpt lat="47.59452" lon="-2.23472">
        <ele>82.45</ele>
        <time>2019-08-26T08:46:45.000Z</time>
      </trkpt>
      <trkpt lat="47.59451" lon="-2.23471">
        <ele>82.41</ele>
        <time>2019-08-26T08:46:46.000Z</time>
      </trkpt>
      <trkpt lat="47.5945" lon="-2.2347">
        <ele>81.61</ele>
        <time>2019-08-26T08:46:47.000Z</time>
      </trkpt>
      <trkpt lat="47.59449" lon="-2.23469">
        <ele>81.23</ele>
        <time>2019-08-26T08:46:48.000Z</time>
      </trkpt>
      <trkpt lat="47.59448" lon="-2.23469">
        <ele>81.54</ele>
        <time>2019-08-26T08:46:49.000Z</time>
      </trkpt>
      <trkpt lat="47.59446" lon="-2.23468">
        <ele>81.4</ele>
        <time>2019-08-26T08:46:50.000Z</time>
      </trkpt>
      <trkpt lat="47.59445" lon="-2.23468">
        <ele>80.57</ele>
        <time>2019-08-26T08:46:51.000Z</time>
      </trkpt>
      <trkpt lat="47.59444" lon="-2.23467">
        <ele>80.83</ele>
        <time>2019-08-26T08:46:52.000Z</time>
      </trkpt>
      <trkpt lat="47.59443" lon="-2.23467">
        <ele>80.87</ele>
        <time>2019-08-26T08:46:53.000Z</time>
      </trkpt>
      <trkpt lat="47.59442" lon="-2.23466">
        <ele>81.01</ele>
        <time>2019-08-26T08:46:54.000Z</time>
      </trkpt>
      <trkpt lat="47.59441" lon="-2.23465">
        <ele>81.03</ele>
        <time>2019-08-26T08:46:55.000Z</time>
      </trkpt>
      <trkpt lat="47.59441" lon="-2.23465">
        <ele>80.59</ele>
        <time>2019-08-26T08:46:56.000Z</time>
      </trkpt>
      <trkpt lat="47.5944" lon="-2.23464">
        <ele>80.97</ele>
        <time>2019-08-26T08:46:57.000Z</time>
      </trkpt>
      <trkpt lat="47.59439" lon="-2.23463">
        <ele>80.63</ele>
        <time>2019-08-26T08:46:58.000Z</time>
      </trkpt>
      <trkpt lat="47.59438" lon="-2.23463">
        <ele>80.58</ele>
        <time>2019-08-26T08:46:59.000Z</time>
      </trkpt>
      <trkpt lat="47.59436" lon="-2.23462">
        <ele>81.05</ele>
        <time>2019-08-26T08:47:00.000Z</time>
      </trkpt>
      <trkpt lat="47.59435" lon="-2.2346">
        <ele>80.37</ele>
        <time>2019-08-26T08:47:01.000Z</time>
      </trkpt>
      <trkpt lat="47.59434" lon="-2.23459">
        <ele>79.81</ele>
        <time>2019-08-26T08:47:02.000Z</time>
      </trkpt>
      <trkpt lat="47.59433" lon="-2.23458">
        <ele>78.99</ele>
        <time>2019-08-26T08:47:03.000Z</time>
      </trkpt>
      <trkpt lat="47.59432" lon="-2.23458">
        <ele>76.78</ele>
        <time>2019-08-26T08:47:04.000Z</time>
      </trkpt>
      <trkpt lat="47.59431" lon="-2.23457">
        <ele>76.23</ele>
        <time>2019-08-26T08:47:05.000Z</time>
      </trkpt>
      <trkpt lat="47.5943" lon="-2.23456">
        <ele>75.05</ele>
        <time>2019-08-26T08:47:06.000Z</time>
      </trkpt>
      <trkpt lat="47.59429" lon="-2.23456">
        <ele>74.38</ele>
        <time>2019-08-26T08:47:07.000Z</time>
      </trkpt>
      <trkpt lat="47.59428" lon="-2.23455">
        <ele>73.01</ele>
        <time>2019-08-26T08:47:08.000Z</time>
      </trkpt>
      <trkpt lat="47.59426" lon="-2.23455">
        <ele>73.08</ele>
        <time>2019-08-26T08:47:09.000Z</time>
      </trkpt>
      <trkpt lat="47.59425" lon="-2.23454">
        <ele>71.9</ele>
        <time>2019-08-26T08:47:10.000Z</time>
      </trkpt>
      <trkpt lat="47.59424" lon="-2.23453">
        <ele>71.07</ele>
        <time>2019-08-26T08:47:11.000Z</time>
      </trkpt>
      <trkpt lat="47.59423" lon="-2.23453">
        <ele>72.47</ele>
        <time>2019-08-26T08:47:15.000Z</time>
      </trkpt>
      <trkpt lat="47.59422" lon="-2.23452">
        <ele>72.12</ele>
        <time>2019-08-26T08:47:18.000Z</time>
      </trkpt>
      <trkpt lat="47.59421" lon="-2.23452">
        <ele>70.76</ele>
        <time>2019-08-26T08:47:24.000Z</time>
      </trkpt>
      <trkpt lat="47.59419" lon="-2.23452">
        <ele>70.35</ele>
        <time>2019-08-26T08:47:26.000Z</time>
      </trkpt>
      <trkpt lat="47.5942" lon="-2.23454">
        <ele>71.46</ele>
        <time>2019-08-26T08:47:28.000Z</time>
      </trkpt>
      <trkpt lat="47.59422" lon="-2.23455">
        <ele>71.74</ele>
        <time>2019-08-26T08:47:29.000Z</time>
      </trkpt>
      <trkpt lat="47.59423" lon="-2.23455">
        <ele>72.67</ele>
        <time>2019-08-26T08:47:30.000Z</time>
      </trkpt>
      <trkpt lat="47.59425" lon="-2.23456">
        <ele>72.78</ele>
        <time>2019-08-26T08:47:31.000Z</time>
      </trkpt>
      <trkpt lat="47.59426" lon="-2.23457">
        <ele>72.91</ele>
        <time>2019-08-26T08:47:32.000Z</time>
      </trkpt>
      <trkpt lat="47.59427" lon="-2.23457">
        <ele>72.62</ele>
        <time>2019-08-26T08:47:33.000Z</time>
      </trkpt>
      <trkpt lat="47.59428" lon="-2.23458">
        <ele>72.89</ele>
        <time>2019-08-26T08:47:34.000Z</time>
      </trkpt>
      <trkpt lat="47.59429" lon="-2.23459">
        <ele>72.46</ele>
        <time>2019-08-26T08:47:35.000Z</time>
      </trkpt>
      <trkpt lat="47.5943" lon="-2.2346">
        <ele>72.8</ele>
        <time>2019-08-26T08:47:36.000Z</time>
      </trkpt>
      <trkpt lat="47.59431" lon="-2.23462">
        <ele>72.45</ele>
        <time>2019-08-26T08:47:37.000Z</time>
      </trkpt>
      <trkpt lat="47.59432" lon="-2.23463">
        <ele>72.21</ele>
        <time>2019-08-26T08:47:38.000Z</time>
      </trkpt>
      <trkpt lat="47.59432" lon="-2.23464">
        <ele>71.89</ele>
        <time>2019-08-26T08:47:39.000Z</time>
      </trkpt>
      <trkpt lat="47.59433" lon="-2.23465">
        <ele>71.94</ele>
        <time>2019-08-26T08:47:40.000Z</time>
      </trkpt>
      <trkpt lat="47.59434" lon="-2.23467">
        <ele>72.27</ele>
        <time>2019-08-26T08:47:41.000Z</time>
      </trkpt>
      <trkpt lat="47.59435" lon="-2.23468">
        <ele>72.27</ele>
        <time>2019-08-26T08:47:42.000Z</time>
      </trkpt>
      <trkpt lat="47.59435" lon="-2.2347">
        <ele>73</ele>
        <time>2019-08-26T08:47:43.000Z</time>
      </trkpt>
      <trkpt lat="47.59435" lon="-2.23471">
        <ele>71.95</ele>
        <time>2019-08-26T08:47:44.000Z</time>
      </trkpt>
      <trkpt lat="47.59436" lon="-2.23473">
        <ele>71.09</ele>
        <time>2019-08-26T08:47:45.000Z</time>
      </trkpt>
      <trkpt lat="47.59436" lon="-2.23474">
        <ele>70.7</ele>
        <time>2019-08-26T08:47:46.000Z</time>
      </trkpt>
      <trkpt lat="47.59435" lon="-2.23475">
        <ele>71.56</ele>
        <time>2019-08-26T08:47:48.000Z</time>
      </trkpt>
      <trkpt lat="47.59435" lon="-2.23475">
        <ele>69.35</ele>
        <time>2019-08-26T08:47:54.000Z</time>
      </trkpt>
      <trkpt lat="47.59434" lon="-2.23476">
        <ele>69.24</ele>
        <time>2019-08-26T08:48:38.000Z</time>
      </trkpt>
      <trkpt lat="47.59434" lon="-2.23477">
        <ele>70.59</ele>
        <time>2019-08-26T08:48:41.000Z</time>
      </trkpt>
      <trkpt lat="47.59435" lon="-2.23476">
        <ele>71.11</ele>
        <time>2019-08-26T08:48:45.000Z</time>
      </trkpt>
      <trkpt lat="47.59435" lon="-2.23477">
        <ele>70.96</ele>
        <time>2019-08-26T08:48:48.000Z</time>
      </trkpt>
      <trkpt lat="47.59434" lon="-2.23479">
        <ele>70.72</ele>
        <time>2019-08-26T08:48:49.000Z</time>
      </trkpt>
      <trkpt lat="47.59433" lon="-2.23481">
        <ele>70.95</ele>
        <time>2019-08-26T08:48:50.000Z</time>
      </trkpt>
      <trkpt lat="47.59433" lon="-2.23482">
        <ele>70.77</ele>
        <time>2019-08-26T08:48:51.000Z</time>
      </trkpt>
      <trkpt lat="47.59433" lon="-2.23484">
        <ele>70.94</ele>
        <time>2019-08-26T08:48:52.000Z</time>
      </trkpt>
      <trkpt lat="47.59432" lon="-2.23485">
        <ele>71.59</ele>
        <time>2019-08-26T08:48:53.000Z</time>
      </trkpt>
      <trkpt lat="47.59432" lon="-2.23487">
        <ele>72.05</ele>
        <time>2019-08-26T08:48:54.000Z</time>
      </trkpt>
      <trkpt lat="47.59432" lon="-2.23489">
        <ele>72.26</ele>
        <time>2019-08-26T08:48:55.000Z</time>
      </trkpt>
      <trkpt lat="47.59431" lon="-2.2349">
        <ele>72.22</ele>
        <time>2019-08-26T08:48:56.000Z</time>
      </trkpt>
      <trkpt lat="47.59431" lon="-2.23492">
        <ele>72.05</ele>
        <time>2019-08-26T08:48:57.000Z</time>
      </trkpt>
      <trkpt lat="47.59431" lon="-2.23493">
        <ele>72.21</ele>
        <time>2019-08-26T08:48:58.000Z</time>
      </trkpt>
      <trkpt lat="47.5943" lon="-2.23495">
        <ele>72.83</ele>
        <time>2019-08-26T08:48:59.000Z</time>
      </trkpt>
      <trkpt lat="47.5943" lon="-2.23497">
        <ele>73.88</ele>
        <time>2019-08-26T08:49:00.000Z</time>
      </trkpt>
      <trkpt lat="47.5943" lon="-2.23498">
        <ele>74.8</ele>
        <time>2019-08-26T08:49:01.000Z</time>
      </trkpt>
      <trkpt lat="47.59429" lon="-2.235">
        <ele>74.73</ele>
        <time>2019-08-26T08:49:02.000Z</time>
      </trkpt>
      <trkpt lat="47.59429" lon="-2.23502">
        <ele>74.88</ele>
        <time>2019-08-26T08:49:03.000Z</time>
      </trkpt>
      <trkpt lat="47.59428" lon="-2.23504">
        <ele>75.11</ele>
        <time>2019-08-26T08:49:04.000Z</time>
      </trkpt>
      <trkpt lat="47.59428" lon="-2.23506">
        <ele>74.78</ele>
        <time>2019-08-26T08:49:05.000Z</time>
      </trkpt>
      <trkpt lat="47.59428" lon="-2.23507">
        <ele>75.11</ele>
        <time>2019-08-26T08:49:06.000Z</time>
      </trkpt>
      <trkpt lat="47.59428" lon="-2.23509">
        <ele>74.95</ele>
        <time>2019-08-26T08:49:07.000Z</time>
      </trkpt>
      <trkpt lat="47.59427" lon="-2.23511">
        <ele>75.01</ele>
        <time>2019-08-26T08:49:08.000Z</time>
      </trkpt>
      <trkpt lat="47.59427" lon="-2.23514">
        <ele>75.23</ele>
        <time>2019-08-26T08:49:09.000Z</time>
      </trkpt>
      <trkpt lat="47.59426" lon="-2.23515">
        <ele>75.13</ele>
        <time>2019-08-26T08:49:10.000Z</time>
      </trkpt>
      <trkpt lat="47.59426" lon="-2.23517">
        <ele>76</ele>
        <time>2019-08-26T08:49:11.000Z</time>
      </trkpt>
      <trkpt lat="47.59425" lon="-2.23519">
        <ele>76.34</ele>
        <time>2019-08-26T08:49:12.000Z</time>
      </trkpt>
      <trkpt lat="47.59425" lon="-2.23521">
        <ele>76.81</ele>
        <time>2019-08-26T08:49:13.000Z</time>
      </trkpt>
      <trkpt lat="47.59425" lon="-2.23523">
        <ele>77.01</ele>
        <time>2019-08-26T08:49:14.000Z</time>
      </trkpt>
      <trkpt lat="47.59424" lon="-2.23524">
        <ele>77.22</ele>
        <time>2019-08-26T08:49:15.000Z</time>
      </trkpt>
      <trkpt lat="47.59424" lon="-2.23526">
        <ele>77.44</ele>
        <time>2019-08-26T08:49:16.000Z</time>
      </trkpt>
      <trkpt lat="47.59423" lon="-2.23528">
        <ele>77.33</ele>
        <time>2019-08-26T08:49:17.000Z</time>
      </trkpt>
      <trkpt lat="47.59423" lon="-2.2353">
        <ele>77.87</ele>
        <time>2019-08-26T08:49:18.000Z</time>
      </trkpt>
      <trkpt lat="47.59423" lon="-2.23531">
        <ele>77</ele>
        <time>2019-08-26T08:49:19.000Z</time>
      </trkpt>
      <trkpt lat="47.59422" lon="-2.23533">
        <ele>76.65</ele>
        <time>2019-08-26T08:49:20.000Z</time>
      </trkpt>
      <trkpt lat="47.59422" lon="-2.23535">
        <ele>76.46</ele>
        <time>2019-08-26T08:49:21.000Z</time>
      </trkpt>
      <trkpt lat="47.59422" lon="-2.23537">
        <ele>76.48</ele>
        <time>2019-08-26T08:49:22.000Z</time>
      </trkpt>
      <trkpt lat="47.59421" lon="-2.23538">
        <ele>76.85</ele>
        <time>2019-08-26T08:49:23.000Z</time>
      </trkpt>
      <trkpt lat="47.59421" lon="-2.2354">
        <ele>77.31</ele>
        <time>2019-08-26T08:49:24.000Z</time>
      </trkpt>
      <trkpt lat="47.5942" lon="-2.23541">
        <ele>77.02</ele>
        <time>2019-08-26T08:49:25.000Z</time>
      </trkpt>
      <trkpt lat="47.5942" lon="-2.23543">
        <ele>77.14</ele>
        <time>2019-08-26T08:49:26.000Z</time>
      </trkpt>
      <trkpt lat="47.5942" lon="-2.23545">
        <ele>77.35</ele>
        <time>2019-08-26T08:49:27.000Z</time>
      </trkpt>
      <trkpt lat="47.5942" lon="-2.23547">
        <ele>77.9</ele>
        <time>2019-08-26T08:49:28.000Z</time>
      </trkpt>
      <trkpt lat="47.5942" lon="-2.23548">
        <ele>77.71</ele>
        <time>2019-08-26T08:49:29.000Z</time>
      </trkpt>
      <trkpt lat="47.59419" lon="-2.2355">
        <ele>77.99</ele>
        <time>2019-08-26T08:49:30.000Z</time>
      </trkpt>
      <trkpt lat="47.59419" lon="-2.23552">
        <ele>78.65</ele>
        <time>2019-08-26T08:49:31.000Z</time>
      </trkpt>
      <trkpt lat="47.59419" lon="-2.23553">
        <ele>77.78</ele>
        <time>2019-08-26T08:49:32.000Z</time>
      </trkpt>
      <trkpt lat="47.59419" lon="-2.23556">
        <ele>77.33</ele>
        <time>2019-08-26T08:49:34.000Z</time>
      </trkpt>
      <trkpt lat="47.59419" lon="-2.23558">
        <ele>77.98</ele>
        <time>2019-08-26T08:49:35.000Z</time>
      </trkpt>
      <trkpt lat="47.59419" lon="-2.23559">
        <ele>78.36</ele>
        <time>2019-08-26T08:49:36.000Z</time>
      </trkpt>
      <trkpt lat="47.59418" lon="-2.23561">
        <ele>78.79</ele>
        <time>2019-08-26T08:49:37.000Z</time>
      </trkpt>
      <trkpt lat="47.59418" lon="-2.23563">
        <ele>78.99</ele>
        <time>2019-08-26T08:49:38.000Z</time>
      </trkpt>
      <trkpt lat="47.59418" lon="-2.23564">
        <ele>79.21</ele>
        <time>2019-08-26T08:49:39.000Z</time>
      </trkpt>
      <trkpt lat="47.59417" lon="-2.23566">
        <ele>79.16</ele>
        <time>2019-08-26T08:49:40.000Z</time>
      </trkpt>
      <trkpt lat="47.59417" lon="-2.23568">
        <ele>78.68</ele>
        <time>2019-08-26T08:49:41.000Z</time>
      </trkpt>
      <trkpt lat="47.59417" lon="-2.23569">
        <ele>78.48</ele>
        <time>2019-08-26T08:49:42.000Z</time>
      </trkpt>
      <trkpt lat="47.59416" lon="-2.23571">
        <ele>78.3</ele>
        <time>2019-08-26T08:49:43.000Z</time>
      </trkpt>
      <trkpt lat="47.59416" lon="-2.23573">
        <ele>78.49</ele>
        <time>2019-08-26T08:49:44.000Z</time>
      </trkpt>
      <trkpt lat="47.59415" lon="-2.23574">
        <ele>78.64</ele>
        <time>2019-08-26T08:49:45.000Z</time>
      </trkpt>
      <trkpt lat="47.59415" lon="-2.23576">
        <ele>79.04</ele>
        <time>2019-08-26T08:49:46.000Z</time>
      </trkpt>
      <trkpt lat="47.59415" lon="-2.23577">
        <ele>79.69</ele>
        <time>2019-08-26T08:49:47.000Z</time>
      </trkpt>
      <trkpt lat="47.59414" lon="-2.23579">
        <ele>79.63</ele>
        <time>2019-08-26T08:49:48.000Z</time>
      </trkpt>
      <trkpt lat="47.59414" lon="-2.23581">
        <ele>80.15</ele>
        <time>2019-08-26T08:49:49.000Z</time>
      </trkpt>
      <trkpt lat="47.59414" lon="-2.23582">
        <ele>80.53</ele>
        <time>2019-08-26T08:49:50.000Z</time>
      </trkpt>
      <trkpt lat="47.59413" lon="-2.23584">
        <ele>80.21</ele>
        <time>2019-08-26T08:49:51.000Z</time>
      </trkpt>
      <trkpt lat="47.59413" lon="-2.23586">
        <ele>79.89</ele>
        <time>2019-08-26T08:49:52.000Z</time>
      </trkpt>
      <trkpt lat="47.59412" lon="-2.23588">
        <ele>80.39</ele>
        <time>2019-08-26T08:49:53.000Z</time>
      </trkpt>
      <trkpt lat="47.59412" lon="-2.23589">
        <ele>80.22</ele>
        <time>2019-08-26T08:49:54.000Z</time>
      </trkpt>
      <trkpt lat="47.59412" lon="-2.2359">
        <ele>79.38</ele>
        <time>2019-08-26T08:49:55.000Z</time>
      </trkpt>
      <trkpt lat="47.59411" lon="-2.23593">
        <ele>79</ele>
        <time>2019-08-26T08:49:57.000Z</time>
      </trkpt>
      <trkpt lat="47.59411" lon="-2.23594">
        <ele>79.41</ele>
        <time>2019-08-26T08:49:58.000Z</time>
      </trkpt>
      <trkpt lat="47.59411" lon="-2.23596">
        <ele>79.87</ele>
        <time>2019-08-26T08:49:59.000Z</time>
      </trkpt>
      <trkpt lat="47.59411" lon="-2.23597">
        <ele>79.96</ele>
        <time>2019-08-26T08:50:00.000Z</time>
      </trkpt>
      <trkpt lat="47.5941" lon="-2.236">
        <ele>80.51</ele>
        <time>2019-08-26T08:50:02.000Z</time>
      </trkpt>
      <trkpt lat="47.59409" lon="-2.23601">
        <ele>81.06</ele>
        <time>2019-08-26T08:50:03.000Z</time>
      </trkpt>
      <trkpt lat="47.59409" lon="-2.23603">
        <ele>81.76</ele>
        <time>2019-08-26T08:50:04.000Z</time>
      </trkpt>
      <trkpt lat="47.59409" lon="-2.23605">
        <ele>81.58</ele>
        <time>2019-08-26T08:50:05.000Z</time>
      </trkpt>
      <trkpt lat="47.59408" lon="-2.23607">
        <ele>81.42</ele>
        <time>2019-08-26T08:50:06.000Z</time>
      </trkpt>
      <trkpt lat="47.59407" lon="-2.23609">
        <ele>81.69</ele>
        <time>2019-08-26T08:50:07.000Z</time>
      </trkpt>
      <trkpt lat="47.59407" lon="-2.23611">
        <ele>81.59</ele>
        <time>2019-08-26T08:50:08.000Z</time>
      </trkpt>
      <trkpt lat="47.59406" lon="-2.23612">
        <ele>81.47</ele>
        <time>2019-08-26T08:50:09.000Z</time>
      </trkpt>
      <trkpt lat="47.59406" lon="-2.23614">
        <ele>81.84</ele>
        <time>2019-08-26T08:50:10.000Z</time>
      </trkpt>
      <trkpt lat="47.59406" lon="-2.23616">
        <ele>81.38</ele>
        <time>2019-08-26T08:50:11.000Z</time>
      </trkpt>
      <trkpt lat="47.59405" lon="-2.23617">
        <ele>81.28</ele>
        <time>2019-08-26T08:50:12.000Z</time>
      </trkpt>
      <trkpt lat="47.59405" lon="-2.23619">
        <ele>81.99</ele>
        <time>2019-08-26T08:50:13.000Z</time>
      </trkpt>
      <trkpt lat="47.59404" lon="-2.23621">
        <ele>82.35</ele>
        <time>2019-08-26T08:50:14.000Z</time>
      </trkpt>
      <trkpt lat="47.59404" lon="-2.23623">
        <ele>82.37</ele>
        <time>2019-08-26T08:50:15.000Z</time>
      </trkpt>
      <trkpt lat="47.59404" lon="-2.23624">
        <ele>82.97</ele>
        <time>2019-08-26T08:50:16.000Z</time>
      </trkpt>
      <trkpt lat="47.59403" lon="-2.23625">
        <ele>82.93</ele>
        <time>2019-08-26T08:50:17.000Z</time>
      </trkpt>
      <trkpt lat="47.59403" lon="-2.23627">
        <ele>83.17</ele>
        <time>2019-08-26T08:50:18.000Z</time>
      </trkpt>
      <trkpt lat="47.59402" lon="-2.23628">
        <ele>83.4</ele>
        <time>2019-08-26T08:50:19.000Z</time>
      </trkpt>
      <trkpt lat="47.59402" lon="-2.2363">
        <ele>83.4</ele>
        <time>2019-08-26T08:50:20.000Z</time>
      </trkpt>
      <trkpt lat="47.59402" lon="-2.23631">
        <ele>83.13</ele>
        <time>2019-08-26T08:50:21.000Z</time>
      </trkpt>
      <trkpt lat="47.59401" lon="-2.23633">
        <ele>83.06</ele>
        <time>2019-08-26T08:50:22.000Z</time>
      </trkpt>
      <trkpt lat="47.59401" lon="-2.23635">
        <ele>82.57</ele>
        <time>2019-08-26T08:50:23.000Z</time>
      </trkpt>
      <trkpt lat="47.59401" lon="-2.23636">
        <ele>82.8</ele>
        <time>2019-08-26T08:50:24.000Z</time>
      </trkpt>
      <trkpt lat="47.59401" lon="-2.23638">
        <ele>83.39</ele>
        <time>2019-08-26T08:50:25.000Z</time>
      </trkpt>
      <trkpt lat="47.59401" lon="-2.23639">
        <ele>83.66</ele>
        <time>2019-08-26T08:50:26.000Z</time>
      </trkpt>
      <trkpt lat="47.594" lon="-2.2364">
        <ele>84.06</ele>
        <time>2019-08-26T08:50:27.000Z</time>
      </trkpt>
      <trkpt lat="47.594" lon="-2.23642">
        <ele>83.91</ele>
        <time>2019-08-26T08:50:28.000Z</time>
      </trkpt>
      <trkpt lat="47.594" lon="-2.23644">
        <ele>84.18</ele>
        <time>2019-08-26T08:50:29.000Z</time>
      </trkpt>
      <trkpt lat="47.59399" lon="-2.23645">
        <ele>84.45</ele>
        <time>2019-08-26T08:50:30.000Z</time>
      </trkpt>
      <trkpt lat="47.59399" lon="-2.23647">
        <ele>84.89</ele>
        <time>2019-08-26T08:50:31.000Z</time>
      </trkpt>
      <trkpt lat="47.59398" lon="-2.23649">
        <ele>84.71</ele>
        <time>2019-08-26T08:50:32.000Z</time>
      </trkpt>
      <trkpt lat="47.59398" lon="-2.2365">
        <ele>84.37</ele>
        <time>2019-08-26T08:50:33.000Z</time>
      </trkpt>
      <trkpt lat="47.59397" lon="-2.23652">
        <ele>83.79</ele>
        <time>2019-08-26T08:50:34.000Z</time>
      </trkpt>
      <trkpt lat="47.59396" lon="-2.23655">
        <ele>82.7</ele>
        <time>2019-08-26T08:50:35.000Z</time>
      </trkpt>
      <trkpt lat="47.59396" lon="-2.23656">
        <ele>82.61</ele>
        <time>2019-08-26T08:50:36.000Z</time>
      </trkpt>
      <trkpt lat="47.59395" lon="-2.23658">
        <ele>83.05</ele>
        <time>2019-08-26T08:50:37.000Z</time>
      </trkpt>
      <trkpt lat="47.59395" lon="-2.2366">
        <ele>82.95</ele>
        <time>2019-08-26T08:50:38.000Z</time>
      </trkpt>
      <trkpt lat="47.59394" lon="-2.23662">
        <ele>81.87</ele>
        <time>2019-08-26T08:50:39.000Z</time>
      </trkpt>
      <trkpt lat="47.59393" lon="-2.23664">
        <ele>82.06</ele>
        <time>2019-08-26T08:50:40.000Z</time>
      </trkpt>
      <trkpt lat="47.59393" lon="-2.23666">
        <ele>82.34</ele>
        <time>2019-08-26T08:50:41.000Z</time>
      </trkpt>
      <trkpt lat="47.59393" lon="-2.23668">
        <ele>83.46</ele>
        <time>2019-08-26T08:50:42.000Z</time>
      </trkpt>
      <trkpt lat="47.59392" lon="-2.2367">
        <ele>83.52</ele>
        <time>2019-08-26T08:50:43.000Z</time>
      </trkpt>
      <trkpt lat="47.59392" lon="-2.23671">
        <ele>84.03</ele>
        <time>2019-08-26T08:50:44.000Z</time>
      </trkpt>
      <trkpt lat="47.59392" lon="-2.23673">
        <ele>83.96</ele>
        <time>2019-08-26T08:50:45.000Z</time>
      </trkpt>
      <trkpt lat="47.59391" lon="-2.23675">
        <ele>84.11</ele>
        <time>2019-08-26T08:50:46.000Z</time>
      </trkpt>
      <trkpt lat="47.59391" lon="-2.23677">
        <ele>82.72</ele>
        <time>2019-08-26T08:50:47.000Z</time>
      </trkpt>
      <trkpt lat="47.59391" lon="-2.23679">
        <ele>84.06</ele>
        <time>2019-08-26T08:50:48.000Z</time>
      </trkpt>
      <trkpt lat="47.59391" lon="-2.2368">
        <ele>84.39</ele>
        <time>2019-08-26T08:50:49.000Z</time>
      </trkpt>
      <trkpt lat="47.5939" lon="-2.23682">
        <ele>84.68</ele>
        <time>2019-08-26T08:50:50.000Z</time>
      </trkpt>
      <trkpt lat="47.5939" lon="-2.23684">
        <ele>84.48</ele>
        <time>2019-08-26T08:50:51.000Z</time>
      </trkpt>
      <trkpt lat="47.5939" lon="-2.23686">
        <ele>84.49</ele>
        <time>2019-08-26T08:50:52.000Z</time>
      </trkpt>
      <trkpt lat="47.59389" lon="-2.23687">
        <ele>84.62</ele>
        <time>2019-08-26T08:50:53.000Z</time>
      </trkpt>
      <trkpt lat="47.59389" lon="-2.23689">
        <ele>85.63</ele>
        <time>2019-08-26T08:50:54.000Z</time>
      </trkpt>
      <trkpt lat="47.59389" lon="-2.23691">
        <ele>84.79</ele>
        <time>2019-08-26T08:50:55.000Z</time>
      </trkpt>
      <trkpt lat="47.59388" lon="-2.23692">
        <ele>85.26</ele>
        <time>2019-08-26T08:50:56.000Z</time>
      </trkpt>
      <trkpt lat="47.59388" lon="-2.23693">
        <ele>85.96</ele>
        <time>2019-08-26T08:50:57.000Z</time>
      </trkpt>
      <trkpt lat="47.59388" lon="-2.23696">
        <ele>85.17</ele>
        <time>2019-08-26T08:50:59.000Z</time>
      </trkpt>
      <trkpt lat="47.59387" lon="-2.23698">
        <ele>84.62</ele>
        <time>2019-08-26T08:51:00.000Z</time>
      </trkpt>
      <trkpt lat="47.59387" lon="-2.23699">
        <ele>84.69</ele>
        <time>2019-08-26T08:51:01.000Z</time>
      </trkpt>
      <trkpt lat="47.59386" lon="-2.23701">
        <ele>84.64</ele>
        <time>2019-08-26T08:51:02.000Z</time>
      </trkpt>
      <trkpt lat="47.59386" lon="-2.23703">
        <ele>85.14</ele>
        <time>2019-08-26T08:51:03.000Z</time>
      </trkpt>
      <trkpt lat="47.59386" lon="-2.23704">
        <ele>84.77</ele>
        <time>2019-08-26T08:51:04.000Z</time>
      </trkpt>
      <trkpt lat="47.59385" lon="-2.23706">
        <ele>84.17</ele>
        <time>2019-08-26T08:51:05.000Z</time>
      </trkpt>
      <trkpt lat="47.59385" lon="-2.23707">
        <ele>84.32</ele>
        <time>2019-08-26T08:51:06.000Z</time>
      </trkpt>
      <trkpt lat="47.59385" lon="-2.23709">
        <ele>84.7</ele>
        <time>2019-08-26T08:51:07.000Z</time>
      </trkpt>
      <trkpt lat="47.59385" lon="-2.23711">
        <ele>85.76</ele>
        <time>2019-08-26T08:51:08.000Z</time>
      </trkpt>
      <trkpt lat="47.59384" lon="-2.23712">
        <ele>85.86</ele>
        <time>2019-08-26T08:51:09.000Z</time>
      </trkpt>
      <trkpt lat="47.59384" lon="-2.23714">
        <ele>86.15</ele>
        <time>2019-08-26T08:51:10.000Z</time>
      </trkpt>
      <trkpt lat="47.59384" lon="-2.23715">
        <ele>87</ele>
        <time>2019-08-26T08:51:11.000Z</time>
      </trkpt>
      <trkpt lat="47.59384" lon="-2.23717">
        <ele>86.91</ele>
        <time>2019-08-26T08:51:12.000Z</time>
      </trkpt>
      <trkpt lat="47.59384" lon="-2.23719">
        <ele>86.25</ele>
        <time>2019-08-26T08:51:13.000Z</time>
      </trkpt>
      <trkpt lat="47.59383" lon="-2.23721">
        <ele>85.56</ele>
        <time>2019-08-26T08:51:14.000Z</time>
      </trkpt>
      <trkpt lat="47.59383" lon="-2.23722">
        <ele>85.07</ele>
        <time>2019-08-26T08:51:15.000Z</time>
      </trkpt>
      <trkpt lat="47.59383" lon="-2.23723">
        <ele>84.58</ele>
        <time>2019-08-26T08:51:16.000Z</time>
      </trkpt>
      <trkpt lat="47.59383" lon="-2.23725">
        <ele>84.48</ele>
        <time>2019-08-26T08:51:17.000Z</time>
      </trkpt>
      <trkpt lat="47.59382" lon="-2.23727">
        <ele>85.63</ele>
        <time>2019-08-26T08:51:18.000Z</time>
      </trkpt>
      <trkpt lat="47.59382" lon="-2.23729">
        <ele>86.24</ele>
        <time>2019-08-26T08:51:19.000Z</time>
      </trkpt>
      <trkpt lat="47.59382" lon="-2.2373">
        <ele>85.84</ele>
        <time>2019-08-26T08:51:20.000Z</time>
      </trkpt>
      <trkpt lat="47.59381" lon="-2.23732">
        <ele>85.3</ele>
        <time>2019-08-26T08:51:21.000Z</time>
      </trkpt>
      <trkpt lat="47.5938" lon="-2.23734">
        <ele>84.45</ele>
        <time>2019-08-26T08:51:22.000Z</time>
      </trkpt>
      <trkpt lat="47.5938" lon="-2.23736">
        <ele>84.45</ele>
        <time>2019-08-26T08:51:23.000Z</time>
      </trkpt>
      <trkpt lat="47.59379" lon="-2.23737">
        <ele>84.51</ele>
        <time>2019-08-26T08:51:24.000Z</time>
      </trkpt>
      <trkpt lat="47.59378" lon="-2.23739">
        <ele>84.7</ele>
        <time>2019-08-26T08:51:25.000Z</time>
      </trkpt>
      <trkpt lat="47.59378" lon="-2.2374">
        <ele>84.75</ele>
        <time>2019-08-26T08:51:26.000Z</time>
      </trkpt>
      <trkpt lat="47.59378" lon="-2.23742">
        <ele>85.31</ele>
        <time>2019-08-26T08:51:27.000Z</time>
      </trkpt>
      <trkpt lat="47.59377" lon="-2.23744">
        <ele>85.32</ele>
        <time>2019-08-26T08:51:28.000Z</time>
      </trkpt>
      <trkpt lat="47.59377" lon="-2.23745">
        <ele>85.2</ele>
        <time>2019-08-26T08:51:29.000Z</time>
      </trkpt>
      <trkpt lat="47.59376" lon="-2.23747">
        <ele>84.78</ele>
        <time>2019-08-26T08:51:30.000Z</time>
      </trkpt>
      <trkpt lat="47.59376" lon="-2.23749">
        <ele>84.27</ele>
        <time>2019-08-26T08:51:31.000Z</time>
      </trkpt>
      <trkpt lat="47.59376" lon="-2.2375">
        <ele>84.2</ele>
        <time>2019-08-26T08:51:32.000Z</time>
      </trkpt>
      <trkpt lat="47.59376" lon="-2.23752">
        <ele>84.25</ele>
        <time>2019-08-26T08:51:33.000Z</time>
      </trkpt>
      <trkpt lat="47.59375" lon="-2.23754">
        <ele>84.69</ele>
        <time>2019-08-26T08:51:34.000Z</time>
      </trkpt>
      <trkpt lat="47.59375" lon="-2.23756">
        <ele>84.76</ele>
        <time>2019-08-26T08:51:35.000Z</time>
      </trkpt>
      <trkpt lat="47.59375" lon="-2.23758">
        <ele>84.56</ele>
        <time>2019-08-26T08:51:36.000Z</time>
      </trkpt>
      <trkpt lat="47.59375" lon="-2.23759">
        <ele>84.2</ele>
        <time>2019-08-26T08:51:37.000Z</time>
      </trkpt>
      <trkpt lat="47.59375" lon="-2.23761">
        <ele>83.89</ele>
        <time>2019-08-26T08:51:38.000Z</time>
      </trkpt>
      <trkpt lat="47.59375" lon="-2.23763">
        <ele>82.71</ele>
        <time>2019-08-26T08:51:39.000Z</time>
      </trkpt>
      <trkpt lat="47.59374" lon="-2.23765">
        <ele>82.34</ele>
        <time>2019-08-26T08:51:40.000Z</time>
      </trkpt>
      <trkpt lat="47.59374" lon="-2.23767">
        <ele>82.53</ele>
        <time>2019-08-26T08:51:41.000Z</time>
      </trkpt>
      <trkpt lat="47.59374" lon="-2.23769">
        <ele>82.75</ele>
        <time>2019-08-26T08:51:42.000Z</time>
      </trkpt>
      <trkpt lat="47.59373" lon="-2.23771">
        <ele>82.96</ele>
        <time>2019-08-26T08:51:43.000Z</time>
      </trkpt>
      <trkpt lat="47.59373" lon="-2.23773">
        <ele>83.43</ele>
        <time>2019-08-26T08:51:44.000Z</time>
      </trkpt>
      <trkpt lat="47.59373" lon="-2.23775">
        <ele>82.82</ele>
        <time>2019-08-26T08:51:45.000Z</time>
      </trkpt>
      <trkpt lat="47.59373" lon="-2.23776">
        <ele>82.8</ele>
        <time>2019-08-26T08:51:46.000Z</time>
      </trkpt>
      <trkpt lat="47.59373" lon="-2.23778">
        <ele>83.13</ele>
        <time>2019-08-26T08:51:47.000Z</time>
      </trkpt>
      <trkpt lat="47.59373" lon="-2.2378">
        <ele>83.24</ele>
        <time>2019-08-26T08:51:48.000Z</time>
      </trkpt>
      <trkpt lat="47.59373" lon="-2.23781">
        <ele>84.21</ele>
        <time>2019-08-26T08:51:49.000Z</time>
      </trkpt>
      <trkpt lat="47.59372" lon="-2.23783">
        <ele>85.44</ele>
        <time>2019-08-26T08:51:50.000Z</time>
      </trkpt>
      <trkpt lat="47.59372" lon="-2.23785">
        <ele>85.72</ele>
        <time>2019-08-26T08:51:51.000Z</time>
      </trkpt>
      <trkpt lat="47.59372" lon="-2.23786">
        <ele>84.88</ele>
        <time>2019-08-26T08:51:52.000Z</time>
      </trkpt>
      <trkpt lat="47.59372" lon="-2.23788">
        <ele>85.67</ele>
        <time>2019-08-26T08:51:53.000Z</time>
      </trkpt>
      <trkpt lat="47.59372" lon="-2.23791">
        <ele>87.55</ele>
        <time>2019-08-26T08:51:55.000Z</time>
      </trkpt>
      <trkpt lat="47.59372" lon="-2.23792">
        <ele>88.44</ele>
        <time>2019-08-26T08:51:56.000Z</time>
      </trkpt>
      <trkpt lat="47.59371" lon="-2.23794">
        <ele>88.62</ele>
        <time>2019-08-26T08:51:57.000Z</time>
      </trkpt>
      <trkpt lat="47.59372" lon="-2.23796">
        <ele>89.7</ele>
        <time>2019-08-26T08:51:58.000Z</time>
      </trkpt>
      <trkpt lat="47.59372" lon="-2.23797">
        <ele>89.67</ele>
        <time>2019-08-26T08:51:59.000Z</time>
      </trkpt>
      <trkpt lat="47.59372" lon="-2.23799">
        <ele>90.53</ele>
        <time>2019-08-26T08:52:00.000Z</time>
      </trkpt>
      <trkpt lat="47.59372" lon="-2.23801">
        <ele>90.82</ele>
        <time>2019-08-26T08:52:01.000Z</time>
      </trkpt>
      <trkpt lat="47.59372" lon="-2.23802">
        <ele>89.33</ele>
        <time>2019-08-26T08:52:02.000Z</time>
      </trkpt>
      <trkpt lat="47.59371" lon="-2.23804">
        <ele>88.94</ele>
        <time>2019-08-26T08:52:03.000Z</time>
      </trkpt>
      <trkpt lat="47.59371" lon="-2.23805">
        <ele>89.61</ele>
        <time>2019-08-26T08:52:04.000Z</time>
      </trkpt>
      <trkpt lat="47.5937" lon="-2.23807">
        <ele>88.91</ele>
        <time>2019-08-26T08:52:05.000Z</time>
      </trkpt>
      <trkpt lat="47.5937" lon="-2.23808">
        <ele>88.57</ele>
        <time>2019-08-26T08:52:06.000Z</time>
      </trkpt>
      <trkpt lat="47.5937" lon="-2.2381">
        <ele>87.29</ele>
        <time>2019-08-26T08:52:07.000Z</time>
      </trkpt>
      <trkpt lat="47.59369" lon="-2.23811">
        <ele>86.98</ele>
        <time>2019-08-26T08:52:08.000Z</time>
      </trkpt>
      <trkpt lat="47.59369" lon="-2.23813">
        <ele>86.37</ele>
        <time>2019-08-26T08:52:09.000Z</time>
      </trkpt>
      <trkpt lat="47.59368" lon="-2.23814">
        <ele>86.97</ele>
        <time>2019-08-26T08:52:10.000Z</time>
      </trkpt>
      <trkpt lat="47.59368" lon="-2.23816">
        <ele>87.16</ele>
        <time>2019-08-26T08:52:11.000Z</time>
      </trkpt>
      <trkpt lat="47.59367" lon="-2.23817">
        <ele>86.94</ele>
        <time>2019-08-26T08:52:12.000Z</time>
      </trkpt>
      <trkpt lat="47.59367" lon="-2.23819">
        <ele>86.82</ele>
        <time>2019-08-26T08:52:13.000Z</time>
      </trkpt>
      <trkpt lat="47.59366" lon="-2.2382">
        <ele>87.17</ele>
        <time>2019-08-26T08:52:14.000Z</time>
      </trkpt>
      <trkpt lat="47.59365" lon="-2.23822">
        <ele>86.48</ele>
        <time>2019-08-26T08:52:15.000Z</time>
      </trkpt>
      <trkpt lat="47.59364" lon="-2.23823">
        <ele>87.11</ele>
        <time>2019-08-26T08:52:16.000Z</time>
      </trkpt>
      <trkpt lat="47.59364" lon="-2.23825">
        <ele>86.71</ele>
        <time>2019-08-26T08:52:17.000Z</time>
      </trkpt>
      <trkpt lat="47.59362" lon="-2.23826">
        <ele>88.48</ele>
        <time>2019-08-26T08:52:18.000Z</time>
      </trkpt>
      <trkpt lat="47.59362" lon="-2.23828">
        <ele>87.82</ele>
        <time>2019-08-26T08:52:19.000Z</time>
      </trkpt>
      <trkpt lat="47.59361" lon="-2.23829">
        <ele>86.75</ele>
        <time>2019-08-26T08:52:20.000Z</time>
      </trkpt>
      <trkpt lat="47.5936" lon="-2.2383">
        <ele>85.91</ele>
        <time>2019-08-26T08:52:21.000Z</time>
      </trkpt>
      <trkpt lat="47.59359" lon="-2.23831">
        <ele>84.66</ele>
        <time>2019-08-26T08:52:22.000Z</time>
      </trkpt>
      <trkpt lat="47.59358" lon="-2.23832">
        <ele>83.8</ele>
        <time>2019-08-26T08:52:23.000Z</time>
      </trkpt>
      <trkpt lat="47.59358" lon="-2.23833">
        <ele>83.55</ele>
        <time>2019-08-26T08:52:24.000Z</time>
      </trkpt>
      <trkpt lat="47.59357" lon="-2.23834">
        <ele>83.2</ele>
        <time>2019-08-26T08:52:25.000Z</time>
      </trkpt>
      <trkpt lat="47.59356" lon="-2.23835">
        <ele>83.2</ele>
        <time>2019-08-26T08:52:26.000Z</time>
      </trkpt>
      <trkpt lat="47.59355" lon="-2.23836">
        <ele>83.17</ele>
        <time>2019-08-26T08:52:27.000Z</time>
      </trkpt>
      <trkpt lat="47.59354" lon="-2.23837">
        <ele>83.11</ele>
        <time>2019-08-26T08:52:28.000Z</time>
      </trkpt>
      <trkpt lat="47.59353" lon="-2.23839">
        <ele>82.81</ele>
        <time>2019-08-26T08:52:29.000Z</time>
      </trkpt>
      <trkpt lat="47.59353" lon="-2.2384">
        <ele>82.91</ele>
        <time>2019-08-26T08:52:30.000Z</time>
      </trkpt>
      <trkpt lat="47.59352" lon="-2.23841">
        <ele>81.98</ele>
        <time>2019-08-26T08:52:31.000Z</time>
      </trkpt>
      <trkpt lat="47.59351" lon="-2.23842">
        <ele>82.06</ele>
        <time>2019-08-26T08:52:32.000Z</time>
      </trkpt>
      <trkpt lat="47.5935" lon="-2.23843">
        <ele>80.83</ele>
        <time>2019-08-26T08:52:33.000Z</time>
      </trkpt>
      <trkpt lat="47.59349" lon="-2.23845">
        <ele>81.02</ele>
        <time>2019-08-26T08:52:34.000Z</time>
      </trkpt>
      <trkpt lat="47.59349" lon="-2.23846">
        <ele>81.06</ele>
        <time>2019-08-26T08:52:35.000Z</time>
      </trkpt>
      <trkpt lat="47.59348" lon="-2.23847">
        <ele>81.6</ele>
        <time>2019-08-26T08:52:36.000Z</time>
      </trkpt>
      <trkpt lat="47.59348" lon="-2.23849">
        <ele>81.37</ele>
        <time>2019-08-26T08:52:37.000Z</time>
      </trkpt>
      <trkpt lat="47.59347" lon="-2.2385">
        <ele>81.44</ele>
        <time>2019-08-26T08:52:38.000Z</time>
      </trkpt>
      <trkpt lat="47.59346" lon="-2.23851">
        <ele>81.79</ele>
        <time>2019-08-26T08:52:39.000Z</time>
      </trkpt>
      <trkpt lat="47.59346" lon="-2.23852">
        <ele>81.65</ele>
        <time>2019-08-26T08:52:40.000Z</time>
      </trkpt>
      <trkpt lat="47.59345" lon="-2.23854">
        <ele>82.21</ele>
        <time>2019-08-26T08:52:41.000Z</time>
      </trkpt>
      <trkpt lat="47.59345" lon="-2.23855">
        <ele>81.62</ele>
        <time>2019-08-26T08:52:42.000Z</time>
      </trkpt>
      <trkpt lat="47.59344" lon="-2.23857">
        <ele>81.74</ele>
        <time>2019-08-26T08:52:43.000Z</time>
      </trkpt>
      <trkpt lat="47.59343" lon="-2.23858">
        <ele>81.55</ele>
        <time>2019-08-26T08:52:44.000Z</time>
      </trkpt>
      <trkpt lat="47.59342" lon="-2.23859">
        <ele>81.68</ele>
        <time>2019-08-26T08:52:45.000Z</time>
      </trkpt>
      <trkpt lat="47.59342" lon="-2.2386">
        <ele>80.97</ele>
        <time>2019-08-26T08:52:46.000Z</time>
      </trkpt>
      <trkpt lat="47.59341" lon="-2.23862">
        <ele>80.76</ele>
        <time>2019-08-26T08:52:47.000Z</time>
      </trkpt>
      <trkpt lat="47.59341" lon="-2.23864">
        <ele>80.94</ele>
        <time>2019-08-26T08:52:48.000Z</time>
      </trkpt>
      <trkpt lat="47.5934" lon="-2.23865">
        <ele>80.68</ele>
        <time>2019-08-26T08:52:49.000Z</time>
      </trkpt>
      <trkpt lat="47.59339" lon="-2.23867">
        <ele>80.59</ele>
        <time>2019-08-26T08:52:50.000Z</time>
      </trkpt>
      <trkpt lat="47.59338" lon="-2.23868">
        <ele>79.74</ele>
        <time>2019-08-26T08:52:51.000Z</time>
      </trkpt>
      <trkpt lat="47.59338" lon="-2.2387">
        <ele>79.64</ele>
        <time>2019-08-26T08:52:52.000Z</time>
      </trkpt>
      <trkpt lat="47.59337" lon="-2.23871">
        <ele>79.92</ele>
        <time>2019-08-26T08:52:53.000Z</time>
      </trkpt>
      <trkpt lat="47.59337" lon="-2.23873">
        <ele>79.98</ele>
        <time>2019-08-26T08:52:54.000Z</time>
      </trkpt>
      <trkpt lat="47.59336" lon="-2.23874">
        <ele>79.9</ele>
        <time>2019-08-26T08:52:55.000Z</time>
      </trkpt>
      <trkpt lat="47.59335" lon="-2.23876">
        <ele>80.18</ele>
        <time>2019-08-26T08:52:56.000Z</time>
      </trkpt>
      <trkpt lat="47.59335" lon="-2.23878">
        <ele>79.81</ele>
        <time>2019-08-26T08:52:57.000Z</time>
      </trkpt>
      <trkpt lat="47.59334" lon="-2.23879">
        <ele>79.35</ele>
        <time>2019-08-26T08:52:58.000Z</time>
      </trkpt>
      <trkpt lat="47.59333" lon="-2.2388">
        <ele>79.25</ele>
        <time>2019-08-26T08:52:59.000Z</time>
      </trkpt>
      <trkpt lat="47.59333" lon="-2.23881">
        <ele>79.62</ele>
        <time>2019-08-26T08:53:00.000Z</time>
      </trkpt>
      <trkpt lat="47.59332" lon="-2.23883">
        <ele>79.83</ele>
        <time>2019-08-26T08:53:01.000Z</time>
      </trkpt>
      <trkpt lat="47.59332" lon="-2.23884">
        <ele>79.64</ele>
        <time>2019-08-26T08:53:02.000Z</time>
      </trkpt>
      <trkpt lat="47.59331" lon="-2.23885">
        <ele>79.98</ele>
        <time>2019-08-26T08:53:03.000Z</time>
      </trkpt>
      <trkpt lat="47.5933" lon="-2.23886">
        <ele>80.15</ele>
        <time>2019-08-26T08:53:04.000Z</time>
      </trkpt>
      <trkpt lat="47.59329" lon="-2.23888">
        <ele>80.46</ele>
        <time>2019-08-26T08:53:05.000Z</time>
      </trkpt>
      <trkpt lat="47.59329" lon="-2.23889">
        <ele>80.36</ele>
        <time>2019-08-26T08:53:06.000Z</time>
      </trkpt>
      <trkpt lat="47.59328" lon="-2.23891">
        <ele>80.82</ele>
        <time>2019-08-26T08:53:07.000Z</time>
      </trkpt>
      <trkpt lat="47.59327" lon="-2.23893">
        <ele>81.41</ele>
        <time>2019-08-26T08:53:08.000Z</time>
      </trkpt>
      <trkpt lat="47.59327" lon="-2.23894">
        <ele>81.52</ele>
        <time>2019-08-26T08:53:09.000Z</time>
      </trkpt>
      <trkpt lat="47.59326" lon="-2.23895">
        <ele>81.3</ele>
        <time>2019-08-26T08:53:10.000Z</time>
      </trkpt>
      <trkpt lat="47.59325" lon="-2.23896">
        <ele>81.59</ele>
        <time>2019-08-26T08:53:11.000Z</time>
      </trkpt>
      <trkpt lat="47.59325" lon="-2.23897">
        <ele>81.69</ele>
        <time>2019-08-26T08:53:12.000Z</time>
      </trkpt>
      <trkpt lat="47.59324" lon="-2.23899">
        <ele>81.92</ele>
        <time>2019-08-26T08:53:13.000Z</time>
      </trkpt>
      <trkpt lat="47.59323" lon="-2.239">
        <ele>81.43</ele>
        <time>2019-08-26T08:53:15.000Z</time>
      </trkpt>
      <trkpt lat="47.59322" lon="-2.23901">
        <ele>80.86</ele>
        <time>2019-08-26T08:53:18.000Z</time>
      </trkpt>
      <trkpt lat="47.59321" lon="-2.23901">
        <ele>81.81</ele>
        <time>2019-08-26T08:53:23.000Z</time>
      </trkpt>
      <trkpt lat="47.5932" lon="-2.23902">
        <ele>81.56</ele>
        <time>2019-08-26T08:53:24.000Z</time>
      </trkpt>
      <trkpt lat="47.59319" lon="-2.23904">
        <ele>82.23</ele>
        <time>2019-08-26T08:53:25.000Z</time>
      </trkpt>
      <trkpt lat="47.59318" lon="-2.23905">
        <ele>82.81</ele>
        <time>2019-08-26T08:53:26.000Z</time>
      </trkpt>
      <trkpt lat="47.59317" lon="-2.23906">
        <ele>82.45</ele>
        <time>2019-08-26T08:53:27.000Z</time>
      </trkpt>
      <trkpt lat="47.59316" lon="-2.23907">
        <ele>82.42</ele>
        <time>2019-08-26T08:53:28.000Z</time>
      </trkpt>
      <trkpt lat="47.59314" lon="-2.23908">
        <ele>82.55</ele>
        <time>2019-08-26T08:53:29.000Z</time>
      </trkpt>
      <trkpt lat="47.59313" lon="-2.23908">
        <ele>83.34</ele>
        <time>2019-08-26T08:53:30.000Z</time>
      </trkpt>
      <trkpt lat="47.59312" lon="-2.23908">
        <ele>83.11</ele>
        <time>2019-08-26T08:53:31.000Z</time>
      </trkpt>
      <trkpt lat="47.59311" lon="-2.23909">
        <ele>83.06</ele>
        <time>2019-08-26T08:53:32.000Z</time>
      </trkpt>
      <trkpt lat="47.59309" lon="-2.23909">
        <ele>82.82</ele>
        <time>2019-08-26T08:53:33.000Z</time>
      </trkpt>
      <trkpt lat="47.59308" lon="-2.23909">
        <ele>82.82</ele>
        <time>2019-08-26T08:53:34.000Z</time>
      </trkpt>
      <trkpt lat="47.59307" lon="-2.23909">
        <ele>82.56</ele>
        <time>2019-08-26T08:53:35.000Z</time>
      </trkpt>
      <trkpt lat="47.59306" lon="-2.23909">
        <ele>82.88</ele>
        <time>2019-08-26T08:53:36.000Z</time>
      </trkpt>
      <trkpt lat="47.59304" lon="-2.23909">
        <ele>82.11</ele>
        <time>2019-08-26T08:53:37.000Z</time>
      </trkpt>
      <trkpt lat="47.59303" lon="-2.2391">
        <ele>81.9</ele>
        <time>2019-08-26T08:53:38.000Z</time>
      </trkpt>
      <trkpt lat="47.59302" lon="-2.2391">
        <ele>81.8</ele>
        <time>2019-08-26T08:53:39.000Z</time>
      </trkpt>
      <trkpt lat="47.59301" lon="-2.2391">
        <ele>81.19</ele>
        <time>2019-08-26T08:53:40.000Z</time>
      </trkpt>
      <trkpt lat="47.593" lon="-2.2391">
        <ele>81.01</ele>
        <time>2019-08-26T08:53:41.000Z</time>
      </trkpt>
      <trkpt lat="47.59299" lon="-2.2391">
        <ele>80.8</ele>
        <time>2019-08-26T08:53:42.000Z</time>
      </trkpt>
      <trkpt lat="47.59298" lon="-2.2391">
        <ele>80.87</ele>
        <time>2019-08-26T08:53:43.000Z</time>
      </trkpt>
      <trkpt lat="47.59298" lon="-2.23909">
        <ele>80.36</ele>
        <time>2019-08-26T08:53:46.000Z</time>
      </trkpt>
      <trkpt lat="47.59299" lon="-2.2391">
        <ele>80.87</ele>
        <time>2019-08-26T08:53:50.000Z</time>
      </trkpt>
      <trkpt lat="47.593" lon="-2.2391">
        <ele>80.9</ele>
        <time>2019-08-26T08:53:51.000Z</time>
      </trkpt>
      <trkpt lat="47.59302" lon="-2.2391">
        <ele>81.42</ele>
        <time>2019-08-26T08:53:52.000Z</time>
      </trkpt>
      <trkpt lat="47.59304" lon="-2.23909">
        <ele>81.82</ele>
        <time>2019-08-26T08:53:54.000Z</time>
      </trkpt>
      <trkpt lat="47.59306" lon="-2.23909">
        <ele>82.09</ele>
        <time>2019-08-26T08:53:55.000Z</time>
      </trkpt>
      <trkpt lat="47.59307" lon="-2.23909">
        <ele>82.68</ele>
        <time>2019-08-26T08:53:56.000Z</time>
      </trkpt>
      <trkpt lat="47.59309" lon="-2.23908">
        <ele>82.83</ele>
        <time>2019-08-26T08:53:57.000Z</time>
      </trkpt>
      <trkpt lat="47.5931" lon="-2.23908">
        <ele>82.71</ele>
        <time>2019-08-26T08:53:58.000Z</time>
      </trkpt>
      <trkpt lat="47.59311" lon="-2.23908">
        <ele>83.57</ele>
        <time>2019-08-26T08:53:59.000Z</time>
      </trkpt>
      <trkpt lat="47.59312" lon="-2.23907">
        <ele>84.11</ele>
        <time>2019-08-26T08:54:00.000Z</time>
      </trkpt>
      <trkpt lat="47.59313" lon="-2.23907">
        <ele>83.68</ele>
        <time>2019-08-26T08:54:01.000Z</time>
      </trkpt>
      <trkpt lat="47.59314" lon="-2.23906">
        <ele>83.91</ele>
        <time>2019-08-26T08:54:02.000Z</time>
      </trkpt>
      <trkpt lat="47.59315" lon="-2.23906">
        <ele>83.65</ele>
        <time>2019-08-26T08:54:03.000Z</time>
      </trkpt>
      <trkpt lat="47.59316" lon="-2.23906">
        <ele>83.51</ele>
        <time>2019-08-26T08:54:04.000Z</time>
      </trkpt>
      <trkpt lat="47.59317" lon="-2.23906">
        <ele>82.34</ele>
        <time>2019-08-26T08:54:05.000Z</time>
      </trkpt>
      <trkpt lat="47.59319" lon="-2.23905">
        <ele>82.19</ele>
        <time>2019-08-26T08:54:06.000Z</time>
      </trkpt>
      <trkpt lat="47.59319" lon="-2.23905">
        <ele>81.9</ele>
        <time>2019-08-26T08:54:07.000Z</time>
      </trkpt>
      <trkpt lat="47.59321" lon="-2.23906">
        <ele>81.53</ele>
        <time>2019-08-26T08:54:09.000Z</time>
      </trkpt>
      <trkpt lat="47.59321" lon="-2.23908">
        <ele>81.5</ele>
        <time>2019-08-26T08:54:10.000Z</time>
      </trkpt>
      <trkpt lat="47.59321" lon="-2.2391">
        <ele>80.45</ele>
        <time>2019-08-26T08:54:12.000Z</time>
      </trkpt>
      <trkpt lat="47.5932" lon="-2.23912">
        <ele>80.22</ele>
        <time>2019-08-26T08:54:40.000Z</time>
      </trkpt>
      <trkpt lat="47.5932" lon="-2.23914">
        <ele>80.09</ele>
        <time>2019-08-26T08:54:41.000Z</time>
      </trkpt>
      <trkpt lat="47.5932" lon="-2.23916">
        <ele>80.77</ele>
        <time>2019-08-26T08:54:42.000Z</time>
      </trkpt>
      <trkpt lat="47.59319" lon="-2.23917">
        <ele>80.3</ele>
        <time>2019-08-26T08:54:43.000Z</time>
      </trkpt>
      <trkpt lat="47.59319" lon="-2.23919">
        <ele>80.18</ele>
        <time>2019-08-26T08:54:44.000Z</time>
      </trkpt>
      <trkpt lat="47.59318" lon="-2.2392">
        <ele>79.98</ele>
        <time>2019-08-26T08:54:45.000Z</time>
      </trkpt>
      <trkpt lat="47.59317" lon="-2.23922">
        <ele>79.86</ele>
        <time>2019-08-26T08:54:47.000Z</time>
      </trkpt>
      <trkpt lat="47.59317" lon="-2.23924">
        <ele>80.35</ele>
        <time>2019-08-26T08:54:48.000Z</time>
      </trkpt>
      <trkpt lat="47.59317" lon="-2.23925">
        <ele>79.92</ele>
        <time>2019-08-26T08:54:49.000Z</time>
      </trkpt>
      <trkpt lat="47.59316" lon="-2.23927">
        <ele>79.29</ele>
        <time>2019-08-26T08:54:50.000Z</time>
      </trkpt>
      <trkpt lat="47.59316" lon="-2.23929">
        <ele>79.21</ele>
        <time>2019-08-26T08:54:51.000Z</time>
      </trkpt>
      <trkpt lat="47.59315" lon="-2.2393">
        <ele>79.62</ele>
        <time>2019-08-26T08:54:52.000Z</time>
      </trkpt>
      <trkpt lat="47.59315" lon="-2.23932">
        <ele>78.84</ele>
        <time>2019-08-26T08:54:53.000Z</time>
      </trkpt>
      <trkpt lat="47.59314" lon="-2.23933">
        <ele>79.37</ele>
        <time>2019-08-26T08:54:54.000Z</time>
      </trkpt>
      <trkpt lat="47.59314" lon="-2.23934">
        <ele>79.82</ele>
        <time>2019-08-26T08:54:55.000Z</time>
      </trkpt>
      <trkpt lat="47.59313" lon="-2.23936">
        <ele>80.34</ele>
        <time>2019-08-26T08:54:56.000Z</time>
      </trkpt>
      <trkpt lat="47.59313" lon="-2.23937">
        <ele>80.61</ele>
        <time>2019-08-26T08:54:57.000Z</time>
      </trkpt>
      <trkpt lat="47.59312" lon="-2.23939">
        <ele>81.08</ele>
        <time>2019-08-26T08:54:59.000Z</time>
      </trkpt>
      <trkpt lat="47.59311" lon="-2.23941">
        <ele>81.06</ele>
        <time>2019-08-26T08:55:00.000Z</time>
      </trkpt>
      <trkpt lat="47.59311" lon="-2.23942">
        <ele>81.22</ele>
        <time>2019-08-26T08:55:01.000Z</time>
      </trkpt>
      <trkpt lat="47.5931" lon="-2.23943">
        <ele>80.5</ele>
        <time>2019-08-26T08:55:02.000Z</time>
      </trkpt>
      <trkpt lat="47.5931" lon="-2.23946">
        <ele>80.72</ele>
        <time>2019-08-26T08:55:04.000Z</time>
      </trkpt>
      <trkpt lat="47.59309" lon="-2.23947">
        <ele>80.32</ele>
        <time>2019-08-26T08:55:05.000Z</time>
      </trkpt>
      <trkpt lat="47.59309" lon="-2.23949">
        <ele>79.91</ele>
        <time>2019-08-26T08:55:06.000Z</time>
      </trkpt>
      <trkpt lat="47.59308" lon="-2.2395">
        <ele>79.27</ele>
        <time>2019-08-26T08:55:07.000Z</time>
      </trkpt>
      <trkpt lat="47.59308" lon="-2.23951">
        <ele>78.93</ele>
        <time>2019-08-26T08:55:08.000Z</time>
      </trkpt>
      <trkpt lat="47.59306" lon="-2.23953">
        <ele>79.45</ele>
        <time>2019-08-26T08:55:10.000Z</time>
      </trkpt>
      <trkpt lat="47.59305" lon="-2.23954">
        <ele>79.78</ele>
        <time>2019-08-26T08:55:12.000Z</time>
      </trkpt>
      <trkpt lat="47.59305" lon="-2.23953">
        <ele>78.06</ele>
        <time>2019-08-26T08:55:19.000Z</time>
      </trkpt>
      <trkpt lat="47.59304" lon="-2.23954">
        <ele>77.2</ele>
        <time>2019-08-26T08:55:22.000Z</time>
      </trkpt>
      <trkpt lat="47.59303" lon="-2.23956">
        <ele>76.8</ele>
        <time>2019-08-26T08:55:24.000Z</time>
      </trkpt>
      <trkpt lat="47.59303" lon="-2.23957">
        <ele>77.33</ele>
        <time>2019-08-26T08:55:25.000Z</time>
      </trkpt>
      <trkpt lat="47.59302" lon="-2.23958">
        <ele>77.06</ele>
        <time>2019-08-26T08:55:26.000Z</time>
      </trkpt>
      <trkpt lat="47.59301" lon="-2.2396">
        <ele>77.18</ele>
        <time>2019-08-26T08:55:27.000Z</time>
      </trkpt>
      <trkpt lat="47.59301" lon="-2.23961">
        <ele>76.68</ele>
        <time>2019-08-26T08:55:28.000Z</time>
      </trkpt>
      <trkpt lat="47.593" lon="-2.23963">
        <ele>77.46</ele>
        <time>2019-08-26T08:55:29.000Z</time>
      </trkpt>
      <trkpt lat="47.59299" lon="-2.23964">
        <ele>76.52</ele>
        <time>2019-08-26T08:55:30.000Z</time>
      </trkpt>
      <trkpt lat="47.59298" lon="-2.23965">
        <ele>77.23</ele>
        <time>2019-08-26T08:55:31.000Z</time>
      </trkpt>
      <trkpt lat="47.59297" lon="-2.23967">
        <ele>77.35</ele>
        <time>2019-08-26T08:55:32.000Z</time>
      </trkpt>
      <trkpt lat="47.59296" lon="-2.23967">
        <ele>76.62</ele>
        <time>2019-08-26T08:55:33.000Z</time>
      </trkpt>
      <trkpt lat="47.59296" lon="-2.23969">
        <ele>76.33</ele>
        <time>2019-08-26T08:55:34.000Z</time>
      </trkpt>
      <trkpt lat="47.59295" lon="-2.2397">
        <ele>76.26</ele>
        <time>2019-08-26T08:55:35.000Z</time>
      </trkpt>
      <trkpt lat="47.59294" lon="-2.23971">
        <ele>77.39</ele>
        <time>2019-08-26T08:55:36.000Z</time>
      </trkpt>
      <trkpt lat="47.59293" lon="-2.23973">
        <ele>76.77</ele>
        <time>2019-08-26T08:55:37.000Z</time>
      </trkpt>
      <trkpt lat="47.59293" lon="-2.23974">
        <ele>76.94</ele>
        <time>2019-08-26T08:55:38.000Z</time>
      </trkpt>
      <trkpt lat="47.59292" lon="-2.23975">
        <ele>76.25</ele>
        <time>2019-08-26T08:55:39.000Z</time>
      </trkpt>
      <trkpt lat="47.59291" lon="-2.23976">
        <ele>77.09</ele>
        <time>2019-08-26T08:55:40.000Z</time>
      </trkpt>
      <trkpt lat="47.5929" lon="-2.23977">
        <ele>78.27</ele>
        <time>2019-08-26T08:55:41.000Z</time>
      </trkpt>
      <trkpt lat="47.59289" lon="-2.23978">
        <ele>78.21</ele>
        <time>2019-08-26T08:55:42.000Z</time>
      </trkpt>
      <trkpt lat="47.59288" lon="-2.2398">
        <ele>78.31</ele>
        <time>2019-08-26T08:55:43.000Z</time>
      </trkpt>
      <trkpt lat="47.59287" lon="-2.23981">
        <ele>78.38</ele>
        <time>2019-08-26T08:55:44.000Z</time>
      </trkpt>
      <trkpt lat="47.59286" lon="-2.23983">
        <ele>78.58</ele>
        <time>2019-08-26T08:55:45.000Z</time>
      </trkpt>
      <trkpt lat="47.59285" lon="-2.23984">
        <ele>78.27</ele>
        <time>2019-08-26T08:55:46.000Z</time>
      </trkpt>
      <trkpt lat="47.59284" lon="-2.23985">
        <ele>78.24</ele>
        <time>2019-08-26T08:55:47.000Z</time>
      </trkpt>
      <trkpt lat="47.59283" lon="-2.23987">
        <ele>78.48</ele>
        <time>2019-08-26T08:55:48.000Z</time>
      </trkpt>
      <trkpt lat="47.59282" lon="-2.23988">
        <ele>78.31</ele>
        <time>2019-08-26T08:55:49.000Z</time>
      </trkpt>
      <trkpt lat="47.59282" lon="-2.23989">
        <ele>78.07</ele>
        <time>2019-08-26T08:55:50.000Z</time>
      </trkpt>
      <trkpt lat="47.5928" lon="-2.2399">
        <ele>77.96</ele>
        <time>2019-08-26T08:55:51.000Z</time>
      </trkpt>
      <trkpt lat="47.59279" lon="-2.23991">
        <ele>78.23</ele>
        <time>2019-08-26T08:55:52.000Z</time>
      </trkpt>
      <trkpt lat="47.59278" lon="-2.23991">
        <ele>77.29</ele>
        <time>2019-08-26T08:55:53.000Z</time>
      </trkpt>
      <trkpt lat="47.59277" lon="-2.23992">
        <ele>76.95</ele>
        <time>2019-08-26T08:55:54.000Z</time>
      </trkpt>
      <trkpt lat="47.59276" lon="-2.23993">
        <ele>76.25</ele>
        <time>2019-08-26T08:55:55.000Z</time>
      </trkpt>
      <trkpt lat="47.59275" lon="-2.23994">
        <ele>76.32</ele>
        <time>2019-08-26T08:55:56.000Z</time>
      </trkpt>
      <trkpt lat="47.59274" lon="-2.23995">
        <ele>75.77</ele>
        <time>2019-08-26T08:55:57.000Z</time>
      </trkpt>
      <trkpt lat="47.59272" lon="-2.23996">
        <ele>75.95</ele>
        <time>2019-08-26T08:55:58.000Z</time>
      </trkpt>
      <trkpt lat="47.59271" lon="-2.23997">
        <ele>75.96</ele>
        <time>2019-08-26T08:55:59.000Z</time>
      </trkpt>
      <trkpt lat="47.5927" lon="-2.23998">
        <ele>75.74</ele>
        <time>2019-08-26T08:56:00.000Z</time>
      </trkpt>
      <trkpt lat="47.59269" lon="-2.23999">
        <ele>75.07</ele>
        <time>2019-08-26T08:56:01.000Z</time>
      </trkpt>
      <trkpt lat="47.59268" lon="-2.23999">
        <ele>74.41</ele>
        <time>2019-08-26T08:56:02.000Z</time>
      </trkpt>
      <trkpt lat="47.59267" lon="-2.23999">
        <ele>72.68</ele>
        <time>2019-08-26T08:56:03.000Z</time>
      </trkpt>
      <trkpt lat="47.59265" lon="-2.24">
        <ele>72.83</ele>
        <time>2019-08-26T08:56:04.000Z</time>
      </trkpt>
      <trkpt lat="47.59264" lon="-2.24001">
        <ele>73.44</ele>
        <time>2019-08-26T08:56:05.000Z</time>
      </trkpt>
      <trkpt lat="47.59263" lon="-2.24002">
        <ele>73.23</ele>
        <time>2019-08-26T08:56:06.000Z</time>
      </trkpt>
      <trkpt lat="47.59261" lon="-2.24002">
        <ele>73.14</ele>
        <time>2019-08-26T08:56:07.000Z</time>
      </trkpt>
      <trkpt lat="47.5926" lon="-2.24003">
        <ele>73.86</ele>
        <time>2019-08-26T08:56:08.000Z</time>
      </trkpt>
      <trkpt lat="47.59259" lon="-2.24003">
        <ele>74.03</ele>
        <time>2019-08-26T08:56:09.000Z</time>
      </trkpt>
      <trkpt lat="47.59258" lon="-2.24003">
        <ele>73.01</ele>
        <time>2019-08-26T08:56:10.000Z</time>
      </trkpt>
      <trkpt lat="47.59256" lon="-2.24004">
        <ele>71.91</ele>
        <time>2019-08-26T08:56:11.000Z</time>
      </trkpt>
      <trkpt lat="47.59255" lon="-2.24004">
        <ele>71.42</ele>
        <time>2019-08-26T08:56:12.000Z</time>
      </trkpt>
      <trkpt lat="47.59254" lon="-2.24005">
        <ele>69.73</ele>
        <time>2019-08-26T08:56:14.000Z</time>
      </trkpt>
      <trkpt lat="47.59253" lon="-2.24005">
        <ele>71.66</ele>
        <time>2019-08-26T08:56:16.000Z</time>
      </trkpt>
      <trkpt lat="47.59254" lon="-2.24006">
        <ele>71.45</ele>
        <time>2019-08-26T08:56:22.000Z</time>
      </trkpt>
      <trkpt lat="47.59252" lon="-2.24007">
        <ele>71.91</ele>
        <time>2019-08-26T08:56:47.000Z</time>
      </trkpt>
      <trkpt lat="47.59251" lon="-2.24007">
        <ele>71.86</ele>
        <time>2019-08-26T08:56:48.000Z</time>
      </trkpt>
      <trkpt lat="47.5925" lon="-2.24007">
        <ele>71.27</ele>
        <time>2019-08-26T08:56:49.000Z</time>
      </trkpt>
      <trkpt lat="47.59248" lon="-2.24008">
        <ele>70.46</ele>
        <time>2019-08-26T08:56:50.000Z</time>
      </trkpt>
      <trkpt lat="47.59247" lon="-2.24008">
        <ele>70.8</ele>
        <time>2019-08-26T08:56:51.000Z</time>
      </trkpt>
      <trkpt lat="47.59246" lon="-2.24008">
        <ele>71.43</ele>
        <time>2019-08-26T08:56:52.000Z</time>
      </trkpt>
      <trkpt lat="47.59245" lon="-2.24008">
        <ele>71.79</ele>
        <time>2019-08-26T08:56:53.000Z</time>
      </trkpt>
      <trkpt lat="47.59243" lon="-2.24008">
        <ele>71.65</ele>
        <time>2019-08-26T08:56:54.000Z</time>
      </trkpt>
      <trkpt lat="47.59242" lon="-2.24008">
        <ele>71.72</ele>
        <time>2019-08-26T08:56:55.000Z</time>
      </trkpt>
      <trkpt lat="47.59241" lon="-2.24008">
        <ele>71.56</ele>
        <time>2019-08-26T08:56:56.000Z</time>
      </trkpt>
      <trkpt lat="47.59239" lon="-2.24007">
        <ele>71.33</ele>
        <time>2019-08-26T08:56:57.000Z</time>
      </trkpt>
      <trkpt lat="47.59238" lon="-2.24007">
        <ele>71.66</ele>
        <time>2019-08-26T08:56:58.000Z</time>
      </trkpt>
      <trkpt lat="47.59237" lon="-2.24007">
        <ele>71.14</ele>
        <time>2019-08-26T08:56:59.000Z</time>
      </trkpt>
      <trkpt lat="47.59236" lon="-2.24007">
        <ele>71.41</ele>
        <time>2019-08-26T08:57:00.000Z</time>
      </trkpt>
      <trkpt lat="47.59235" lon="-2.24006">
        <ele>71.86</ele>
        <time>2019-08-26T08:57:01.000Z</time>
      </trkpt>
      <trkpt lat="47.59234" lon="-2.24005">
        <ele>72.31</ele>
        <time>2019-08-26T08:57:02.000Z</time>
      </trkpt>
      <trkpt lat="47.59233" lon="-2.24004">
        <ele>71.84</ele>
        <time>2019-08-26T08:57:03.000Z</time>
      </trkpt>
      <trkpt lat="47.59232" lon="-2.24003">
        <ele>71.55</ele>
        <time>2019-08-26T08:57:04.000Z</time>
      </trkpt>
      <trkpt lat="47.59231" lon="-2.24001">
        <ele>71.91</ele>
        <time>2019-08-26T08:57:05.000Z</time>
      </trkpt>
      <trkpt lat="47.59231" lon="-2.23999">
        <ele>71.57</ele>
        <time>2019-08-26T08:57:06.000Z</time>
      </trkpt>
      <trkpt lat="47.5923" lon="-2.23998">
        <ele>71.7</ele>
        <time>2019-08-26T08:57:07.000Z</time>
      </trkpt>
      <trkpt lat="47.59229" lon="-2.23996">
        <ele>71.39</ele>
        <time>2019-08-26T08:57:08.000Z</time>
      </trkpt>
      <trkpt lat="47.59229" lon="-2.23995">
        <ele>71.61</ele>
        <time>2019-08-26T08:57:09.000Z</time>
      </trkpt>
      <trkpt lat="47.59229" lon="-2.23993">
        <ele>71.42</ele>
        <time>2019-08-26T08:57:10.000Z</time>
      </trkpt>
      <trkpt lat="47.59228" lon="-2.23991">
        <ele>72.02</ele>
        <time>2019-08-26T08:57:11.000Z</time>
      </trkpt>
      <trkpt lat="47.59227" lon="-2.2399">
        <ele>72.2</ele>
        <time>2019-08-26T08:57:12.000Z</time>
      </trkpt>
      <trkpt lat="47.59227" lon="-2.23988">
        <ele>72.95</ele>
        <time>2019-08-26T08:57:13.000Z</time>
      </trkpt>
      <trkpt lat="47.59226" lon="-2.23987">
        <ele>73.64</ele>
        <time>2019-08-26T08:57:14.000Z</time>
      </trkpt>
      <trkpt lat="47.59226" lon="-2.23985">
        <ele>74.73</ele>
        <time>2019-08-26T08:57:15.000Z</time>
      </trkpt>
      <trkpt lat="47.59225" lon="-2.23984">
        <ele>73.88</ele>
        <time>2019-08-26T08:57:16.000Z</time>
      </trkpt>
      <trkpt lat="47.59224" lon="-2.23982">
        <ele>73.47</ele>
        <time>2019-08-26T08:57:17.000Z</time>
      </trkpt>
      <trkpt lat="47.59224" lon="-2.23981">
        <ele>73.83</ele>
        <time>2019-08-26T08:57:18.000Z</time>
      </trkpt>
      <trkpt lat="47.59223" lon="-2.23979">
        <ele>73.86</ele>
        <time>2019-08-26T08:57:19.000Z</time>
      </trkpt>
      <trkpt lat="47.59222" lon="-2.23977">
        <ele>73.96</ele>
        <time>2019-08-26T08:57:20.000Z</time>
      </trkpt>
      <trkpt lat="47.59222" lon="-2.23976">
        <ele>74.06</ele>
        <time>2019-08-26T08:57:21.000Z</time>
      </trkpt>
      <trkpt lat="47.59221" lon="-2.23974">
        <ele>74.45</ele>
        <time>2019-08-26T08:57:22.000Z</time>
      </trkpt>
      <trkpt lat="47.59221" lon="-2.23972">
        <ele>73.99</ele>
        <time>2019-08-26T08:57:23.000Z</time>
      </trkpt>
      <trkpt lat="47.5922" lon="-2.23971">
        <ele>74.46</ele>
        <time>2019-08-26T08:57:24.000Z</time>
      </trkpt>
      <trkpt lat="47.59219" lon="-2.23969">
        <ele>74.69</ele>
        <time>2019-08-26T08:57:25.000Z</time>
      </trkpt>
      <trkpt lat="47.59218" lon="-2.23967">
        <ele>74.68</ele>
        <time>2019-08-26T08:57:26.000Z</time>
      </trkpt>
      <trkpt lat="47.59218" lon="-2.23966">
        <ele>74.12</ele>
        <time>2019-08-26T08:57:27.000Z</time>
      </trkpt>
      <trkpt lat="47.59217" lon="-2.23964">
        <ele>74.37</ele>
        <time>2019-08-26T08:57:28.000Z</time>
      </trkpt>
      <trkpt lat="47.59217" lon="-2.23963">
        <ele>75.35</ele>
        <time>2019-08-26T08:57:29.000Z</time>
      </trkpt>
      <trkpt lat="47.59216" lon="-2.23961">
        <ele>75.89</ele>
        <time>2019-08-26T08:57:30.000Z</time>
      </trkpt>
      <trkpt lat="47.59215" lon="-2.2396">
        <ele>75.87</ele>
        <time>2019-08-26T08:57:31.000Z</time>
      </trkpt>
      <trkpt lat="47.59215" lon="-2.23958">
        <ele>75.47</ele>
        <time>2019-08-26T08:57:32.000Z</time>
      </trkpt>
      <trkpt lat="47.59214" lon="-2.23957">
        <ele>74.99</ele>
        <time>2019-08-26T08:57:33.000Z</time>
      </trkpt>
      <trkpt lat="47.59213" lon="-2.23955">
        <ele>75.33</ele>
        <time>2019-08-26T08:57:34.000Z</time>
      </trkpt>
      <trkpt lat="47.59213" lon="-2.23954">
        <ele>75.5</ele>
        <time>2019-08-26T08:57:35.000Z</time>
      </trkpt>
      <trkpt lat="47.59212" lon="-2.23953">
        <ele>75.74</ele>
        <time>2019-08-26T08:57:36.000Z</time>
      </trkpt>
      <trkpt lat="47.59212" lon="-2.23951">
        <ele>75.17</ele>
        <time>2019-08-26T08:57:37.000Z</time>
      </trkpt>
      <trkpt lat="47.59211" lon="-2.2395">
        <ele>74.63</ele>
        <time>2019-08-26T08:57:38.000Z</time>
      </trkpt>
      <trkpt lat="47.59211" lon="-2.23948">
        <ele>75.01</ele>
        <time>2019-08-26T08:57:39.000Z</time>
      </trkpt>
      <trkpt lat="47.5921" lon="-2.23947">
        <ele>75.21</ele>
        <time>2019-08-26T08:57:40.000Z</time>
      </trkpt>
      <trkpt lat="47.5921" lon="-2.23945">
        <ele>75.45</ele>
        <time>2019-08-26T08:57:41.000Z</time>
      </trkpt>
      <trkpt lat="47.59209" lon="-2.23944">
        <ele>75.7</ele>
        <time>2019-08-26T08:57:42.000Z</time>
      </trkpt>
      <trkpt lat="47.59208" lon="-2.23942">
        <ele>75.61</ele>
        <time>2019-08-26T08:57:43.000Z</time>
      </trkpt>
      <trkpt lat="47.59208" lon="-2.23941">
        <ele>75.65</ele>
        <time>2019-08-26T08:57:44.000Z</time>
      </trkpt>
      <trkpt lat="47.59207" lon="-2.23939">
        <ele>75.39</ele>
        <time>2019-08-26T08:57:45.000Z</time>
      </trkpt>
      <trkpt lat="47.59206" lon="-2.23937">
        <ele>75.64</ele>
        <time>2019-08-26T08:57:46.000Z</time>
      </trkpt>
      <trkpt lat="47.59206" lon="-2.23935">
        <ele>75.94</ele>
        <time>2019-08-26T08:57:47.000Z</time>
      </trkpt>
      <trkpt lat="47.59205" lon="-2.23934">
        <ele>75.49</ele>
        <time>2019-08-26T08:57:48.000Z</time>
      </trkpt>
      <trkpt lat="47.59205" lon="-2.23932">
        <ele>75.93</ele>
        <time>2019-08-26T08:57:49.000Z</time>
      </trkpt>
      <trkpt lat="47.59204" lon="-2.2393">
        <ele>75.88</ele>
        <time>2019-08-26T08:57:50.000Z</time>
      </trkpt>
      <trkpt lat="47.59203" lon="-2.23929">
        <ele>75.54</ele>
        <time>2019-08-26T08:57:51.000Z</time>
      </trkpt>
      <trkpt lat="47.59203" lon="-2.23927">
        <ele>75.7</ele>
        <time>2019-08-26T08:57:52.000Z</time>
      </trkpt>
      <trkpt lat="47.59202" lon="-2.23925">
        <ele>76.7</ele>
        <time>2019-08-26T08:57:53.000Z</time>
      </trkpt>
      <trkpt lat="47.59201" lon="-2.23924">
        <ele>76.68</ele>
        <time>2019-08-26T08:57:54.000Z</time>
      </trkpt>
      <trkpt lat="47.59201" lon="-2.23922">
        <ele>76.29</ele>
        <time>2019-08-26T08:57:55.000Z</time>
      </trkpt>
      <trkpt lat="47.592" lon="-2.23921">
        <ele>76.12</ele>
        <time>2019-08-26T08:57:56.000Z</time>
      </trkpt>
      <trkpt lat="47.59199" lon="-2.2392">
        <ele>75.95</ele>
        <time>2019-08-26T08:57:57.000Z</time>
      </trkpt>
      <trkpt lat="47.59198" lon="-2.23918">
        <ele>76.4</ele>
        <time>2019-08-26T08:57:58.000Z</time>
      </trkpt>
      <trkpt lat="47.59198" lon="-2.23917">
        <ele>77.05</ele>
        <time>2019-08-26T08:57:59.000Z</time>
      </trkpt>
      <trkpt lat="47.59197" lon="-2.23916">
        <ele>77.38</ele>
        <time>2019-08-26T08:58:00.000Z</time>
      </trkpt>
      <trkpt lat="47.59196" lon="-2.23914">
        <ele>77.31</ele>
        <time>2019-08-26T08:58:01.000Z</time>
      </trkpt>
      <trkpt lat="47.59195" lon="-2.23913">
        <ele>77.62</ele>
        <time>2019-08-26T08:58:02.000Z</time>
      </trkpt>
      <trkpt lat="47.59195" lon="-2.23911">
        <ele>78.03</ele>
        <time>2019-08-26T08:58:03.000Z</time>
      </trkpt>
      <trkpt lat="47.59194" lon="-2.2391">
        <ele>77.95</ele>
        <time>2019-08-26T08:58:04.000Z</time>
      </trkpt>
      <trkpt lat="47.59193" lon="-2.23908">
        <ele>78.31</ele>
        <time>2019-08-26T08:58:05.000Z</time>
      </trkpt>
      <trkpt lat="47.59192" lon="-2.23907">
        <ele>78.52</ele>
        <time>2019-08-26T08:58:06.000Z</time>
      </trkpt>
      <trkpt lat="47.59191" lon="-2.23905">
        <ele>77.96</ele>
        <time>2019-08-26T08:58:07.000Z</time>
      </trkpt>
      <trkpt lat="47.5919" lon="-2.23904">
        <ele>77.46</ele>
        <time>2019-08-26T08:58:08.000Z</time>
      </trkpt>
      <trkpt lat="47.5919" lon="-2.23902">
        <ele>76.72</ele>
        <time>2019-08-26T08:58:09.000Z</time>
      </trkpt>
      <trkpt lat="47.59189" lon="-2.23901">
        <ele>76.77</ele>
        <time>2019-08-26T08:58:10.000Z</time>
      </trkpt>
      <trkpt lat="47.59188" lon="-2.239">
        <ele>77.09</ele>
        <time>2019-08-26T08:58:11.000Z</time>
      </trkpt>
      <trkpt lat="47.59187" lon="-2.23899">
        <ele>77.66</ele>
        <time>2019-08-26T08:58:12.000Z</time>
      </trkpt>
      <trkpt lat="47.59186" lon="-2.23898">
        <ele>77.63</ele>
        <time>2019-08-26T08:58:13.000Z</time>
      </trkpt>
      <trkpt lat="47.59185" lon="-2.23897">
        <ele>76.97</ele>
        <time>2019-08-26T08:58:14.000Z</time>
      </trkpt>
      <trkpt lat="47.59184" lon="-2.23896">
        <ele>76.02</ele>
        <time>2019-08-26T08:58:16.000Z</time>
      </trkpt>
      <trkpt lat="47.59183" lon="-2.23895">
        <ele>75.74</ele>
        <time>2019-08-26T08:58:17.000Z</time>
      </trkpt>
      <trkpt lat="47.59182" lon="-2.23894">
        <ele>74.83</ele>
        <time>2019-08-26T08:58:18.000Z</time>
      </trkpt>
      <trkpt lat="47.59181" lon="-2.23893">
        <ele>74.82</ele>
        <time>2019-08-26T08:58:19.000Z</time>
      </trkpt>
      <trkpt lat="47.5918" lon="-2.23893">
        <ele>73.93</ele>
        <time>2019-08-26T08:58:20.000Z</time>
      </trkpt>
      <trkpt lat="47.59179" lon="-2.23892">
        <ele>72.93</ele>
        <time>2019-08-26T08:58:21.000Z</time>
      </trkpt>
      <trkpt lat="47.59178" lon="-2.23891">
        <ele>73.54</ele>
        <time>2019-08-26T08:58:22.000Z</time>
      </trkpt>
      <trkpt lat="47.59177" lon="-2.23891">
        <ele>73.71</ele>
        <time>2019-08-26T08:58:23.000Z</time>
      </trkpt>
      <trkpt lat="47.59176" lon="-2.2389">
        <ele>73.03</ele>
        <time>2019-08-26T08:58:24.000Z</time>
      </trkpt>
      <trkpt lat="47.59176" lon="-2.23889">
        <ele>73.26</ele>
        <time>2019-08-26T08:58:25.000Z</time>
      </trkpt>
      <trkpt lat="47.59175" lon="-2.23888">
        <ele>73.46</ele>
        <time>2019-08-26T08:58:26.000Z</time>
      </trkpt>
      <trkpt lat="47.59174" lon="-2.23888">
        <ele>73.75</ele>
        <time>2019-08-26T08:58:27.000Z</time>
      </trkpt>
      <trkpt lat="47.59173" lon="-2.23887">
        <ele>74.18</ele>
        <time>2019-08-26T08:58:28.000Z</time>
      </trkpt>
      <trkpt lat="47.59172" lon="-2.23885">
        <ele>74.06</ele>
        <time>2019-08-26T08:58:29.000Z</time>
      </trkpt>
      <trkpt lat="47.59171" lon="-2.23884">
        <ele>74.64</ele>
        <time>2019-08-26T08:58:30.000Z</time>
      </trkpt>
      <trkpt lat="47.5917" lon="-2.23883">
        <ele>74.44</ele>
        <time>2019-08-26T08:58:31.000Z</time>
      </trkpt>
      <trkpt lat="47.59169" lon="-2.23882">
        <ele>74.16</ele>
        <time>2019-08-26T08:58:32.000Z</time>
      </trkpt>
      <trkpt lat="47.59168" lon="-2.23881">
        <ele>73.88</ele>
        <time>2019-08-26T08:58:33.000Z</time>
      </trkpt>
      <trkpt lat="47.59166" lon="-2.2388">
        <ele>74.14</ele>
        <time>2019-08-26T08:58:34.000Z</time>
      </trkpt>
      <trkpt lat="47.59166" lon="-2.23879">
        <ele>73.54</ele>
        <time>2019-08-26T08:58:35.000Z</time>
      </trkpt>
      <trkpt lat="47.59164" lon="-2.23879">
        <ele>73.05</ele>
        <time>2019-08-26T08:58:36.000Z</time>
      </trkpt>
      <trkpt lat="47.59163" lon="-2.23878">
        <ele>73.69</ele>
        <time>2019-08-26T08:58:37.000Z</time>
      </trkpt>
      <trkpt lat="47.59163" lon="-2.23877">
        <ele>73.72</ele>
        <time>2019-08-26T08:58:38.000Z</time>
      </trkpt>
      <trkpt lat="47.59162" lon="-2.23876">
        <ele>74.34</ele>
        <time>2019-08-26T08:58:39.000Z</time>
      </trkpt>
      <trkpt lat="47.59161" lon="-2.23875">
        <ele>74.99</ele>
        <time>2019-08-26T08:58:40.000Z</time>
      </trkpt>
      <trkpt lat="47.5916" lon="-2.23874">
        <ele>73.93</ele>
        <time>2019-08-26T08:58:41.000Z</time>
      </trkpt>
      <trkpt lat="47.59158" lon="-2.23873">
        <ele>72.68</ele>
        <time>2019-08-26T08:58:43.000Z</time>
      </trkpt>
      <trkpt lat="47.59158" lon="-2.23872">
        <ele>72.62</ele>
        <time>2019-08-26T08:58:45.000Z</time>
      </trkpt>
      <trkpt lat="47.59156" lon="-2.2387">
        <ele>72.57</ele>
        <time>2019-08-26T08:58:47.000Z</time>
      </trkpt>
      <trkpt lat="47.59155" lon="-2.23869">
        <ele>72.77</ele>
        <time>2019-08-26T08:58:48.000Z</time>
      </trkpt>
      <trkpt lat="47.59155" lon="-2.23869">
        <ele>73.08</ele>
        <time>2019-08-26T08:58:49.000Z</time>
      </trkpt>
      <trkpt lat="47.59154" lon="-2.23868">
        <ele>71.48</ele>
        <time>2019-08-26T08:58:50.000Z</time>
      </trkpt>
      <trkpt lat="47.59153" lon="-2.23866">
        <ele>73.67</ele>
        <time>2019-08-26T08:58:51.000Z</time>
      </trkpt>
      <trkpt lat="47.59152" lon="-2.23865">
        <ele>72.97</ele>
        <time>2019-08-26T08:58:52.000Z</time>
      </trkpt>
      <trkpt lat="47.59151" lon="-2.23863">
        <ele>72.96</ele>
        <time>2019-08-26T08:58:53.000Z</time>
      </trkpt>
      <trkpt lat="47.5915" lon="-2.23862">
        <ele>72.16</ele>
        <time>2019-08-26T08:58:54.000Z</time>
      </trkpt>
      <trkpt lat="47.59149" lon="-2.23861">
        <ele>72.31</ele>
        <time>2019-08-26T08:58:55.000Z</time>
      </trkpt>
      <trkpt lat="47.59148" lon="-2.23859">
        <ele>72.68</ele>
        <time>2019-08-26T08:58:56.000Z</time>
      </trkpt>
      <trkpt lat="47.59147" lon="-2.23858">
        <ele>72.08</ele>
        <time>2019-08-26T08:58:57.000Z</time>
      </trkpt>
      <trkpt lat="47.59146" lon="-2.23857">
        <ele>71.35</ele>
        <time>2019-08-26T08:58:58.000Z</time>
      </trkpt>
      <trkpt lat="47.59145" lon="-2.23856">
        <ele>70.6</ele>
        <time>2019-08-26T08:58:59.000Z</time>
      </trkpt>
      <trkpt lat="47.59144" lon="-2.23854">
        <ele>69.63</ele>
        <time>2019-08-26T08:59:00.000Z</time>
      </trkpt>
      <trkpt lat="47.59143" lon="-2.23853">
        <ele>69.63</ele>
        <time>2019-08-26T08:59:01.000Z</time>
      </trkpt>
      <trkpt lat="47.59142" lon="-2.23851">
        <ele>69.48</ele>
        <time>2019-08-26T08:59:02.000Z</time>
      </trkpt>
      <trkpt lat="47.59142" lon="-2.2385">
        <ele>69.33</ele>
        <time>2019-08-26T08:59:03.000Z</time>
      </trkpt>
      <trkpt lat="47.59141" lon="-2.23849">
        <ele>69.18</ele>
        <time>2019-08-26T08:59:04.000Z</time>
      </trkpt>
      <trkpt lat="47.5914" lon="-2.23848">
        <ele>69.52</ele>
        <time>2019-08-26T08:59:05.000Z</time>
      </trkpt>
      <trkpt lat="47.59139" lon="-2.23846">
        <ele>69.4</ele>
        <time>2019-08-26T08:59:06.000Z</time>
      </trkpt>
      <trkpt lat="47.59138" lon="-2.23845">
        <ele>68.92</ele>
        <time>2019-08-26T08:59:07.000Z</time>
      </trkpt>
      <trkpt lat="47.59137" lon="-2.23843">
        <ele>69.18</ele>
        <time>2019-08-26T08:59:08.000Z</time>
      </trkpt>
      <trkpt lat="47.59137" lon="-2.23841">
        <ele>69.17</ele>
        <time>2019-08-26T08:59:09.000Z</time>
      </trkpt>
      <trkpt lat="47.59135" lon="-2.2384">
        <ele>70.01</ele>
        <time>2019-08-26T08:59:10.000Z</time>
      </trkpt>
      <trkpt lat="47.59135" lon="-2.23838">
        <ele>70.42</ele>
        <time>2019-08-26T08:59:11.000Z</time>
      </trkpt>
      <trkpt lat="47.59134" lon="-2.23837">
        <ele>70.07</ele>
        <time>2019-08-26T08:59:12.000Z</time>
      </trkpt>
      <trkpt lat="47.59133" lon="-2.23835">
        <ele>70.23</ele>
        <time>2019-08-26T08:59:13.000Z</time>
      </trkpt>
      <trkpt lat="47.59132" lon="-2.23834">
        <ele>70.39</ele>
        <time>2019-08-26T08:59:14.000Z</time>
      </trkpt>
      <trkpt lat="47.59131" lon="-2.23833">
        <ele>69.99</ele>
        <time>2019-08-26T08:59:15.000Z</time>
      </trkpt>
      <trkpt lat="47.59131" lon="-2.23832">
        <ele>69.52</ele>
        <time>2019-08-26T08:59:16.000Z</time>
      </trkpt>
      <trkpt lat="47.5913" lon="-2.23831">
        <ele>69.3</ele>
        <time>2019-08-26T08:59:17.000Z</time>
      </trkpt>
      <trkpt lat="47.59129" lon="-2.2383">
        <ele>69.22</ele>
        <time>2019-08-26T08:59:18.000Z</time>
      </trkpt>
      <trkpt lat="47.59128" lon="-2.23829">
        <ele>67.93</ele>
        <time>2019-08-26T08:59:19.000Z</time>
      </trkpt>
      <trkpt lat="47.59128" lon="-2.23828">
        <ele>67.15</ele>
        <time>2019-08-26T08:59:20.000Z</time>
      </trkpt>
      <trkpt lat="47.59127" lon="-2.23826">
        <ele>67.41</ele>
        <time>2019-08-26T08:59:21.000Z</time>
      </trkpt>
      <trkpt lat="47.59126" lon="-2.23825">
        <ele>67.36</ele>
        <time>2019-08-26T08:59:22.000Z</time>
      </trkpt>
      <trkpt lat="47.59125" lon="-2.23824">
        <ele>66.99</ele>
        <time>2019-08-26T08:59:23.000Z</time>
      </trkpt>
      <trkpt lat="47.59124" lon="-2.23823">
        <ele>67.38</ele>
        <time>2019-08-26T08:59:24.000Z</time>
      </trkpt>
      <trkpt lat="47.59123" lon="-2.23821">
        <ele>66.72</ele>
        <time>2019-08-26T08:59:25.000Z</time>
      </trkpt>
      <trkpt lat="47.59123" lon="-2.2382">
        <ele>65.86</ele>
        <time>2019-08-26T08:59:26.000Z</time>
      </trkpt>
      <trkpt lat="47.59122" lon="-2.2382">
        <ele>65.13</ele>
        <time>2019-08-26T08:59:27.000Z</time>
      </trkpt>
      <trkpt lat="47.59121" lon="-2.23819">
        <ele>65.52</ele>
        <time>2019-08-26T08:59:28.000Z</time>
      </trkpt>
      <trkpt lat="47.5912" lon="-2.23818">
        <ele>66.17</ele>
        <time>2019-08-26T08:59:29.000Z</time>
      </trkpt>
      <trkpt lat="47.59119" lon="-2.23817">
        <ele>65.92</ele>
        <time>2019-08-26T08:59:30.000Z</time>
      </trkpt>
      <trkpt lat="47.59118" lon="-2.23816">
        <ele>66.53</ele>
        <time>2019-08-26T08:59:31.000Z</time>
      </trkpt>
      <trkpt lat="47.59117" lon="-2.23816">
        <ele>67.25</ele>
        <time>2019-08-26T08:59:32.000Z</time>
      </trkpt>
      <trkpt lat="47.59116" lon="-2.23815">
        <ele>66.75</ele>
        <time>2019-08-26T08:59:33.000Z</time>
      </trkpt>
      <trkpt lat="47.59115" lon="-2.23814">
        <ele>66.51</ele>
        <time>2019-08-26T08:59:34.000Z</time>
      </trkpt>
      <trkpt lat="47.59114" lon="-2.23814">
        <ele>66.75</ele>
        <time>2019-08-26T08:59:35.000Z</time>
      </trkpt>
      <trkpt lat="47.59113" lon="-2.23813">
        <ele>67.28</ele>
        <time>2019-08-26T08:59:36.000Z</time>
      </trkpt>
      <trkpt lat="47.59112" lon="-2.23812">
        <ele>66.71</ele>
        <time>2019-08-26T08:59:37.000Z</time>
      </trkpt>
      <trkpt lat="47.59111" lon="-2.23811">
        <ele>65.98</ele>
        <time>2019-08-26T08:59:38.000Z</time>
      </trkpt>
      <trkpt lat="47.5911" lon="-2.2381">
        <ele>65.3</ele>
        <time>2019-08-26T08:59:39.000Z</time>
      </trkpt>
      <trkpt lat="47.59108" lon="-2.23809">
        <ele>64.99</ele>
        <time>2019-08-26T08:59:40.000Z</time>
      </trkpt>
      <trkpt lat="47.59107" lon="-2.23808">
        <ele>64.63</ele>
        <time>2019-08-26T08:59:41.000Z</time>
      </trkpt>
      <trkpt lat="47.59106" lon="-2.23808">
        <ele>65.15</ele>
        <time>2019-08-26T08:59:42.000Z</time>
      </trkpt>
      <trkpt lat="47.59104" lon="-2.23807">
        <ele>65.68</ele>
        <time>2019-08-26T08:59:43.000Z</time>
      </trkpt>
      <trkpt lat="47.59103" lon="-2.23807">
        <ele>65.34</ele>
        <time>2019-08-26T08:59:44.000Z</time>
      </trkpt>
      <trkpt lat="47.59102" lon="-2.23806">
        <ele>64.72</ele>
        <time>2019-08-26T08:59:45.000Z</time>
      </trkpt>
      <trkpt lat="47.59101" lon="-2.23805">
        <ele>64.89</ele>
        <time>2019-08-26T08:59:46.000Z</time>
      </trkpt>
      <trkpt lat="47.591" lon="-2.23805">
        <ele>64.9</ele>
        <time>2019-08-26T08:59:47.000Z</time>
      </trkpt>
      <trkpt lat="47.59099" lon="-2.23804">
        <ele>63.8</ele>
        <time>2019-08-26T08:59:48.000Z</time>
      </trkpt>
      <trkpt lat="47.59098" lon="-2.23803">
        <ele>63.97</ele>
        <time>2019-08-26T08:59:49.000Z</time>
      </trkpt>
      <trkpt lat="47.59097" lon="-2.23802">
        <ele>63.63</ele>
        <time>2019-08-26T08:59:50.000Z</time>
      </trkpt>
      <trkpt lat="47.59095" lon="-2.23801">
        <ele>64.42</ele>
        <time>2019-08-26T08:59:51.000Z</time>
      </trkpt>
      <trkpt lat="47.59094" lon="-2.238">
        <ele>64.34</ele>
        <time>2019-08-26T08:59:52.000Z</time>
      </trkpt>
      <trkpt lat="47.59094" lon="-2.23799">
        <ele>63.77</ele>
        <time>2019-08-26T08:59:53.000Z</time>
      </trkpt>
      <trkpt lat="47.59092" lon="-2.23797">
        <ele>64.33</ele>
        <time>2019-08-26T08:59:54.000Z</time>
      </trkpt>
      <trkpt lat="47.59091" lon="-2.23796">
        <ele>64.13</ele>
        <time>2019-08-26T08:59:55.000Z</time>
      </trkpt>
      <trkpt lat="47.5909" lon="-2.23796">
        <ele>62.97</ele>
        <time>2019-08-26T08:59:56.000Z</time>
      </trkpt>
      <trkpt lat="47.59089" lon="-2.23795">
        <ele>62.64</ele>
        <time>2019-08-26T08:59:57.000Z</time>
      </trkpt>
      <trkpt lat="47.59087" lon="-2.23794">
        <ele>62.31</ele>
        <time>2019-08-26T08:59:58.000Z</time>
      </trkpt>
      <trkpt lat="47.59086" lon="-2.23793">
        <ele>63</ele>
        <time>2019-08-26T08:59:59.000Z</time>
      </trkpt>
      <trkpt lat="47.59086" lon="-2.23792">
        <ele>63.33</ele>
        <time>2019-08-26T09:00:00.000Z</time>
      </trkpt>
      <trkpt lat="47.59084" lon="-2.23791">
        <ele>63.31</ele>
        <time>2019-08-26T09:00:02.000Z</time>
      </trkpt>
      <trkpt lat="47.59085" lon="-2.23792">
        <ele>61.95</ele>
        <time>2019-08-26T09:00:07.000Z</time>
      </trkpt>
      <trkpt lat="47.59086" lon="-2.23793">
        <ele>61.4</ele>
        <time>2019-08-26T09:00:12.000Z</time>
      </trkpt>
      <trkpt lat="47.59084" lon="-2.23793">
        <ele>62.55</ele>
        <time>2019-08-26T09:00:35.000Z</time>
      </trkpt>
      <trkpt lat="47.59083" lon="-2.23794">
        <ele>62.97</ele>
        <time>2019-08-26T09:00:37.000Z</time>
      </trkpt>
      <trkpt lat="47.59082" lon="-2.23794">
        <ele>63.13</ele>
        <time>2019-08-26T09:00:38.000Z</time>
      </trkpt>
      <trkpt lat="47.59081" lon="-2.23795">
        <ele>63.09</ele>
        <time>2019-08-26T09:00:39.000Z</time>
      </trkpt>
      <trkpt lat="47.5908" lon="-2.23795">
        <ele>62.4</ele>
        <time>2019-08-26T09:00:40.000Z</time>
      </trkpt>
      <trkpt lat="47.59079" lon="-2.23796">
        <ele>62.47</ele>
        <time>2019-08-26T09:00:41.000Z</time>
      </trkpt>
      <trkpt lat="47.59078" lon="-2.23796">
        <ele>62.65</ele>
        <time>2019-08-26T09:00:42.000Z</time>
      </trkpt>
      <trkpt lat="47.59077" lon="-2.23797">
        <ele>63.27</ele>
        <time>2019-08-26T09:00:43.000Z</time>
      </trkpt>
      <trkpt lat="47.59076" lon="-2.23798">
        <ele>63.64</ele>
        <time>2019-08-26T09:00:44.000Z</time>
      </trkpt>
      <trkpt lat="47.59075" lon="-2.23798">
        <ele>64.31</ele>
        <time>2019-08-26T09:00:45.000Z</time>
      </trkpt>
      <trkpt lat="47.59074" lon="-2.23799">
        <ele>64.06</ele>
        <time>2019-08-26T09:00:46.000Z</time>
      </trkpt>
      <trkpt lat="47.59073" lon="-2.238">
        <ele>63.49</ele>
        <time>2019-08-26T09:00:47.000Z</time>
      </trkpt>
      <trkpt lat="47.59071" lon="-2.238">
        <ele>63.75</ele>
        <time>2019-08-26T09:00:48.000Z</time>
      </trkpt>
      <trkpt lat="47.5907" lon="-2.23801">
        <ele>64.2</ele>
        <time>2019-08-26T09:00:49.000Z</time>
      </trkpt>
      <trkpt lat="47.59069" lon="-2.23802">
        <ele>63.82</ele>
        <time>2019-08-26T09:00:50.000Z</time>
      </trkpt>
      <trkpt lat="47.59068" lon="-2.23803">
        <ele>63.47</ele>
        <time>2019-08-26T09:00:51.000Z</time>
      </trkpt>
      <trkpt lat="47.59067" lon="-2.23803">
        <ele>62.95</ele>
        <time>2019-08-26T09:00:52.000Z</time>
      </trkpt>
      <trkpt lat="47.59066" lon="-2.23804">
        <ele>62.68</ele>
        <time>2019-08-26T09:00:53.000Z</time>
      </trkpt>
      <trkpt lat="47.59065" lon="-2.23805">
        <ele>62.6</ele>
        <time>2019-08-26T09:00:54.000Z</time>
      </trkpt>
      <trkpt lat="47.59064" lon="-2.23806">
        <ele>63.13</ele>
        <time>2019-08-26T09:00:55.000Z</time>
      </trkpt>
      <trkpt lat="47.59063" lon="-2.23807">
        <ele>63.23</ele>
        <time>2019-08-26T09:00:56.000Z</time>
      </trkpt>
      <trkpt lat="47.59062" lon="-2.23808">
        <ele>63.34</ele>
        <time>2019-08-26T09:00:57.000Z</time>
      </trkpt>
      <trkpt lat="47.59061" lon="-2.23809">
        <ele>63.25</ele>
        <time>2019-08-26T09:00:58.000Z</time>
      </trkpt>
      <trkpt lat="47.5906" lon="-2.2381">
        <ele>63.04</ele>
        <time>2019-08-26T09:00:59.000Z</time>
      </trkpt>
      <trkpt lat="47.59059" lon="-2.23811">
        <ele>62.79</ele>
        <time>2019-08-26T09:01:00.000Z</time>
      </trkpt>
      <trkpt lat="47.59058" lon="-2.23813">
        <ele>62.48</ele>
        <time>2019-08-26T09:01:01.000Z</time>
      </trkpt>
      <trkpt lat="47.59057" lon="-2.23814">
        <ele>63.15</ele>
        <time>2019-08-26T09:01:02.000Z</time>
      </trkpt>
      <trkpt lat="47.59057" lon="-2.23815">
        <ele>62.98</ele>
        <time>2019-08-26T09:01:03.000Z</time>
      </trkpt>
      <trkpt lat="47.59056" lon="-2.23816">
        <ele>62.52</ele>
        <time>2019-08-26T09:01:04.000Z</time>
      </trkpt>
      <trkpt lat="47.59055" lon="-2.23817">
        <ele>61.92</ele>
        <time>2019-08-26T09:01:05.000Z</time>
      </trkpt>
      <trkpt lat="47.59055" lon="-2.23818">
        <ele>61.75</ele>
        <time>2019-08-26T09:01:06.000Z</time>
      </trkpt>
      <trkpt lat="47.59054" lon="-2.23819">
        <ele>61.52</ele>
        <time>2019-08-26T09:01:07.000Z</time>
      </trkpt>
      <trkpt lat="47.59054" lon="-2.23821">
        <ele>61.42</ele>
        <time>2019-08-26T09:01:08.000Z</time>
      </trkpt>
      <trkpt lat="47.59053" lon="-2.23822">
        <ele>61.63</ele>
        <time>2019-08-26T09:01:09.000Z</time>
      </trkpt>
      <trkpt lat="47.59053" lon="-2.23824">
        <ele>62.12</ele>
        <time>2019-08-26T09:01:10.000Z</time>
      </trkpt>
      <trkpt lat="47.59052" lon="-2.23826">
        <ele>62.56</ele>
        <time>2019-08-26T09:01:11.000Z</time>
      </trkpt>
      <trkpt lat="47.59052" lon="-2.23827">
        <ele>62.47</ele>
        <time>2019-08-26T09:01:12.000Z</time>
      </trkpt>
      <trkpt lat="47.59052" lon="-2.23829">
        <ele>62.04</ele>
        <time>2019-08-26T09:01:13.000Z</time>
      </trkpt>
      <trkpt lat="47.59052" lon="-2.23831">
        <ele>62.08</ele>
        <time>2019-08-26T09:01:14.000Z</time>
      </trkpt>
      <trkpt lat="47.59052" lon="-2.23833">
        <ele>63.17</ele>
        <time>2019-08-26T09:01:15.000Z</time>
      </trkpt>
      <trkpt lat="47.59051" lon="-2.23834">
        <ele>63.98</ele>
        <time>2019-08-26T09:01:16.000Z</time>
      </trkpt>
      <trkpt lat="47.59051" lon="-2.23836">
        <ele>63.54</ele>
        <time>2019-08-26T09:01:17.000Z</time>
      </trkpt>
      <trkpt lat="47.59051" lon="-2.23837">
        <ele>63.67</ele>
        <time>2019-08-26T09:01:18.000Z</time>
      </trkpt>
      <trkpt lat="47.5905" lon="-2.23839">
        <ele>63.44</ele>
        <time>2019-08-26T09:01:19.000Z</time>
      </trkpt>
      <trkpt lat="47.5905" lon="-2.23841">
        <ele>63.06</ele>
        <time>2019-08-26T09:01:20.000Z</time>
      </trkpt>
      <trkpt lat="47.5905" lon="-2.23843">
        <ele>62.58</ele>
        <time>2019-08-26T09:01:21.000Z</time>
      </trkpt>
      <trkpt lat="47.59049" lon="-2.23845">
        <ele>61.39</ele>
        <time>2019-08-26T09:01:22.000Z</time>
      </trkpt>
      <trkpt lat="47.59049" lon="-2.23846">
        <ele>62.02</ele>
        <time>2019-08-26T09:01:23.000Z</time>
      </trkpt>
      <trkpt lat="47.59049" lon="-2.23848">
        <ele>62.33</ele>
        <time>2019-08-26T09:01:24.000Z</time>
      </trkpt>
      <trkpt lat="47.59049" lon="-2.2385">
        <ele>62.07</ele>
        <time>2019-08-26T09:01:25.000Z</time>
      </trkpt>
      <trkpt lat="47.59048" lon="-2.23851">
        <ele>62.11</ele>
        <time>2019-08-26T09:01:26.000Z</time>
      </trkpt>
      <trkpt lat="47.59048" lon="-2.23853">
        <ele>61.95</ele>
        <time>2019-08-26T09:01:27.000Z</time>
      </trkpt>
      <trkpt lat="47.59047" lon="-2.23855">
        <ele>61.81</ele>
        <time>2019-08-26T09:01:28.000Z</time>
      </trkpt>
      <trkpt lat="47.59047" lon="-2.23856">
        <ele>62.52</ele>
        <time>2019-08-26T09:01:29.000Z</time>
      </trkpt>
      <trkpt lat="47.59046" lon="-2.23858">
        <ele>62.17</ele>
        <time>2019-08-26T09:01:30.000Z</time>
      </trkpt>
      <trkpt lat="47.59046" lon="-2.23859">
        <ele>62.03</ele>
        <time>2019-08-26T09:01:31.000Z</time>
      </trkpt>
      <trkpt lat="47.59045" lon="-2.23861">
        <ele>62.53</ele>
        <time>2019-08-26T09:01:32.000Z</time>
      </trkpt>
      <trkpt lat="47.59045" lon="-2.23863">
        <ele>62.55</ele>
        <time>2019-08-26T09:01:33.000Z</time>
      </trkpt>
      <trkpt lat="47.59044" lon="-2.23865">
        <ele>62.29</ele>
        <time>2019-08-26T09:01:34.000Z</time>
      </trkpt>
      <trkpt lat="47.59044" lon="-2.23866">
        <ele>62.26</ele>
        <time>2019-08-26T09:01:35.000Z</time>
      </trkpt>
      <trkpt lat="47.59044" lon="-2.23868">
        <ele>62.14</ele>
        <time>2019-08-26T09:01:36.000Z</time>
      </trkpt>
      <trkpt lat="47.59043" lon="-2.2387">
        <ele>62.25</ele>
        <time>2019-08-26T09:01:37.000Z</time>
      </trkpt>
      <trkpt lat="47.59042" lon="-2.23872">
        <ele>62.15</ele>
        <time>2019-08-26T09:01:38.000Z</time>
      </trkpt>
      <trkpt lat="47.59042" lon="-2.23873">
        <ele>62.39</ele>
        <time>2019-08-26T09:01:39.000Z</time>
      </trkpt>
      <trkpt lat="47.59042" lon="-2.23875">
        <ele>61.59</ele>
        <time>2019-08-26T09:01:40.000Z</time>
      </trkpt>
      <trkpt lat="47.59041" lon="-2.23876">
        <ele>61.82</ele>
        <time>2019-08-26T09:01:41.000Z</time>
      </trkpt>
      <trkpt lat="47.59041" lon="-2.23878">
        <ele>60.88</ele>
        <time>2019-08-26T09:01:42.000Z</time>
      </trkpt>
      <trkpt lat="47.5904" lon="-2.23879">
        <ele>60.97</ele>
        <time>2019-08-26T09:01:43.000Z</time>
      </trkpt>
      <trkpt lat="47.5904" lon="-2.23881">
        <ele>60.79</ele>
        <time>2019-08-26T09:01:44.000Z</time>
      </trkpt>
      <trkpt lat="47.59039" lon="-2.23882">
        <ele>60.39</ele>
        <time>2019-08-26T09:01:45.000Z</time>
      </trkpt>
      <trkpt lat="47.59039" lon="-2.23884">
        <ele>60.54</ele>
        <time>2019-08-26T09:01:46.000Z</time>
      </trkpt>
      <trkpt lat="47.59038" lon="-2.23885">
        <ele>60.66</ele>
        <time>2019-08-26T09:01:47.000Z</time>
      </trkpt>
      <trkpt lat="47.59038" lon="-2.23887">
        <ele>61.22</ele>
        <time>2019-08-26T09:01:48.000Z</time>
      </trkpt>
      <trkpt lat="47.59038" lon="-2.23889">
        <ele>61.26</ele>
        <time>2019-08-26T09:01:49.000Z</time>
      </trkpt>
      <trkpt lat="47.59037" lon="-2.2389">
        <ele>61.53</ele>
        <time>2019-08-26T09:01:50.000Z</time>
      </trkpt>
      <trkpt lat="47.59037" lon="-2.23892">
        <ele>61.22</ele>
        <time>2019-08-26T09:01:51.000Z</time>
      </trkpt>
      <trkpt lat="47.59037" lon="-2.23894">
        <ele>60.94</ele>
        <time>2019-08-26T09:01:52.000Z</time>
      </trkpt>
      <trkpt lat="47.59036" lon="-2.23896">
        <ele>60.89</ele>
        <time>2019-08-26T09:01:53.000Z</time>
      </trkpt>
      <trkpt lat="47.59036" lon="-2.23898">
        <ele>60.65</ele>
        <time>2019-08-26T09:01:54.000Z</time>
      </trkpt>
      <trkpt lat="47.59036" lon="-2.23899">
        <ele>59.92</ele>
        <time>2019-08-26T09:01:55.000Z</time>
      </trkpt>
      <trkpt lat="47.59035" lon="-2.23901">
        <ele>59.32</ele>
        <time>2019-08-26T09:01:56.000Z</time>
      </trkpt>
      <trkpt lat="47.59035" lon="-2.23902">
        <ele>58.74</ele>
        <time>2019-08-26T09:01:57.000Z</time>
      </trkpt>
      <trkpt lat="47.59034" lon="-2.23903">
        <ele>58.94</ele>
        <time>2019-08-26T09:01:58.000Z</time>
      </trkpt>
      <trkpt lat="47.59034" lon="-2.23905">
        <ele>59.38</ele>
        <time>2019-08-26T09:01:59.000Z</time>
      </trkpt>
      <trkpt lat="47.59034" lon="-2.23906">
        <ele>59.16</ele>
        <time>2019-08-26T09:02:00.000Z</time>
      </trkpt>
      <trkpt lat="47.59034" lon="-2.23908">
        <ele>58.77</ele>
        <time>2019-08-26T09:02:01.000Z</time>
      </trkpt>
      <trkpt lat="47.59033" lon="-2.2391">
        <ele>58.56</ele>
        <time>2019-08-26T09:02:02.000Z</time>
      </trkpt>
      <trkpt lat="47.59033" lon="-2.23911">
        <ele>58.41</ele>
        <time>2019-08-26T09:02:03.000Z</time>
      </trkpt>
      <trkpt lat="47.59032" lon="-2.23913">
        <ele>58.49</ele>
        <time>2019-08-26T09:02:04.000Z</time>
      </trkpt>
      <trkpt lat="47.59032" lon="-2.23914">
        <ele>58.27</ele>
        <time>2019-08-26T09:02:05.000Z</time>
      </trkpt>
      <trkpt lat="47.59032" lon="-2.23916">
        <ele>59.08</ele>
        <time>2019-08-26T09:02:07.000Z</time>
      </trkpt>
      <trkpt lat="47.59032" lon="-2.23918">
        <ele>60.01</ele>
        <time>2019-08-26T09:02:08.000Z</time>
      </trkpt>
      <trkpt lat="47.59031" lon="-2.2392">
        <ele>60.86</ele>
        <time>2019-08-26T09:02:09.000Z</time>
      </trkpt>
      <trkpt lat="47.59031" lon="-2.23921">
        <ele>61.09</ele>
        <time>2019-08-26T09:02:10.000Z</time>
      </trkpt>
      <trkpt lat="47.5903" lon="-2.23923">
        <ele>61.36</ele>
        <time>2019-08-26T09:02:11.000Z</time>
      </trkpt>
      <trkpt lat="47.59029" lon="-2.23924">
        <ele>60.41</ele>
        <time>2019-08-26T09:02:12.000Z</time>
      </trkpt>
      <trkpt lat="47.59029" lon="-2.23926">
        <ele>60.57</ele>
        <time>2019-08-26T09:02:13.000Z</time>
      </trkpt>
      <trkpt lat="47.59028" lon="-2.23927">
        <ele>60.39</ele>
        <time>2019-08-26T09:02:14.000Z</time>
      </trkpt>
      <trkpt lat="47.59028" lon="-2.23929">
        <ele>59.6</ele>
        <time>2019-08-26T09:02:15.000Z</time>
      </trkpt>
      <trkpt lat="47.59027" lon="-2.2393">
        <ele>59.59</ele>
        <time>2019-08-26T09:02:16.000Z</time>
      </trkpt>
      <trkpt lat="47.59026" lon="-2.23931">
        <ele>58.79</ele>
        <time>2019-08-26T09:02:17.000Z</time>
      </trkpt>
      <trkpt lat="47.59026" lon="-2.23932">
        <ele>57.86</ele>
        <time>2019-08-26T09:02:18.000Z</time>
      </trkpt>
      <trkpt lat="47.59025" lon="-2.23934">
        <ele>58.71</ele>
        <time>2019-08-26T09:02:19.000Z</time>
      </trkpt>
      <trkpt lat="47.59024" lon="-2.23935">
        <ele>58.49</ele>
        <time>2019-08-26T09:02:20.000Z</time>
      </trkpt>
      <trkpt lat="47.59024" lon="-2.23937">
        <ele>58.75</ele>
        <time>2019-08-26T09:02:21.000Z</time>
      </trkpt>
      <trkpt lat="47.59023" lon="-2.23938">
        <ele>58.28</ele>
        <time>2019-08-26T09:02:22.000Z</time>
      </trkpt>
      <trkpt lat="47.59022" lon="-2.2394">
        <ele>57.9</ele>
        <time>2019-08-26T09:02:23.000Z</time>
      </trkpt>
      <trkpt lat="47.59021" lon="-2.23942">
        <ele>57.79</ele>
        <time>2019-08-26T09:02:24.000Z</time>
      </trkpt>
      <trkpt lat="47.59021" lon="-2.23943">
        <ele>58.2</ele>
        <time>2019-08-26T09:02:25.000Z</time>
      </trkpt>
      <trkpt lat="47.59021" lon="-2.23945">
        <ele>58.48</ele>
        <time>2019-08-26T09:02:26.000Z</time>
      </trkpt>
      <trkpt lat="47.5902" lon="-2.23947">
        <ele>58.61</ele>
        <time>2019-08-26T09:02:27.000Z</time>
      </trkpt>
      <trkpt lat="47.5902" lon="-2.23948">
        <ele>58.22</ele>
        <time>2019-08-26T09:02:28.000Z</time>
      </trkpt>
      <trkpt lat="47.59019" lon="-2.2395">
        <ele>57.84</ele>
        <time>2019-08-26T09:02:29.000Z</time>
      </trkpt>
      <trkpt lat="47.59018" lon="-2.23951">
        <ele>57.79</ele>
        <time>2019-08-26T09:02:30.000Z</time>
      </trkpt>
      <trkpt lat="47.59017" lon="-2.23953">
        <ele>57.42</ele>
        <time>2019-08-26T09:02:31.000Z</time>
      </trkpt>
      <trkpt lat="47.59016" lon="-2.23954">
        <ele>57.12</ele>
        <time>2019-08-26T09:02:32.000Z</time>
      </trkpt>
      <trkpt lat="47.59016" lon="-2.23956">
        <ele>57.16</ele>
        <time>2019-08-26T09:02:33.000Z</time>
      </trkpt>
      <trkpt lat="47.59015" lon="-2.23957">
        <ele>56.57</ele>
        <time>2019-08-26T09:02:34.000Z</time>
      </trkpt>
      <trkpt lat="47.59015" lon="-2.23959">
        <ele>56.74</ele>
        <time>2019-08-26T09:02:35.000Z</time>
      </trkpt>
      <trkpt lat="47.59014" lon="-2.2396">
        <ele>56.75</ele>
        <time>2019-08-26T09:02:36.000Z</time>
      </trkpt>
      <trkpt lat="47.59014" lon="-2.23962">
        <ele>56.24</ele>
        <time>2019-08-26T09:02:37.000Z</time>
      </trkpt>
      <trkpt lat="47.59013" lon="-2.23964">
        <ele>56.13</ele>
        <time>2019-08-26T09:02:38.000Z</time>
      </trkpt>
      <trkpt lat="47.59013" lon="-2.23965">
        <ele>55.7</ele>
        <time>2019-08-26T09:02:39.000Z</time>
      </trkpt>
      <trkpt lat="47.59012" lon="-2.23967">
        <ele>55.69</ele>
        <time>2019-08-26T09:02:40.000Z</time>
      </trkpt>
      <trkpt lat="47.59012" lon="-2.23968">
        <ele>55.47</ele>
        <time>2019-08-26T09:02:41.000Z</time>
      </trkpt>
      <trkpt lat="47.59011" lon="-2.23969">
        <ele>55.22</ele>
        <time>2019-08-26T09:02:42.000Z</time>
      </trkpt>
      <trkpt lat="47.5901" lon="-2.23971">
        <ele>54.75</ele>
        <time>2019-08-26T09:02:43.000Z</time>
      </trkpt>
      <trkpt lat="47.5901" lon="-2.23972">
        <ele>55</ele>
        <time>2019-08-26T09:02:44.000Z</time>
      </trkpt>
      <trkpt lat="47.59009" lon="-2.23973">
        <ele>55.01</ele>
        <time>2019-08-26T09:02:45.000Z</time>
      </trkpt>
      <trkpt lat="47.59008" lon="-2.23974">
        <ele>54.53</ele>
        <time>2019-08-26T09:02:46.000Z</time>
      </trkpt>
      <trkpt lat="47.59007" lon="-2.23975">
        <ele>54.61</ele>
        <time>2019-08-26T09:02:47.000Z</time>
      </trkpt>
      <trkpt lat="47.59006" lon="-2.23975">
        <ele>54.58</ele>
        <time>2019-08-26T09:02:48.000Z</time>
      </trkpt>
      <trkpt lat="47.59005" lon="-2.23976">
        <ele>54.65</ele>
        <time>2019-08-26T09:02:49.000Z</time>
      </trkpt>
      <trkpt lat="47.59004" lon="-2.23977">
        <ele>54.42</ele>
        <time>2019-08-26T09:02:50.000Z</time>
      </trkpt>
      <trkpt lat="47.59003" lon="-2.23977">
        <ele>54.56</ele>
        <time>2019-08-26T09:02:51.000Z</time>
      </trkpt>
      <trkpt lat="47.59002" lon="-2.23978">
        <ele>54.1</ele>
        <time>2019-08-26T09:02:52.000Z</time>
      </trkpt>
      <trkpt lat="47.59001" lon="-2.23979">
        <ele>54.02</ele>
        <time>2019-08-26T09:02:53.000Z</time>
      </trkpt>
      <trkpt lat="47.59" lon="-2.23979">
        <ele>53.7</ele>
        <time>2019-08-26T09:02:54.000Z</time>
      </trkpt>
      <trkpt lat="47.58999" lon="-2.23979">
        <ele>53.95</ele>
        <time>2019-08-26T09:02:55.000Z</time>
      </trkpt>
      <trkpt lat="47.58997" lon="-2.23979">
        <ele>52.65</ele>
        <time>2019-08-26T09:02:56.000Z</time>
      </trkpt>
      <trkpt lat="47.58996" lon="-2.23979">
        <ele>51.28</ele>
        <time>2019-08-26T09:02:57.000Z</time>
      </trkpt>
      <trkpt lat="47.58995" lon="-2.23978">
        <ele>51.28</ele>
        <time>2019-08-26T09:02:58.000Z</time>
      </trkpt>
      <trkpt lat="47.58994" lon="-2.23977">
        <ele>51.71</ele>
        <time>2019-08-26T09:02:59.000Z</time>
      </trkpt>
      <trkpt lat="47.58994" lon="-2.23976">
        <ele>52.05</ele>
        <time>2019-08-26T09:03:00.000Z</time>
      </trkpt>
      <trkpt lat="47.58992" lon="-2.23976">
        <ele>51.88</ele>
        <time>2019-08-26T09:03:01.000Z</time>
      </trkpt>
      <trkpt lat="47.58991" lon="-2.23975">
        <ele>52.67</ele>
        <time>2019-08-26T09:03:02.000Z</time>
      </trkpt>
      <trkpt lat="47.5899" lon="-2.23974">
        <ele>53.08</ele>
        <time>2019-08-26T09:03:03.000Z</time>
      </trkpt>
      <trkpt lat="47.58989" lon="-2.23973">
        <ele>52.03</ele>
        <time>2019-08-26T09:03:04.000Z</time>
      </trkpt>
      <trkpt lat="47.58988" lon="-2.23973">
        <ele>51.9</ele>
        <time>2019-08-26T09:03:05.000Z</time>
      </trkpt>
      <trkpt lat="47.58987" lon="-2.23972">
        <ele>51.87</ele>
        <time>2019-08-26T09:03:06.000Z</time>
      </trkpt>
      <trkpt lat="47.58986" lon="-2.23971">
        <ele>52.43</ele>
        <time>2019-08-26T09:03:07.000Z</time>
      </trkpt>
      <trkpt lat="47.58984" lon="-2.23971">
        <ele>51.71</ele>
        <time>2019-08-26T09:03:08.000Z</time>
      </trkpt>
      <trkpt lat="47.58983" lon="-2.2397">
        <ele>51.55</ele>
        <time>2019-08-26T09:03:09.000Z</time>
      </trkpt>
      <trkpt lat="47.58983" lon="-2.23969">
        <ele>52.22</ele>
        <time>2019-08-26T09:03:10.000Z</time>
      </trkpt>
      <trkpt lat="47.58981" lon="-2.23968">
        <ele>51.96</ele>
        <time>2019-08-26T09:03:11.000Z</time>
      </trkpt>
      <trkpt lat="47.5898" lon="-2.23968">
        <ele>51.64</ele>
        <time>2019-08-26T09:03:12.000Z</time>
      </trkpt>
      <trkpt lat="47.58978" lon="-2.23967">
        <ele>50.74</ele>
        <time>2019-08-26T09:03:13.000Z</time>
      </trkpt>
      <trkpt lat="47.58977" lon="-2.23967">
        <ele>50.6</ele>
        <time>2019-08-26T09:03:14.000Z</time>
      </trkpt>
      <trkpt lat="47.58976" lon="-2.23966">
        <ele>50.32</ele>
        <time>2019-08-26T09:03:15.000Z</time>
      </trkpt>
      <trkpt lat="47.58975" lon="-2.23965">
        <ele>50.04</ele>
        <time>2019-08-26T09:03:16.000Z</time>
      </trkpt>
      <trkpt lat="47.58974" lon="-2.23965">
        <ele>50.2</ele>
        <time>2019-08-26T09:03:17.000Z</time>
      </trkpt>
      <trkpt lat="47.58973" lon="-2.23964">
        <ele>50.36</ele>
        <time>2019-08-26T09:03:18.000Z</time>
      </trkpt>
      <trkpt lat="47.58972" lon="-2.23964">
        <ele>50.89</ele>
        <time>2019-08-26T09:03:19.000Z</time>
      </trkpt>
      <trkpt lat="47.58971" lon="-2.23963">
        <ele>51.4</ele>
        <time>2019-08-26T09:03:20.000Z</time>
      </trkpt>
      <trkpt lat="47.5897" lon="-2.23963">
        <ele>52.45</ele>
        <time>2019-08-26T09:03:21.000Z</time>
      </trkpt>
      <trkpt lat="47.58968" lon="-2.23962">
        <ele>52.71</ele>
        <time>2019-08-26T09:03:22.000Z</time>
      </trkpt>
      <trkpt lat="47.58967" lon="-2.23961">
        <ele>53.07</ele>
        <time>2019-08-26T09:03:23.000Z</time>
      </trkpt>
      <trkpt lat="47.58966" lon="-2.2396">
        <ele>52.66</ele>
        <time>2019-08-26T09:03:24.000Z</time>
      </trkpt>
      <trkpt lat="47.58965" lon="-2.2396">
        <ele>52.27</ele>
        <time>2019-08-26T09:03:25.000Z</time>
      </trkpt>
      <trkpt lat="47.58963" lon="-2.23959">
        <ele>52.8</ele>
        <time>2019-08-26T09:03:26.000Z</time>
      </trkpt>
      <trkpt lat="47.58962" lon="-2.23958">
        <ele>53.18</ele>
        <time>2019-08-26T09:03:27.000Z</time>
      </trkpt>
      <trkpt lat="47.58961" lon="-2.23957">
        <ele>52.69</ele>
        <time>2019-08-26T09:03:28.000Z</time>
      </trkpt>
      <trkpt lat="47.5896" lon="-2.23956">
        <ele>53.59</ele>
        <time>2019-08-26T09:03:29.000Z</time>
      </trkpt>
      <trkpt lat="47.58959" lon="-2.23955">
        <ele>54.3</ele>
        <time>2019-08-26T09:03:30.000Z</time>
      </trkpt>
      <trkpt lat="47.58958" lon="-2.23955">
        <ele>54.38</ele>
        <time>2019-08-26T09:03:31.000Z</time>
      </trkpt>
      <trkpt lat="47.58957" lon="-2.23954">
        <ele>54.65</ele>
        <time>2019-08-26T09:03:32.000Z</time>
      </trkpt>
      <trkpt lat="47.58956" lon="-2.23954">
        <ele>53.62</ele>
        <time>2019-08-26T09:03:33.000Z</time>
      </trkpt>
      <trkpt lat="47.58955" lon="-2.23953">
        <ele>53.18</ele>
        <time>2019-08-26T09:03:34.000Z</time>
      </trkpt>
      <trkpt lat="47.58953" lon="-2.23953">
        <ele>53.41</ele>
        <time>2019-08-26T09:03:35.000Z</time>
      </trkpt>
      <trkpt lat="47.58952" lon="-2.23953">
        <ele>53.06</ele>
        <time>2019-08-26T09:03:36.000Z</time>
      </trkpt>
      <trkpt lat="47.58951" lon="-2.23952">
        <ele>52.28</ele>
        <time>2019-08-26T09:03:37.000Z</time>
      </trkpt>
      <trkpt lat="47.5895" lon="-2.23952">
        <ele>52.4</ele>
        <time>2019-08-26T09:03:38.000Z</time>
      </trkpt>
      <trkpt lat="47.58948" lon="-2.23951">
        <ele>52.3</ele>
        <time>2019-08-26T09:03:39.000Z</time>
      </trkpt>
      <trkpt lat="47.58947" lon="-2.23951">
        <ele>52.65</ele>
        <time>2019-08-26T09:03:40.000Z</time>
      </trkpt>
      <trkpt lat="47.58946" lon="-2.2395">
        <ele>52.56</ele>
        <time>2019-08-26T09:03:41.000Z</time>
      </trkpt>
      <trkpt lat="47.58944" lon="-2.23949">
        <ele>52.69</ele>
        <time>2019-08-26T09:03:42.000Z</time>
      </trkpt>
      <trkpt lat="47.58943" lon="-2.23949">
        <ele>52.78</ele>
        <time>2019-08-26T09:03:43.000Z</time>
      </trkpt>
      <trkpt lat="47.58942" lon="-2.23948">
        <ele>52.5</ele>
        <time>2019-08-26T09:03:44.000Z</time>
      </trkpt>
      <trkpt lat="47.58941" lon="-2.23947">
        <ele>52.02</ele>
        <time>2019-08-26T09:03:45.000Z</time>
      </trkpt>
      <trkpt lat="47.58941" lon="-2.23947">
        <ele>52.02</ele>
        <time>2019-08-26T09:03:46.000Z</time>
      </trkpt>
      <trkpt lat="47.58939" lon="-2.23946">
        <ele>51.68</ele>
        <time>2019-08-26T09:03:47.000Z</time>
      </trkpt>
      <trkpt lat="47.58938" lon="-2.23946">
        <ele>51.62</ele>
        <time>2019-08-26T09:03:48.000Z</time>
      </trkpt>
      <trkpt lat="47.58937" lon="-2.23945">
        <ele>51.49</ele>
        <time>2019-08-26T09:03:49.000Z</time>
      </trkpt>
      <trkpt lat="47.58935" lon="-2.23944">
        <ele>51.18</ele>
        <time>2019-08-26T09:03:50.000Z</time>
      </trkpt>
      <trkpt lat="47.58934" lon="-2.23944">
        <ele>50.93</ele>
        <time>2019-08-26T09:03:51.000Z</time>
      </trkpt>
      <trkpt lat="47.58933" lon="-2.23943">
        <ele>50.81</ele>
        <time>2019-08-26T09:03:52.000Z</time>
      </trkpt>
      <trkpt lat="47.58931" lon="-2.23942">
        <ele>50.76</ele>
        <time>2019-08-26T09:03:53.000Z</time>
      </trkpt>
      <trkpt lat="47.5893" lon="-2.23941">
        <ele>50.66</ele>
        <time>2019-08-26T09:03:54.000Z</time>
      </trkpt>
      <trkpt lat="47.58929" lon="-2.2394">
        <ele>50.01</ele>
        <time>2019-08-26T09:03:55.000Z</time>
      </trkpt>
      <trkpt lat="47.58928" lon="-2.23939">
        <ele>51.09</ele>
        <time>2019-08-26T09:03:56.000Z</time>
      </trkpt>
      <trkpt lat="47.58927" lon="-2.23939">
        <ele>51.07</ele>
        <time>2019-08-26T09:03:57.000Z</time>
      </trkpt>
      <trkpt lat="47.58926" lon="-2.23938">
        <ele>51.28</ele>
        <time>2019-08-26T09:03:58.000Z</time>
      </trkpt>
      <trkpt lat="47.58926" lon="-2.23938">
        <ele>51.27</ele>
        <time>2019-08-26T09:03:59.000Z</time>
      </trkpt>
      <trkpt lat="47.58925" lon="-2.23937">
        <ele>51.08</ele>
        <time>2019-08-26T09:04:00.000Z</time>
      </trkpt>
      <trkpt lat="47.58923" lon="-2.23936">
        <ele>50.7</ele>
        <time>2019-08-26T09:04:01.000Z</time>
      </trkpt>
      <trkpt lat="47.58922" lon="-2.23936">
        <ele>50.89</ele>
        <time>2019-08-26T09:04:02.000Z</time>
      </trkpt>
      <trkpt lat="47.58921" lon="-2.23935">
        <ele>50.45</ele>
        <time>2019-08-26T09:04:03.000Z</time>
      </trkpt>
      <trkpt lat="47.5892" lon="-2.23935">
        <ele>50.56</ele>
        <time>2019-08-26T09:04:04.000Z</time>
      </trkpt>
      <trkpt lat="47.58919" lon="-2.23934">
        <ele>51.14</ele>
        <time>2019-08-26T09:04:05.000Z</time>
      </trkpt>
      <trkpt lat="47.58918" lon="-2.23934">
        <ele>50.89</ele>
        <time>2019-08-26T09:04:06.000Z</time>
      </trkpt>
      <trkpt lat="47.58917" lon="-2.23933">
        <ele>51.06</ele>
        <time>2019-08-26T09:04:07.000Z</time>
      </trkpt>
      <trkpt lat="47.58916" lon="-2.23932">
        <ele>50.97</ele>
        <time>2019-08-26T09:04:08.000Z</time>
      </trkpt>
      <trkpt lat="47.58915" lon="-2.23932">
        <ele>49.75</ele>
        <time>2019-08-26T09:04:09.000Z</time>
      </trkpt>
      <trkpt lat="47.58914" lon="-2.23931">
        <ele>48.6</ele>
        <time>2019-08-26T09:04:10.000Z</time>
      </trkpt>
      <trkpt lat="47.58913" lon="-2.2393">
        <ele>48.49</ele>
        <time>2019-08-26T09:04:11.000Z</time>
      </trkpt>
      <trkpt lat="47.58912" lon="-2.2393">
        <ele>48.99</ele>
        <time>2019-08-26T09:04:12.000Z</time>
      </trkpt>
      <trkpt lat="47.5891" lon="-2.23929">
        <ele>48.44</ele>
        <time>2019-08-26T09:04:13.000Z</time>
      </trkpt>
      <trkpt lat="47.58909" lon="-2.23928">
        <ele>49.15</ele>
        <time>2019-08-26T09:04:14.000Z</time>
      </trkpt>
      <trkpt lat="47.58907" lon="-2.23927">
        <ele>48.86</ele>
        <time>2019-08-26T09:04:15.000Z</time>
      </trkpt>
      <trkpt lat="47.58906" lon="-2.23926">
        <ele>49.53</ele>
        <time>2019-08-26T09:04:16.000Z</time>
      </trkpt>
      <trkpt lat="47.58905" lon="-2.23925">
        <ele>49.27</ele>
        <time>2019-08-26T09:04:17.000Z</time>
      </trkpt>
      <trkpt lat="47.58904" lon="-2.23925">
        <ele>49.71</ele>
        <time>2019-08-26T09:04:18.000Z</time>
      </trkpt>
      <trkpt lat="47.58903" lon="-2.23924">
        <ele>50.1</ele>
        <time>2019-08-26T09:04:19.000Z</time>
      </trkpt>
      <trkpt lat="47.58902" lon="-2.23924">
        <ele>50.17</ele>
        <time>2019-08-26T09:04:20.000Z</time>
      </trkpt>
      <trkpt lat="47.58901" lon="-2.23923">
        <ele>50.02</ele>
        <time>2019-08-26T09:04:21.000Z</time>
      </trkpt>
      <trkpt lat="47.58899" lon="-2.23922">
        <ele>49.5</ele>
        <time>2019-08-26T09:04:22.000Z</time>
      </trkpt>
      <trkpt lat="47.58899" lon="-2.23922">
        <ele>49.47</ele>
        <time>2019-08-26T09:04:23.000Z</time>
      </trkpt>
      <trkpt lat="47.58897" lon="-2.23922">
        <ele>49.44</ele>
        <time>2019-08-26T09:04:24.000Z</time>
      </trkpt>
      <trkpt lat="47.58896" lon="-2.23921">
        <ele>48.84</ele>
        <time>2019-08-26T09:04:25.000Z</time>
      </trkpt>
      <trkpt lat="47.58895" lon="-2.23921">
        <ele>48.14</ele>
        <time>2019-08-26T09:04:26.000Z</time>
      </trkpt>
      <trkpt lat="47.58894" lon="-2.23921">
        <ele>46.43</ele>
        <time>2019-08-26T09:04:27.000Z</time>
      </trkpt>
      <trkpt lat="47.58892" lon="-2.23921">
        <ele>45.51</ele>
        <time>2019-08-26T09:04:28.000Z</time>
      </trkpt>
      <trkpt lat="47.58891" lon="-2.2392">
        <ele>45.39</ele>
        <time>2019-08-26T09:04:29.000Z</time>
      </trkpt>
      <trkpt lat="47.58891" lon="-2.2392">
        <ele>45.78</ele>
        <time>2019-08-26T09:04:30.000Z</time>
      </trkpt>
      <trkpt lat="47.58889" lon="-2.23919">
        <ele>45.54</ele>
        <time>2019-08-26T09:04:31.000Z</time>
      </trkpt>
      <trkpt lat="47.58888" lon="-2.23918">
        <ele>45.35</ele>
        <time>2019-08-26T09:04:32.000Z</time>
      </trkpt>
      <trkpt lat="47.58888" lon="-2.23918">
        <ele>44</ele>
        <time>2019-08-26T09:04:33.000Z</time>
      </trkpt>
      <trkpt lat="47.58886" lon="-2.23918">
        <ele>44.08</ele>
        <time>2019-08-26T09:04:34.000Z</time>
      </trkpt>
      <trkpt lat="47.58885" lon="-2.23917">
        <ele>44.22</ele>
        <time>2019-08-26T09:04:35.000Z</time>
      </trkpt>
      <trkpt lat="47.58884" lon="-2.23917">
        <ele>44.01</ele>
        <time>2019-08-26T09:04:36.000Z</time>
      </trkpt>
      <trkpt lat="47.58883" lon="-2.23916">
        <ele>44.28</ele>
        <time>2019-08-26T09:04:37.000Z</time>
      </trkpt>
      <trkpt lat="47.58882" lon="-2.23916">
        <ele>44.41</ele>
        <time>2019-08-26T09:04:38.000Z</time>
      </trkpt>
      <trkpt lat="47.58881" lon="-2.23916">
        <ele>45.22</ele>
        <time>2019-08-26T09:04:39.000Z</time>
      </trkpt>
      <trkpt lat="47.5888" lon="-2.23915">
        <ele>45.09</ele>
        <time>2019-08-26T09:04:40.000Z</time>
      </trkpt>
      <trkpt lat="47.58879" lon="-2.23915">
        <ele>45.01</ele>
        <time>2019-08-26T09:04:41.000Z</time>
      </trkpt>
      <trkpt lat="47.58878" lon="-2.23915">
        <ele>45.09</ele>
        <time>2019-08-26T09:04:42.000Z</time>
      </trkpt>
      <trkpt lat="47.58876" lon="-2.23915">
        <ele>45.7</ele>
        <time>2019-08-26T09:04:43.000Z</time>
      </trkpt>
      <trkpt lat="47.58875" lon="-2.23914">
        <ele>44.66</ele>
        <time>2019-08-26T09:04:44.000Z</time>
      </trkpt>
      <trkpt lat="47.58874" lon="-2.23914">
        <ele>44.71</ele>
        <time>2019-08-26T09:04:45.000Z</time>
      </trkpt>
      <trkpt lat="47.58873" lon="-2.23913">
        <ele>43.83</ele>
        <time>2019-08-26T09:04:46.000Z</time>
      </trkpt>
      <trkpt lat="47.58872" lon="-2.23913">
        <ele>43.18</ele>
        <time>2019-08-26T09:04:47.000Z</time>
      </trkpt>
      <trkpt lat="47.5887" lon="-2.23912">
        <ele>42.88</ele>
        <time>2019-08-26T09:04:48.000Z</time>
      </trkpt>
      <trkpt lat="47.58869" lon="-2.23912">
        <ele>42.78</ele>
        <time>2019-08-26T09:04:49.000Z</time>
      </trkpt>
      <trkpt lat="47.58868" lon="-2.23911">
        <ele>43.2</ele>
        <time>2019-08-26T09:04:50.000Z</time>
      </trkpt>
      <trkpt lat="47.58867" lon="-2.2391">
        <ele>43.41</ele>
        <time>2019-08-26T09:04:51.000Z</time>
      </trkpt>
      <trkpt lat="47.58866" lon="-2.23909">
        <ele>43.48</ele>
        <time>2019-08-26T09:04:52.000Z</time>
      </trkpt>
      <trkpt lat="47.58865" lon="-2.23909">
        <ele>44.85</ele>
        <time>2019-08-26T09:04:53.000Z</time>
      </trkpt>
      <trkpt lat="47.58864" lon="-2.23908">
        <ele>45.41</ele>
        <time>2019-08-26T09:04:54.000Z</time>
      </trkpt>
      <trkpt lat="47.58863" lon="-2.23907">
        <ele>45.12</ele>
        <time>2019-08-26T09:04:55.000Z</time>
      </trkpt>
      <trkpt lat="47.58862" lon="-2.23907">
        <ele>45.95</ele>
        <time>2019-08-26T09:04:56.000Z</time>
      </trkpt>
      <trkpt lat="47.58861" lon="-2.23907">
        <ele>44.72</ele>
        <time>2019-08-26T09:04:57.000Z</time>
      </trkpt>
      <trkpt lat="47.5886" lon="-2.23906">
        <ele>44.64</ele>
        <time>2019-08-26T09:04:58.000Z</time>
      </trkpt>
      <trkpt lat="47.58859" lon="-2.23906">
        <ele>44.74</ele>
        <time>2019-08-26T09:04:59.000Z</time>
      </trkpt>
      <trkpt lat="47.58858" lon="-2.23906">
        <ele>45.27</ele>
        <time>2019-08-26T09:05:00.000Z</time>
      </trkpt>
      <trkpt lat="47.58857" lon="-2.23905">
        <ele>44.41</ele>
        <time>2019-08-26T09:05:01.000Z</time>
      </trkpt>
      <trkpt lat="47.58856" lon="-2.23904">
        <ele>42.73</ele>
        <time>2019-08-26T09:05:02.000Z</time>
      </trkpt>
      <trkpt lat="47.58855" lon="-2.23903">
        <ele>42.87</ele>
        <time>2019-08-26T09:05:03.000Z</time>
      </trkpt>
      <trkpt lat="47.58854" lon="-2.23903">
        <ele>43.23</ele>
        <time>2019-08-26T09:05:04.000Z</time>
      </trkpt>
      <trkpt lat="47.58852" lon="-2.23902">
        <ele>43.25</ele>
        <time>2019-08-26T09:05:05.000Z</time>
      </trkpt>
      <trkpt lat="47.58851" lon="-2.23902">
        <ele>43.07</ele>
        <time>2019-08-26T09:05:06.000Z</time>
      </trkpt>
      <trkpt lat="47.58849" lon="-2.23902">
        <ele>43.73</ele>
        <time>2019-08-26T09:05:07.000Z</time>
      </trkpt>
      <trkpt lat="47.58848" lon="-2.23902">
        <ele>43.37</ele>
        <time>2019-08-26T09:05:08.000Z</time>
      </trkpt>
      <trkpt lat="47.58847" lon="-2.23901">
        <ele>43.88</ele>
        <time>2019-08-26T09:05:09.000Z</time>
      </trkpt>
      <trkpt lat="47.58845" lon="-2.23901">
        <ele>43.89</ele>
        <time>2019-08-26T09:05:10.000Z</time>
      </trkpt>
      <trkpt lat="47.58844" lon="-2.23901">
        <ele>43.3</ele>
        <time>2019-08-26T09:05:11.000Z</time>
      </trkpt>
      <trkpt lat="47.58843" lon="-2.239">
        <ele>43.48</ele>
        <time>2019-08-26T09:05:12.000Z</time>
      </trkpt>
      <trkpt lat="47.58841" lon="-2.23899">
        <ele>43.46</ele>
        <time>2019-08-26T09:05:13.000Z</time>
      </trkpt>
      <trkpt lat="47.5884" lon="-2.23899">
        <ele>44.33</ele>
        <time>2019-08-26T09:05:14.000Z</time>
      </trkpt>
      <trkpt lat="47.58839" lon="-2.23899">
        <ele>44.84</ele>
        <time>2019-08-26T09:05:15.000Z</time>
      </trkpt>
      <trkpt lat="47.58838" lon="-2.23898">
        <ele>44.83</ele>
        <time>2019-08-26T09:05:16.000Z</time>
      </trkpt>
      <trkpt lat="47.58837" lon="-2.23898">
        <ele>45.26</ele>
        <time>2019-08-26T09:05:17.000Z</time>
      </trkpt>
      <trkpt lat="47.58836" lon="-2.23897">
        <ele>46.08</ele>
        <time>2019-08-26T09:05:18.000Z</time>
      </trkpt>
      <trkpt lat="47.58835" lon="-2.23897">
        <ele>45.91</ele>
        <time>2019-08-26T09:05:19.000Z</time>
      </trkpt>
      <trkpt lat="47.58834" lon="-2.23896">
        <ele>45.97</ele>
        <time>2019-08-26T09:05:20.000Z</time>
      </trkpt>
      <trkpt lat="47.58833" lon="-2.23895">
        <ele>46.23</ele>
        <time>2019-08-26T09:05:21.000Z</time>
      </trkpt>
      <trkpt lat="47.58831" lon="-2.23895">
        <ele>46.61</ele>
        <time>2019-08-26T09:05:22.000Z</time>
      </trkpt>
      <trkpt lat="47.5883" lon="-2.23895">
        <ele>46.58</ele>
        <time>2019-08-26T09:05:23.000Z</time>
      </trkpt>
      <trkpt lat="47.58829" lon="-2.23894">
        <ele>46.25</ele>
        <time>2019-08-26T09:05:24.000Z</time>
      </trkpt>
      <trkpt lat="47.58828" lon="-2.23893">
        <ele>45.69</ele>
        <time>2019-08-26T09:05:25.000Z</time>
      </trkpt>
      <trkpt lat="47.58826" lon="-2.23893">
        <ele>44.88</ele>
        <time>2019-08-26T09:05:26.000Z</time>
      </trkpt>
      <trkpt lat="47.58825" lon="-2.23893">
        <ele>44.91</ele>
        <time>2019-08-26T09:05:27.000Z</time>
      </trkpt>
      <trkpt lat="47.58823" lon="-2.23892">
        <ele>45.56</ele>
        <time>2019-08-26T09:05:28.000Z</time>
      </trkpt>
      <trkpt lat="47.58822" lon="-2.23892">
        <ele>45.39</ele>
        <time>2019-08-26T09:05:29.000Z</time>
      </trkpt>
      <trkpt lat="47.5882" lon="-2.23892">
        <ele>45.52</ele>
        <time>2019-08-26T09:05:30.000Z</time>
      </trkpt>
      <trkpt lat="47.58819" lon="-2.23891">
        <ele>46.35</ele>
        <time>2019-08-26T09:05:31.000Z</time>
      </trkpt>
      <trkpt lat="47.58818" lon="-2.23891">
        <ele>46.16</ele>
        <time>2019-08-26T09:05:32.000Z</time>
      </trkpt>
      <trkpt lat="47.58817" lon="-2.2389">
        <ele>45.58</ele>
        <time>2019-08-26T09:05:33.000Z</time>
      </trkpt>
      <trkpt lat="47.58815" lon="-2.23889">
        <ele>44.99</ele>
        <time>2019-08-26T09:05:34.000Z</time>
      </trkpt>
      <trkpt lat="47.58814" lon="-2.23889">
        <ele>44.82</ele>
        <time>2019-08-26T09:05:35.000Z</time>
      </trkpt>
      <trkpt lat="47.58813" lon="-2.23888">
        <ele>44.96</ele>
        <time>2019-08-26T09:05:36.000Z</time>
      </trkpt>
      <trkpt lat="47.58812" lon="-2.23888">
        <ele>45.19</ele>
        <time>2019-08-26T09:05:37.000Z</time>
      </trkpt>
      <trkpt lat="47.5881" lon="-2.23887">
        <ele>44.14</ele>
        <time>2019-08-26T09:05:38.000Z</time>
      </trkpt>
      <trkpt lat="47.58809" lon="-2.23886">
        <ele>44.55</ele>
        <time>2019-08-26T09:05:39.000Z</time>
      </trkpt>
      <trkpt lat="47.58808" lon="-2.23886">
        <ele>44.79</ele>
        <time>2019-08-26T09:05:40.000Z</time>
      </trkpt>
      <trkpt lat="47.58807" lon="-2.23885">
        <ele>45.07</ele>
        <time>2019-08-26T09:05:41.000Z</time>
      </trkpt>
      <trkpt lat="47.58806" lon="-2.23885">
        <ele>45.49</ele>
        <time>2019-08-26T09:05:42.000Z</time>
      </trkpt>
      <trkpt lat="47.58804" lon="-2.23884">
        <ele>45.8</ele>
        <time>2019-08-26T09:05:43.000Z</time>
      </trkpt>
      <trkpt lat="47.58803" lon="-2.23884">
        <ele>45.92</ele>
        <time>2019-08-26T09:05:44.000Z</time>
      </trkpt>
      <trkpt lat="47.58802" lon="-2.23883">
        <ele>46.09</ele>
        <time>2019-08-26T09:05:45.000Z</time>
      </trkpt>
      <trkpt lat="47.58801" lon="-2.23883">
        <ele>46.54</ele>
        <time>2019-08-26T09:05:46.000Z</time>
      </trkpt>
      <trkpt lat="47.588" lon="-2.23882">
        <ele>47.8</ele>
        <time>2019-08-26T09:05:47.000Z</time>
      </trkpt>
      <trkpt lat="47.58799" lon="-2.23882">
        <ele>48.17</ele>
        <time>2019-08-26T09:05:48.000Z</time>
      </trkpt>
      <trkpt lat="47.58797" lon="-2.23881">
        <ele>48.47</ele>
        <time>2019-08-26T09:05:49.000Z</time>
      </trkpt>
      <trkpt lat="47.58796" lon="-2.23881">
        <ele>48.07</ele>
        <time>2019-08-26T09:05:50.000Z</time>
      </trkpt>
      <trkpt lat="47.58795" lon="-2.2388">
        <ele>47.88</ele>
        <time>2019-08-26T09:05:51.000Z</time>
      </trkpt>
      <trkpt lat="47.58794" lon="-2.2388">
        <ele>48.5</ele>
        <time>2019-08-26T09:05:52.000Z</time>
      </trkpt>
      <trkpt lat="47.58793" lon="-2.2388">
        <ele>48.61</ele>
        <time>2019-08-26T09:05:53.000Z</time>
      </trkpt>
      <trkpt lat="47.58792" lon="-2.23879">
        <ele>48.11</ele>
        <time>2019-08-26T09:05:54.000Z</time>
      </trkpt>
      <trkpt lat="47.58791" lon="-2.23879">
        <ele>47.11</ele>
        <time>2019-08-26T09:05:55.000Z</time>
      </trkpt>
      <trkpt lat="47.58789" lon="-2.23879">
        <ele>47.13</ele>
        <time>2019-08-26T09:05:56.000Z</time>
      </trkpt>
      <trkpt lat="47.58788" lon="-2.23879">
        <ele>46.66</ele>
        <time>2019-08-26T09:05:57.000Z</time>
      </trkpt>
      <trkpt lat="47.58787" lon="-2.23878">
        <ele>46.86</ele>
        <time>2019-08-26T09:05:58.000Z</time>
      </trkpt>
      <trkpt lat="47.58786" lon="-2.23878">
        <ele>47.13</ele>
        <time>2019-08-26T09:05:59.000Z</time>
      </trkpt>
      <trkpt lat="47.58785" lon="-2.23878">
        <ele>47.76</ele>
        <time>2019-08-26T09:06:00.000Z</time>
      </trkpt>
      <trkpt lat="47.58784" lon="-2.23877">
        <ele>46.77</ele>
        <time>2019-08-26T09:06:01.000Z</time>
      </trkpt>
      <trkpt lat="47.58783" lon="-2.23877">
        <ele>47.1</ele>
        <time>2019-08-26T09:06:02.000Z</time>
      </trkpt>
      <trkpt lat="47.58781" lon="-2.23876">
        <ele>46.54</ele>
        <time>2019-08-26T09:06:03.000Z</time>
      </trkpt>
      <trkpt lat="47.5878" lon="-2.23875">
        <ele>46.87</ele>
        <time>2019-08-26T09:06:04.000Z</time>
      </trkpt>
      <trkpt lat="47.58778" lon="-2.23874">
        <ele>45.13</ele>
        <time>2019-08-26T09:06:05.000Z</time>
      </trkpt>
      <trkpt lat="47.58777" lon="-2.23874">
        <ele>45.65</ele>
        <time>2019-08-26T09:06:06.000Z</time>
      </trkpt>
      <trkpt lat="47.58776" lon="-2.23873">
        <ele>46.57</ele>
        <time>2019-08-26T09:06:07.000Z</time>
      </trkpt>
      <trkpt lat="47.58775" lon="-2.23873">
        <ele>47.46</ele>
        <time>2019-08-26T09:06:08.000Z</time>
      </trkpt>
      <trkpt lat="47.58774" lon="-2.23872">
        <ele>47.49</ele>
        <time>2019-08-26T09:06:09.000Z</time>
      </trkpt>
      <trkpt lat="47.58772" lon="-2.23871">
        <ele>48.25</ele>
        <time>2019-08-26T09:06:11.000Z</time>
      </trkpt>
      <trkpt lat="47.58771" lon="-2.23871">
        <ele>47.7</ele>
        <time>2019-08-26T09:06:12.000Z</time>
      </trkpt>
      <trkpt lat="47.5877" lon="-2.2387">
        <ele>48.68</ele>
        <time>2019-08-26T09:06:13.000Z</time>
      </trkpt>
      <trkpt lat="47.58769" lon="-2.2387">
        <ele>47.86</ele>
        <time>2019-08-26T09:06:14.000Z</time>
      </trkpt>
      <trkpt lat="47.58768" lon="-2.2387">
        <ele>48.02</ele>
        <time>2019-08-26T09:06:15.000Z</time>
      </trkpt>
      <trkpt lat="47.58767" lon="-2.23869">
        <ele>47.11</ele>
        <time>2019-08-26T09:06:16.000Z</time>
      </trkpt>
      <trkpt lat="47.58765" lon="-2.23869">
        <ele>44.48</ele>
        <time>2019-08-26T09:06:18.000Z</time>
      </trkpt>
      <trkpt lat="47.58763" lon="-2.23869">
        <ele>45.43</ele>
        <time>2019-08-26T09:06:20.000Z</time>
      </trkpt>
      <trkpt lat="47.58762" lon="-2.23869">
        <ele>44.03</ele>
        <time>2019-08-26T09:06:21.000Z</time>
      </trkpt>
      <trkpt lat="47.58761" lon="-2.23868">
        <ele>43.86</ele>
        <time>2019-08-26T09:06:23.000Z</time>
      </trkpt>
      <trkpt lat="47.5876" lon="-2.23868">
        <ele>43.63</ele>
        <time>2019-08-26T09:06:24.000Z</time>
      </trkpt>
      <trkpt lat="47.58759" lon="-2.23868">
        <ele>44.33</ele>
        <time>2019-08-26T09:06:25.000Z</time>
      </trkpt>
      <trkpt lat="47.58757" lon="-2.23867">
        <ele>45.04</ele>
        <time>2019-08-26T09:06:26.000Z</time>
      </trkpt>
      <trkpt lat="47.58756" lon="-2.23867">
        <ele>45.26</ele>
        <time>2019-08-26T09:06:27.000Z</time>
      </trkpt>
      <trkpt lat="47.58755" lon="-2.23866">
        <ele>45.44</ele>
        <time>2019-08-26T09:06:28.000Z</time>
      </trkpt>
      <trkpt lat="47.58754" lon="-2.23866">
        <ele>46.44</ele>
        <time>2019-08-26T09:06:29.000Z</time>
      </trkpt>
      <trkpt lat="47.58752" lon="-2.23866">
        <ele>45.14</ele>
        <time>2019-08-26T09:06:30.000Z</time>
      </trkpt>
      <trkpt lat="47.58751" lon="-2.23866">
        <ele>44.79</ele>
        <time>2019-08-26T09:06:31.000Z</time>
      </trkpt>
      <trkpt lat="47.58749" lon="-2.23865">
        <ele>44.39</ele>
        <time>2019-08-26T09:06:32.000Z</time>
      </trkpt>
      <trkpt lat="47.58748" lon="-2.23865">
        <ele>44.22</ele>
        <time>2019-08-26T09:06:33.000Z</time>
      </trkpt>
      <trkpt lat="47.58746" lon="-2.23865">
        <ele>44.86</ele>
        <time>2019-08-26T09:06:35.000Z</time>
      </trkpt>
      <trkpt lat="47.58745" lon="-2.23865">
        <ele>45.11</ele>
        <time>2019-08-26T09:06:36.000Z</time>
      </trkpt>
      <trkpt lat="47.58744" lon="-2.23864">
        <ele>45.14</ele>
        <time>2019-08-26T09:06:37.000Z</time>
      </trkpt>
      <trkpt lat="47.58743" lon="-2.23862">
        <ele>46.95</ele>
        <time>2019-08-26T09:06:39.000Z</time>
      </trkpt>
      <trkpt lat="47.58741" lon="-2.23861">
        <ele>47.09</ele>
        <time>2019-08-26T09:06:40.000Z</time>
      </trkpt>
      <trkpt lat="47.5874" lon="-2.23861">
        <ele>47.27</ele>
        <time>2019-08-26T09:06:41.000Z</time>
      </trkpt>
      <trkpt lat="47.58739" lon="-2.23861">
        <ele>46.87</ele>
        <time>2019-08-26T09:06:42.000Z</time>
      </trkpt>
      <trkpt lat="47.58738" lon="-2.2386">
        <ele>45.78</ele>
        <time>2019-08-26T09:06:43.000Z</time>
      </trkpt>
      <trkpt lat="47.58736" lon="-2.2386">
        <ele>46.61</ele>
        <time>2019-08-26T09:06:44.000Z</time>
      </trkpt>
      <trkpt lat="47.58735" lon="-2.2386">
        <ele>48.08</ele>
        <time>2019-08-26T09:06:45.000Z</time>
      </trkpt>
      <trkpt lat="47.58734" lon="-2.23859">
        <ele>49.34</ele>
        <time>2019-08-26T09:06:46.000Z</time>
      </trkpt>
      <trkpt lat="47.58733" lon="-2.23859">
        <ele>49.81</ele>
        <time>2019-08-26T09:06:47.000Z</time>
      </trkpt>
      <trkpt lat="47.58732" lon="-2.23858">
        <ele>49.03</ele>
        <time>2019-08-26T09:06:48.000Z</time>
      </trkpt>
      <trkpt lat="47.5873" lon="-2.23858">
        <ele>47.45</ele>
        <time>2019-08-26T09:06:49.000Z</time>
      </trkpt>
      <trkpt lat="47.58729" lon="-2.23857">
        <ele>47.16</ele>
        <time>2019-08-26T09:06:50.000Z</time>
      </trkpt>
      <trkpt lat="47.58728" lon="-2.23857">
        <ele>48.51</ele>
        <time>2019-08-26T09:06:51.000Z</time>
      </trkpt>
      <trkpt lat="47.58727" lon="-2.23857">
        <ele>49.43</ele>
        <time>2019-08-26T09:06:52.000Z</time>
      </trkpt>
      <trkpt lat="47.58726" lon="-2.23856">
        <ele>49.02</ele>
        <time>2019-08-26T09:06:53.000Z</time>
      </trkpt>
      <trkpt lat="47.58725" lon="-2.23856">
        <ele>48.35</ele>
        <time>2019-08-26T09:06:54.000Z</time>
      </trkpt>
      <trkpt lat="47.58723" lon="-2.23856">
        <ele>48.63</ele>
        <time>2019-08-26T09:06:55.000Z</time>
      </trkpt>
      <trkpt lat="47.58723" lon="-2.23855">
        <ele>49.75</ele>
        <time>2019-08-26T09:06:56.000Z</time>
      </trkpt>
      <trkpt lat="47.58722" lon="-2.23854">
        <ele>48.86</ele>
        <time>2019-08-26T09:06:57.000Z</time>
      </trkpt>
      <trkpt lat="47.5872" lon="-2.23853">
        <ele>48.34</ele>
        <time>2019-08-26T09:06:58.000Z</time>
      </trkpt>
      <trkpt lat="47.58719" lon="-2.23852">
        <ele>48.23</ele>
        <time>2019-08-26T09:06:59.000Z</time>
      </trkpt>
      <trkpt lat="47.58718" lon="-2.23851">
        <ele>48.23</ele>
        <time>2019-08-26T09:07:00.000Z</time>
      </trkpt>
      <trkpt lat="47.58717" lon="-2.23851">
        <ele>48.42</ele>
        <time>2019-08-26T09:07:01.000Z</time>
      </trkpt>
      <trkpt lat="47.58715" lon="-2.2385">
        <ele>49.88</ele>
        <time>2019-08-26T09:07:02.000Z</time>
      </trkpt>
      <trkpt lat="47.58714" lon="-2.23849">
        <ele>51.21</ele>
        <time>2019-08-26T09:07:03.000Z</time>
      </trkpt>
      <trkpt lat="47.58713" lon="-2.23848">
        <ele>51.77</ele>
        <time>2019-08-26T09:07:04.000Z</time>
      </trkpt>
      <trkpt lat="47.58712" lon="-2.23848">
        <ele>48.34</ele>
        <time>2019-08-26T09:07:05.000Z</time>
      </trkpt>
      <trkpt lat="47.58711" lon="-2.23848">
        <ele>49.65</ele>
        <time>2019-08-26T09:07:06.000Z</time>
      </trkpt>
      <trkpt lat="47.58709" lon="-2.23849">
        <ele>48.8</ele>
        <time>2019-08-26T09:07:08.000Z</time>
      </trkpt>
      <trkpt lat="47.58708" lon="-2.23849">
        <ele>47.87</ele>
        <time>2019-08-26T09:07:09.000Z</time>
      </trkpt>
      <trkpt lat="47.58706" lon="-2.23849">
        <ele>49.75</ele>
        <time>2019-08-26T09:07:11.000Z</time>
      </trkpt>
      <trkpt lat="47.58705" lon="-2.23848">
        <ele>50.41</ele>
        <time>2019-08-26T09:07:12.000Z</time>
      </trkpt>
      <trkpt lat="47.58704" lon="-2.23848">
        <ele>50.51</ele>
        <time>2019-08-26T09:07:13.000Z</time>
      </trkpt>
      <trkpt lat="47.58703" lon="-2.23847">
        <ele>50.28</ele>
        <time>2019-08-26T09:07:14.000Z</time>
      </trkpt>
      <trkpt lat="47.58702" lon="-2.23846">
        <ele>50.45</ele>
        <time>2019-08-26T09:07:15.000Z</time>
      </trkpt>
      <trkpt lat="47.587" lon="-2.23846">
        <ele>50.41</ele>
        <time>2019-08-26T09:07:16.000Z</time>
      </trkpt>
      <trkpt lat="47.58699" lon="-2.23845">
        <ele>50.12</ele>
        <time>2019-08-26T09:07:17.000Z</time>
      </trkpt>
      <trkpt lat="47.58698" lon="-2.23845">
        <ele>50.73</ele>
        <time>2019-08-26T09:07:18.000Z</time>
      </trkpt>
      <trkpt lat="47.58697" lon="-2.23844">
        <ele>51.33</ele>
        <time>2019-08-26T09:07:19.000Z</time>
      </trkpt>
      <trkpt lat="47.58695" lon="-2.23843">
        <ele>51.96</ele>
        <time>2019-08-26T09:07:20.000Z</time>
      </trkpt>
      <trkpt lat="47.58694" lon="-2.23842">
        <ele>51.28</ele>
        <time>2019-08-26T09:07:21.000Z</time>
      </trkpt>
      <trkpt lat="47.58693" lon="-2.23841">
        <ele>50.33</ele>
        <time>2019-08-26T09:07:22.000Z</time>
      </trkpt>
      <trkpt lat="47.58691" lon="-2.23841">
        <ele>50.38</ele>
        <time>2019-08-26T09:07:23.000Z</time>
      </trkpt>
      <trkpt lat="47.5869" lon="-2.23841">
        <ele>50.43</ele>
        <time>2019-08-26T09:07:24.000Z</time>
      </trkpt>
      <trkpt lat="47.58689" lon="-2.2384">
        <ele>50.15</ele>
        <time>2019-08-26T09:07:25.000Z</time>
      </trkpt>
      <trkpt lat="47.58688" lon="-2.2384">
        <ele>50.3</ele>
        <time>2019-08-26T09:07:26.000Z</time>
      </trkpt>
      <trkpt lat="47.58686" lon="-2.2384">
        <ele>51.05</ele>
        <time>2019-08-26T09:07:27.000Z</time>
      </trkpt>
      <trkpt lat="47.58685" lon="-2.2384">
        <ele>51.32</ele>
        <time>2019-08-26T09:07:28.000Z</time>
      </trkpt>
      <trkpt lat="47.58684" lon="-2.23839">
        <ele>51.37</ele>
        <time>2019-08-26T09:07:29.000Z</time>
      </trkpt>
      <trkpt lat="47.58683" lon="-2.23839">
        <ele>50.65</ele>
        <time>2019-08-26T09:07:30.000Z</time>
      </trkpt>
      <trkpt lat="47.58682" lon="-2.23839">
        <ele>50.13</ele>
        <time>2019-08-26T09:07:31.000Z</time>
      </trkpt>
      <trkpt lat="47.58681" lon="-2.23838">
        <ele>50.1</ele>
        <time>2019-08-26T09:07:32.000Z</time>
      </trkpt>
      <trkpt lat="47.5868" lon="-2.23838">
        <ele>50.19</ele>
        <time>2019-08-26T09:07:33.000Z</time>
      </trkpt>
      <trkpt lat="47.58678" lon="-2.23837">
        <ele>49.8</ele>
        <time>2019-08-26T09:07:34.000Z</time>
      </trkpt>
      <trkpt lat="47.58677" lon="-2.23836">
        <ele>49.35</ele>
        <time>2019-08-26T09:07:35.000Z</time>
      </trkpt>
      <trkpt lat="47.58676" lon="-2.23835">
        <ele>49.49</ele>
        <time>2019-08-26T09:07:36.000Z</time>
      </trkpt>
      <trkpt lat="47.58675" lon="-2.23834">
        <ele>49.57</ele>
        <time>2019-08-26T09:07:37.000Z</time>
      </trkpt>
      <trkpt lat="47.58674" lon="-2.23834">
        <ele>49.43</ele>
        <time>2019-08-26T09:07:39.000Z</time>
      </trkpt>
      <trkpt lat="47.58672" lon="-2.23833">
        <ele>48.6</ele>
        <time>2019-08-26T09:07:41.000Z</time>
      </trkpt>
      <trkpt lat="47.5867" lon="-2.23832">
        <ele>48.29</ele>
        <time>2019-08-26T09:07:43.000Z</time>
      </trkpt>
      <trkpt lat="47.58669" lon="-2.23831">
        <ele>49.12</ele>
        <time>2019-08-26T09:07:44.000Z</time>
      </trkpt>
      <trkpt lat="47.58668" lon="-2.2383">
        <ele>48.27</ele>
        <time>2019-08-26T09:07:45.000Z</time>
      </trkpt>
      <trkpt lat="47.58667" lon="-2.2383">
        <ele>47.66</ele>
        <time>2019-08-26T09:07:46.000Z</time>
      </trkpt>
      <trkpt lat="47.58666" lon="-2.2383">
        <ele>47.4</ele>
        <time>2019-08-26T09:07:47.000Z</time>
      </trkpt>
      <trkpt lat="47.58665" lon="-2.23829">
        <ele>45.68</ele>
        <time>2019-08-26T09:07:48.000Z</time>
      </trkpt>
      <trkpt lat="47.58664" lon="-2.23829">
        <ele>43.92</ele>
        <time>2019-08-26T09:07:49.000Z</time>
      </trkpt>
      <trkpt lat="47.58663" lon="-2.23828">
        <ele>43.49</ele>
        <time>2019-08-26T09:07:50.000Z</time>
      </trkpt>
      <trkpt lat="47.58662" lon="-2.23827">
        <ele>42.01</ele>
        <time>2019-08-26T09:07:51.000Z</time>
      </trkpt>
      <trkpt lat="47.58662" lon="-2.23826">
        <ele>41.27</ele>
        <time>2019-08-26T09:07:52.000Z</time>
      </trkpt>
      <trkpt lat="47.58661" lon="-2.23826">
        <ele>40.56</ele>
        <time>2019-08-26T09:07:53.000Z</time>
      </trkpt>
      <trkpt lat="47.58659" lon="-2.23825">
        <ele>40.58</ele>
        <time>2019-08-26T09:07:54.000Z</time>
      </trkpt>
      <trkpt lat="47.58659" lon="-2.23825">
        <ele>40.36</ele>
        <time>2019-08-26T09:07:55.000Z</time>
      </trkpt>
      <trkpt lat="47.58658" lon="-2.23824">
        <ele>40.53</ele>
        <time>2019-08-26T09:07:56.000Z</time>
      </trkpt>
      <trkpt lat="47.58657" lon="-2.23823">
        <ele>41.51</ele>
        <time>2019-08-26T09:07:57.000Z</time>
      </trkpt>
      <trkpt lat="47.58656" lon="-2.23822">
        <ele>42.01</ele>
        <time>2019-08-26T09:07:58.000Z</time>
      </trkpt>
      <trkpt lat="47.58655" lon="-2.23821">
        <ele>42.23</ele>
        <time>2019-08-26T09:07:59.000Z</time>
      </trkpt>
      <trkpt lat="47.58654" lon="-2.2382">
        <ele>42.6</ele>
        <time>2019-08-26T09:08:00.000Z</time>
      </trkpt>
      <trkpt lat="47.58653" lon="-2.2382">
        <ele>42.3</ele>
        <time>2019-08-26T09:08:01.000Z</time>
      </trkpt>
      <trkpt lat="47.58652" lon="-2.23819">
        <ele>42.28</ele>
        <time>2019-08-26T09:08:02.000Z</time>
      </trkpt>
      <trkpt lat="47.58651" lon="-2.23817">
        <ele>41.46</ele>
        <time>2019-08-26T09:08:03.000Z</time>
      </trkpt>
      <trkpt lat="47.5865" lon="-2.23816">
        <ele>41.1</ele>
        <time>2019-08-26T09:08:04.000Z</time>
      </trkpt>
      <trkpt lat="47.58649" lon="-2.23814">
        <ele>41.46</ele>
        <time>2019-08-26T09:08:05.000Z</time>
      </trkpt>
      <trkpt lat="47.58648" lon="-2.23812">
        <ele>42.04</ele>
        <time>2019-08-26T09:08:06.000Z</time>
      </trkpt>
      <trkpt lat="47.58648" lon="-2.2381">
        <ele>42.45</ele>
        <time>2019-08-26T09:08:07.000Z</time>
      </trkpt>
      <trkpt lat="47.58647" lon="-2.23809">
        <ele>43.07</ele>
        <time>2019-08-26T09:08:08.000Z</time>
      </trkpt>
      <trkpt lat="47.58646" lon="-2.23807">
        <ele>43.53</ele>
        <time>2019-08-26T09:08:09.000Z</time>
      </trkpt>
      <trkpt lat="47.58645" lon="-2.23806">
        <ele>43.02</ele>
        <time>2019-08-26T09:08:10.000Z</time>
      </trkpt>
      <trkpt lat="47.58645" lon="-2.23804">
        <ele>43.66</ele>
        <time>2019-08-26T09:08:11.000Z</time>
      </trkpt>
      <trkpt lat="47.58644" lon="-2.23802">
        <ele>43.57</ele>
        <time>2019-08-26T09:08:12.000Z</time>
      </trkpt>
      <trkpt lat="47.58643" lon="-2.23801">
        <ele>45.08</ele>
        <time>2019-08-26T09:08:13.000Z</time>
      </trkpt>
      <trkpt lat="47.58642" lon="-2.23799">
        <ele>45.85</ele>
        <time>2019-08-26T09:08:14.000Z</time>
      </trkpt>
      <trkpt lat="47.58641" lon="-2.23797">
        <ele>46.35</ele>
        <time>2019-08-26T09:08:15.000Z</time>
      </trkpt>
      <trkpt lat="47.5864" lon="-2.23796">
        <ele>47.62</ele>
        <time>2019-08-26T09:08:16.000Z</time>
      </trkpt>
      <trkpt lat="47.58639" lon="-2.23795">
        <ele>48.49</ele>
        <time>2019-08-26T09:08:17.000Z</time>
      </trkpt>
      <trkpt lat="47.58638" lon="-2.23793">
        <ele>49.22</ele>
        <time>2019-08-26T09:08:18.000Z</time>
      </trkpt>
      <trkpt lat="47.58637" lon="-2.23792">
        <ele>50</ele>
        <time>2019-08-26T09:08:19.000Z</time>
      </trkpt>
      <trkpt lat="47.58636" lon="-2.23791">
        <ele>50.41</ele>
        <time>2019-08-26T09:08:20.000Z</time>
      </trkpt>
      <trkpt lat="47.58635" lon="-2.23789">
        <ele>51.39</ele>
        <time>2019-08-26T09:08:21.000Z</time>
      </trkpt>
      <trkpt lat="47.58634" lon="-2.23787">
        <ele>51.56</ele>
        <time>2019-08-26T09:08:22.000Z</time>
      </trkpt>
      <trkpt lat="47.58633" lon="-2.23785">
        <ele>50.8</ele>
        <time>2019-08-26T09:08:23.000Z</time>
      </trkpt>
      <trkpt lat="47.58633" lon="-2.23784">
        <ele>50.82</ele>
        <time>2019-08-26T09:08:24.000Z</time>
      </trkpt>
      <trkpt lat="47.58632" lon="-2.23782">
        <ele>50.2</ele>
        <time>2019-08-26T09:08:25.000Z</time>
      </trkpt>
      <trkpt lat="47.58631" lon="-2.23781">
        <ele>47.53</ele>
        <time>2019-08-26T09:08:26.000Z</time>
      </trkpt>
      <trkpt lat="47.5863" lon="-2.2378">
        <ele>46.85</ele>
        <time>2019-08-26T09:08:27.000Z</time>
      </trkpt>
      <trkpt lat="47.58629" lon="-2.23779">
        <ele>46.78</ele>
        <time>2019-08-26T09:08:28.000Z</time>
      </trkpt>
      <trkpt lat="47.58629" lon="-2.23778">
        <ele>47.38</ele>
        <time>2019-08-26T09:08:29.000Z</time>
      </trkpt>
      <trkpt lat="47.58628" lon="-2.23776">
        <ele>47.58</ele>
        <time>2019-08-26T09:08:30.000Z</time>
      </trkpt>
      <trkpt lat="47.58627" lon="-2.23774">
        <ele>47.33</ele>
        <time>2019-08-26T09:08:31.000Z</time>
      </trkpt>
      <trkpt lat="47.58626" lon="-2.23773">
        <ele>47.82</ele>
        <time>2019-08-26T09:08:32.000Z</time>
      </trkpt>
      <trkpt lat="47.58625" lon="-2.23771">
        <ele>46.62</ele>
        <time>2019-08-26T09:08:33.000Z</time>
      </trkpt>
      <trkpt lat="47.58624" lon="-2.2377">
        <ele>46.58</ele>
        <time>2019-08-26T09:08:34.000Z</time>
      </trkpt>
      <trkpt lat="47.58623" lon="-2.23768">
        <ele>46.55</ele>
        <time>2019-08-26T09:08:35.000Z</time>
      </trkpt>
      <trkpt lat="47.58622" lon="-2.23767">
        <ele>46.51</ele>
        <time>2019-08-26T09:08:36.000Z</time>
      </trkpt>
      <trkpt lat="47.58621" lon="-2.23766">
        <ele>45.96</ele>
        <time>2019-08-26T09:08:37.000Z</time>
      </trkpt>
      <trkpt lat="47.5862" lon="-2.23765">
        <ele>46.56</ele>
        <time>2019-08-26T09:08:38.000Z</time>
      </trkpt>
      <trkpt lat="47.58619" lon="-2.23763">
        <ele>45.27</ele>
        <time>2019-08-26T09:08:39.000Z</time>
      </trkpt>
      <trkpt lat="47.58618" lon="-2.23762">
        <ele>44.36</ele>
        <time>2019-08-26T09:08:40.000Z</time>
      </trkpt>
      <trkpt lat="47.58617" lon="-2.2376">
        <ele>44.91</ele>
        <time>2019-08-26T09:08:41.000Z</time>
      </trkpt>
      <trkpt lat="47.58616" lon="-2.23759">
        <ele>44.85</ele>
        <time>2019-08-26T09:08:42.000Z</time>
      </trkpt>
      <trkpt lat="47.58615" lon="-2.23758">
        <ele>45.17</ele>
        <time>2019-08-26T09:08:43.000Z</time>
      </trkpt>
      <trkpt lat="47.58614" lon="-2.23757">
        <ele>45.75</ele>
        <time>2019-08-26T09:08:44.000Z</time>
      </trkpt>
      <trkpt lat="47.58613" lon="-2.23755">
        <ele>46.37</ele>
        <time>2019-08-26T09:08:45.000Z</time>
      </trkpt>
      <trkpt lat="47.58612" lon="-2.23754">
        <ele>46.7</ele>
        <time>2019-08-26T09:08:46.000Z</time>
      </trkpt>
      <trkpt lat="47.58611" lon="-2.23753">
        <ele>47.29</ele>
        <time>2019-08-26T09:08:47.000Z</time>
      </trkpt>
      <trkpt lat="47.5861" lon="-2.23752">
        <ele>47.71</ele>
        <time>2019-08-26T09:08:48.000Z</time>
      </trkpt>
      <trkpt lat="47.58609" lon="-2.23751">
        <ele>47.19</ele>
        <time>2019-08-26T09:08:49.000Z</time>
      </trkpt>
      <trkpt lat="47.58608" lon="-2.23749">
        <ele>47.26</ele>
        <time>2019-08-26T09:08:50.000Z</time>
      </trkpt>
      <trkpt lat="47.58607" lon="-2.23748">
        <ele>47.35</ele>
        <time>2019-08-26T09:08:51.000Z</time>
      </trkpt>
      <trkpt lat="47.58606" lon="-2.23746">
        <ele>47.79</ele>
        <time>2019-08-26T09:08:52.000Z</time>
      </trkpt>
      <trkpt lat="47.58605" lon="-2.23745">
        <ele>47.6</ele>
        <time>2019-08-26T09:08:53.000Z</time>
      </trkpt>
      <trkpt lat="47.58604" lon="-2.23744">
        <ele>47.92</ele>
        <time>2019-08-26T09:08:54.000Z</time>
      </trkpt>
      <trkpt lat="47.58604" lon="-2.23742">
        <ele>47.24</ele>
        <time>2019-08-26T09:08:55.000Z</time>
      </trkpt>
      <trkpt lat="47.58603" lon="-2.23741">
        <ele>47.95</ele>
        <time>2019-08-26T09:08:56.000Z</time>
      </trkpt>
      <trkpt lat="47.58602" lon="-2.2374">
        <ele>47.5</ele>
        <time>2019-08-26T09:08:57.000Z</time>
      </trkpt>
      <trkpt lat="47.58601" lon="-2.23739">
        <ele>47.76</ele>
        <time>2019-08-26T09:08:58.000Z</time>
      </trkpt>
      <trkpt lat="47.586" lon="-2.23737">
        <ele>48.13</ele>
        <time>2019-08-26T09:08:59.000Z</time>
      </trkpt>
      <trkpt lat="47.58599" lon="-2.23735">
        <ele>48.43</ele>
        <time>2019-08-26T09:09:00.000Z</time>
      </trkpt>
      <trkpt lat="47.58598" lon="-2.23734">
        <ele>48.92</ele>
        <time>2019-08-26T09:09:01.000Z</time>
      </trkpt>
      <trkpt lat="47.58598" lon="-2.23732">
        <ele>48.78</ele>
        <time>2019-08-26T09:09:02.000Z</time>
      </trkpt>
      <trkpt lat="47.58597" lon="-2.23731">
        <ele>49.25</ele>
        <time>2019-08-26T09:09:03.000Z</time>
      </trkpt>
      <trkpt lat="47.58596" lon="-2.23729">
        <ele>49.01</ele>
        <time>2019-08-26T09:09:04.000Z</time>
      </trkpt>
      <trkpt lat="47.58595" lon="-2.23728">
        <ele>49.84</ele>
        <time>2019-08-26T09:09:05.000Z</time>
      </trkpt>
      <trkpt lat="47.58595" lon="-2.23726">
        <ele>50.2</ele>
        <time>2019-08-26T09:09:06.000Z</time>
      </trkpt>
      <trkpt lat="47.58594" lon="-2.23725">
        <ele>50.03</ele>
        <time>2019-08-26T09:09:07.000Z</time>
      </trkpt>
      <trkpt lat="47.58593" lon="-2.23723">
        <ele>49.27</ele>
        <time>2019-08-26T09:09:08.000Z</time>
      </trkpt>
      <trkpt lat="47.58592" lon="-2.23722">
        <ele>49.39</ele>
        <time>2019-08-26T09:09:09.000Z</time>
      </trkpt>
      <trkpt lat="47.58591" lon="-2.2372">
        <ele>49.99</ele>
        <time>2019-08-26T09:09:10.000Z</time>
      </trkpt>
      <trkpt lat="47.5859" lon="-2.23719">
        <ele>50.55</ele>
        <time>2019-08-26T09:09:11.000Z</time>
      </trkpt>
      <trkpt lat="47.58588" lon="-2.23717">
        <ele>50.78</ele>
        <time>2019-08-26T09:09:12.000Z</time>
      </trkpt>
      <trkpt lat="47.58588" lon="-2.23716">
        <ele>50.14</ele>
        <time>2019-08-26T09:09:13.000Z</time>
      </trkpt>
      <trkpt lat="47.58587" lon="-2.23714">
        <ele>50.51</ele>
        <time>2019-08-26T09:09:14.000Z</time>
      </trkpt>
      <trkpt lat="47.58586" lon="-2.23713">
        <ele>50.73</ele>
        <time>2019-08-26T09:09:15.000Z</time>
      </trkpt>
      <trkpt lat="47.58585" lon="-2.23712">
        <ele>51.22</ele>
        <time>2019-08-26T09:09:16.000Z</time>
      </trkpt>
      <trkpt lat="47.58584" lon="-2.23711">
        <ele>50.99</ele>
        <time>2019-08-26T09:09:17.000Z</time>
      </trkpt>
      <trkpt lat="47.58583" lon="-2.2371">
        <ele>50.87</ele>
        <time>2019-08-26T09:09:18.000Z</time>
      </trkpt>
      <trkpt lat="47.58582" lon="-2.23708">
        <ele>51.81</ele>
        <time>2019-08-26T09:09:19.000Z</time>
      </trkpt>
      <trkpt lat="47.5858" lon="-2.23707">
        <ele>51.81</ele>
        <time>2019-08-26T09:09:20.000Z</time>
      </trkpt>
      <trkpt lat="47.58579" lon="-2.23706">
        <ele>51.47</ele>
        <time>2019-08-26T09:09:21.000Z</time>
      </trkpt>
      <trkpt lat="47.58578" lon="-2.23705">
        <ele>51.54</ele>
        <time>2019-08-26T09:09:22.000Z</time>
      </trkpt>
      <trkpt lat="47.58577" lon="-2.23703">
        <ele>51.33</ele>
        <time>2019-08-26T09:09:23.000Z</time>
      </trkpt>
      <trkpt lat="47.58576" lon="-2.23702">
        <ele>51</ele>
        <time>2019-08-26T09:09:24.000Z</time>
      </trkpt>
      <trkpt lat="47.58575" lon="-2.23701">
        <ele>51.05</ele>
        <time>2019-08-26T09:09:25.000Z</time>
      </trkpt>
      <trkpt lat="47.58575" lon="-2.23699">
        <ele>49.78</ele>
        <time>2019-08-26T09:09:26.000Z</time>
      </trkpt>
      <trkpt lat="47.58574" lon="-2.23698">
        <ele>50.31</ele>
        <time>2019-08-26T09:09:27.000Z</time>
      </trkpt>
      <trkpt lat="47.58573" lon="-2.23697">
        <ele>50.55</ele>
        <time>2019-08-26T09:09:28.000Z</time>
      </trkpt>
      <trkpt lat="47.58572" lon="-2.23695">
        <ele>50.76</ele>
        <time>2019-08-26T09:09:29.000Z</time>
      </trkpt>
      <trkpt lat="47.58571" lon="-2.23694">
        <ele>50.58</ele>
        <time>2019-08-26T09:09:30.000Z</time>
      </trkpt>
      <trkpt lat="47.58571" lon="-2.23693">
        <ele>51.24</ele>
        <time>2019-08-26T09:09:31.000Z</time>
      </trkpt>
      <trkpt lat="47.5857" lon="-2.23691">
        <ele>51.75</ele>
        <time>2019-08-26T09:09:32.000Z</time>
      </trkpt>
      <trkpt lat="47.58569" lon="-2.2369">
        <ele>52.2</ele>
        <time>2019-08-26T09:09:33.000Z</time>
      </trkpt>
      <trkpt lat="47.58568" lon="-2.23689">
        <ele>52.55</ele>
        <time>2019-08-26T09:09:34.000Z</time>
      </trkpt>
      <trkpt lat="47.58567" lon="-2.23687">
        <ele>52.73</ele>
        <time>2019-08-26T09:09:35.000Z</time>
      </trkpt>
      <trkpt lat="47.58567" lon="-2.23686">
        <ele>52.18</ele>
        <time>2019-08-26T09:09:36.000Z</time>
      </trkpt>
      <trkpt lat="47.58566" lon="-2.23684">
        <ele>52.39</ele>
        <time>2019-08-26T09:09:37.000Z</time>
      </trkpt>
      <trkpt lat="47.58565" lon="-2.23683">
        <ele>52.07</ele>
        <time>2019-08-26T09:09:38.000Z</time>
      </trkpt>
      <trkpt lat="47.58564" lon="-2.23681">
        <ele>52.79</ele>
        <time>2019-08-26T09:09:39.000Z</time>
      </trkpt>
      <trkpt lat="47.58563" lon="-2.2368">
        <ele>52.62</ele>
        <time>2019-08-26T09:09:40.000Z</time>
      </trkpt>
      <trkpt lat="47.58563" lon="-2.23679">
        <ele>52.11</ele>
        <time>2019-08-26T09:09:41.000Z</time>
      </trkpt>
      <trkpt lat="47.58561" lon="-2.23677">
        <ele>52.46</ele>
        <time>2019-08-26T09:09:42.000Z</time>
      </trkpt>
      <trkpt lat="47.58561" lon="-2.23676">
        <ele>53.77</ele>
        <time>2019-08-26T09:09:43.000Z</time>
      </trkpt>
      <trkpt lat="47.5856" lon="-2.23674">
        <ele>53.47</ele>
        <time>2019-08-26T09:09:44.000Z</time>
      </trkpt>
      <trkpt lat="47.58559" lon="-2.23673">
        <ele>52.8</ele>
        <time>2019-08-26T09:09:45.000Z</time>
      </trkpt>
      <trkpt lat="47.58559" lon="-2.23671">
        <ele>52.52</ele>
        <time>2019-08-26T09:09:46.000Z</time>
      </trkpt>
      <trkpt lat="47.58558" lon="-2.2367">
        <ele>51.81</ele>
        <time>2019-08-26T09:09:47.000Z</time>
      </trkpt>
      <trkpt lat="47.58558" lon="-2.23668">
        <ele>52.16</ele>
        <time>2019-08-26T09:09:48.000Z</time>
      </trkpt>
      <trkpt lat="47.58557" lon="-2.23666">
        <ele>52.2</ele>
        <time>2019-08-26T09:09:49.000Z</time>
      </trkpt>
      <trkpt lat="47.58556" lon="-2.23665">
        <ele>52.22</ele>
        <time>2019-08-26T09:09:50.000Z</time>
      </trkpt>
      <trkpt lat="47.58556" lon="-2.23663">
        <ele>52.4</ele>
        <time>2019-08-26T09:09:51.000Z</time>
      </trkpt>
      <trkpt lat="47.58555" lon="-2.23661">
        <ele>53.14</ele>
        <time>2019-08-26T09:09:52.000Z</time>
      </trkpt>
      <trkpt lat="47.58555" lon="-2.2366">
        <ele>52.18</ele>
        <time>2019-08-26T09:09:53.000Z</time>
      </trkpt>
      <trkpt lat="47.58554" lon="-2.23658">
        <ele>52.71</ele>
        <time>2019-08-26T09:09:54.000Z</time>
      </trkpt>
      <trkpt lat="47.58553" lon="-2.23656">
        <ele>51.99</ele>
        <time>2019-08-26T09:09:55.000Z</time>
      </trkpt>
      <trkpt lat="47.58552" lon="-2.23655">
        <ele>51.06</ele>
        <time>2019-08-26T09:09:56.000Z</time>
      </trkpt>
      <trkpt lat="47.58551" lon="-2.23653">
        <ele>51.07</ele>
        <time>2019-08-26T09:09:57.000Z</time>
      </trkpt>
      <trkpt lat="47.58551" lon="-2.23651">
        <ele>50.98</ele>
        <time>2019-08-26T09:09:58.000Z</time>
      </trkpt>
      <trkpt lat="47.5855" lon="-2.23649">
        <ele>51.22</ele>
        <time>2019-08-26T09:09:59.000Z</time>
      </trkpt>
      <trkpt lat="47.5855" lon="-2.23647">
        <ele>51.47</ele>
        <time>2019-08-26T09:10:00.000Z</time>
      </trkpt>
      <trkpt lat="47.58549" lon="-2.23646">
        <ele>51.81</ele>
        <time>2019-08-26T09:10:01.000Z</time>
      </trkpt>
      <trkpt lat="47.58548" lon="-2.23647">
        <ele>51.46</ele>
        <time>2019-08-26T09:10:05.000Z</time>
      </trkpt>
      <trkpt lat="47.58547" lon="-2.23646">
        <ele>51.51</ele>
        <time>2019-08-26T09:10:32.000Z</time>
      </trkpt>
      <trkpt lat="47.58546" lon="-2.23645">
        <ele>51.82</ele>
        <time>2019-08-26T09:10:33.000Z</time>
      </trkpt>
      <trkpt lat="47.58546" lon="-2.23643">
        <ele>50.69</ele>
        <time>2019-08-26T09:10:34.000Z</time>
      </trkpt>
      <trkpt lat="47.58545" lon="-2.23642">
        <ele>51.24</ele>
        <time>2019-08-26T09:10:35.000Z</time>
      </trkpt>
      <trkpt lat="47.58544" lon="-2.2364">
        <ele>51.3</ele>
        <time>2019-08-26T09:10:36.000Z</time>
      </trkpt>
      <trkpt lat="47.58543" lon="-2.23639">
        <ele>50.68</ele>
        <time>2019-08-26T09:10:37.000Z</time>
      </trkpt>
      <trkpt lat="47.58543" lon="-2.23638">
        <ele>50.64</ele>
        <time>2019-08-26T09:10:38.000Z</time>
      </trkpt>
      <trkpt lat="47.58542" lon="-2.23636">
        <ele>50.78</ele>
        <time>2019-08-26T09:10:39.000Z</time>
      </trkpt>
      <trkpt lat="47.58541" lon="-2.23635">
        <ele>50.67</ele>
        <time>2019-08-26T09:10:40.000Z</time>
      </trkpt>
      <trkpt lat="47.5854" lon="-2.23634">
        <ele>50.13</ele>
        <time>2019-08-26T09:10:41.000Z</time>
      </trkpt>
      <trkpt lat="47.5854" lon="-2.23633">
        <ele>50.14</ele>
        <time>2019-08-26T09:10:42.000Z</time>
      </trkpt>
      <trkpt lat="47.58539" lon="-2.23632">
        <ele>50.41</ele>
        <time>2019-08-26T09:10:43.000Z</time>
      </trkpt>
      <trkpt lat="47.58538" lon="-2.23631">
        <ele>50.32</ele>
        <time>2019-08-26T09:10:44.000Z</time>
      </trkpt>
      <trkpt lat="47.58537" lon="-2.23631">
        <ele>50.29</ele>
        <time>2019-08-26T09:10:45.000Z</time>
      </trkpt>
      <trkpt lat="47.58536" lon="-2.2363">
        <ele>48.63</ele>
        <time>2019-08-26T09:10:46.000Z</time>
      </trkpt>
      <trkpt lat="47.58535" lon="-2.2363">
        <ele>49.1</ele>
        <time>2019-08-26T09:10:48.000Z</time>
      </trkpt>
      <trkpt lat="47.58534" lon="-2.23631">
        <ele>48.61</ele>
        <time>2019-08-26T09:10:50.000Z</time>
      </trkpt>
      <trkpt lat="47.58533" lon="-2.23632">
        <ele>48.98</ele>
        <time>2019-08-26T09:10:52.000Z</time>
      </trkpt>
      <trkpt lat="47.58532" lon="-2.23631">
        <ele>49.92</ele>
        <time>2019-08-26T09:12:15.000Z</time>
      </trkpt>
      <trkpt lat="47.58532" lon="-2.23628">
        <ele>50.42</ele>
        <time>2019-08-26T09:12:17.000Z</time>
      </trkpt>
      <trkpt lat="47.58533" lon="-2.23627">
        <ele>49.97</ele>
        <time>2019-08-26T09:12:18.000Z</time>
      </trkpt>
      <trkpt lat="47.58534" lon="-2.23626">
        <ele>49.34</ele>
        <time>2019-08-26T09:12:19.000Z</time>
      </trkpt>
      <trkpt lat="47.58535" lon="-2.23624">
        <ele>49.9</ele>
        <time>2019-08-26T09:12:20.000Z</time>
      </trkpt>
      <trkpt lat="47.58536" lon="-2.23622">
        <ele>49.62</ele>
        <time>2019-08-26T09:12:21.000Z</time>
      </trkpt>
      <trkpt lat="47.58537" lon="-2.23621">
        <ele>50.8</ele>
        <time>2019-08-26T09:12:22.000Z</time>
      </trkpt>
      <trkpt lat="47.58538" lon="-2.2362">
        <ele>51</ele>
        <time>2019-08-26T09:12:23.000Z</time>
      </trkpt>
      <trkpt lat="47.58538" lon="-2.23619">
        <ele>51.18</ele>
        <time>2019-08-26T09:12:24.000Z</time>
      </trkpt>
      <trkpt lat="47.58539" lon="-2.23618">
        <ele>50.66</ele>
        <time>2019-08-26T09:12:25.000Z</time>
      </trkpt>
      <trkpt lat="47.5854" lon="-2.23616">
        <ele>51.07</ele>
        <time>2019-08-26T09:12:26.000Z</time>
      </trkpt>
      <trkpt lat="47.58541" lon="-2.23615">
        <ele>50.39</ele>
        <time>2019-08-26T09:12:27.000Z</time>
      </trkpt>
      <trkpt lat="47.58542" lon="-2.23614">
        <ele>49.66</ele>
        <time>2019-08-26T09:12:28.000Z</time>
      </trkpt>
      <trkpt lat="47.58543" lon="-2.23613">
        <ele>50.8</ele>
        <time>2019-08-26T09:12:29.000Z</time>
      </trkpt>
      <trkpt lat="47.58543" lon="-2.23611">
        <ele>50.43</ele>
        <time>2019-08-26T09:12:31.000Z</time>
      </trkpt>
      <trkpt lat="47.58543" lon="-2.23612">
        <ele>51.81</ele>
        <time>2019-08-26T09:15:39.000Z</time>
      </trkpt>
      <trkpt lat="47.58542" lon="-2.23611">
        <ele>50.71</ele>
        <time>2019-08-26T09:15:45.000Z</time>
      </trkpt>
      <trkpt lat="47.58541" lon="-2.23612">
        <ele>51.03</ele>
        <time>2019-08-26T09:15:48.000Z</time>
      </trkpt>
      <trkpt lat="47.5854" lon="-2.23613">
        <ele>51.13</ele>
        <time>2019-08-26T09:15:50.000Z</time>
      </trkpt>
      <trkpt lat="47.58539" lon="-2.23614">
        <ele>50.83</ele>
        <time>2019-08-26T09:15:51.000Z</time>
      </trkpt>
      <trkpt lat="47.58538" lon="-2.23614">
        <ele>51.5</ele>
        <time>2019-08-26T09:15:52.000Z</time>
      </trkpt>
      <trkpt lat="47.58537" lon="-2.23614">
        <ele>50.98</ele>
        <time>2019-08-26T09:15:54.000Z</time>
      </trkpt>
      <trkpt lat="47.58535" lon="-2.23614">
        <ele>50.19</ele>
        <time>2019-08-26T09:15:56.000Z</time>
      </trkpt>
      <trkpt lat="47.58534" lon="-2.23614">
        <ele>49.33</ele>
        <time>2019-08-26T09:15:58.000Z</time>
      </trkpt>
      <trkpt lat="47.58532" lon="-2.23614">
        <ele>48.42</ele>
        <time>2019-08-26T09:16:00.000Z</time>
      </trkpt>
      <trkpt lat="47.58532" lon="-2.23613">
        <ele>47.6</ele>
        <time>2019-08-26T09:16:01.000Z</time>
      </trkpt>
      <trkpt lat="47.5853" lon="-2.23612">
        <ele>47.71</ele>
        <time>2019-08-26T09:16:02.000Z</time>
      </trkpt>
      <trkpt lat="47.58529" lon="-2.23611">
        <ele>46.93</ele>
        <time>2019-08-26T09:16:03.000Z</time>
      </trkpt>
      <trkpt lat="47.58528" lon="-2.23609">
        <ele>45.66</ele>
        <time>2019-08-26T09:16:04.000Z</time>
      </trkpt>
      <trkpt lat="47.58527" lon="-2.23608">
        <ele>46.43</ele>
        <time>2019-08-26T09:16:05.000Z</time>
      </trkpt>
      <trkpt lat="47.58526" lon="-2.23606">
        <ele>46.13</ele>
        <time>2019-08-26T09:16:06.000Z</time>
      </trkpt>
      <trkpt lat="47.58525" lon="-2.23605">
        <ele>46.48</ele>
        <time>2019-08-26T09:16:07.000Z</time>
      </trkpt>
      <trkpt lat="47.58524" lon="-2.23603">
        <ele>46.49</ele>
        <time>2019-08-26T09:16:08.000Z</time>
      </trkpt>
      <trkpt lat="47.58523" lon="-2.23602">
        <ele>47.21</ele>
        <time>2019-08-26T09:16:09.000Z</time>
      </trkpt>
      <trkpt lat="47.58522" lon="-2.23601">
        <ele>47.58</ele>
        <time>2019-08-26T09:16:10.000Z</time>
      </trkpt>
      <trkpt lat="47.58522" lon="-2.236">
        <ele>47.62</ele>
        <time>2019-08-26T09:16:11.000Z</time>
      </trkpt>
      <trkpt lat="47.58521" lon="-2.23598">
        <ele>47.76</ele>
        <time>2019-08-26T09:16:12.000Z</time>
      </trkpt>
      <trkpt lat="47.5852" lon="-2.23597">
        <ele>47.48</ele>
        <time>2019-08-26T09:16:13.000Z</time>
      </trkpt>
      <trkpt lat="47.58519" lon="-2.23595">
        <ele>46.97</ele>
        <time>2019-08-26T09:16:14.000Z</time>
      </trkpt>
      <trkpt lat="47.58518" lon="-2.23594">
        <ele>46.88</ele>
        <time>2019-08-26T09:16:15.000Z</time>
      </trkpt>
      <trkpt lat="47.58517" lon="-2.23593">
        <ele>46.87</ele>
        <time>2019-08-26T09:16:16.000Z</time>
      </trkpt>
      <trkpt lat="47.58516" lon="-2.23591">
        <ele>47.02</ele>
        <time>2019-08-26T09:16:17.000Z</time>
      </trkpt>
      <trkpt lat="47.58516" lon="-2.2359">
        <ele>46.5</ele>
        <time>2019-08-26T09:16:18.000Z</time>
      </trkpt>
      <trkpt lat="47.58515" lon="-2.23588">
        <ele>46.35</ele>
        <time>2019-08-26T09:16:19.000Z</time>
      </trkpt>
      <trkpt lat="47.58514" lon="-2.23587">
        <ele>46.04</ele>
        <time>2019-08-26T09:16:20.000Z</time>
      </trkpt>
      <trkpt lat="47.58513" lon="-2.23585">
        <ele>45.39</ele>
        <time>2019-08-26T09:16:21.000Z</time>
      </trkpt>
      <trkpt lat="47.58512" lon="-2.23583">
        <ele>46.34</ele>
        <time>2019-08-26T09:16:22.000Z</time>
      </trkpt>
      <trkpt lat="47.58511" lon="-2.23582">
        <ele>46.51</ele>
        <time>2019-08-26T09:16:23.000Z</time>
      </trkpt>
      <trkpt lat="47.5851" lon="-2.23581">
        <ele>46.14</ele>
        <time>2019-08-26T09:16:24.000Z</time>
      </trkpt>
      <trkpt lat="47.58509" lon="-2.2358">
        <ele>46.76</ele>
        <time>2019-08-26T09:16:25.000Z</time>
      </trkpt>
      <trkpt lat="47.58508" lon="-2.23578">
        <ele>47.87</ele>
        <time>2019-08-26T09:16:26.000Z</time>
      </trkpt>
      <trkpt lat="47.58507" lon="-2.23577">
        <ele>48.52</ele>
        <time>2019-08-26T09:16:27.000Z</time>
      </trkpt>
      <trkpt lat="47.58507" lon="-2.23576">
        <ele>47.53</ele>
        <time>2019-08-26T09:16:28.000Z</time>
      </trkpt>
      <trkpt lat="47.58506" lon="-2.23574">
        <ele>48.06</ele>
        <time>2019-08-26T09:16:29.000Z</time>
      </trkpt>
      <trkpt lat="47.58505" lon="-2.23573">
        <ele>45.91</ele>
        <time>2019-08-26T09:16:30.000Z</time>
      </trkpt>
      <trkpt lat="47.58505" lon="-2.23572">
        <ele>46.45</ele>
        <time>2019-08-26T09:16:31.000Z</time>
      </trkpt>
      <trkpt lat="47.58503" lon="-2.2357">
        <ele>48.26</ele>
        <time>2019-08-26T09:16:33.000Z</time>
      </trkpt>
      <trkpt lat="47.58502" lon="-2.23569">
        <ele>49.22</ele>
        <time>2019-08-26T09:16:34.000Z</time>
      </trkpt>
      <trkpt lat="47.58502" lon="-2.23568">
        <ele>49.39</ele>
        <time>2019-08-26T09:16:35.000Z</time>
      </trkpt>
      <trkpt lat="47.58501" lon="-2.23566">
        <ele>49.25</ele>
        <time>2019-08-26T09:16:36.000Z</time>
      </trkpt>
      <trkpt lat="47.585" lon="-2.23565">
        <ele>50.21</ele>
        <time>2019-08-26T09:16:37.000Z</time>
      </trkpt>
      <trkpt lat="47.585" lon="-2.23564">
        <ele>50.97</ele>
        <time>2019-08-26T09:16:38.000Z</time>
      </trkpt>
      <trkpt lat="47.585" lon="-2.23562">
        <ele>51.42</ele>
        <time>2019-08-26T09:16:39.000Z</time>
      </trkpt>
      <trkpt lat="47.58499" lon="-2.23561">
        <ele>50.81</ele>
        <time>2019-08-26T09:16:40.000Z</time>
      </trkpt>
      <trkpt lat="47.58498" lon="-2.23559">
        <ele>50.3</ele>
        <time>2019-08-26T09:16:41.000Z</time>
      </trkpt>
      <trkpt lat="47.58498" lon="-2.23557">
        <ele>49.15</ele>
        <time>2019-08-26T09:16:42.000Z</time>
      </trkpt>
      <trkpt lat="47.58497" lon="-2.23556">
        <ele>49.54</ele>
        <time>2019-08-26T09:16:43.000Z</time>
      </trkpt>
      <trkpt lat="47.58496" lon="-2.23555">
        <ele>49.77</ele>
        <time>2019-08-26T09:16:44.000Z</time>
      </trkpt>
      <trkpt lat="47.58496" lon="-2.23553">
        <ele>49.75</ele>
        <time>2019-08-26T09:16:45.000Z</time>
      </trkpt>
      <trkpt lat="47.58495" lon="-2.23552">
        <ele>50.06</ele>
        <time>2019-08-26T09:16:46.000Z</time>
      </trkpt>
      <trkpt lat="47.58494" lon="-2.2355">
        <ele>49.46</ele>
        <time>2019-08-26T09:16:47.000Z</time>
      </trkpt>
      <trkpt lat="47.58493" lon="-2.23549">
        <ele>49.03</ele>
        <time>2019-08-26T09:16:48.000Z</time>
      </trkpt>
      <trkpt lat="47.58492" lon="-2.23547">
        <ele>49.22</ele>
        <time>2019-08-26T09:16:49.000Z</time>
      </trkpt>
      <trkpt lat="47.58492" lon="-2.23546">
        <ele>49.12</ele>
        <time>2019-08-26T09:16:50.000Z</time>
      </trkpt>
      <trkpt lat="47.58491" lon="-2.23544">
        <ele>49.6</ele>
        <time>2019-08-26T09:16:51.000Z</time>
      </trkpt>
      <trkpt lat="47.5849" lon="-2.23542">
        <ele>50.01</ele>
        <time>2019-08-26T09:16:52.000Z</time>
      </trkpt>
      <trkpt lat="47.58489" lon="-2.23541">
        <ele>50.32</ele>
        <time>2019-08-26T09:16:53.000Z</time>
      </trkpt>
      <trkpt lat="47.58488" lon="-2.23539">
        <ele>49.06</ele>
        <time>2019-08-26T09:16:54.000Z</time>
      </trkpt>
      <trkpt lat="47.58487" lon="-2.23538">
        <ele>49.11</ele>
        <time>2019-08-26T09:16:55.000Z</time>
      </trkpt>
      <trkpt lat="47.58486" lon="-2.23536">
        <ele>48.63</ele>
        <time>2019-08-26T09:16:56.000Z</time>
      </trkpt>
      <trkpt lat="47.58485" lon="-2.23534">
        <ele>48.06</ele>
        <time>2019-08-26T09:16:57.000Z</time>
      </trkpt>
      <trkpt lat="47.58484" lon="-2.23533">
        <ele>47.76</ele>
        <time>2019-08-26T09:16:58.000Z</time>
      </trkpt>
      <trkpt lat="47.58483" lon="-2.23532">
        <ele>47.71</ele>
        <time>2019-08-26T09:16:59.000Z</time>
      </trkpt>
      <trkpt lat="47.58482" lon="-2.23531">
        <ele>47.33</ele>
        <time>2019-08-26T09:17:00.000Z</time>
      </trkpt>
      <trkpt lat="47.58481" lon="-2.23529">
        <ele>48.8</ele>
        <time>2019-08-26T09:17:01.000Z</time>
      </trkpt>
      <trkpt lat="47.58481" lon="-2.23527">
        <ele>48.85</ele>
        <time>2019-08-26T09:17:02.000Z</time>
      </trkpt>
      <trkpt lat="47.5848" lon="-2.23526">
        <ele>48.42</ele>
        <time>2019-08-26T09:17:03.000Z</time>
      </trkpt>
      <trkpt lat="47.58479" lon="-2.23524">
        <ele>47.51</ele>
        <time>2019-08-26T09:17:04.000Z</time>
      </trkpt>
      <trkpt lat="47.58478" lon="-2.23522">
        <ele>47.83</ele>
        <time>2019-08-26T09:17:05.000Z</time>
      </trkpt>
      <trkpt lat="47.58478" lon="-2.2352">
        <ele>48.09</ele>
        <time>2019-08-26T09:17:06.000Z</time>
      </trkpt>
      <trkpt lat="47.58477" lon="-2.23519">
        <ele>48.27</ele>
        <time>2019-08-26T09:17:07.000Z</time>
      </trkpt>
      <trkpt lat="47.58476" lon="-2.23517">
        <ele>47.72</ele>
        <time>2019-08-26T09:17:08.000Z</time>
      </trkpt>
      <trkpt lat="47.58476" lon="-2.23516">
        <ele>48</ele>
        <time>2019-08-26T09:17:09.000Z</time>
      </trkpt>
      <trkpt lat="47.58475" lon="-2.23515">
        <ele>48.9</ele>
        <time>2019-08-26T09:17:10.000Z</time>
      </trkpt>
      <trkpt lat="47.58474" lon="-2.23513">
        <ele>49.52</ele>
        <time>2019-08-26T09:17:11.000Z</time>
      </trkpt>
      <trkpt lat="47.58473" lon="-2.23512">
        <ele>49.15</ele>
        <time>2019-08-26T09:17:12.000Z</time>
      </trkpt>
      <trkpt lat="47.58472" lon="-2.23511">
        <ele>49.54</ele>
        <time>2019-08-26T09:17:13.000Z</time>
      </trkpt>
      <trkpt lat="47.58471" lon="-2.2351">
        <ele>49.72</ele>
        <time>2019-08-26T09:17:14.000Z</time>
      </trkpt>
      <trkpt lat="47.58471" lon="-2.23509">
        <ele>49.72</ele>
        <time>2019-08-26T09:17:15.000Z</time>
      </trkpt>
      <trkpt lat="47.5847" lon="-2.23508">
        <ele>49.54</ele>
        <time>2019-08-26T09:17:16.000Z</time>
      </trkpt>
      <trkpt lat="47.58469" lon="-2.23506">
        <ele>49.57</ele>
        <time>2019-08-26T09:17:17.000Z</time>
      </trkpt>
      <trkpt lat="47.58468" lon="-2.23505">
        <ele>49.86</ele>
        <time>2019-08-26T09:17:18.000Z</time>
      </trkpt>
      <trkpt lat="47.58468" lon="-2.23504">
        <ele>49.97</ele>
        <time>2019-08-26T09:17:19.000Z</time>
      </trkpt>
      <trkpt lat="47.58467" lon="-2.23503">
        <ele>49.96</ele>
        <time>2019-08-26T09:17:20.000Z</time>
      </trkpt>
      <trkpt lat="47.58466" lon="-2.23502">
        <ele>49.75</ele>
        <time>2019-08-26T09:17:21.000Z</time>
      </trkpt>
      <trkpt lat="47.58466" lon="-2.23501">
        <ele>49.27</ele>
        <time>2019-08-26T09:17:22.000Z</time>
      </trkpt>
      <trkpt lat="47.58465" lon="-2.23499">
        <ele>49.47</ele>
        <time>2019-08-26T09:17:23.000Z</time>
      </trkpt>
      <trkpt lat="47.58464" lon="-2.23498">
        <ele>49.57</ele>
        <time>2019-08-26T09:17:24.000Z</time>
      </trkpt>
      <trkpt lat="47.58463" lon="-2.23497">
        <ele>49.86</ele>
        <time>2019-08-26T09:17:25.000Z</time>
      </trkpt>
      <trkpt lat="47.58463" lon="-2.23495">
        <ele>49.79</ele>
        <time>2019-08-26T09:17:26.000Z</time>
      </trkpt>
      <trkpt lat="47.58462" lon="-2.23494">
        <ele>49.3</ele>
        <time>2019-08-26T09:17:27.000Z</time>
      </trkpt>
      <trkpt lat="47.58461" lon="-2.23493">
        <ele>49.72</ele>
        <time>2019-08-26T09:17:28.000Z</time>
      </trkpt>
      <trkpt lat="47.58461" lon="-2.23492">
        <ele>49.71</ele>
        <time>2019-08-26T09:17:29.000Z</time>
      </trkpt>
      <trkpt lat="47.5846" lon="-2.2349">
        <ele>50.04</ele>
        <time>2019-08-26T09:17:30.000Z</time>
      </trkpt>
      <trkpt lat="47.58459" lon="-2.23489">
        <ele>50.08</ele>
        <time>2019-08-26T09:17:31.000Z</time>
      </trkpt>
      <trkpt lat="47.58458" lon="-2.23488">
        <ele>50.47</ele>
        <time>2019-08-26T09:17:32.000Z</time>
      </trkpt>
      <trkpt lat="47.58458" lon="-2.23487">
        <ele>49.58</ele>
        <time>2019-08-26T09:17:33.000Z</time>
      </trkpt>
      <trkpt lat="47.58457" lon="-2.23485">
        <ele>49.25</ele>
        <time>2019-08-26T09:17:34.000Z</time>
      </trkpt>
      <trkpt lat="47.58456" lon="-2.23484">
        <ele>48.98</ele>
        <time>2019-08-26T09:17:35.000Z</time>
      </trkpt>
      <trkpt lat="47.58455" lon="-2.23483">
        <ele>48.79</ele>
        <time>2019-08-26T09:17:36.000Z</time>
      </trkpt>
      <trkpt lat="47.58455" lon="-2.23481">
        <ele>48.78</ele>
        <time>2019-08-26T09:17:37.000Z</time>
      </trkpt>
      <trkpt lat="47.58454" lon="-2.2348">
        <ele>49.11</ele>
        <time>2019-08-26T09:17:38.000Z</time>
      </trkpt>
      <trkpt lat="47.58453" lon="-2.23479">
        <ele>48.98</ele>
        <time>2019-08-26T09:17:39.000Z</time>
      </trkpt>
      <trkpt lat="47.58452" lon="-2.23477">
        <ele>49.2</ele>
        <time>2019-08-26T09:17:40.000Z</time>
      </trkpt>
      <trkpt lat="47.58452" lon="-2.23476">
        <ele>49.89</ele>
        <time>2019-08-26T09:17:41.000Z</time>
      </trkpt>
      <trkpt lat="47.58451" lon="-2.23474">
        <ele>50.03</ele>
        <time>2019-08-26T09:17:42.000Z</time>
      </trkpt>
      <trkpt lat="47.5845" lon="-2.23473">
        <ele>50.84</ele>
        <time>2019-08-26T09:17:43.000Z</time>
      </trkpt>
      <trkpt lat="47.58449" lon="-2.23471">
        <ele>51.11</ele>
        <time>2019-08-26T09:17:44.000Z</time>
      </trkpt>
      <trkpt lat="47.58449" lon="-2.23469">
        <ele>50.6</ele>
        <time>2019-08-26T09:17:45.000Z</time>
      </trkpt>
      <trkpt lat="47.58448" lon="-2.23468">
        <ele>51.42</ele>
        <time>2019-08-26T09:17:46.000Z</time>
      </trkpt>
      <trkpt lat="47.58447" lon="-2.23466">
        <ele>52.17</ele>
        <time>2019-08-26T09:17:47.000Z</time>
      </trkpt>
      <trkpt lat="47.58447" lon="-2.23465">
        <ele>52.07</ele>
        <time>2019-08-26T09:17:48.000Z</time>
      </trkpt>
      <trkpt lat="47.58446" lon="-2.23463">
        <ele>51.32</ele>
        <time>2019-08-26T09:17:49.000Z</time>
      </trkpt>
      <trkpt lat="47.58445" lon="-2.23462">
        <ele>50.28</ele>
        <time>2019-08-26T09:17:50.000Z</time>
      </trkpt>
      <trkpt lat="47.58445" lon="-2.2346">
        <ele>50.47</ele>
        <time>2019-08-26T09:17:51.000Z</time>
      </trkpt>
      <trkpt lat="47.58444" lon="-2.23459">
        <ele>50.14</ele>
        <time>2019-08-26T09:17:52.000Z</time>
      </trkpt>
      <trkpt lat="47.58443" lon="-2.23458">
        <ele>50.06</ele>
        <time>2019-08-26T09:17:53.000Z</time>
      </trkpt>
      <trkpt lat="47.58442" lon="-2.23456">
        <ele>50.43</ele>
        <time>2019-08-26T09:17:54.000Z</time>
      </trkpt>
      <trkpt lat="47.58441" lon="-2.23454">
        <ele>50.28</ele>
        <time>2019-08-26T09:17:55.000Z</time>
      </trkpt>
      <trkpt lat="47.5844" lon="-2.23453">
        <ele>49.97</ele>
        <time>2019-08-26T09:17:56.000Z</time>
      </trkpt>
      <trkpt lat="47.5844" lon="-2.23451">
        <ele>49.15</ele>
        <time>2019-08-26T09:17:57.000Z</time>
      </trkpt>
      <trkpt lat="47.58439" lon="-2.2345">
        <ele>48.75</ele>
        <time>2019-08-26T09:17:58.000Z</time>
      </trkpt>
      <trkpt lat="47.58438" lon="-2.23449">
        <ele>49.38</ele>
        <time>2019-08-26T09:17:59.000Z</time>
      </trkpt>
      <trkpt lat="47.58437" lon="-2.23447">
        <ele>48.84</ele>
        <time>2019-08-26T09:18:00.000Z</time>
      </trkpt>
      <trkpt lat="47.58436" lon="-2.23445">
        <ele>48.79</ele>
        <time>2019-08-26T09:18:01.000Z</time>
      </trkpt>
      <trkpt lat="47.58435" lon="-2.23444">
        <ele>48.55</ele>
        <time>2019-08-26T09:18:02.000Z</time>
      </trkpt>
      <trkpt lat="47.58434" lon="-2.23442">
        <ele>48.72</ele>
        <time>2019-08-26T09:18:03.000Z</time>
      </trkpt>
      <trkpt lat="47.58433" lon="-2.23441">
        <ele>47.61</ele>
        <time>2019-08-26T09:18:04.000Z</time>
      </trkpt>
      <trkpt lat="47.58432" lon="-2.23439">
        <ele>46.94</ele>
        <time>2019-08-26T09:18:05.000Z</time>
      </trkpt>
      <trkpt lat="47.58431" lon="-2.23438">
        <ele>46.43</ele>
        <time>2019-08-26T09:18:06.000Z</time>
      </trkpt>
      <trkpt lat="47.5843" lon="-2.23436">
        <ele>46.54</ele>
        <time>2019-08-26T09:18:07.000Z</time>
      </trkpt>
      <trkpt lat="47.58429" lon="-2.23434">
        <ele>46.81</ele>
        <time>2019-08-26T09:18:08.000Z</time>
      </trkpt>
      <trkpt lat="47.58428" lon="-2.23433">
        <ele>47.31</ele>
        <time>2019-08-26T09:18:09.000Z</time>
      </trkpt>
      <trkpt lat="47.58427" lon="-2.23431">
        <ele>46.83</ele>
        <time>2019-08-26T09:18:10.000Z</time>
      </trkpt>
      <trkpt lat="47.58427" lon="-2.23429">
        <ele>47.38</ele>
        <time>2019-08-26T09:18:11.000Z</time>
      </trkpt>
      <trkpt lat="47.58426" lon="-2.23427">
        <ele>47.68</ele>
        <time>2019-08-26T09:18:12.000Z</time>
      </trkpt>
      <trkpt lat="47.58426" lon="-2.23426">
        <ele>48.29</ele>
        <time>2019-08-26T09:18:13.000Z</time>
      </trkpt>
      <trkpt lat="47.58426" lon="-2.23424">
        <ele>48.14</ele>
        <time>2019-08-26T09:18:14.000Z</time>
      </trkpt>
      <trkpt lat="47.58425" lon="-2.23423">
        <ele>48.16</ele>
        <time>2019-08-26T09:18:15.000Z</time>
      </trkpt>
      <trkpt lat="47.58424" lon="-2.23421">
        <ele>47.48</ele>
        <time>2019-08-26T09:18:16.000Z</time>
      </trkpt>
      <trkpt lat="47.58424" lon="-2.23419">
        <ele>46.96</ele>
        <time>2019-08-26T09:18:17.000Z</time>
      </trkpt>
      <trkpt lat="47.58423" lon="-2.23418">
        <ele>47.02</ele>
        <time>2019-08-26T09:18:18.000Z</time>
      </trkpt>
      <trkpt lat="47.58423" lon="-2.23416">
        <ele>47.11</ele>
        <time>2019-08-26T09:18:19.000Z</time>
      </trkpt>
      <trkpt lat="47.58422" lon="-2.23415">
        <ele>46.91</ele>
        <time>2019-08-26T09:18:20.000Z</time>
      </trkpt>
      <trkpt lat="47.58421" lon="-2.23414">
        <ele>46.75</ele>
        <time>2019-08-26T09:18:21.000Z</time>
      </trkpt>
      <trkpt lat="47.58421" lon="-2.23412">
        <ele>47.62</ele>
        <time>2019-08-26T09:18:22.000Z</time>
      </trkpt>
      <trkpt lat="47.5842" lon="-2.23411">
        <ele>48.12</ele>
        <time>2019-08-26T09:18:23.000Z</time>
      </trkpt>
      <trkpt lat="47.5842" lon="-2.23409">
        <ele>48.33</ele>
        <time>2019-08-26T09:18:24.000Z</time>
      </trkpt>
      <trkpt lat="47.58419" lon="-2.23407">
        <ele>48.95</ele>
        <time>2019-08-26T09:18:25.000Z</time>
      </trkpt>
      <trkpt lat="47.58419" lon="-2.23405">
        <ele>49.37</ele>
        <time>2019-08-26T09:18:26.000Z</time>
      </trkpt>
      <trkpt lat="47.58419" lon="-2.23403">
        <ele>49.34</ele>
        <time>2019-08-26T09:18:27.000Z</time>
      </trkpt>
      <trkpt lat="47.58419" lon="-2.23402">
        <ele>49.51</ele>
        <time>2019-08-26T09:18:28.000Z</time>
      </trkpt>
      <trkpt lat="47.5842" lon="-2.234">
        <ele>51.37</ele>
        <time>2019-08-26T09:18:29.000Z</time>
      </trkpt>
      <trkpt lat="47.58421" lon="-2.23399">
        <ele>50.96</ele>
        <time>2019-08-26T09:18:30.000Z</time>
      </trkpt>
      <trkpt lat="47.58421" lon="-2.23397">
        <ele>50.66</ele>
        <time>2019-08-26T09:18:31.000Z</time>
      </trkpt>
      <trkpt lat="47.58422" lon="-2.23396">
        <ele>50.61</ele>
        <time>2019-08-26T09:18:32.000Z</time>
      </trkpt>
      <trkpt lat="47.58423" lon="-2.23395">
        <ele>50.97</ele>
        <time>2019-08-26T09:18:33.000Z</time>
      </trkpt>
      <trkpt lat="47.58424" lon="-2.23394">
        <ele>50.78</ele>
        <time>2019-08-26T09:18:34.000Z</time>
      </trkpt>
      <trkpt lat="47.58425" lon="-2.23393">
        <ele>50.89</ele>
        <time>2019-08-26T09:18:35.000Z</time>
      </trkpt>
      <trkpt lat="47.58426" lon="-2.23393">
        <ele>49.52</ele>
        <time>2019-08-26T09:18:36.000Z</time>
      </trkpt>
      <trkpt lat="47.58427" lon="-2.23392">
        <ele>49.4</ele>
        <time>2019-08-26T09:18:37.000Z</time>
      </trkpt>
      <trkpt lat="47.58428" lon="-2.23391">
        <ele>49.87</ele>
        <time>2019-08-26T09:18:38.000Z</time>
      </trkpt>
      <trkpt lat="47.58429" lon="-2.2339">
        <ele>50.49</ele>
        <time>2019-08-26T09:18:39.000Z</time>
      </trkpt>
      <trkpt lat="47.5843" lon="-2.23389">
        <ele>51.23</ele>
        <time>2019-08-26T09:18:40.000Z</time>
      </trkpt>
      <trkpt lat="47.58431" lon="-2.23387">
        <ele>51.17</ele>
        <time>2019-08-26T09:18:41.000Z</time>
      </trkpt>
      <trkpt lat="47.58432" lon="-2.23386">
        <ele>50.87</ele>
        <time>2019-08-26T09:18:42.000Z</time>
      </trkpt>
      <trkpt lat="47.58434" lon="-2.23385">
        <ele>50.13</ele>
        <time>2019-08-26T09:18:43.000Z</time>
      </trkpt>
      <trkpt lat="47.58435" lon="-2.23384">
        <ele>49.86</ele>
        <time>2019-08-26T09:18:44.000Z</time>
      </trkpt>
      <trkpt lat="47.58435" lon="-2.23383">
        <ele>50.97</ele>
        <time>2019-08-26T09:18:45.000Z</time>
      </trkpt>
      <trkpt lat="47.58437" lon="-2.23383">
        <ele>50.1</ele>
        <time>2019-08-26T09:18:47.000Z</time>
      </trkpt>
      <trkpt lat="47.58435" lon="-2.23382">
        <ele>51.36</ele>
        <time>2019-08-26T09:18:55.000Z</time>
      </trkpt>
      <trkpt lat="47.58436" lon="-2.23381">
        <ele>50.88</ele>
        <time>2019-08-26T09:19:52.000Z</time>
      </trkpt>
      <trkpt lat="47.58436" lon="-2.23378">
        <ele>51.54</ele>
        <time>2019-08-26T09:19:54.000Z</time>
      </trkpt>
      <trkpt lat="47.58436" lon="-2.23377">
        <ele>52.38</ele>
        <time>2019-08-26T09:19:55.000Z</time>
      </trkpt>
      <trkpt lat="47.58436" lon="-2.23375">
        <ele>52.45</ele>
        <time>2019-08-26T09:19:56.000Z</time>
      </trkpt>
      <trkpt lat="47.58436" lon="-2.23374">
        <ele>52.12</ele>
        <time>2019-08-26T09:19:57.000Z</time>
      </trkpt>
      <trkpt lat="47.58435" lon="-2.23371">
        <ele>52.36</ele>
        <time>2019-08-26T09:19:59.000Z</time>
      </trkpt>
      <trkpt lat="47.58435" lon="-2.23368">
        <ele>52.86</ele>
        <time>2019-08-26T09:20:01.000Z</time>
      </trkpt>
      <trkpt lat="47.58435" lon="-2.23367">
        <ele>52.76</ele>
        <time>2019-08-26T09:20:02.000Z</time>
      </trkpt>
      <trkpt lat="47.58435" lon="-2.23365">
        <ele>53.17</ele>
        <time>2019-08-26T09:20:03.000Z</time>
      </trkpt>
      <trkpt lat="47.58434" lon="-2.23364">
        <ele>53.41</ele>
        <time>2019-08-26T09:20:04.000Z</time>
      </trkpt>
      <trkpt lat="47.58434" lon="-2.23362">
        <ele>52.93</ele>
        <time>2019-08-26T09:20:06.000Z</time>
      </trkpt>
      <trkpt lat="47.58434" lon="-2.23359">
        <ele>50.67</ele>
        <time>2019-08-26T09:20:08.000Z</time>
      </trkpt>
      <trkpt lat="47.58434" lon="-2.23358">
        <ele>50.14</ele>
        <time>2019-08-26T09:20:09.000Z</time>
      </trkpt>
      <trkpt lat="47.58434" lon="-2.23357">
        <ele>50.11</ele>
        <time>2019-08-26T09:20:10.000Z</time>
      </trkpt>
      <trkpt lat="47.58434" lon="-2.23355">
        <ele>49.35</ele>
        <time>2019-08-26T09:20:11.000Z</time>
      </trkpt>
      <trkpt lat="47.58434" lon="-2.23353">
        <ele>49.03</ele>
        <time>2019-08-26T09:20:13.000Z</time>
      </trkpt>
      <trkpt lat="47.58434" lon="-2.23351">
        <ele>48.9</ele>
        <time>2019-08-26T09:20:14.000Z</time>
      </trkpt>
      <trkpt lat="47.58433" lon="-2.23349">
        <ele>49.44</ele>
        <time>2019-08-26T09:20:15.000Z</time>
      </trkpt>
      <trkpt lat="47.58433" lon="-2.23348">
        <ele>49.2</ele>
        <time>2019-08-26T09:20:16.000Z</time>
      </trkpt>
      <trkpt lat="47.58432" lon="-2.23346">
        <ele>47.94</ele>
        <time>2019-08-26T09:20:18.000Z</time>
      </trkpt>
      <trkpt lat="47.58431" lon="-2.23345">
        <ele>47.57</ele>
        <time>2019-08-26T09:20:19.000Z</time>
      </trkpt>
      <trkpt lat="47.5843" lon="-2.23345">
        <ele>47.37</ele>
        <time>2019-08-26T09:20:20.000Z</time>
      </trkpt>
      <trkpt lat="47.58429" lon="-2.23343">
        <ele>50.67</ele>
        <time>2019-08-26T09:20:22.000Z</time>
      </trkpt>
      <trkpt lat="47.58429" lon="-2.2334">
        <ele>51.81</ele>
        <time>2019-08-26T09:20:24.000Z</time>
      </trkpt>
      <trkpt lat="47.58429" lon="-2.23339">
        <ele>52.17</ele>
        <time>2019-08-26T09:20:25.000Z</time>
      </trkpt>
      <trkpt lat="47.58429" lon="-2.23337">
        <ele>52.02</ele>
        <time>2019-08-26T09:20:26.000Z</time>
      </trkpt>
      <trkpt lat="47.5843" lon="-2.23336">
        <ele>51.71</ele>
        <time>2019-08-26T09:20:27.000Z</time>
      </trkpt>
      <trkpt lat="47.58431" lon="-2.23334">
        <ele>51.76</ele>
        <time>2019-08-26T09:20:28.000Z</time>
      </trkpt>
      <trkpt lat="47.58432" lon="-2.23333">
        <ele>52.28</ele>
        <time>2019-08-26T09:20:29.000Z</time>
      </trkpt>
      <trkpt lat="47.58433" lon="-2.23332">
        <ele>54.24</ele>
        <time>2019-08-26T09:20:31.000Z</time>
      </trkpt>
      <trkpt lat="47.58434" lon="-2.2333">
        <ele>55.23</ele>
        <time>2019-08-26T09:20:33.000Z</time>
      </trkpt>
      <trkpt lat="47.58435" lon="-2.23329">
        <ele>55.12</ele>
        <time>2019-08-26T09:20:35.000Z</time>
      </trkpt>
      <trkpt lat="47.58435" lon="-2.23327">
        <ele>52.77</ele>
        <time>2019-08-26T09:20:37.000Z</time>
      </trkpt>
      <trkpt lat="47.58435" lon="-2.23326">
        <ele>52.83</ele>
        <time>2019-08-26T09:20:46.000Z</time>
      </trkpt>
      <trkpt lat="47.58434" lon="-2.23328">
        <ele>52.38</ele>
        <time>2019-08-26T09:21:29.000Z</time>
      </trkpt>
      <trkpt lat="47.58433" lon="-2.23329">
        <ele>52.24</ele>
        <time>2019-08-26T09:21:30.000Z</time>
      </trkpt>
      <trkpt lat="47.58432" lon="-2.2333">
        <ele>52.63</ele>
        <time>2019-08-26T09:21:31.000Z</time>
      </trkpt>
      <trkpt lat="47.58431" lon="-2.23331">
        <ele>52.75</ele>
        <time>2019-08-26T09:21:32.000Z</time>
      </trkpt>
      <trkpt lat="47.5843" lon="-2.23331">
        <ele>53.41</ele>
        <time>2019-08-26T09:21:33.000Z</time>
      </trkpt>
      <trkpt lat="47.58429" lon="-2.23333">
        <ele>52.47</ele>
        <time>2019-08-26T09:21:34.000Z</time>
      </trkpt>
      <trkpt lat="47.58427" lon="-2.23334">
        <ele>52.05</ele>
        <time>2019-08-26T09:21:35.000Z</time>
      </trkpt>
      <trkpt lat="47.58426" lon="-2.23335">
        <ele>51.7</ele>
        <time>2019-08-26T09:21:36.000Z</time>
      </trkpt>
      <trkpt lat="47.58426" lon="-2.23336">
        <ele>52.8</ele>
        <time>2019-08-26T09:21:37.000Z</time>
      </trkpt>
      <trkpt lat="47.58426" lon="-2.23338">
        <ele>52.27</ele>
        <time>2019-08-26T09:21:38.000Z</time>
      </trkpt>
      <trkpt lat="47.58426" lon="-2.2334">
        <ele>51.46</ele>
        <time>2019-08-26T09:21:40.000Z</time>
      </trkpt>
      <trkpt lat="47.58428" lon="-2.23342">
        <ele>51.8</ele>
        <time>2019-08-26T09:21:42.000Z</time>
      </trkpt>
      <trkpt lat="47.58428" lon="-2.23343">
        <ele>51.6</ele>
        <time>2019-08-26T09:21:43.000Z</time>
      </trkpt>
      <trkpt lat="47.58429" lon="-2.23345">
        <ele>49.3</ele>
        <time>2019-08-26T09:21:45.000Z</time>
      </trkpt>
      <trkpt lat="47.58431" lon="-2.23346">
        <ele>48.23</ele>
        <time>2019-08-26T09:21:47.000Z</time>
      </trkpt>
      <trkpt lat="47.58431" lon="-2.23348">
        <ele>47.83</ele>
        <time>2019-08-26T09:22:03.000Z</time>
      </trkpt>
      <trkpt lat="47.58431" lon="-2.23349">
        <ele>48.45</ele>
        <time>2019-08-26T09:22:05.000Z</time>
      </trkpt>
      <trkpt lat="47.58432" lon="-2.23351">
        <ele>48.45</ele>
        <time>2019-08-26T09:22:08.000Z</time>
      </trkpt>
      <trkpt lat="47.58432" lon="-2.23352">
        <ele>48.17</ele>
        <time>2019-08-26T09:22:09.000Z</time>
      </trkpt>
      <trkpt lat="47.58432" lon="-2.23354">
        <ele>48.3</ele>
        <time>2019-08-26T09:22:10.000Z</time>
      </trkpt>
      <trkpt lat="47.58432" lon="-2.23355">
        <ele>49.15</ele>
        <time>2019-08-26T09:22:11.000Z</time>
      </trkpt>
      <trkpt lat="47.58432" lon="-2.23357">
        <ele>50.27</ele>
        <time>2019-08-26T09:22:12.000Z</time>
      </trkpt>
      <trkpt lat="47.58431" lon="-2.23358">
        <ele>50.62</ele>
        <time>2019-08-26T09:22:13.000Z</time>
      </trkpt>
      <trkpt lat="47.58431" lon="-2.2336">
        <ele>50.97</ele>
        <time>2019-08-26T09:22:14.000Z</time>
      </trkpt>
      <trkpt lat="47.5843" lon="-2.23361">
        <ele>50.9</ele>
        <time>2019-08-26T09:22:15.000Z</time>
      </trkpt>
      <trkpt lat="47.5843" lon="-2.23363">
        <ele>51.67</ele>
        <time>2019-08-26T09:22:16.000Z</time>
      </trkpt>
      <trkpt lat="47.58429" lon="-2.23364">
        <ele>51.6</ele>
        <time>2019-08-26T09:22:17.000Z</time>
      </trkpt>
      <trkpt lat="47.58429" lon="-2.23365">
        <ele>51.92</ele>
        <time>2019-08-26T09:22:18.000Z</time>
      </trkpt>
      <trkpt lat="47.58427" lon="-2.23367">
        <ele>50.93</ele>
        <time>2019-08-26T09:22:20.000Z</time>
      </trkpt>
      <trkpt lat="47.58427" lon="-2.23368">
        <ele>51.16</ele>
        <time>2019-08-26T09:22:21.000Z</time>
      </trkpt>
      <trkpt lat="47.58427" lon="-2.2337">
        <ele>50.95</ele>
        <time>2019-08-26T09:22:22.000Z</time>
      </trkpt>
      <trkpt lat="47.58427" lon="-2.23372">
        <ele>51.33</ele>
        <time>2019-08-26T09:22:23.000Z</time>
      </trkpt>
      <trkpt lat="47.58426" lon="-2.23373">
        <ele>51.78</ele>
        <time>2019-08-26T09:22:24.000Z</time>
      </trkpt>
      <trkpt lat="47.58426" lon="-2.23375">
        <ele>52.13</ele>
        <time>2019-08-26T09:22:25.000Z</time>
      </trkpt>
      <trkpt lat="47.58425" lon="-2.23377">
        <ele>52.46</ele>
        <time>2019-08-26T09:22:26.000Z</time>
      </trkpt>
      <trkpt lat="47.58425" lon="-2.23379">
        <ele>52.5</ele>
        <time>2019-08-26T09:22:27.000Z</time>
      </trkpt>
      <trkpt lat="47.58424" lon="-2.2338">
        <ele>52.54</ele>
        <time>2019-08-26T09:22:28.000Z</time>
      </trkpt>
      <trkpt lat="47.58424" lon="-2.23382">
        <ele>52.41</ele>
        <time>2019-08-26T09:22:29.000Z</time>
      </trkpt>
      <trkpt lat="47.58423" lon="-2.23384">
        <ele>51.95</ele>
        <time>2019-08-26T09:22:30.000Z</time>
      </trkpt>
      <trkpt lat="47.58423" lon="-2.23385">
        <ele>51.65</ele>
        <time>2019-08-26T09:22:31.000Z</time>
      </trkpt>
      <trkpt lat="47.58422" lon="-2.23387">
        <ele>51.88</ele>
        <time>2019-08-26T09:22:32.000Z</time>
      </trkpt>
      <trkpt lat="47.58421" lon="-2.23389">
        <ele>51.98</ele>
        <time>2019-08-26T09:22:33.000Z</time>
      </trkpt>
      <trkpt lat="47.5842" lon="-2.2339">
        <ele>51.11</ele>
        <time>2019-08-26T09:22:34.000Z</time>
      </trkpt>
      <trkpt lat="47.58419" lon="-2.23392">
        <ele>50.21</ele>
        <time>2019-08-26T09:22:35.000Z</time>
      </trkpt>
      <trkpt lat="47.58419" lon="-2.23393">
        <ele>50.19</ele>
        <time>2019-08-26T09:22:36.000Z</time>
      </trkpt>
      <trkpt lat="47.58419" lon="-2.23395">
        <ele>50.71</ele>
        <time>2019-08-26T09:22:37.000Z</time>
      </trkpt>
      <trkpt lat="47.58418" lon="-2.23397">
        <ele>50.1</ele>
        <time>2019-08-26T09:22:38.000Z</time>
      </trkpt>
      <trkpt lat="47.58418" lon="-2.23398">
        <ele>50.01</ele>
        <time>2019-08-26T09:22:39.000Z</time>
      </trkpt>
      <trkpt lat="47.58418" lon="-2.234">
        <ele>49.61</ele>
        <time>2019-08-26T09:22:40.000Z</time>
      </trkpt>
      <trkpt lat="47.58417" lon="-2.23402">
        <ele>49.34</ele>
        <time>2019-08-26T09:22:41.000Z</time>
      </trkpt>
      <trkpt lat="47.58417" lon="-2.23404">
        <ele>49.46</ele>
        <time>2019-08-26T09:22:42.000Z</time>
      </trkpt>
      <trkpt lat="47.58417" lon="-2.23406">
        <ele>48.57</ele>
        <time>2019-08-26T09:22:43.000Z</time>
      </trkpt>
      <trkpt lat="47.58417" lon="-2.23407">
        <ele>48.57</ele>
        <time>2019-08-26T09:22:44.000Z</time>
      </trkpt>
      <trkpt lat="47.58417" lon="-2.23409">
        <ele>47.63</ele>
        <time>2019-08-26T09:22:45.000Z</time>
      </trkpt>
      <trkpt lat="47.58417" lon="-2.23411">
        <ele>47.16</ele>
        <time>2019-08-26T09:22:46.000Z</time>
      </trkpt>
      <trkpt lat="47.58418" lon="-2.23412">
        <ele>47.22</ele>
        <time>2019-08-26T09:22:47.000Z</time>
      </trkpt>
      <trkpt lat="47.58418" lon="-2.23414">
        <ele>47.02</ele>
        <time>2019-08-26T09:22:48.000Z</time>
      </trkpt>
      <trkpt lat="47.58419" lon="-2.23415">
        <ele>47.37</ele>
        <time>2019-08-26T09:22:49.000Z</time>
      </trkpt>
      <trkpt lat="47.5842" lon="-2.23416">
        <ele>47.55</ele>
        <time>2019-08-26T09:22:50.000Z</time>
      </trkpt>
      <trkpt lat="47.5842" lon="-2.23418">
        <ele>47.8</ele>
        <time>2019-08-26T09:22:51.000Z</time>
      </trkpt>
      <trkpt lat="47.58421" lon="-2.23419">
        <ele>48.25</ele>
        <time>2019-08-26T09:22:52.000Z</time>
      </trkpt>
      <trkpt lat="47.58422" lon="-2.2342">
        <ele>47.8</ele>
        <time>2019-08-26T09:22:53.000Z</time>
      </trkpt>
      <trkpt lat="47.58423" lon="-2.23422">
        <ele>47.8</ele>
        <time>2019-08-26T09:22:54.000Z</time>
      </trkpt>
      <trkpt lat="47.58423" lon="-2.23423">
        <ele>48.39</ele>
        <time>2019-08-26T09:22:55.000Z</time>
      </trkpt>
      <trkpt lat="47.58424" lon="-2.23424">
        <ele>47.86</ele>
        <time>2019-08-26T09:22:56.000Z</time>
      </trkpt>
      <trkpt lat="47.58425" lon="-2.23426">
        <ele>47.79</ele>
        <time>2019-08-26T09:22:57.000Z</time>
      </trkpt>
      <trkpt lat="47.58426" lon="-2.23427">
        <ele>47.84</ele>
        <time>2019-08-26T09:22:58.000Z</time>
      </trkpt>
      <trkpt lat="47.58426" lon="-2.23429">
        <ele>48.21</ele>
        <time>2019-08-26T09:22:59.000Z</time>
      </trkpt>
      <trkpt lat="47.58427" lon="-2.2343">
        <ele>48.13</ele>
        <time>2019-08-26T09:23:00.000Z</time>
      </trkpt>
      <trkpt lat="47.58428" lon="-2.23431">
        <ele>48.56</ele>
        <time>2019-08-26T09:23:01.000Z</time>
      </trkpt>
      <trkpt lat="47.58429" lon="-2.23433">
        <ele>48.75</ele>
        <time>2019-08-26T09:23:02.000Z</time>
      </trkpt>
      <trkpt lat="47.5843" lon="-2.23434">
        <ele>49.09</ele>
        <time>2019-08-26T09:23:03.000Z</time>
      </trkpt>
      <trkpt lat="47.58431" lon="-2.23435">
        <ele>48.37</ele>
        <time>2019-08-26T09:23:04.000Z</time>
      </trkpt>
      <trkpt lat="47.58432" lon="-2.23437">
        <ele>47.93</ele>
        <time>2019-08-26T09:23:05.000Z</time>
      </trkpt>
      <trkpt lat="47.58432" lon="-2.23438">
        <ele>47.63</ele>
        <time>2019-08-26T09:23:06.000Z</time>
      </trkpt>
      <trkpt lat="47.58433" lon="-2.23439">
        <ele>47.55</ele>
        <time>2019-08-26T09:23:07.000Z</time>
      </trkpt>
      <trkpt lat="47.58434" lon="-2.2344">
        <ele>47.55</ele>
        <time>2019-08-26T09:23:08.000Z</time>
      </trkpt>
      <trkpt lat="47.58435" lon="-2.23442">
        <ele>47.55</ele>
        <time>2019-08-26T09:23:09.000Z</time>
      </trkpt>
      <trkpt lat="47.58435" lon="-2.23443">
        <ele>47.52</ele>
        <time>2019-08-26T09:23:10.000Z</time>
      </trkpt>
      <trkpt lat="47.58437" lon="-2.23445">
        <ele>46.95</ele>
        <time>2019-08-26T09:23:11.000Z</time>
      </trkpt>
      <trkpt lat="47.58437" lon="-2.23446">
        <ele>47.36</ele>
        <time>2019-08-26T09:23:12.000Z</time>
      </trkpt>
      <trkpt lat="47.58438" lon="-2.23448">
        <ele>47.03</ele>
        <time>2019-08-26T09:23:13.000Z</time>
      </trkpt>
      <trkpt lat="47.58439" lon="-2.23449">
        <ele>47.38</ele>
        <time>2019-08-26T09:23:14.000Z</time>
      </trkpt>
      <trkpt lat="47.5844" lon="-2.2345">
        <ele>47.4</ele>
        <time>2019-08-26T09:23:15.000Z</time>
      </trkpt>
      <trkpt lat="47.5844" lon="-2.23452">
        <ele>47.79</ele>
        <time>2019-08-26T09:23:16.000Z</time>
      </trkpt>
      <trkpt lat="47.58442" lon="-2.23453">
        <ele>48.72</ele>
        <time>2019-08-26T09:23:17.000Z</time>
      </trkpt>
      <trkpt lat="47.58442" lon="-2.23454">
        <ele>48.67</ele>
        <time>2019-08-26T09:23:18.000Z</time>
      </trkpt>
      <trkpt lat="47.58444" lon="-2.23456">
        <ele>48.71</ele>
        <time>2019-08-26T09:23:19.000Z</time>
      </trkpt>
      <trkpt lat="47.58444" lon="-2.23457">
        <ele>49.11</ele>
        <time>2019-08-26T09:23:20.000Z</time>
      </trkpt>
      <trkpt lat="47.58445" lon="-2.23458">
        <ele>50.01</ele>
        <time>2019-08-26T09:23:21.000Z</time>
      </trkpt>
      <trkpt lat="47.58446" lon="-2.2346">
        <ele>50.32</ele>
        <time>2019-08-26T09:23:22.000Z</time>
      </trkpt>
      <trkpt lat="47.58447" lon="-2.23461">
        <ele>50.21</ele>
        <time>2019-08-26T09:23:23.000Z</time>
      </trkpt>
      <trkpt lat="47.58448" lon="-2.23463">
        <ele>51.06</ele>
        <time>2019-08-26T09:23:24.000Z</time>
      </trkpt>
      <trkpt lat="47.58448" lon="-2.23464">
        <ele>50.42</ele>
        <time>2019-08-26T09:23:25.000Z</time>
      </trkpt>
      <trkpt lat="47.58449" lon="-2.23466">
        <ele>50.79</ele>
        <time>2019-08-26T09:23:26.000Z</time>
      </trkpt>
      <trkpt lat="47.5845" lon="-2.23467">
        <ele>50.94</ele>
        <time>2019-08-26T09:23:27.000Z</time>
      </trkpt>
      <trkpt lat="47.58451" lon="-2.23469">
        <ele>50.61</ele>
        <time>2019-08-26T09:23:28.000Z</time>
      </trkpt>
      <trkpt lat="47.58452" lon="-2.23471">
        <ele>50.81</ele>
        <time>2019-08-26T09:23:29.000Z</time>
      </trkpt>
      <trkpt lat="47.58452" lon="-2.23472">
        <ele>50.82</ele>
        <time>2019-08-26T09:23:30.000Z</time>
      </trkpt>
      <trkpt lat="47.58453" lon="-2.23473">
        <ele>50.9</ele>
        <time>2019-08-26T09:23:31.000Z</time>
      </trkpt>
      <trkpt lat="47.58454" lon="-2.23475">
        <ele>51.42</ele>
        <time>2019-08-26T09:23:32.000Z</time>
      </trkpt>
      <trkpt lat="47.58455" lon="-2.23476">
        <ele>51.41</ele>
        <time>2019-08-26T09:23:33.000Z</time>
      </trkpt>
      <trkpt lat="47.58455" lon="-2.23478">
        <ele>51.59</ele>
        <time>2019-08-26T09:23:34.000Z</time>
      </trkpt>
      <trkpt lat="47.58456" lon="-2.23479">
        <ele>51.37</ele>
        <time>2019-08-26T09:23:35.000Z</time>
      </trkpt>
      <trkpt lat="47.58457" lon="-2.23481">
        <ele>51.94</ele>
        <time>2019-08-26T09:23:36.000Z</time>
      </trkpt>
      <trkpt lat="47.58458" lon="-2.23482">
        <ele>51.32</ele>
        <time>2019-08-26T09:23:37.000Z</time>
      </trkpt>
      <trkpt lat="47.58458" lon="-2.23484">
        <ele>51.1</ele>
        <time>2019-08-26T09:23:38.000Z</time>
      </trkpt>
      <trkpt lat="47.58459" lon="-2.23485">
        <ele>51.35</ele>
        <time>2019-08-26T09:23:39.000Z</time>
      </trkpt>
      <trkpt lat="47.5846" lon="-2.23487">
        <ele>50.95</ele>
        <time>2019-08-26T09:23:40.000Z</time>
      </trkpt>
      <trkpt lat="47.58461" lon="-2.23488">
        <ele>51.08</ele>
        <time>2019-08-26T09:23:41.000Z</time>
      </trkpt>
      <trkpt lat="47.58462" lon="-2.2349">
        <ele>50.87</ele>
        <time>2019-08-26T09:23:42.000Z</time>
      </trkpt>
      <trkpt lat="47.58463" lon="-2.23491">
        <ele>51.36</ele>
        <time>2019-08-26T09:23:43.000Z</time>
      </trkpt>
      <trkpt lat="47.58464" lon="-2.23493">
        <ele>50.8</ele>
        <time>2019-08-26T09:23:44.000Z</time>
      </trkpt>
      <trkpt lat="47.58464" lon="-2.23494">
        <ele>50.91</ele>
        <time>2019-08-26T09:23:45.000Z</time>
      </trkpt>
      <trkpt lat="47.58465" lon="-2.23496">
        <ele>51.18</ele>
        <time>2019-08-26T09:23:46.000Z</time>
      </trkpt>
      <trkpt lat="47.58466" lon="-2.23497">
        <ele>50.98</ele>
        <time>2019-08-26T09:23:47.000Z</time>
      </trkpt>
      <trkpt lat="47.58467" lon="-2.23498">
        <ele>50.66</ele>
        <time>2019-08-26T09:23:48.000Z</time>
      </trkpt>
      <trkpt lat="47.58468" lon="-2.23499">
        <ele>50.29</ele>
        <time>2019-08-26T09:23:49.000Z</time>
      </trkpt>
      <trkpt lat="47.58469" lon="-2.235">
        <ele>50.26</ele>
        <time>2019-08-26T09:23:50.000Z</time>
      </trkpt>
      <trkpt lat="47.58469" lon="-2.23501">
        <ele>49.88</ele>
        <time>2019-08-26T09:23:51.000Z</time>
      </trkpt>
      <trkpt lat="47.5847" lon="-2.23502">
        <ele>50.19</ele>
        <time>2019-08-26T09:23:52.000Z</time>
      </trkpt>
      <trkpt lat="47.58471" lon="-2.23503">
        <ele>50.4</ele>
        <time>2019-08-26T09:23:53.000Z</time>
      </trkpt>
      <trkpt lat="47.58472" lon="-2.23504">
        <ele>50.68</ele>
        <time>2019-08-26T09:23:54.000Z</time>
      </trkpt>
      <trkpt lat="47.58473" lon="-2.23505">
        <ele>51.22</ele>
        <time>2019-08-26T09:23:55.000Z</time>
      </trkpt>
      <trkpt lat="47.58474" lon="-2.23506">
        <ele>51.42</ele>
        <time>2019-08-26T09:23:56.000Z</time>
      </trkpt>
      <trkpt lat="47.58475" lon="-2.23508">
        <ele>51.88</ele>
        <time>2019-08-26T09:23:57.000Z</time>
      </trkpt>
      <trkpt lat="47.58476" lon="-2.23509">
        <ele>52.44</ele>
        <time>2019-08-26T09:23:58.000Z</time>
      </trkpt>
      <trkpt lat="47.58476" lon="-2.2351">
        <ele>53.28</ele>
        <time>2019-08-26T09:23:59.000Z</time>
      </trkpt>
      <trkpt lat="47.58477" lon="-2.23511">
        <ele>53.41</ele>
        <time>2019-08-26T09:24:00.000Z</time>
      </trkpt>
      <trkpt lat="47.58478" lon="-2.23512">
        <ele>52.71</ele>
        <time>2019-08-26T09:24:01.000Z</time>
      </trkpt>
      <trkpt lat="47.58479" lon="-2.23514">
        <ele>52.96</ele>
        <time>2019-08-26T09:24:02.000Z</time>
      </trkpt>
      <trkpt lat="47.58479" lon="-2.23515">
        <ele>53.4</ele>
        <time>2019-08-26T09:24:03.000Z</time>
      </trkpt>
      <trkpt lat="47.5848" lon="-2.23516">
        <ele>53.53</ele>
        <time>2019-08-26T09:24:04.000Z</time>
      </trkpt>
      <trkpt lat="47.58481" lon="-2.23518">
        <ele>53.59</ele>
        <time>2019-08-26T09:24:05.000Z</time>
      </trkpt>
      <trkpt lat="47.58481" lon="-2.23519">
        <ele>53.62</ele>
        <time>2019-08-26T09:24:06.000Z</time>
      </trkpt>
      <trkpt lat="47.58482" lon="-2.23521">
        <ele>53.3</ele>
        <time>2019-08-26T09:24:07.000Z</time>
      </trkpt>
      <trkpt lat="47.58482" lon="-2.23522">
        <ele>53.21</ele>
        <time>2019-08-26T09:24:08.000Z</time>
      </trkpt>
      <trkpt lat="47.58483" lon="-2.23524">
        <ele>53.31</ele>
        <time>2019-08-26T09:24:09.000Z</time>
      </trkpt>
      <trkpt lat="47.58484" lon="-2.23526">
        <ele>53.47</ele>
        <time>2019-08-26T09:24:10.000Z</time>
      </trkpt>
      <trkpt lat="47.58485" lon="-2.23527">
        <ele>52.53</ele>
        <time>2019-08-26T09:24:11.000Z</time>
      </trkpt>
      <trkpt lat="47.58485" lon="-2.23528">
        <ele>52.39</ele>
        <time>2019-08-26T09:24:12.000Z</time>
      </trkpt>
      <trkpt lat="47.58486" lon="-2.2353">
        <ele>53.03</ele>
        <time>2019-08-26T09:24:13.000Z</time>
      </trkpt>
      <trkpt lat="47.58487" lon="-2.23531">
        <ele>53.08</ele>
        <time>2019-08-26T09:24:14.000Z</time>
      </trkpt>
      <trkpt lat="47.58487" lon="-2.23532">
        <ele>53.03</ele>
        <time>2019-08-26T09:24:15.000Z</time>
      </trkpt>
      <trkpt lat="47.58488" lon="-2.23534">
        <ele>52.97</ele>
        <time>2019-08-26T09:24:16.000Z</time>
      </trkpt>
      <trkpt lat="47.58489" lon="-2.23535">
        <ele>53.01</ele>
        <time>2019-08-26T09:24:17.000Z</time>
      </trkpt>
      <trkpt lat="47.58489" lon="-2.23537">
        <ele>53.06</ele>
        <time>2019-08-26T09:24:18.000Z</time>
      </trkpt>
      <trkpt lat="47.5849" lon="-2.23538">
        <ele>52.94</ele>
        <time>2019-08-26T09:24:19.000Z</time>
      </trkpt>
      <trkpt lat="47.5849" lon="-2.2354">
        <ele>53.02</ele>
        <time>2019-08-26T09:24:20.000Z</time>
      </trkpt>
      <trkpt lat="47.58491" lon="-2.23541">
        <ele>52.79</ele>
        <time>2019-08-26T09:24:21.000Z</time>
      </trkpt>
      <trkpt lat="47.58491" lon="-2.23542">
        <ele>53.22</ele>
        <time>2019-08-26T09:24:22.000Z</time>
      </trkpt>
      <trkpt lat="47.58492" lon="-2.23544">
        <ele>53.31</ele>
        <time>2019-08-26T09:24:23.000Z</time>
      </trkpt>
      <trkpt lat="47.58493" lon="-2.23545">
        <ele>52.6</ele>
        <time>2019-08-26T09:24:24.000Z</time>
      </trkpt>
      <trkpt lat="47.58493" lon="-2.23546">
        <ele>52.02</ele>
        <time>2019-08-26T09:24:25.000Z</time>
      </trkpt>
      <trkpt lat="47.58494" lon="-2.23548">
        <ele>51.83</ele>
        <time>2019-08-26T09:24:26.000Z</time>
      </trkpt>
      <trkpt lat="47.58495" lon="-2.23549">
        <ele>51.76</ele>
        <time>2019-08-26T09:24:27.000Z</time>
      </trkpt>
      <trkpt lat="47.58495" lon="-2.23551">
        <ele>51.77</ele>
        <time>2019-08-26T09:24:28.000Z</time>
      </trkpt>
      <trkpt lat="47.58496" lon="-2.23552">
        <ele>51.15</ele>
        <time>2019-08-26T09:24:29.000Z</time>
      </trkpt>
      <trkpt lat="47.58497" lon="-2.23554">
        <ele>50.69</ele>
        <time>2019-08-26T09:24:30.000Z</time>
      </trkpt>
      <trkpt lat="47.58497" lon="-2.23555">
        <ele>49.59</ele>
        <time>2019-08-26T09:24:31.000Z</time>
      </trkpt>
      <trkpt lat="47.58498" lon="-2.23557">
        <ele>48.95</ele>
        <time>2019-08-26T09:24:32.000Z</time>
      </trkpt>
      <trkpt lat="47.58498" lon="-2.23558">
        <ele>48.6</ele>
        <time>2019-08-26T09:24:33.000Z</time>
      </trkpt>
      <trkpt lat="47.58499" lon="-2.2356">
        <ele>48.49</ele>
        <time>2019-08-26T09:24:34.000Z</time>
      </trkpt>
      <trkpt lat="47.585" lon="-2.23562">
        <ele>47.87</ele>
        <time>2019-08-26T09:24:35.000Z</time>
      </trkpt>
      <trkpt lat="47.585" lon="-2.23563">
        <ele>48.42</ele>
        <time>2019-08-26T09:24:36.000Z</time>
      </trkpt>
      <trkpt lat="47.58501" lon="-2.23564">
        <ele>48.79</ele>
        <time>2019-08-26T09:24:37.000Z</time>
      </trkpt>
      <trkpt lat="47.58501" lon="-2.23566">
        <ele>48.71</ele>
        <time>2019-08-26T09:24:38.000Z</time>
      </trkpt>
      <trkpt lat="47.58502" lon="-2.23567">
        <ele>48.62</ele>
        <time>2019-08-26T09:24:39.000Z</time>
      </trkpt>
      <trkpt lat="47.58503" lon="-2.23568">
        <ele>47.79</ele>
        <time>2019-08-26T09:24:40.000Z</time>
      </trkpt>
      <trkpt lat="47.58504" lon="-2.2357">
        <ele>48.15</ele>
        <time>2019-08-26T09:24:41.000Z</time>
      </trkpt>
      <trkpt lat="47.58505" lon="-2.23571">
        <ele>48.03</ele>
        <time>2019-08-26T09:24:42.000Z</time>
      </trkpt>
      <trkpt lat="47.58505" lon="-2.23573">
        <ele>47.69</ele>
        <time>2019-08-26T09:24:43.000Z</time>
      </trkpt>
      <trkpt lat="47.58506" lon="-2.23574">
        <ele>47.87</ele>
        <time>2019-08-26T09:24:44.000Z</time>
      </trkpt>
      <trkpt lat="47.58507" lon="-2.23575">
        <ele>48.61</ele>
        <time>2019-08-26T09:24:45.000Z</time>
      </trkpt>
      <trkpt lat="47.58508" lon="-2.23576">
        <ele>49.12</ele>
        <time>2019-08-26T09:24:46.000Z</time>
      </trkpt>
      <trkpt lat="47.58509" lon="-2.23578">
        <ele>48.69</ele>
        <time>2019-08-26T09:24:47.000Z</time>
      </trkpt>
      <trkpt lat="47.58509" lon="-2.23579">
        <ele>48.79</ele>
        <time>2019-08-26T09:24:48.000Z</time>
      </trkpt>
      <trkpt lat="47.5851" lon="-2.2358">
        <ele>48.43</ele>
        <time>2019-08-26T09:24:49.000Z</time>
      </trkpt>
      <trkpt lat="47.5851" lon="-2.23582">
        <ele>48.44</ele>
        <time>2019-08-26T09:24:50.000Z</time>
      </trkpt>
      <trkpt lat="47.58511" lon="-2.23584">
        <ele>48.2</ele>
        <time>2019-08-26T09:24:51.000Z</time>
      </trkpt>
      <trkpt lat="47.58512" lon="-2.23585">
        <ele>48.19</ele>
        <time>2019-08-26T09:24:52.000Z</time>
      </trkpt>
      <trkpt lat="47.58512" lon="-2.23586">
        <ele>47.19</ele>
        <time>2019-08-26T09:24:53.000Z</time>
      </trkpt>
      <trkpt lat="47.58513" lon="-2.23588">
        <ele>46.85</ele>
        <time>2019-08-26T09:24:54.000Z</time>
      </trkpt>
      <trkpt lat="47.58514" lon="-2.23589">
        <ele>46.59</ele>
        <time>2019-08-26T09:24:55.000Z</time>
      </trkpt>
      <trkpt lat="47.58514" lon="-2.2359">
        <ele>45.94</ele>
        <time>2019-08-26T09:24:56.000Z</time>
      </trkpt>
      <trkpt lat="47.58514" lon="-2.23592">
        <ele>45.42</ele>
        <time>2019-08-26T09:24:57.000Z</time>
      </trkpt>
      <trkpt lat="47.58515" lon="-2.23594">
        <ele>45.94</ele>
        <time>2019-08-26T09:24:58.000Z</time>
      </trkpt>
      <trkpt lat="47.58516" lon="-2.23595">
        <ele>46.98</ele>
        <time>2019-08-26T09:24:59.000Z</time>
      </trkpt>
      <trkpt lat="47.58516" lon="-2.23596">
        <ele>47.71</ele>
        <time>2019-08-26T09:25:00.000Z</time>
      </trkpt>
      <trkpt lat="47.58517" lon="-2.23597">
        <ele>46.71</ele>
        <time>2019-08-26T09:25:01.000Z</time>
      </trkpt>
      <trkpt lat="47.58518" lon="-2.23598">
        <ele>48.29</ele>
        <time>2019-08-26T09:25:02.000Z</time>
      </trkpt>
      <trkpt lat="47.58518" lon="-2.23601">
        <ele>47.57</ele>
        <time>2019-08-26T09:25:04.000Z</time>
      </trkpt>
      <trkpt lat="47.58519" lon="-2.23602">
        <ele>47.46</ele>
        <time>2019-08-26T09:25:05.000Z</time>
      </trkpt>
      <trkpt lat="47.58519" lon="-2.23603">
        <ele>48.02</ele>
        <time>2019-08-26T09:25:06.000Z</time>
      </trkpt>
      <trkpt lat="47.5852" lon="-2.23605">
        <ele>48.75</ele>
        <time>2019-08-26T09:25:07.000Z</time>
      </trkpt>
      <trkpt lat="47.58521" lon="-2.23606">
        <ele>47.85</ele>
        <time>2019-08-26T09:25:08.000Z</time>
      </trkpt>
      <trkpt lat="47.58521" lon="-2.23607">
        <ele>48.57</ele>
        <time>2019-08-26T09:25:09.000Z</time>
      </trkpt>
      <trkpt lat="47.58522" lon="-2.23608">
        <ele>50.6</ele>
        <time>2019-08-26T09:25:10.000Z</time>
      </trkpt>
      <trkpt lat="47.58524" lon="-2.23609">
        <ele>50.09</ele>
        <time>2019-08-26T09:25:11.000Z</time>
      </trkpt>
      <trkpt lat="47.58525" lon="-2.2361">
        <ele>50.21</ele>
        <time>2019-08-26T09:25:12.000Z</time>
      </trkpt>
      <trkpt lat="47.58526" lon="-2.23612">
        <ele>49.92</ele>
        <time>2019-08-26T09:25:13.000Z</time>
      </trkpt>
      <trkpt lat="47.58527" lon="-2.23613">
        <ele>50.63</ele>
        <time>2019-08-26T09:25:14.000Z</time>
      </trkpt>
      <trkpt lat="47.58527" lon="-2.23614">
        <ele>50.24</ele>
        <time>2019-08-26T09:25:15.000Z</time>
      </trkpt>
      <trkpt lat="47.58529" lon="-2.23615">
        <ele>50.67</ele>
        <time>2019-08-26T09:25:16.000Z</time>
      </trkpt>
      <trkpt lat="47.58529" lon="-2.23617">
        <ele>51.12</ele>
        <time>2019-08-26T09:25:17.000Z</time>
      </trkpt>
      <trkpt lat="47.5853" lon="-2.23619">
        <ele>50.82</ele>
        <time>2019-08-26T09:25:18.000Z</time>
      </trkpt>
      <trkpt lat="47.5853" lon="-2.2362">
        <ele>50.72</ele>
        <time>2019-08-26T09:25:19.000Z</time>
      </trkpt>
      <trkpt lat="47.58531" lon="-2.23622">
        <ele>49.77</ele>
        <time>2019-08-26T09:25:20.000Z</time>
      </trkpt>
      <trkpt lat="47.58532" lon="-2.23623">
        <ele>49.63</ele>
        <time>2019-08-26T09:25:21.000Z</time>
      </trkpt>
      <trkpt lat="47.58532" lon="-2.23624">
        <ele>49.6</ele>
        <time>2019-08-26T09:25:22.000Z</time>
      </trkpt>
      <trkpt lat="47.58533" lon="-2.23626">
        <ele>50.16</ele>
        <time>2019-08-26T09:25:23.000Z</time>
      </trkpt>
      <trkpt lat="47.58534" lon="-2.23628">
        <ele>50.59</ele>
        <time>2019-08-26T09:25:24.000Z</time>
      </trkpt>
      <trkpt lat="47.58535" lon="-2.23629">
        <ele>50.86</ele>
        <time>2019-08-26T09:25:25.000Z</time>
      </trkpt>
      <trkpt lat="47.58535" lon="-2.23631">
        <ele>50.75</ele>
        <time>2019-08-26T09:25:26.000Z</time>
      </trkpt>
      <trkpt lat="47.58536" lon="-2.23632">
        <ele>51.44</ele>
        <time>2019-08-26T09:25:27.000Z</time>
      </trkpt>
      <trkpt lat="47.58537" lon="-2.23634">
        <ele>51.56</ele>
        <time>2019-08-26T09:25:28.000Z</time>
      </trkpt>
      <trkpt lat="47.58538" lon="-2.23635">
        <ele>51.54</ele>
        <time>2019-08-26T09:25:29.000Z</time>
      </trkpt>
      <trkpt lat="47.58538" lon="-2.23636">
        <ele>51.67</ele>
        <time>2019-08-26T09:25:30.000Z</time>
      </trkpt>
      <trkpt lat="47.58539" lon="-2.23638">
        <ele>52.12</ele>
        <time>2019-08-26T09:25:31.000Z</time>
      </trkpt>
      <trkpt lat="47.5854" lon="-2.23639">
        <ele>52.36</ele>
        <time>2019-08-26T09:25:32.000Z</time>
      </trkpt>
      <trkpt lat="47.58541" lon="-2.2364">
        <ele>52.95</ele>
        <time>2019-08-26T09:25:33.000Z</time>
      </trkpt>
      <trkpt lat="47.58542" lon="-2.23642">
        <ele>52.5</ele>
        <time>2019-08-26T09:25:34.000Z</time>
      </trkpt>
      <trkpt lat="47.58542" lon="-2.23644">
        <ele>53.13</ele>
        <time>2019-08-26T09:25:35.000Z</time>
      </trkpt>
      <trkpt lat="47.58542" lon="-2.23645">
        <ele>53.49</ele>
        <time>2019-08-26T09:25:36.000Z</time>
      </trkpt>
      <trkpt lat="47.58543" lon="-2.23647">
        <ele>53.72</ele>
        <time>2019-08-26T09:25:37.000Z</time>
      </trkpt>
      <trkpt lat="47.58543" lon="-2.23649">
        <ele>53.48</ele>
        <time>2019-08-26T09:25:38.000Z</time>
      </trkpt>
      <trkpt lat="47.58543" lon="-2.23651">
        <ele>54.02</ele>
        <time>2019-08-26T09:25:39.000Z</time>
      </trkpt>
      <trkpt lat="47.58544" lon="-2.23653">
        <ele>53.88</ele>
        <time>2019-08-26T09:25:40.000Z</time>
      </trkpt>
      <trkpt lat="47.58545" lon="-2.23654">
        <ele>53.62</ele>
        <time>2019-08-26T09:25:41.000Z</time>
      </trkpt>
      <trkpt lat="47.58545" lon="-2.23656">
        <ele>53.22</ele>
        <time>2019-08-26T09:25:42.000Z</time>
      </trkpt>
      <trkpt lat="47.58545" lon="-2.23658">
        <ele>53.4</ele>
        <time>2019-08-26T09:25:43.000Z</time>
      </trkpt>
      <trkpt lat="47.58544" lon="-2.2366">
        <ele>54.11</ele>
        <time>2019-08-26T09:25:44.000Z</time>
      </trkpt>
      <trkpt lat="47.58544" lon="-2.23661">
        <ele>54.56</ele>
        <time>2019-08-26T09:25:45.000Z</time>
      </trkpt>
      <trkpt lat="47.58545" lon="-2.23663">
        <ele>54.56</ele>
        <time>2019-08-26T09:25:46.000Z</time>
      </trkpt>
      <trkpt lat="47.58545" lon="-2.23665">
        <ele>54.63</ele>
        <time>2019-08-26T09:25:47.000Z</time>
      </trkpt>
      <trkpt lat="47.58545" lon="-2.23667">
        <ele>54.3</ele>
        <time>2019-08-26T09:25:48.000Z</time>
      </trkpt>
      <trkpt lat="47.58545" lon="-2.23669">
        <ele>54.13</ele>
        <time>2019-08-26T09:25:49.000Z</time>
      </trkpt>
      <trkpt lat="47.58546" lon="-2.2367">
        <ele>53.72</ele>
        <time>2019-08-26T09:25:50.000Z</time>
      </trkpt>
      <trkpt lat="47.58546" lon="-2.23672">
        <ele>54.28</ele>
        <time>2019-08-26T09:25:51.000Z</time>
      </trkpt>
      <trkpt lat="47.58547" lon="-2.23674">
        <ele>54.8</ele>
        <time>2019-08-26T09:25:52.000Z</time>
      </trkpt>
      <trkpt lat="47.58548" lon="-2.23675">
        <ele>55.27</ele>
        <time>2019-08-26T09:25:53.000Z</time>
      </trkpt>
      <trkpt lat="47.58548" lon="-2.23677">
        <ele>55.41</ele>
        <time>2019-08-26T09:25:54.000Z</time>
      </trkpt>
      <trkpt lat="47.58548" lon="-2.23679">
        <ele>54.85</ele>
        <time>2019-08-26T09:25:55.000Z</time>
      </trkpt>
      <trkpt lat="47.58548" lon="-2.23681">
        <ele>55.05</ele>
        <time>2019-08-26T09:25:56.000Z</time>
      </trkpt>
      <trkpt lat="47.58547" lon="-2.23683">
        <ele>55.22</ele>
        <time>2019-08-26T09:25:57.000Z</time>
      </trkpt>
      <trkpt lat="47.58547" lon="-2.23685">
        <ele>54.67</ele>
        <time>2019-08-26T09:25:58.000Z</time>
      </trkpt>
      <trkpt lat="47.58547" lon="-2.23687">
        <ele>53.8</ele>
        <time>2019-08-26T09:25:59.000Z</time>
      </trkpt>
      <trkpt lat="47.58547" lon="-2.23688">
        <ele>53.89</ele>
        <time>2019-08-26T09:26:00.000Z</time>
      </trkpt>
      <trkpt lat="47.58548" lon="-2.2369">
        <ele>54.07</ele>
        <time>2019-08-26T09:26:01.000Z</time>
      </trkpt>
      <trkpt lat="47.58548" lon="-2.23692">
        <ele>53.74</ele>
        <time>2019-08-26T09:26:02.000Z</time>
      </trkpt>
      <trkpt lat="47.58548" lon="-2.23694">
        <ele>53.95</ele>
        <time>2019-08-26T09:26:03.000Z</time>
      </trkpt>
      <trkpt lat="47.58548" lon="-2.23695">
        <ele>53.27</ele>
        <time>2019-08-26T09:26:04.000Z</time>
      </trkpt>
      <trkpt lat="47.58548" lon="-2.23697">
        <ele>53.14</ele>
        <time>2019-08-26T09:26:05.000Z</time>
      </trkpt>
      <trkpt lat="47.58548" lon="-2.23699">
        <ele>53.56</ele>
        <time>2019-08-26T09:26:06.000Z</time>
      </trkpt>
      <trkpt lat="47.58548" lon="-2.23701">
        <ele>53.17</ele>
        <time>2019-08-26T09:26:07.000Z</time>
      </trkpt>
      <trkpt lat="47.58547" lon="-2.23703">
        <ele>52.66</ele>
        <time>2019-08-26T09:26:08.000Z</time>
      </trkpt>
      <trkpt lat="47.58547" lon="-2.23705">
        <ele>52.52</ele>
        <time>2019-08-26T09:26:09.000Z</time>
      </trkpt>
      <trkpt lat="47.58547" lon="-2.23707">
        <ele>52.59</ele>
        <time>2019-08-26T09:26:10.000Z</time>
      </trkpt>
      <trkpt lat="47.58547" lon="-2.23708">
        <ele>52.11</ele>
        <time>2019-08-26T09:26:11.000Z</time>
      </trkpt>
      <trkpt lat="47.58547" lon="-2.2371">
        <ele>52.12</ele>
        <time>2019-08-26T09:26:12.000Z</time>
      </trkpt>
      <trkpt lat="47.58547" lon="-2.23712">
        <ele>52.47</ele>
        <time>2019-08-26T09:26:13.000Z</time>
      </trkpt>
      <trkpt lat="47.58547" lon="-2.23713">
        <ele>52.7</ele>
        <time>2019-08-26T09:26:14.000Z</time>
      </trkpt>
      <trkpt lat="47.58546" lon="-2.23715">
        <ele>52.18</ele>
        <time>2019-08-26T09:26:15.000Z</time>
      </trkpt>
      <trkpt lat="47.58546" lon="-2.23717">
        <ele>51.6</ele>
        <time>2019-08-26T09:26:16.000Z</time>
      </trkpt>
      <trkpt lat="47.58547" lon="-2.23719">
        <ele>52.25</ele>
        <time>2019-08-26T09:26:18.000Z</time>
      </trkpt>
      <trkpt lat="47.58547" lon="-2.2372">
        <ele>51.89</ele>
        <time>2019-08-26T09:26:20.000Z</time>
      </trkpt>
      <trkpt lat="47.58546" lon="-2.23722">
        <ele>51.9</ele>
        <time>2019-08-26T09:26:22.000Z</time>
      </trkpt>
      <trkpt lat="47.58545" lon="-2.23723">
        <ele>52.09</ele>
        <time>2019-08-26T09:26:25.000Z</time>
      </trkpt>
      <trkpt lat="47.58545" lon="-2.23723">
        <ele>54.17</ele>
        <time>2019-08-26T09:26:37.000Z</time>
      </trkpt>
      <trkpt lat="47.58544" lon="-2.23724">
        <ele>54.31</ele>
        <time>2019-08-26T09:27:48.000Z</time>
      </trkpt>
      <trkpt lat="47.58545" lon="-2.23726">
        <ele>54.72</ele>
        <time>2019-08-26T09:27:53.000Z</time>
      </trkpt>
      <trkpt lat="47.58545" lon="-2.23724">
        <ele>54.71</ele>
        <time>2019-08-26T09:27:57.000Z</time>
      </trkpt>
      <trkpt lat="47.58545" lon="-2.23723">
        <ele>52.95</ele>
        <time>2019-08-26T09:28:12.000Z</time>
      </trkpt>
      <trkpt lat="47.58545" lon="-2.23724">
        <ele>52.97</ele>
        <time>2019-08-26T09:28:17.000Z</time>
      </trkpt>
      <trkpt lat="47.58545" lon="-2.23726">
        <ele>52.9</ele>
        <time>2019-08-26T09:28:18.000Z</time>
      </trkpt>
      <trkpt lat="47.58545" lon="-2.23728">
        <ele>52.56</ele>
        <time>2019-08-26T09:28:19.000Z</time>
      </trkpt>
      <trkpt lat="47.58545" lon="-2.23729">
        <ele>52.63</ele>
        <time>2019-08-26T09:28:20.000Z</time>
      </trkpt>
      <trkpt lat="47.58546" lon="-2.23731">
        <ele>52.56</ele>
        <time>2019-08-26T09:28:21.000Z</time>
      </trkpt>
      <trkpt lat="47.58546" lon="-2.23733">
        <ele>52.32</ele>
        <time>2019-08-26T09:28:22.000Z</time>
      </trkpt>
      <trkpt lat="47.58546" lon="-2.23734">
        <ele>52.18</ele>
        <time>2019-08-26T09:28:23.000Z</time>
      </trkpt>
      <trkpt lat="47.58547" lon="-2.23736">
        <ele>52.14</ele>
        <time>2019-08-26T09:28:24.000Z</time>
      </trkpt>
      <trkpt lat="47.58548" lon="-2.23737">
        <ele>53.81</ele>
        <time>2019-08-26T09:28:25.000Z</time>
      </trkpt>
      <trkpt lat="47.58549" lon="-2.23739">
        <ele>55.68</ele>
        <time>2019-08-26T09:28:26.000Z</time>
      </trkpt>
      <trkpt lat="47.58551" lon="-2.2374">
        <ele>56.78</ele>
        <time>2019-08-26T09:28:27.000Z</time>
      </trkpt>
      <trkpt lat="47.58552" lon="-2.2374">
        <ele>57.18</ele>
        <time>2019-08-26T09:28:28.000Z</time>
      </trkpt>
      <trkpt lat="47.58553" lon="-2.23741">
        <ele>57.29</ele>
        <time>2019-08-26T09:28:29.000Z</time>
      </trkpt>
      <trkpt lat="47.58553" lon="-2.23742">
        <ele>57.23</ele>
        <time>2019-08-26T09:28:30.000Z</time>
      </trkpt>
      <trkpt lat="47.58554" lon="-2.23744">
        <ele>57.56</ele>
        <time>2019-08-26T09:28:31.000Z</time>
      </trkpt>
      <trkpt lat="47.58554" lon="-2.23746">
        <ele>57.73</ele>
        <time>2019-08-26T09:28:32.000Z</time>
      </trkpt>
      <trkpt lat="47.58554" lon="-2.23747">
        <ele>57.68</ele>
        <time>2019-08-26T09:28:33.000Z</time>
      </trkpt>
      <trkpt lat="47.58555" lon="-2.23749">
        <ele>57.8</ele>
        <time>2019-08-26T09:28:34.000Z</time>
      </trkpt>
      <trkpt lat="47.58555" lon="-2.2375">
        <ele>57.64</ele>
        <time>2019-08-26T09:28:35.000Z</time>
      </trkpt>
      <trkpt lat="47.58555" lon="-2.23751">
        <ele>57.42</ele>
        <time>2019-08-26T09:28:36.000Z</time>
      </trkpt>
      <trkpt lat="47.58555" lon="-2.23753">
        <ele>57.58</ele>
        <time>2019-08-26T09:28:37.000Z</time>
      </trkpt>
      <trkpt lat="47.58555" lon="-2.23757">
        <ele>59.64</ele>
        <time>2019-08-26T09:28:40.000Z</time>
      </trkpt>
      <trkpt lat="47.58555" lon="-2.2376">
        <ele>59.38</ele>
        <time>2019-08-26T09:28:42.000Z</time>
      </trkpt>
      <trkpt lat="47.58556" lon="-2.23761">
        <ele>60.13</ele>
        <time>2019-08-26T09:28:43.000Z</time>
      </trkpt>
      <trkpt lat="47.58556" lon="-2.23763">
        <ele>59.77</ele>
        <time>2019-08-26T09:28:44.000Z</time>
      </trkpt>
      <trkpt lat="47.58556" lon="-2.23765">
        <ele>59.41</ele>
        <time>2019-08-26T09:28:45.000Z</time>
      </trkpt>
      <trkpt lat="47.58555" lon="-2.23768">
        <ele>60.03</ele>
        <time>2019-08-26T09:28:47.000Z</time>
      </trkpt>
      <trkpt lat="47.58555" lon="-2.2377">
        <ele>59.39</ele>
        <time>2019-08-26T09:28:48.000Z</time>
      </trkpt>
      <trkpt lat="47.58556" lon="-2.23772">
        <ele>59.35</ele>
        <time>2019-08-26T09:28:49.000Z</time>
      </trkpt>
      <trkpt lat="47.58556" lon="-2.23773">
        <ele>58.72</ele>
        <time>2019-08-26T09:28:50.000Z</time>
      </trkpt>
      <trkpt lat="47.58556" lon="-2.23775">
        <ele>57.97</ele>
        <time>2019-08-26T09:28:51.000Z</time>
      </trkpt>
      <trkpt lat="47.58556" lon="-2.23777">
        <ele>57.73</ele>
        <time>2019-08-26T09:28:53.000Z</time>
      </trkpt>
      <trkpt lat="47.58556" lon="-2.23779">
        <ele>58</ele>
        <time>2019-08-26T09:28:54.000Z</time>
      </trkpt>
      <trkpt lat="47.58556" lon="-2.23783">
        <ele>57.34</ele>
        <time>2019-08-26T09:28:56.000Z</time>
      </trkpt>
      <trkpt lat="47.58556" lon="-2.23784">
        <ele>58.23</ele>
        <time>2019-08-26T09:28:57.000Z</time>
      </trkpt>
      <trkpt lat="47.58556" lon="-2.23786">
        <ele>58.28</ele>
        <time>2019-08-26T09:28:58.000Z</time>
      </trkpt>
      <trkpt lat="47.58556" lon="-2.23787">
        <ele>57.75</ele>
        <time>2019-08-26T09:28:59.000Z</time>
      </trkpt>
      <trkpt lat="47.58556" lon="-2.23789">
        <ele>56.59</ele>
        <time>2019-08-26T09:29:00.000Z</time>
      </trkpt>
      <trkpt lat="47.58556" lon="-2.2379">
        <ele>56.5</ele>
        <time>2019-08-26T09:29:01.000Z</time>
      </trkpt>
      <trkpt lat="47.58556" lon="-2.23792">
        <ele>56.06</ele>
        <time>2019-08-26T09:29:02.000Z</time>
      </trkpt>
      <trkpt lat="47.58556" lon="-2.23794">
        <ele>56.38</ele>
        <time>2019-08-26T09:29:03.000Z</time>
      </trkpt>
      <trkpt lat="47.58556" lon="-2.23795">
        <ele>55.38</ele>
        <time>2019-08-26T09:29:04.000Z</time>
      </trkpt>
      <trkpt lat="47.58556" lon="-2.23797">
        <ele>54.4</ele>
        <time>2019-08-26T09:29:05.000Z</time>
      </trkpt>
      <trkpt lat="47.58557" lon="-2.23798">
        <ele>53.89</ele>
        <time>2019-08-26T09:29:06.000Z</time>
      </trkpt>
      <trkpt lat="47.58557" lon="-2.23799">
        <ele>54.45</ele>
        <time>2019-08-26T09:29:07.000Z</time>
      </trkpt>
      <trkpt lat="47.58558" lon="-2.238">
        <ele>54.96</ele>
        <time>2019-08-26T09:29:08.000Z</time>
      </trkpt>
      <trkpt lat="47.58558" lon="-2.23802">
        <ele>55.08</ele>
        <time>2019-08-26T09:29:09.000Z</time>
      </trkpt>
      <trkpt lat="47.58558" lon="-2.23804">
        <ele>52.56</ele>
        <time>2019-08-26T09:29:10.000Z</time>
      </trkpt>
      <trkpt lat="47.58558" lon="-2.23805">
        <ele>52.75</ele>
        <time>2019-08-26T09:29:11.000Z</time>
      </trkpt>
      <trkpt lat="47.58559" lon="-2.23808">
        <ele>50.47</ele>
        <time>2019-08-26T09:29:13.000Z</time>
      </trkpt>
      <trkpt lat="47.58559" lon="-2.2381">
        <ele>49.47</ele>
        <time>2019-08-26T09:29:15.000Z</time>
      </trkpt>
      <trkpt lat="47.58559" lon="-2.23811">
        <ele>49.19</ele>
        <time>2019-08-26T09:29:16.000Z</time>
      </trkpt>
      <trkpt lat="47.5856" lon="-2.23813">
        <ele>49.19</ele>
        <time>2019-08-26T09:29:17.000Z</time>
      </trkpt>
      <trkpt lat="47.58561" lon="-2.23815">
        <ele>47.94</ele>
        <time>2019-08-26T09:29:19.000Z</time>
      </trkpt>
      <trkpt lat="47.58562" lon="-2.23816">
        <ele>47.64</ele>
        <time>2019-08-26T09:29:21.000Z</time>
      </trkpt>
      <trkpt lat="47.58563" lon="-2.23818">
        <ele>49.49</ele>
        <time>2019-08-26T09:29:23.000Z</time>
      </trkpt>
      <trkpt lat="47.58564" lon="-2.23819">
        <ele>49.29</ele>
        <time>2019-08-26T09:29:24.000Z</time>
      </trkpt>
      <trkpt lat="47.58564" lon="-2.2382">
        <ele>48.74</ele>
        <time>2019-08-26T09:29:25.000Z</time>
      </trkpt>
      <trkpt lat="47.58564" lon="-2.23821">
        <ele>48.95</ele>
        <time>2019-08-26T09:29:26.000Z</time>
      </trkpt>
      <trkpt lat="47.58565" lon="-2.23823">
        <ele>49.06</ele>
        <time>2019-08-26T09:29:27.000Z</time>
      </trkpt>
      <trkpt lat="47.58566" lon="-2.23824">
        <ele>49.13</ele>
        <time>2019-08-26T09:29:28.000Z</time>
      </trkpt>
      <trkpt lat="47.58566" lon="-2.23826">
        <ele>49.7</ele>
        <time>2019-08-26T09:29:29.000Z</time>
      </trkpt>
      <trkpt lat="47.58566" lon="-2.23828">
        <ele>49.4</ele>
        <time>2019-08-26T09:29:30.000Z</time>
      </trkpt>
      <trkpt lat="47.58566" lon="-2.23829">
        <ele>49.17</ele>
        <time>2019-08-26T09:29:31.000Z</time>
      </trkpt>
      <trkpt lat="47.58566" lon="-2.23831">
        <ele>49.21</ele>
        <time>2019-08-26T09:29:32.000Z</time>
      </trkpt>
      <trkpt lat="47.58566" lon="-2.23833">
        <ele>49.36</ele>
        <time>2019-08-26T09:29:33.000Z</time>
      </trkpt>
      <trkpt lat="47.58566" lon="-2.23835">
        <ele>49.64</ele>
        <time>2019-08-26T09:29:34.000Z</time>
      </trkpt>
      <trkpt lat="47.58566" lon="-2.23837">
        <ele>49.33</ele>
        <time>2019-08-26T09:29:35.000Z</time>
      </trkpt>
      <trkpt lat="47.58565" lon="-2.23839">
        <ele>48.78</ele>
        <time>2019-08-26T09:29:36.000Z</time>
      </trkpt>
      <trkpt lat="47.58565" lon="-2.23841">
        <ele>47.94</ele>
        <time>2019-08-26T09:29:37.000Z</time>
      </trkpt>
      <trkpt lat="47.58565" lon="-2.23843">
        <ele>46.85</ele>
        <time>2019-08-26T09:29:38.000Z</time>
      </trkpt>
      <trkpt lat="47.58565" lon="-2.23844">
        <ele>46.95</ele>
        <time>2019-08-26T09:29:39.000Z</time>
      </trkpt>
      <trkpt lat="47.58565" lon="-2.23846">
        <ele>47.11</ele>
        <time>2019-08-26T09:29:40.000Z</time>
      </trkpt>
      <trkpt lat="47.58565" lon="-2.23848">
        <ele>47.3</ele>
        <time>2019-08-26T09:29:41.000Z</time>
      </trkpt>
      <trkpt lat="47.58566" lon="-2.2385">
        <ele>47.95</ele>
        <time>2019-08-26T09:29:42.000Z</time>
      </trkpt>
      <trkpt lat="47.58566" lon="-2.23852">
        <ele>47.84</ele>
        <time>2019-08-26T09:29:43.000Z</time>
      </trkpt>
      <trkpt lat="47.58566" lon="-2.23854">
        <ele>47.43</ele>
        <time>2019-08-26T09:29:44.000Z</time>
      </trkpt>
      <trkpt lat="47.58566" lon="-2.23856">
        <ele>46.9</ele>
        <time>2019-08-26T09:29:45.000Z</time>
      </trkpt>
      <trkpt lat="47.58565" lon="-2.23858">
        <ele>47.36</ele>
        <time>2019-08-26T09:29:46.000Z</time>
      </trkpt>
      <trkpt lat="47.58566" lon="-2.23859">
        <ele>48</ele>
        <time>2019-08-26T09:29:47.000Z</time>
      </trkpt>
      <trkpt lat="47.58566" lon="-2.23861">
        <ele>48.33</ele>
        <time>2019-08-26T09:29:48.000Z</time>
      </trkpt>
      <trkpt lat="47.58566" lon="-2.23863">
        <ele>48.03</ele>
        <time>2019-08-26T09:29:49.000Z</time>
      </trkpt>
      <trkpt lat="47.58567" lon="-2.23864">
        <ele>48.71</ele>
        <time>2019-08-26T09:29:50.000Z</time>
      </trkpt>
      <trkpt lat="47.58567" lon="-2.23866">
        <ele>48.72</ele>
        <time>2019-08-26T09:29:51.000Z</time>
      </trkpt>
      <trkpt lat="47.58568" lon="-2.23867">
        <ele>48.06</ele>
        <time>2019-08-26T09:29:52.000Z</time>
      </trkpt>
      <trkpt lat="47.58569" lon="-2.23868">
        <ele>48.19</ele>
        <time>2019-08-26T09:29:53.000Z</time>
      </trkpt>
      <trkpt lat="47.58569" lon="-2.2387">
        <ele>47.52</ele>
        <time>2019-08-26T09:29:54.000Z</time>
      </trkpt>
      <trkpt lat="47.58569" lon="-2.23871">
        <ele>46.99</ele>
        <time>2019-08-26T09:29:55.000Z</time>
      </trkpt>
      <trkpt lat="47.5857" lon="-2.23873">
        <ele>45.57</ele>
        <time>2019-08-26T09:29:57.000Z</time>
      </trkpt>
      <trkpt lat="47.58571" lon="-2.23875">
        <ele>45.32</ele>
        <time>2019-08-26T09:29:58.000Z</time>
      </trkpt>
      <trkpt lat="47.58572" lon="-2.23875">
        <ele>45.53</ele>
        <time>2019-08-26T09:29:59.000Z</time>
      </trkpt>
      <trkpt lat="47.58572" lon="-2.23876">
        <ele>45.72</ele>
        <time>2019-08-26T09:30:00.000Z</time>
      </trkpt>
      <trkpt lat="47.58574" lon="-2.23876">
        <ele>44.92</ele>
        <time>2019-08-26T09:30:01.000Z</time>
      </trkpt>
      <trkpt lat="47.58574" lon="-2.23877">
        <ele>43</ele>
        <time>2019-08-26T09:30:03.000Z</time>
      </trkpt>
      <trkpt lat="47.58576" lon="-2.23876">
        <ele>43.98</ele>
        <time>2019-08-26T09:30:06.000Z</time>
      </trkpt>
      <trkpt lat="47.58576" lon="-2.23876">
        <ele>43.77</ele>
        <time>2019-08-26T09:30:07.000Z</time>
      </trkpt>
      <trkpt lat="47.58577" lon="-2.23874">
        <ele>44.64</ele>
        <time>2019-08-26T09:30:08.000Z</time>
      </trkpt>
      <trkpt lat="47.58578" lon="-2.23873">
        <ele>44.82</ele>
        <time>2019-08-26T09:30:09.000Z</time>
      </trkpt>
      <trkpt lat="47.58579" lon="-2.23872">
        <ele>46.28</ele>
        <time>2019-08-26T09:30:10.000Z</time>
      </trkpt>
      <trkpt lat="47.5858" lon="-2.2387">
        <ele>46.74</ele>
        <time>2019-08-26T09:30:11.000Z</time>
      </trkpt>
      <trkpt lat="47.5858" lon="-2.23869">
        <ele>46.96</ele>
        <time>2019-08-26T09:30:12.000Z</time>
      </trkpt>
      <trkpt lat="47.58581" lon="-2.23867">
        <ele>46.08</ele>
        <time>2019-08-26T09:30:13.000Z</time>
      </trkpt>
      <trkpt lat="47.58582" lon="-2.23866">
        <ele>45.88</ele>
        <time>2019-08-26T09:30:14.000Z</time>
      </trkpt>
      <trkpt lat="47.58583" lon="-2.23866">
        <ele>45.95</ele>
        <time>2019-08-26T09:30:15.000Z</time>
      </trkpt>
      <trkpt lat="47.58584" lon="-2.23865">
        <ele>46.14</ele>
        <time>2019-08-26T09:30:16.000Z</time>
      </trkpt>
      <trkpt lat="47.58585" lon="-2.23865">
        <ele>46.06</ele>
        <time>2019-08-26T09:30:17.000Z</time>
      </trkpt>
      <trkpt lat="47.58587" lon="-2.23866">
        <ele>44.95</ele>
        <time>2019-08-26T09:30:19.000Z</time>
      </trkpt>
      <trkpt lat="47.58588" lon="-2.23867">
        <ele>44.54</ele>
        <time>2019-08-26T09:30:20.000Z</time>
      </trkpt>
      <trkpt lat="47.58589" lon="-2.23868">
        <ele>45.92</ele>
        <time>2019-08-26T09:30:22.000Z</time>
      </trkpt>
      <trkpt lat="47.58591" lon="-2.23869">
        <ele>44.89</ele>
        <time>2019-08-26T09:30:24.000Z</time>
      </trkpt>
      <trkpt lat="47.58592" lon="-2.23869">
        <ele>45.29</ele>
        <time>2019-08-26T09:30:25.000Z</time>
      </trkpt>
      <trkpt lat="47.58593" lon="-2.23871">
        <ele>45.01</ele>
        <time>2019-08-26T09:30:27.000Z</time>
      </trkpt>
      <trkpt lat="47.58594" lon="-2.23872">
        <ele>46.01</ele>
        <time>2019-08-26T09:30:28.000Z</time>
      </trkpt>
      <trkpt lat="47.58595" lon="-2.23873">
        <ele>45.21</ele>
        <time>2019-08-26T09:30:29.000Z</time>
      </trkpt>
      <trkpt lat="47.58597" lon="-2.23873">
        <ele>44.81</ele>
        <time>2019-08-26T09:30:31.000Z</time>
      </trkpt>
      <trkpt lat="47.58598" lon="-2.23873">
        <ele>44.36</ele>
        <time>2019-08-26T09:30:32.000Z</time>
      </trkpt>
      <trkpt lat="47.58599" lon="-2.23873">
        <ele>46.24</ele>
        <time>2019-08-26T09:30:33.000Z</time>
      </trkpt>
      <trkpt lat="47.586" lon="-2.23873">
        <ele>46.48</ele>
        <time>2019-08-26T09:30:34.000Z</time>
      </trkpt>
      <trkpt lat="47.58601" lon="-2.23874">
        <ele>47.84</ele>
        <time>2019-08-26T09:30:35.000Z</time>
      </trkpt>
      <trkpt lat="47.58602" lon="-2.23875">
        <ele>47.26</ele>
        <time>2019-08-26T09:30:36.000Z</time>
      </trkpt>
      <trkpt lat="47.58603" lon="-2.23876">
        <ele>47.09</ele>
        <time>2019-08-26T09:30:37.000Z</time>
      </trkpt>
      <trkpt lat="47.58605" lon="-2.23876">
        <ele>46.84</ele>
        <time>2019-08-26T09:30:39.000Z</time>
      </trkpt>
      <trkpt lat="47.58606" lon="-2.23876">
        <ele>46.38</ele>
        <time>2019-08-26T09:30:41.000Z</time>
      </trkpt>
      <trkpt lat="47.58609" lon="-2.23876">
        <ele>46.9</ele>
        <time>2019-08-26T09:30:43.000Z</time>
      </trkpt>
      <trkpt lat="47.5861" lon="-2.23876">
        <ele>43.61</ele>
        <time>2019-08-26T09:30:45.000Z</time>
      </trkpt>
      <trkpt lat="47.58611" lon="-2.23877">
        <ele>40.14</ele>
        <time>2019-08-26T09:30:48.000Z</time>
      </trkpt>
      <trkpt lat="47.58612" lon="-2.23878">
        <ele>38.02</ele>
        <time>2019-08-26T09:30:50.000Z</time>
      </trkpt>
      <trkpt lat="47.58612" lon="-2.23879">
        <ele>37.87</ele>
        <time>2019-08-26T09:30:52.000Z</time>
      </trkpt>
      <trkpt lat="47.58614" lon="-2.23881">
        <ele>38.04</ele>
        <time>2019-08-26T09:30:54.000Z</time>
      </trkpt>
      <trkpt lat="47.58616" lon="-2.23882">
        <ele>39.18</ele>
        <time>2019-08-26T09:30:55.000Z</time>
      </trkpt>
      <trkpt lat="47.58616" lon="-2.23883">
        <ele>36.53</ele>
        <time>2019-08-26T09:30:56.000Z</time>
      </trkpt>
      <trkpt lat="47.58617" lon="-2.23885">
        <ele>36.7</ele>
        <time>2019-08-26T09:30:57.000Z</time>
      </trkpt>
      <trkpt lat="47.58617" lon="-2.23886">
        <ele>36.47</ele>
        <time>2019-08-26T09:30:58.000Z</time>
      </trkpt>
      <trkpt lat="47.58617" lon="-2.23887">
        <ele>36.47</ele>
        <time>2019-08-26T09:30:59.000Z</time>
      </trkpt>
      <trkpt lat="47.58619" lon="-2.23889">
        <ele>36.44</ele>
        <time>2019-08-26T09:31:00.000Z</time>
      </trkpt>
      <trkpt lat="47.5862" lon="-2.2389">
        <ele>35.31</ele>
        <time>2019-08-26T09:31:01.000Z</time>
      </trkpt>
      <trkpt lat="47.58621" lon="-2.23891">
        <ele>34.12</ele>
        <time>2019-08-26T09:31:02.000Z</time>
      </trkpt>
      <trkpt lat="47.58621" lon="-2.23893">
        <ele>33.95</ele>
        <time>2019-08-26T09:31:03.000Z</time>
      </trkpt>
      <trkpt lat="47.58622" lon="-2.23894">
        <ele>34.55</ele>
        <time>2019-08-26T09:31:04.000Z</time>
      </trkpt>
      <trkpt lat="47.58622" lon="-2.23896">
        <ele>34.91</ele>
        <time>2019-08-26T09:31:05.000Z</time>
      </trkpt>
      <trkpt lat="47.58623" lon="-2.23899">
        <ele>36.05</ele>
        <time>2019-08-26T09:31:06.000Z</time>
      </trkpt>
      <trkpt lat="47.58624" lon="-2.239">
        <ele>37.38</ele>
        <time>2019-08-26T09:31:07.000Z</time>
      </trkpt>
      <trkpt lat="47.58624" lon="-2.23902">
        <ele>38.29</ele>
        <time>2019-08-26T09:31:08.000Z</time>
      </trkpt>
      <trkpt lat="47.58625" lon="-2.23904">
        <ele>38.57</ele>
        <time>2019-08-26T09:31:09.000Z</time>
      </trkpt>
      <trkpt lat="47.58625" lon="-2.23905">
        <ele>39.32</ele>
        <time>2019-08-26T09:31:10.000Z</time>
      </trkpt>
      <trkpt lat="47.58625" lon="-2.23906">
        <ele>39.63</ele>
        <time>2019-08-26T09:31:11.000Z</time>
      </trkpt>
      <trkpt lat="47.58626" lon="-2.23908">
        <ele>40.89</ele>
        <time>2019-08-26T09:31:12.000Z</time>
      </trkpt>
      <trkpt lat="47.58627" lon="-2.2391">
        <ele>41.15</ele>
        <time>2019-08-26T09:31:13.000Z</time>
      </trkpt>
      <trkpt lat="47.58627" lon="-2.23911">
        <ele>41.08</ele>
        <time>2019-08-26T09:31:14.000Z</time>
      </trkpt>
      <trkpt lat="47.58627" lon="-2.23913">
        <ele>41.69</ele>
        <time>2019-08-26T09:31:15.000Z</time>
      </trkpt>
      <trkpt lat="47.58627" lon="-2.23915">
        <ele>42.43</ele>
        <time>2019-08-26T09:31:16.000Z</time>
      </trkpt>
      <trkpt lat="47.58627" lon="-2.23917">
        <ele>42.76</ele>
        <time>2019-08-26T09:31:17.000Z</time>
      </trkpt>
      <trkpt lat="47.58627" lon="-2.23919">
        <ele>42.78</ele>
        <time>2019-08-26T09:31:18.000Z</time>
      </trkpt>
      <trkpt lat="47.58627" lon="-2.23921">
        <ele>42.15</ele>
        <time>2019-08-26T09:31:19.000Z</time>
      </trkpt>
      <trkpt lat="47.58627" lon="-2.23923">
        <ele>43.25</ele>
        <time>2019-08-26T09:31:20.000Z</time>
      </trkpt>
      <trkpt lat="47.58628" lon="-2.23925">
        <ele>44.64</ele>
        <time>2019-08-26T09:31:21.000Z</time>
      </trkpt>
      <trkpt lat="47.58629" lon="-2.23926">
        <ele>45.42</ele>
        <time>2019-08-26T09:31:22.000Z</time>
      </trkpt>
      <trkpt lat="47.58629" lon="-2.23928">
        <ele>46.05</ele>
        <time>2019-08-26T09:31:23.000Z</time>
      </trkpt>
      <trkpt lat="47.5863" lon="-2.2393">
        <ele>46.06</ele>
        <time>2019-08-26T09:31:24.000Z</time>
      </trkpt>
      <trkpt lat="47.5863" lon="-2.23932">
        <ele>47.6</ele>
        <time>2019-08-26T09:31:25.000Z</time>
      </trkpt>
      <trkpt lat="47.5863" lon="-2.23934">
        <ele>47.8</ele>
        <time>2019-08-26T09:31:26.000Z</time>
      </trkpt>
      <trkpt lat="47.5863" lon="-2.23936">
        <ele>47.58</ele>
        <time>2019-08-26T09:31:27.000Z</time>
      </trkpt>
      <trkpt lat="47.5863" lon="-2.23938">
        <ele>46.61</ele>
        <time>2019-08-26T09:31:28.000Z</time>
      </trkpt>
      <trkpt lat="47.5863" lon="-2.23939">
        <ele>46.48</ele>
        <time>2019-08-26T09:31:29.000Z</time>
      </trkpt>
      <trkpt lat="47.5863" lon="-2.23941">
        <ele>46.6</ele>
        <time>2019-08-26T09:31:30.000Z</time>
      </trkpt>
      <trkpt lat="47.5863" lon="-2.23942">
        <ele>47.87</ele>
        <time>2019-08-26T09:31:31.000Z</time>
      </trkpt>
      <trkpt lat="47.5863" lon="-2.23944">
        <ele>47.73</ele>
        <time>2019-08-26T09:31:32.000Z</time>
      </trkpt>
      <trkpt lat="47.5863" lon="-2.23946">
        <ele>47.83</ele>
        <time>2019-08-26T09:31:33.000Z</time>
      </trkpt>
      <trkpt lat="47.5863" lon="-2.23947">
        <ele>47.18</ele>
        <time>2019-08-26T09:31:34.000Z</time>
      </trkpt>
      <trkpt lat="47.58631" lon="-2.23949">
        <ele>47.77</ele>
        <time>2019-08-26T09:31:35.000Z</time>
      </trkpt>
      <trkpt lat="47.58631" lon="-2.23951">
        <ele>48.11</ele>
        <time>2019-08-26T09:31:36.000Z</time>
      </trkpt>
      <trkpt lat="47.58632" lon="-2.23953">
        <ele>47.42</ele>
        <time>2019-08-26T09:31:37.000Z</time>
      </trkpt>
      <trkpt lat="47.58633" lon="-2.23955">
        <ele>46.81</ele>
        <time>2019-08-26T09:31:38.000Z</time>
      </trkpt>
      <trkpt lat="47.58633" lon="-2.23956">
        <ele>44.77</ele>
        <time>2019-08-26T09:31:39.000Z</time>
      </trkpt>
      <trkpt lat="47.58634" lon="-2.23957">
        <ele>44.01</ele>
        <time>2019-08-26T09:31:40.000Z</time>
      </trkpt>
      <trkpt lat="47.58635" lon="-2.23958">
        <ele>44.74</ele>
        <time>2019-08-26T09:31:41.000Z</time>
      </trkpt>
      <trkpt lat="47.58636" lon="-2.2396">
        <ele>44.2</ele>
        <time>2019-08-26T09:31:42.000Z</time>
      </trkpt>
      <trkpt lat="47.58637" lon="-2.23961">
        <ele>43.67</ele>
        <time>2019-08-26T09:31:43.000Z</time>
      </trkpt>
      <trkpt lat="47.58638" lon="-2.23963">
        <ele>43.76</ele>
        <time>2019-08-26T09:31:44.000Z</time>
      </trkpt>
      <trkpt lat="47.58638" lon="-2.23965">
        <ele>44.26</ele>
        <time>2019-08-26T09:31:45.000Z</time>
      </trkpt>
      <trkpt lat="47.58639" lon="-2.23967">
        <ele>44.29</ele>
        <time>2019-08-26T09:31:46.000Z</time>
      </trkpt>
      <trkpt lat="47.5864" lon="-2.23968">
        <ele>44.22</ele>
        <time>2019-08-26T09:31:47.000Z</time>
      </trkpt>
      <trkpt lat="47.5864" lon="-2.23969">
        <ele>44.65</ele>
        <time>2019-08-26T09:31:48.000Z</time>
      </trkpt>
      <trkpt lat="47.58641" lon="-2.23973">
        <ele>43.87</ele>
        <time>2019-08-26T09:31:50.000Z</time>
      </trkpt>
      <trkpt lat="47.5864" lon="-2.23975">
        <ele>43.97</ele>
        <time>2019-08-26T09:31:51.000Z</time>
      </trkpt>
      <trkpt lat="47.5864" lon="-2.23977">
        <ele>44.17</ele>
        <time>2019-08-26T09:31:52.000Z</time>
      </trkpt>
      <trkpt lat="47.5864" lon="-2.23979">
        <ele>43.96</ele>
        <time>2019-08-26T09:31:53.000Z</time>
      </trkpt>
      <trkpt lat="47.58639" lon="-2.2398">
        <ele>44.54</ele>
        <time>2019-08-26T09:31:54.000Z</time>
      </trkpt>
      <trkpt lat="47.58639" lon="-2.23981">
        <ele>46.04</ele>
        <time>2019-08-26T09:31:55.000Z</time>
      </trkpt>
      <trkpt lat="47.58637" lon="-2.23983">
        <ele>46.54</ele>
        <time>2019-08-26T09:31:57.000Z</time>
      </trkpt>
      <trkpt lat="47.58636" lon="-2.23985">
        <ele>47.74</ele>
        <time>2019-08-26T09:31:58.000Z</time>
      </trkpt>
      <trkpt lat="47.58635" lon="-2.23986">
        <ele>48.72</ele>
        <time>2019-08-26T09:31:59.000Z</time>
      </trkpt>
      <trkpt lat="47.58633" lon="-2.23987">
        <ele>48.93</ele>
        <time>2019-08-26T09:32:00.000Z</time>
      </trkpt>
      <trkpt lat="47.58632" lon="-2.23987">
        <ele>49.58</ele>
        <time>2019-08-26T09:32:01.000Z</time>
      </trkpt>
      <trkpt lat="47.5863" lon="-2.23988">
        <ele>49.31</ele>
        <time>2019-08-26T09:32:02.000Z</time>
      </trkpt>
      <trkpt lat="47.58629" lon="-2.23988">
        <ele>49.89</ele>
        <time>2019-08-26T09:32:03.000Z</time>
      </trkpt>
      <trkpt lat="47.58628" lon="-2.23989">
        <ele>49.8</ele>
        <time>2019-08-26T09:32:04.000Z</time>
      </trkpt>
      <trkpt lat="47.58627" lon="-2.23989">
        <ele>50.28</ele>
        <time>2019-08-26T09:32:05.000Z</time>
      </trkpt>
      <trkpt lat="47.58625" lon="-2.23989">
        <ele>50.45</ele>
        <time>2019-08-26T09:32:06.000Z</time>
      </trkpt>
      <trkpt lat="47.58624" lon="-2.2399">
        <ele>50</ele>
        <time>2019-08-26T09:32:07.000Z</time>
      </trkpt>
      <trkpt lat="47.58622" lon="-2.2399">
        <ele>49.91</ele>
        <time>2019-08-26T09:32:08.000Z</time>
      </trkpt>
      <trkpt lat="47.58621" lon="-2.2399">
        <ele>50.25</ele>
        <time>2019-08-26T09:32:09.000Z</time>
      </trkpt>
      <trkpt lat="47.5862" lon="-2.2399">
        <ele>49.65</ele>
        <time>2019-08-26T09:32:10.000Z</time>
      </trkpt>
      <trkpt lat="47.58618" lon="-2.2399">
        <ele>49.67</ele>
        <time>2019-08-26T09:32:11.000Z</time>
      </trkpt>
      <trkpt lat="47.58617" lon="-2.23989">
        <ele>49.32</ele>
        <time>2019-08-26T09:32:12.000Z</time>
      </trkpt>
      <trkpt lat="47.58616" lon="-2.23989">
        <ele>49.66</ele>
        <time>2019-08-26T09:32:13.000Z</time>
      </trkpt>
      <trkpt lat="47.58614" lon="-2.23989">
        <ele>49.75</ele>
        <time>2019-08-26T09:32:14.000Z</time>
      </trkpt>
      <trkpt lat="47.58613" lon="-2.23989">
        <ele>50.83</ele>
        <time>2019-08-26T09:32:15.000Z</time>
      </trkpt>
      <trkpt lat="47.58612" lon="-2.23989">
        <ele>51.58</ele>
        <time>2019-08-26T09:32:16.000Z</time>
      </trkpt>
      <trkpt lat="47.5861" lon="-2.23989">
        <ele>51.82</ele>
        <time>2019-08-26T09:32:17.000Z</time>
      </trkpt>
      <trkpt lat="47.58609" lon="-2.23989">
        <ele>52.96</ele>
        <time>2019-08-26T09:32:18.000Z</time>
      </trkpt>
      <trkpt lat="47.58608" lon="-2.23989">
        <ele>52.7</ele>
        <time>2019-08-26T09:32:19.000Z</time>
      </trkpt>
      <trkpt lat="47.58607" lon="-2.23989">
        <ele>53.27</ele>
        <time>2019-08-26T09:32:20.000Z</time>
      </trkpt>
      <trkpt lat="47.58606" lon="-2.23989">
        <ele>53.05</ele>
        <time>2019-08-26T09:32:21.000Z</time>
      </trkpt>
      <trkpt lat="47.58605" lon="-2.23989">
        <ele>53.23</ele>
        <time>2019-08-26T09:32:22.000Z</time>
      </trkpt>
      <trkpt lat="47.58604" lon="-2.23989">
        <ele>53.53</ele>
        <time>2019-08-26T09:32:23.000Z</time>
      </trkpt>
      <trkpt lat="47.58603" lon="-2.23988">
        <ele>52.35</ele>
        <time>2019-08-26T09:32:24.000Z</time>
      </trkpt>
      <trkpt lat="47.58601" lon="-2.23988">
        <ele>52.22</ele>
        <time>2019-08-26T09:32:25.000Z</time>
      </trkpt>
      <trkpt lat="47.586" lon="-2.23988">
        <ele>52.48</ele>
        <time>2019-08-26T09:32:26.000Z</time>
      </trkpt>
      <trkpt lat="47.58599" lon="-2.23988">
        <ele>53.02</ele>
        <time>2019-08-26T09:32:27.000Z</time>
      </trkpt>
      <trkpt lat="47.58598" lon="-2.23988">
        <ele>52.59</ele>
        <time>2019-08-26T09:32:28.000Z</time>
      </trkpt>
      <trkpt lat="47.58596" lon="-2.23988">
        <ele>51.95</ele>
        <time>2019-08-26T09:32:29.000Z</time>
      </trkpt>
      <trkpt lat="47.58595" lon="-2.23989">
        <ele>51.37</ele>
        <time>2019-08-26T09:32:30.000Z</time>
      </trkpt>
      <trkpt lat="47.58595" lon="-2.2399">
        <ele>50.99</ele>
        <time>2019-08-26T09:32:31.000Z</time>
      </trkpt>
      <trkpt lat="47.58593" lon="-2.2399">
        <ele>51.51</ele>
        <time>2019-08-26T09:32:32.000Z</time>
      </trkpt>
      <trkpt lat="47.58592" lon="-2.2399">
        <ele>52.44</ele>
        <time>2019-08-26T09:32:33.000Z</time>
      </trkpt>
      <trkpt lat="47.58591" lon="-2.2399">
        <ele>52.28</ele>
        <time>2019-08-26T09:32:34.000Z</time>
      </trkpt>
      <trkpt lat="47.5859" lon="-2.2399">
        <ele>51.44</ele>
        <time>2019-08-26T09:32:35.000Z</time>
      </trkpt>
      <trkpt lat="47.58589" lon="-2.2399">
        <ele>50.98</ele>
        <time>2019-08-26T09:32:36.000Z</time>
      </trkpt>
      <trkpt lat="47.58588" lon="-2.23991">
        <ele>51.29</ele>
        <time>2019-08-26T09:32:37.000Z</time>
      </trkpt>
      <trkpt lat="47.58587" lon="-2.23991">
        <ele>51.29</ele>
        <time>2019-08-26T09:32:38.000Z</time>
      </trkpt>
      <trkpt lat="47.58586" lon="-2.23991">
        <ele>51.12</ele>
        <time>2019-08-26T09:32:39.000Z</time>
      </trkpt>
      <trkpt lat="47.58585" lon="-2.23991">
        <ele>50.87</ele>
        <time>2019-08-26T09:32:40.000Z</time>
      </trkpt>
      <trkpt lat="47.58584" lon="-2.23991">
        <ele>50.95</ele>
        <time>2019-08-26T09:32:41.000Z</time>
      </trkpt>
      <trkpt lat="47.58582" lon="-2.23991">
        <ele>50.78</ele>
        <time>2019-08-26T09:32:42.000Z</time>
      </trkpt>
      <trkpt lat="47.58581" lon="-2.23991">
        <ele>50.13</ele>
        <time>2019-08-26T09:32:43.000Z</time>
      </trkpt>
      <trkpt lat="47.5858" lon="-2.23991">
        <ele>50.5</ele>
        <time>2019-08-26T09:32:44.000Z</time>
      </trkpt>
      <trkpt lat="47.58579" lon="-2.23992">
        <ele>50.74</ele>
        <time>2019-08-26T09:32:46.000Z</time>
      </trkpt>
      <trkpt lat="47.58577" lon="-2.23992">
        <ele>51.31</ele>
        <time>2019-08-26T09:32:47.000Z</time>
      </trkpt>
      <trkpt lat="47.58576" lon="-2.23992">
        <ele>50.87</ele>
        <time>2019-08-26T09:32:48.000Z</time>
      </trkpt>
      <trkpt lat="47.58575" lon="-2.23992">
        <ele>50.84</ele>
        <time>2019-08-26T09:32:49.000Z</time>
      </trkpt>
      <trkpt lat="47.58573" lon="-2.23992">
        <ele>50.15</ele>
        <time>2019-08-26T09:32:51.000Z</time>
      </trkpt>
      <trkpt lat="47.58572" lon="-2.23992">
        <ele>49.78</ele>
        <time>2019-08-26T09:32:52.000Z</time>
      </trkpt>
      <trkpt lat="47.58571" lon="-2.23991">
        <ele>50.3</ele>
        <time>2019-08-26T09:32:53.000Z</time>
      </trkpt>
      <trkpt lat="47.58569" lon="-2.23991">
        <ele>49.38</ele>
        <time>2019-08-26T09:32:54.000Z</time>
      </trkpt>
      <trkpt lat="47.58568" lon="-2.23991">
        <ele>50.06</ele>
        <time>2019-08-26T09:32:56.000Z</time>
      </trkpt>
      <trkpt lat="47.58567" lon="-2.23991">
        <ele>50.46</ele>
        <time>2019-08-26T09:32:57.000Z</time>
      </trkpt>
      <trkpt lat="47.58566" lon="-2.2399">
        <ele>50.74</ele>
        <time>2019-08-26T09:32:58.000Z</time>
      </trkpt>
      <trkpt lat="47.58565" lon="-2.2399">
        <ele>50.7</ele>
        <time>2019-08-26T09:32:59.000Z</time>
      </trkpt>
      <trkpt lat="47.58564" lon="-2.2399">
        <ele>50.81</ele>
        <time>2019-08-26T09:33:00.000Z</time>
      </trkpt>
      <trkpt lat="47.58562" lon="-2.2399">
        <ele>49.87</ele>
        <time>2019-08-26T09:33:02.000Z</time>
      </trkpt>
      <trkpt lat="47.58561" lon="-2.2399">
        <ele>49.81</ele>
        <time>2019-08-26T09:33:04.000Z</time>
      </trkpt>
      <trkpt lat="47.58559" lon="-2.2399">
        <ele>49.69</ele>
        <time>2019-08-26T09:33:05.000Z</time>
      </trkpt>
      <trkpt lat="47.58558" lon="-2.23989">
        <ele>49.65</ele>
        <time>2019-08-26T09:33:06.000Z</time>
      </trkpt>
      <trkpt lat="47.58558" lon="-2.23989">
        <ele>50.51</ele>
        <time>2019-08-26T09:33:07.000Z</time>
      </trkpt>
      <trkpt lat="47.58556" lon="-2.23988">
        <ele>51.47</ele>
        <time>2019-08-26T09:33:09.000Z</time>
      </trkpt>
      <trkpt lat="47.58555" lon="-2.23987">
        <ele>51.67</ele>
        <time>2019-08-26T09:33:13.000Z</time>
      </trkpt>
      <trkpt lat="47.58554" lon="-2.23987">
        <ele>51.62</ele>
        <time>2019-08-26T09:33:17.000Z</time>
      </trkpt>
      <trkpt lat="47.58553" lon="-2.23987">
        <ele>49.96</ele>
        <time>2019-08-26T09:33:19.000Z</time>
      </trkpt>
      <trkpt lat="47.58552" lon="-2.23987">
        <ele>50.34</ele>
        <time>2019-08-26T09:33:20.000Z</time>
      </trkpt>
      <trkpt lat="47.58551" lon="-2.23987">
        <ele>51.4</ele>
        <time>2019-08-26T09:33:21.000Z</time>
      </trkpt>
      <trkpt lat="47.5855" lon="-2.23987">
        <ele>50.57</ele>
        <time>2019-08-26T09:33:23.000Z</time>
      </trkpt>
      <trkpt lat="47.58551" lon="-2.23987">
        <ele>50.41</ele>
        <time>2019-08-26T09:33:26.000Z</time>
      </trkpt>
      <trkpt lat="47.5855" lon="-2.23987">
        <ele>51.01</ele>
        <time>2019-08-26T09:33:29.000Z</time>
      </trkpt>
      <trkpt lat="47.58548" lon="-2.23986">
        <ele>52.01</ele>
        <time>2019-08-26T09:33:31.000Z</time>
      </trkpt>
      <trkpt lat="47.58548" lon="-2.23985">
        <ele>49.3</ele>
        <time>2019-08-26T09:33:40.000Z</time>
      </trkpt>
      <trkpt lat="47.58548" lon="-2.23984">
        <ele>48.14</ele>
        <time>2019-08-26T09:33:45.000Z</time>
      </trkpt>
      <trkpt lat="47.58546" lon="-2.23984">
        <ele>48.63</ele>
        <time>2019-08-26T09:33:47.000Z</time>
      </trkpt>
      <trkpt lat="47.58545" lon="-2.23982">
        <ele>48.26</ele>
        <time>2019-08-26T09:33:49.000Z</time>
      </trkpt>
      <trkpt lat="47.58544" lon="-2.23982">
        <ele>49.34</ele>
        <time>2019-08-26T09:33:51.000Z</time>
      </trkpt>
      <trkpt lat="47.58544" lon="-2.2398">
        <ele>47.77</ele>
        <time>2019-08-26T09:34:01.000Z</time>
      </trkpt>
      <trkpt lat="47.58544" lon="-2.23978">
        <ele>48.28</ele>
        <time>2019-08-26T09:34:03.000Z</time>
      </trkpt>
      <trkpt lat="47.58544" lon="-2.23977">
        <ele>47.46</ele>
        <time>2019-08-26T09:34:06.000Z</time>
      </trkpt>
      <trkpt lat="47.58544" lon="-2.23978">
        <ele>47.93</ele>
        <time>2019-08-26T09:34:22.000Z</time>
      </trkpt>
      <trkpt lat="47.58544" lon="-2.23979">
        <ele>47.44</ele>
        <time>2019-08-26T09:34:23.000Z</time>
      </trkpt>
      <trkpt lat="47.58544" lon="-2.23981">
        <ele>47.75</ele>
        <time>2019-08-26T09:34:24.000Z</time>
      </trkpt>
      <trkpt lat="47.58544" lon="-2.23982">
        <ele>48.03</ele>
        <time>2019-08-26T09:34:26.000Z</time>
      </trkpt>
      <trkpt lat="47.58545" lon="-2.23982">
        <ele>48.82</ele>
        <time>2019-08-26T09:34:29.000Z</time>
      </trkpt>
      <trkpt lat="47.58545" lon="-2.23982">
        <ele>47.75</ele>
        <time>2019-08-26T09:34:33.000Z</time>
      </trkpt>
      <trkpt lat="47.58545" lon="-2.23981">
        <ele>45.63</ele>
        <time>2019-08-26T09:34:41.000Z</time>
      </trkpt>
      <trkpt lat="47.58546" lon="-2.23982">
        <ele>44.68</ele>
        <time>2019-08-26T09:34:51.000Z</time>
      </trkpt>
      <trkpt lat="47.58547" lon="-2.23983">
        <ele>45.25</ele>
        <time>2019-08-26T09:34:52.000Z</time>
      </trkpt>
      <trkpt lat="47.58548" lon="-2.23983">
        <ele>45.43</ele>
        <time>2019-08-26T09:34:53.000Z</time>
      </trkpt>
      <trkpt lat="47.58549" lon="-2.23982">
        <ele>45.73</ele>
        <time>2019-08-26T09:34:55.000Z</time>
      </trkpt>
      <trkpt lat="47.5855" lon="-2.23981">
        <ele>45.12</ele>
        <time>2019-08-26T09:34:57.000Z</time>
      </trkpt>
      <trkpt lat="47.58551" lon="-2.2398">
        <ele>46.86</ele>
        <time>2019-08-26T09:35:00.000Z</time>
      </trkpt>
      <trkpt lat="47.58553" lon="-2.2398">
        <ele>45.64</ele>
        <time>2019-08-26T09:35:01.000Z</time>
      </trkpt>
      <trkpt lat="47.58554" lon="-2.23981">
        <ele>45.96</ele>
        <time>2019-08-26T09:35:02.000Z</time>
      </trkpt>
      <trkpt lat="47.58555" lon="-2.23981">
        <ele>46.6</ele>
        <time>2019-08-26T09:35:03.000Z</time>
      </trkpt>
      <trkpt lat="47.58556" lon="-2.23981">
        <ele>47.6</ele>
        <time>2019-08-26T09:35:05.000Z</time>
      </trkpt>
      <trkpt lat="47.58556" lon="-2.23983">
        <ele>46.86</ele>
        <time>2019-08-26T09:35:08.000Z</time>
      </trkpt>
      <trkpt lat="47.58556" lon="-2.23983">
        <ele>47.95</ele>
        <time>2019-08-26T09:35:17.000Z</time>
      </trkpt>
      <trkpt lat="47.58557" lon="-2.23984">
        <ele>48.46</ele>
        <time>2019-08-26T09:35:18.000Z</time>
      </trkpt>
      <trkpt lat="47.58558" lon="-2.23985">
        <ele>49.25</ele>
        <time>2019-08-26T09:35:20.000Z</time>
      </trkpt>
      <trkpt lat="47.58559" lon="-2.23986">
        <ele>49.04</ele>
        <time>2019-08-26T09:35:24.000Z</time>
      </trkpt>
      <trkpt lat="47.5856" lon="-2.23986">
        <ele>50.05</ele>
        <time>2019-08-26T09:35:29.000Z</time>
      </trkpt>
      <trkpt lat="47.58561" lon="-2.23986">
        <ele>50.43</ele>
        <time>2019-08-26T09:36:23.000Z</time>
      </trkpt>
      <trkpt lat="47.58561" lon="-2.23985">
        <ele>49.94</ele>
        <time>2019-08-26T09:36:28.000Z</time>
      </trkpt>
      <trkpt lat="47.58561" lon="-2.23986">
        <ele>49.86</ele>
        <time>2019-08-26T09:36:31.000Z</time>
      </trkpt>
      <trkpt lat="47.58563" lon="-2.23987">
        <ele>48.92</ele>
        <time>2019-08-26T09:36:33.000Z</time>
      </trkpt>
      <trkpt lat="47.58564" lon="-2.23988">
        <ele>48.62</ele>
        <time>2019-08-26T09:36:35.000Z</time>
      </trkpt>
      <trkpt lat="47.58566" lon="-2.23988">
        <ele>48.79</ele>
        <time>2019-08-26T09:36:37.000Z</time>
      </trkpt>
      <trkpt lat="47.58567" lon="-2.23989">
        <ele>48.41</ele>
        <time>2019-08-26T09:36:40.000Z</time>
      </trkpt>
      <trkpt lat="47.5857" lon="-2.23989">
        <ele>47.87</ele>
        <time>2019-08-26T09:36:42.000Z</time>
      </trkpt>
      <trkpt lat="47.58571" lon="-2.23988">
        <ele>49.55</ele>
        <time>2019-08-26T09:36:43.000Z</time>
      </trkpt>
      <trkpt lat="47.58573" lon="-2.23988">
        <ele>50.04</ele>
        <time>2019-08-26T09:36:44.000Z</time>
      </trkpt>
      <trkpt lat="47.58574" lon="-2.23988">
        <ele>50.63</ele>
        <time>2019-08-26T09:36:45.000Z</time>
      </trkpt>
      <trkpt lat="47.58575" lon="-2.23988">
        <ele>50.07</ele>
        <time>2019-08-26T09:36:46.000Z</time>
      </trkpt>
      <trkpt lat="47.58576" lon="-2.23988">
        <ele>50.45</ele>
        <time>2019-08-26T09:36:47.000Z</time>
      </trkpt>
      <trkpt lat="47.58577" lon="-2.23989">
        <ele>50.87</ele>
        <time>2019-08-26T09:36:48.000Z</time>
      </trkpt>
      <trkpt lat="47.58579" lon="-2.23989">
        <ele>51.26</ele>
        <time>2019-08-26T09:36:49.000Z</time>
      </trkpt>
      <trkpt lat="47.5858" lon="-2.23989">
        <ele>51.6</ele>
        <time>2019-08-26T09:36:50.000Z</time>
      </trkpt>
      <trkpt lat="47.58581" lon="-2.23989">
        <ele>51.48</ele>
        <time>2019-08-26T09:36:51.000Z</time>
      </trkpt>
      <trkpt lat="47.58582" lon="-2.23989">
        <ele>52.14</ele>
        <time>2019-08-26T09:36:52.000Z</time>
      </trkpt>
      <trkpt lat="47.58584" lon="-2.23989">
        <ele>52.97</ele>
        <time>2019-08-26T09:36:53.000Z</time>
      </trkpt>
      <trkpt lat="47.58585" lon="-2.23989">
        <ele>53.01</ele>
        <time>2019-08-26T09:36:54.000Z</time>
      </trkpt>
      <trkpt lat="47.58587" lon="-2.23989">
        <ele>53.16</ele>
        <time>2019-08-26T09:36:55.000Z</time>
      </trkpt>
      <trkpt lat="47.58588" lon="-2.23988">
        <ele>53.62</ele>
        <time>2019-08-26T09:36:56.000Z</time>
      </trkpt>
      <trkpt lat="47.58589" lon="-2.23988">
        <ele>54.64</ele>
        <time>2019-08-26T09:36:57.000Z</time>
      </trkpt>
      <trkpt lat="47.5859" lon="-2.23988">
        <ele>54.63</ele>
        <time>2019-08-26T09:36:58.000Z</time>
      </trkpt>
      <trkpt lat="47.58591" lon="-2.23988">
        <ele>54.99</ele>
        <time>2019-08-26T09:36:59.000Z</time>
      </trkpt>
      <trkpt lat="47.58592" lon="-2.23988">
        <ele>55.01</ele>
        <time>2019-08-26T09:37:00.000Z</time>
      </trkpt>
      <trkpt lat="47.58593" lon="-2.23987">
        <ele>54.65</ele>
        <time>2019-08-26T09:37:01.000Z</time>
      </trkpt>
      <trkpt lat="47.58595" lon="-2.23987">
        <ele>55.52</ele>
        <time>2019-08-26T09:37:02.000Z</time>
      </trkpt>
      <trkpt lat="47.58596" lon="-2.23987">
        <ele>56.2</ele>
        <time>2019-08-26T09:37:03.000Z</time>
      </trkpt>
      <trkpt lat="47.58597" lon="-2.23987">
        <ele>54.83</ele>
        <time>2019-08-26T09:37:05.000Z</time>
      </trkpt>
      <trkpt lat="47.58598" lon="-2.23987">
        <ele>55.05</ele>
        <time>2019-08-26T09:37:06.000Z</time>
      </trkpt>
      <trkpt lat="47.586" lon="-2.23987">
        <ele>54.75</ele>
        <time>2019-08-26T09:37:07.000Z</time>
      </trkpt>
      <trkpt lat="47.58601" lon="-2.23986">
        <ele>53.73</ele>
        <time>2019-08-26T09:37:09.000Z</time>
      </trkpt>
      <trkpt lat="47.58602" lon="-2.23986">
        <ele>52.68</ele>
        <time>2019-08-26T09:37:10.000Z</time>
      </trkpt>
      <trkpt lat="47.58603" lon="-2.23986">
        <ele>52.73</ele>
        <time>2019-08-26T09:37:11.000Z</time>
      </trkpt>
      <trkpt lat="47.58604" lon="-2.23986">
        <ele>52.6</ele>
        <time>2019-08-26T09:37:12.000Z</time>
      </trkpt>
      <trkpt lat="47.58605" lon="-2.23986">
        <ele>53.26</ele>
        <time>2019-08-26T09:37:13.000Z</time>
      </trkpt>
      <trkpt lat="47.58607" lon="-2.23986">
        <ele>53.94</ele>
        <time>2019-08-26T09:37:14.000Z</time>
      </trkpt>
      <trkpt lat="47.58608" lon="-2.23986">
        <ele>54.55</ele>
        <time>2019-08-26T09:37:15.000Z</time>
      </trkpt>
      <trkpt lat="47.58609" lon="-2.23986">
        <ele>54.73</ele>
        <time>2019-08-26T09:37:16.000Z</time>
      </trkpt>
      <trkpt lat="47.5861" lon="-2.23986">
        <ele>54.73</ele>
        <time>2019-08-26T09:37:17.000Z</time>
      </trkpt>
      <trkpt lat="47.58611" lon="-2.23987">
        <ele>54.38</ele>
        <time>2019-08-26T09:37:18.000Z</time>
      </trkpt>
      <trkpt lat="47.58612" lon="-2.23987">
        <ele>53.76</ele>
        <time>2019-08-26T09:37:19.000Z</time>
      </trkpt>
      <trkpt lat="47.58613" lon="-2.23987">
        <ele>53.43</ele>
        <time>2019-08-26T09:37:20.000Z</time>
      </trkpt>
      <trkpt lat="47.58614" lon="-2.23987">
        <ele>52.79</ele>
        <time>2019-08-26T09:37:21.000Z</time>
      </trkpt>
      <trkpt lat="47.58616" lon="-2.23987">
        <ele>53.6</ele>
        <time>2019-08-26T09:37:22.000Z</time>
      </trkpt>
      <trkpt lat="47.58617" lon="-2.23988">
        <ele>53.67</ele>
        <time>2019-08-26T09:37:23.000Z</time>
      </trkpt>
      <trkpt lat="47.58618" lon="-2.23988">
        <ele>54.1</ele>
        <time>2019-08-26T09:37:24.000Z</time>
      </trkpt>
      <trkpt lat="47.58619" lon="-2.23988">
        <ele>53.71</ele>
        <time>2019-08-26T09:37:25.000Z</time>
      </trkpt>
      <trkpt lat="47.5862" lon="-2.23989">
        <ele>53.68</ele>
        <time>2019-08-26T09:37:26.000Z</time>
      </trkpt>
      <trkpt lat="47.58622" lon="-2.23989">
        <ele>53.45</ele>
        <time>2019-08-26T09:37:27.000Z</time>
      </trkpt>
      <trkpt lat="47.58622" lon="-2.23989">
        <ele>53.56</ele>
        <time>2019-08-26T09:37:28.000Z</time>
      </trkpt>
      <trkpt lat="47.58624" lon="-2.2399">
        <ele>53.89</ele>
        <time>2019-08-26T09:37:30.000Z</time>
      </trkpt>
      <trkpt lat="47.58625" lon="-2.2399">
        <ele>53.81</ele>
        <time>2019-08-26T09:37:31.000Z</time>
      </trkpt>
      <trkpt lat="47.58627" lon="-2.2399">
        <ele>54.08</ele>
        <time>2019-08-26T09:37:32.000Z</time>
      </trkpt>
      <trkpt lat="47.58628" lon="-2.23989">
        <ele>54.71</ele>
        <time>2019-08-26T09:37:33.000Z</time>
      </trkpt>
      <trkpt lat="47.58629" lon="-2.23989">
        <ele>55.06</ele>
        <time>2019-08-26T09:37:34.000Z</time>
      </trkpt>
      <trkpt lat="47.58631" lon="-2.23989">
        <ele>55.28</ele>
        <time>2019-08-26T09:37:35.000Z</time>
      </trkpt>
      <trkpt lat="47.58632" lon="-2.2399">
        <ele>55.49</ele>
        <time>2019-08-26T09:37:36.000Z</time>
      </trkpt>
      <trkpt lat="47.58633" lon="-2.2399">
        <ele>56.11</ele>
        <time>2019-08-26T09:37:37.000Z</time>
      </trkpt>
      <trkpt lat="47.58634" lon="-2.2399">
        <ele>55.61</ele>
        <time>2019-08-26T09:37:38.000Z</time>
      </trkpt>
      <trkpt lat="47.58636" lon="-2.2399">
        <ele>55.07</ele>
        <time>2019-08-26T09:37:39.000Z</time>
      </trkpt>
      <trkpt lat="47.58637" lon="-2.2399">
        <ele>55.77</ele>
        <time>2019-08-26T09:37:40.000Z</time>
      </trkpt>
      <trkpt lat="47.58638" lon="-2.23991">
        <ele>55.53</ele>
        <time>2019-08-26T09:37:41.000Z</time>
      </trkpt>
      <trkpt lat="47.5864" lon="-2.23991">
        <ele>56.06</ele>
        <time>2019-08-26T09:37:42.000Z</time>
      </trkpt>
      <trkpt lat="47.58641" lon="-2.23991">
        <ele>55.38</ele>
        <time>2019-08-26T09:37:43.000Z</time>
      </trkpt>
      <trkpt lat="47.58643" lon="-2.23992">
        <ele>54.54</ele>
        <time>2019-08-26T09:37:44.000Z</time>
      </trkpt>
      <trkpt lat="47.58644" lon="-2.23992">
        <ele>55.07</ele>
        <time>2019-08-26T09:37:45.000Z</time>
      </trkpt>
      <trkpt lat="47.58645" lon="-2.23993">
        <ele>55.05</ele>
        <time>2019-08-26T09:37:46.000Z</time>
      </trkpt>
      <trkpt lat="47.58646" lon="-2.23993">
        <ele>55.05</ele>
        <time>2019-08-26T09:37:47.000Z</time>
      </trkpt>
      <trkpt lat="47.58647" lon="-2.23993">
        <ele>54.76</ele>
        <time>2019-08-26T09:37:48.000Z</time>
      </trkpt>
      <trkpt lat="47.58648" lon="-2.23994">
        <ele>54.6</ele>
        <time>2019-08-26T09:37:50.000Z</time>
      </trkpt>
      <trkpt lat="47.58649" lon="-2.23994">
        <ele>54.25</ele>
        <time>2019-08-26T09:37:51.000Z</time>
      </trkpt>
      <trkpt lat="47.58651" lon="-2.23994">
        <ele>54.62</ele>
        <time>2019-08-26T09:37:52.000Z</time>
      </trkpt>
      <trkpt lat="47.58651" lon="-2.23995">
        <ele>53.98</ele>
        <time>2019-08-26T09:37:53.000Z</time>
      </trkpt>
      <trkpt lat="47.58653" lon="-2.23995">
        <ele>53.86</ele>
        <time>2019-08-26T09:37:54.000Z</time>
      </trkpt>
      <trkpt lat="47.58654" lon="-2.23996">
        <ele>52.24</ele>
        <time>2019-08-26T09:37:56.000Z</time>
      </trkpt>
      <trkpt lat="47.58655" lon="-2.23996">
        <ele>53.52</ele>
        <time>2019-08-26T09:37:57.000Z</time>
      </trkpt>
      <trkpt lat="47.58656" lon="-2.23996">
        <ele>52.83</ele>
        <time>2019-08-26T09:37:58.000Z</time>
      </trkpt>
      <trkpt lat="47.58657" lon="-2.23996">
        <ele>52.9</ele>
        <time>2019-08-26T09:37:59.000Z</time>
      </trkpt>
      <trkpt lat="47.58658" lon="-2.23996">
        <ele>52.34</ele>
        <time>2019-08-26T09:38:00.000Z</time>
      </trkpt>
      <trkpt lat="47.58659" lon="-2.23996">
        <ele>53.14</ele>
        <time>2019-08-26T09:38:01.000Z</time>
      </trkpt>
      <trkpt lat="47.5866" lon="-2.23997">
        <ele>53.68</ele>
        <time>2019-08-26T09:38:02.000Z</time>
      </trkpt>
      <trkpt lat="47.58662" lon="-2.23997">
        <ele>53.07</ele>
        <time>2019-08-26T09:38:04.000Z</time>
      </trkpt>
      <trkpt lat="47.58663" lon="-2.23998">
        <ele>52.89</ele>
        <time>2019-08-26T09:38:05.000Z</time>
      </trkpt>
      <trkpt lat="47.58664" lon="-2.23998">
        <ele>53</ele>
        <time>2019-08-26T09:38:06.000Z</time>
      </trkpt>
      <trkpt lat="47.58665" lon="-2.23998">
        <ele>52.43</ele>
        <time>2019-08-26T09:38:07.000Z</time>
      </trkpt>
      <trkpt lat="47.58666" lon="-2.23999">
        <ele>54.03</ele>
        <time>2019-08-26T09:38:08.000Z</time>
      </trkpt>
      <trkpt lat="47.58667" lon="-2.23999">
        <ele>54.41</ele>
        <time>2019-08-26T09:38:09.000Z</time>
      </trkpt>
      <trkpt lat="47.58668" lon="-2.23999">
        <ele>53.34</ele>
        <time>2019-08-26T09:38:10.000Z</time>
      </trkpt>
      <trkpt lat="47.58669" lon="-2.23999">
        <ele>53.16</ele>
        <time>2019-08-26T09:38:11.000Z</time>
      </trkpt>
      <trkpt lat="47.5867" lon="-2.24">
        <ele>53.78</ele>
        <time>2019-08-26T09:38:13.000Z</time>
      </trkpt>
      <trkpt lat="47.58672" lon="-2.24001">
        <ele>53.7</ele>
        <time>2019-08-26T09:38:15.000Z</time>
      </trkpt>
      <trkpt lat="47.58674" lon="-2.24002">
        <ele>52.88</ele>
        <time>2019-08-26T09:38:17.000Z</time>
      </trkpt>
      <trkpt lat="47.58675" lon="-2.24003">
        <ele>53.06</ele>
        <time>2019-08-26T09:38:18.000Z</time>
      </trkpt>
      <trkpt lat="47.58677" lon="-2.24003">
        <ele>53.89</ele>
        <time>2019-08-26T09:38:19.000Z</time>
      </trkpt>
      <trkpt lat="47.58678" lon="-2.24003">
        <ele>55.73</ele>
        <time>2019-08-26T09:38:21.000Z</time>
      </trkpt>
      <trkpt lat="47.58679" lon="-2.24003">
        <ele>55.64</ele>
        <time>2019-08-26T09:38:22.000Z</time>
      </trkpt>
      <trkpt lat="47.58681" lon="-2.24004">
        <ele>53.73</ele>
        <time>2019-08-26T09:38:23.000Z</time>
      </trkpt>
      <trkpt lat="47.58683" lon="-2.24004">
        <ele>52.15</ele>
        <time>2019-08-26T09:38:24.000Z</time>
      </trkpt>
      <trkpt lat="47.58684" lon="-2.24005">
        <ele>52.78</ele>
        <time>2019-08-26T09:38:25.000Z</time>
      </trkpt>
      <trkpt lat="47.58685" lon="-2.24006">
        <ele>51.03</ele>
        <time>2019-08-26T09:38:26.000Z</time>
      </trkpt>
      <trkpt lat="47.58687" lon="-2.24006">
        <ele>52.31</ele>
        <time>2019-08-26T09:38:27.000Z</time>
      </trkpt>
      <trkpt lat="47.58688" lon="-2.24007">
        <ele>53.84</ele>
        <time>2019-08-26T09:38:28.000Z</time>
      </trkpt>
      <trkpt lat="47.5869" lon="-2.24007">
        <ele>53.81</ele>
        <time>2019-08-26T09:38:29.000Z</time>
      </trkpt>
      <trkpt lat="47.58691" lon="-2.24008">
        <ele>52.86</ele>
        <time>2019-08-26T09:38:30.000Z</time>
      </trkpt>
      <trkpt lat="47.58691" lon="-2.24009">
        <ele>52.57</ele>
        <time>2019-08-26T09:38:31.000Z</time>
      </trkpt>
      <trkpt lat="47.58693" lon="-2.2401">
        <ele>52.93</ele>
        <time>2019-08-26T09:38:32.000Z</time>
      </trkpt>
      <trkpt lat="47.58694" lon="-2.24011">
        <ele>52.16</ele>
        <time>2019-08-26T09:38:33.000Z</time>
      </trkpt>
      <trkpt lat="47.58695" lon="-2.24012">
        <ele>52.13</ele>
        <time>2019-08-26T09:38:34.000Z</time>
      </trkpt>
      <trkpt lat="47.58696" lon="-2.24012">
        <ele>52.57</ele>
        <time>2019-08-26T09:38:35.000Z</time>
      </trkpt>
      <trkpt lat="47.58698" lon="-2.24013">
        <ele>54.07</ele>
        <time>2019-08-26T09:38:36.000Z</time>
      </trkpt>
      <trkpt lat="47.58699" lon="-2.24014">
        <ele>54.84</ele>
        <time>2019-08-26T09:38:37.000Z</time>
      </trkpt>
      <trkpt lat="47.58699" lon="-2.24015">
        <ele>54.61</ele>
        <time>2019-08-26T09:38:38.000Z</time>
      </trkpt>
      <trkpt lat="47.58701" lon="-2.24016">
        <ele>77.44</ele>
        <time>2019-08-26T09:38:39.000Z</time>
      </trkpt>
      <trkpt lat="47.58703" lon="-2.24017">
        <ele>72.04</ele>
        <time>2019-08-26T09:38:40.000Z</time>
      </trkpt>
      <trkpt lat="47.58704" lon="-2.24018">
        <ele>66.59</ele>
        <time>2019-08-26T09:38:41.000Z</time>
      </trkpt>
      <trkpt lat="47.58705" lon="-2.24018">
        <ele>64.52</ele>
        <time>2019-08-26T09:38:42.000Z</time>
      </trkpt>
      <trkpt lat="47.58707" lon="-2.24019">
        <ele>62.11</ele>
        <time>2019-08-26T09:38:43.000Z</time>
      </trkpt>
      <trkpt lat="47.58708" lon="-2.2402">
        <ele>60.02</ele>
        <time>2019-08-26T09:38:44.000Z</time>
      </trkpt>
      <trkpt lat="47.58709" lon="-2.24021">
        <ele>57.94</ele>
        <time>2019-08-26T09:38:45.000Z</time>
      </trkpt>
      <trkpt lat="47.5871" lon="-2.24021">
        <ele>57.56</ele>
        <time>2019-08-26T09:38:46.000Z</time>
      </trkpt>
      <trkpt lat="47.58712" lon="-2.24022">
        <ele>57.11</ele>
        <time>2019-08-26T09:38:47.000Z</time>
      </trkpt>
      <trkpt lat="47.58713" lon="-2.24023">
        <ele>57.29</ele>
        <time>2019-08-26T09:38:48.000Z</time>
      </trkpt>
      <trkpt lat="47.58714" lon="-2.24024">
        <ele>57.77</ele>
        <time>2019-08-26T09:38:49.000Z</time>
      </trkpt>
      <trkpt lat="47.58715" lon="-2.24025">
        <ele>56.74</ele>
        <time>2019-08-26T09:38:50.000Z</time>
      </trkpt>
      <trkpt lat="47.58716" lon="-2.24026">
        <ele>57.64</ele>
        <time>2019-08-26T09:38:51.000Z</time>
      </trkpt>
      <trkpt lat="47.58717" lon="-2.24026">
        <ele>58.16</ele>
        <time>2019-08-26T09:38:52.000Z</time>
      </trkpt>
      <trkpt lat="47.58719" lon="-2.24027">
        <ele>55.99</ele>
        <time>2019-08-26T09:38:54.000Z</time>
      </trkpt>
      <trkpt lat="47.5872" lon="-2.24028">
        <ele>58.84</ele>
        <time>2019-08-26T09:38:55.000Z</time>
      </trkpt>
      <trkpt lat="47.58721" lon="-2.24029">
        <ele>58.28</ele>
        <time>2019-08-26T09:38:56.000Z</time>
      </trkpt>
      <trkpt lat="47.58722" lon="-2.2403">
        <ele>58.37</ele>
        <time>2019-08-26T09:38:57.000Z</time>
      </trkpt>
      <trkpt lat="47.58723" lon="-2.24031">
        <ele>57.52</ele>
        <time>2019-08-26T09:38:58.000Z</time>
      </trkpt>
      <trkpt lat="47.58724" lon="-2.24032">
        <ele>57.38</ele>
        <time>2019-08-26T09:38:59.000Z</time>
      </trkpt>
      <trkpt lat="47.58725" lon="-2.24033">
        <ele>56.17</ele>
        <time>2019-08-26T09:39:00.000Z</time>
      </trkpt>
      <trkpt lat="47.58726" lon="-2.24034">
        <ele>56.93</ele>
        <time>2019-08-26T09:39:01.000Z</time>
      </trkpt>
      <trkpt lat="47.58727" lon="-2.24035">
        <ele>57</ele>
        <time>2019-08-26T09:39:02.000Z</time>
      </trkpt>
      <trkpt lat="47.58728" lon="-2.24036">
        <ele>56.97</ele>
        <time>2019-08-26T09:39:03.000Z</time>
      </trkpt>
      <trkpt lat="47.58729" lon="-2.24038">
        <ele>56.1</ele>
        <time>2019-08-26T09:39:04.000Z</time>
      </trkpt>
      <trkpt lat="47.5873" lon="-2.24039">
        <ele>55.9</ele>
        <time>2019-08-26T09:39:05.000Z</time>
      </trkpt>
      <trkpt lat="47.5873" lon="-2.24041">
        <ele>56.72</ele>
        <time>2019-08-26T09:39:07.000Z</time>
      </trkpt>
      <trkpt lat="47.58732" lon="-2.24041">
        <ele>57.21</ele>
        <time>2019-08-26T09:39:09.000Z</time>
      </trkpt>
      <trkpt lat="47.58733" lon="-2.24042">
        <ele>57.2</ele>
        <time>2019-08-26T09:39:10.000Z</time>
      </trkpt>
      <trkpt lat="47.58734" lon="-2.24042">
        <ele>55.02</ele>
        <time>2019-08-26T09:39:11.000Z</time>
      </trkpt>
      <trkpt lat="47.58735" lon="-2.24042">
        <ele>55.31</ele>
        <time>2019-08-26T09:39:12.000Z</time>
      </trkpt>
      <trkpt lat="47.58736" lon="-2.24042">
        <ele>55.02</ele>
        <time>2019-08-26T09:39:13.000Z</time>
      </trkpt>
      <trkpt lat="47.58737" lon="-2.24042">
        <ele>55.08</ele>
        <time>2019-08-26T09:39:14.000Z</time>
      </trkpt>
      <trkpt lat="47.58738" lon="-2.24043">
        <ele>54.42</ele>
        <time>2019-08-26T09:39:15.000Z</time>
      </trkpt>
      <trkpt lat="47.58739" lon="-2.24043">
        <ele>53.26</ele>
        <time>2019-08-26T09:39:16.000Z</time>
      </trkpt>
      <trkpt lat="47.5874" lon="-2.24044">
        <ele>54.47</ele>
        <time>2019-08-26T09:39:17.000Z</time>
      </trkpt>
      <trkpt lat="47.58741" lon="-2.24045">
        <ele>54.5</ele>
        <time>2019-08-26T09:39:18.000Z</time>
      </trkpt>
      <trkpt lat="47.58741" lon="-2.24046">
        <ele>54.82</ele>
        <time>2019-08-26T09:39:19.000Z</time>
      </trkpt>
      <trkpt lat="47.58742" lon="-2.24048">
        <ele>54.5</ele>
        <time>2019-08-26T09:39:20.000Z</time>
      </trkpt>
      <trkpt lat="47.58743" lon="-2.24049">
        <ele>54.39</ele>
        <time>2019-08-26T09:39:21.000Z</time>
      </trkpt>
      <trkpt lat="47.58743" lon="-2.24051">
        <ele>55.18</ele>
        <time>2019-08-26T09:39:22.000Z</time>
      </trkpt>
      <trkpt lat="47.58744" lon="-2.24053">
        <ele>53.58</ele>
        <time>2019-08-26T09:39:23.000Z</time>
      </trkpt>
      <trkpt lat="47.58744" lon="-2.24054">
        <ele>54.67</ele>
        <time>2019-08-26T09:39:24.000Z</time>
      </trkpt>
      <trkpt lat="47.58745" lon="-2.24056">
        <ele>55.36</ele>
        <time>2019-08-26T09:39:25.000Z</time>
      </trkpt>
      <trkpt lat="47.58745" lon="-2.24058">
        <ele>55.58</ele>
        <time>2019-08-26T09:39:26.000Z</time>
      </trkpt>
      <trkpt lat="47.58745" lon="-2.2406">
        <ele>53.81</ele>
        <time>2019-08-26T09:39:27.000Z</time>
      </trkpt>
      <trkpt lat="47.58744" lon="-2.24062">
        <ele>53.98</ele>
        <time>2019-08-26T09:39:28.000Z</time>
      </trkpt>
      <trkpt lat="47.58744" lon="-2.24064">
        <ele>53.76</ele>
        <time>2019-08-26T09:39:29.000Z</time>
      </trkpt>
      <trkpt lat="47.58744" lon="-2.24066">
        <ele>53.81</ele>
        <time>2019-08-26T09:39:30.000Z</time>
      </trkpt>
      <trkpt lat="47.58744" lon="-2.24068">
        <ele>53.83</ele>
        <time>2019-08-26T09:39:31.000Z</time>
      </trkpt>
      <trkpt lat="47.58744" lon="-2.2407">
        <ele>54.31</ele>
        <time>2019-08-26T09:39:32.000Z</time>
      </trkpt>
      <trkpt lat="47.58745" lon="-2.24072">
        <ele>54.47</ele>
        <time>2019-08-26T09:39:33.000Z</time>
      </trkpt>
      <trkpt lat="47.58745" lon="-2.24074">
        <ele>54.71</ele>
        <time>2019-08-26T09:39:34.000Z</time>
      </trkpt>
      <trkpt lat="47.58745" lon="-2.24076">
        <ele>54.36</ele>
        <time>2019-08-26T09:39:35.000Z</time>
      </trkpt>
      <trkpt lat="47.58745" lon="-2.24077">
        <ele>54</ele>
        <time>2019-08-26T09:39:36.000Z</time>
      </trkpt>
      <trkpt lat="47.58744" lon="-2.24079">
        <ele>53.53</ele>
        <time>2019-08-26T09:39:37.000Z</time>
      </trkpt>
      <trkpt lat="47.58744" lon="-2.24081">
        <ele>53.94</ele>
        <time>2019-08-26T09:39:38.000Z</time>
      </trkpt>
      <trkpt lat="47.58744" lon="-2.24082">
        <ele>54.16</ele>
        <time>2019-08-26T09:39:39.000Z</time>
      </trkpt>
      <trkpt lat="47.58744" lon="-2.24084">
        <ele>53.99</ele>
        <time>2019-08-26T09:39:40.000Z</time>
      </trkpt>
      <trkpt lat="47.58743" lon="-2.24086">
        <ele>53.94</ele>
        <time>2019-08-26T09:39:41.000Z</time>
      </trkpt>
      <trkpt lat="47.58743" lon="-2.24087">
        <ele>54.59</ele>
        <time>2019-08-26T09:39:42.000Z</time>
      </trkpt>
      <trkpt lat="47.58743" lon="-2.24089">
        <ele>54.06</ele>
        <time>2019-08-26T09:39:43.000Z</time>
      </trkpt>
      <trkpt lat="47.58743" lon="-2.24091">
        <ele>53.4</ele>
        <time>2019-08-26T09:39:44.000Z</time>
      </trkpt>
      <trkpt lat="47.58743" lon="-2.24093">
        <ele>54.17</ele>
        <time>2019-08-26T09:39:45.000Z</time>
      </trkpt>
      <trkpt lat="47.58743" lon="-2.24095">
        <ele>54.68</ele>
        <time>2019-08-26T09:39:46.000Z</time>
      </trkpt>
      <trkpt lat="47.58743" lon="-2.24097">
        <ele>54.64</ele>
        <time>2019-08-26T09:39:47.000Z</time>
      </trkpt>
      <trkpt lat="47.58743" lon="-2.24099">
        <ele>54.84</ele>
        <time>2019-08-26T09:39:48.000Z</time>
      </trkpt>
      <trkpt lat="47.58743" lon="-2.241">
        <ele>54.88</ele>
        <time>2019-08-26T09:39:49.000Z</time>
      </trkpt>
      <trkpt lat="47.58743" lon="-2.24102">
        <ele>55.57</ele>
        <time>2019-08-26T09:39:50.000Z</time>
      </trkpt>
      <trkpt lat="47.58743" lon="-2.24104">
        <ele>56.02</ele>
        <time>2019-08-26T09:39:51.000Z</time>
      </trkpt>
      <trkpt lat="47.58743" lon="-2.24106">
        <ele>56.35</ele>
        <time>2019-08-26T09:39:52.000Z</time>
      </trkpt>
      <trkpt lat="47.58742" lon="-2.24107">
        <ele>56.43</ele>
        <time>2019-08-26T09:39:53.000Z</time>
      </trkpt>
      <trkpt lat="47.58742" lon="-2.24109">
        <ele>56.38</ele>
        <time>2019-08-26T09:39:54.000Z</time>
      </trkpt>
      <trkpt lat="47.58742" lon="-2.2411">
        <ele>56.97</ele>
        <time>2019-08-26T09:39:55.000Z</time>
      </trkpt>
      <trkpt lat="47.58742" lon="-2.24112">
        <ele>57.44</ele>
        <time>2019-08-26T09:39:56.000Z</time>
      </trkpt>
      <trkpt lat="47.58742" lon="-2.24114">
        <ele>58.16</ele>
        <time>2019-08-26T09:39:57.000Z</time>
      </trkpt>
      <trkpt lat="47.58741" lon="-2.24115">
        <ele>57.56</ele>
        <time>2019-08-26T09:39:58.000Z</time>
      </trkpt>
      <trkpt lat="47.58741" lon="-2.24117">
        <ele>57.38</ele>
        <time>2019-08-26T09:39:59.000Z</time>
      </trkpt>
      <trkpt lat="47.5874" lon="-2.2412">
        <ele>57.72</ele>
        <time>2019-08-26T09:40:00.000Z</time>
      </trkpt>
      <trkpt lat="47.5874" lon="-2.24122">
        <ele>57.85</ele>
        <time>2019-08-26T09:40:01.000Z</time>
      </trkpt>
      <trkpt lat="47.5874" lon="-2.24124">
        <ele>57.02</ele>
        <time>2019-08-26T09:40:02.000Z</time>
      </trkpt>
      <trkpt lat="47.58739" lon="-2.24125">
        <ele>57.32</ele>
        <time>2019-08-26T09:40:03.000Z</time>
      </trkpt>
      <trkpt lat="47.58739" lon="-2.24128">
        <ele>57.01</ele>
        <time>2019-08-26T09:40:05.000Z</time>
      </trkpt>
      <trkpt lat="47.58738" lon="-2.24131">
        <ele>56.88</ele>
        <time>2019-08-26T09:40:06.000Z</time>
      </trkpt>
      <trkpt lat="47.58738" lon="-2.24132">
        <ele>56.73</ele>
        <time>2019-08-26T09:40:07.000Z</time>
      </trkpt>
      <trkpt lat="47.58738" lon="-2.24134">
        <ele>56.85</ele>
        <time>2019-08-26T09:40:08.000Z</time>
      </trkpt>
      <trkpt lat="47.58737" lon="-2.24136">
        <ele>56.73</ele>
        <time>2019-08-26T09:40:09.000Z</time>
      </trkpt>
      <trkpt lat="47.58737" lon="-2.24137">
        <ele>57.05</ele>
        <time>2019-08-26T09:40:10.000Z</time>
      </trkpt>
      <trkpt lat="47.58737" lon="-2.24139">
        <ele>57.2</ele>
        <time>2019-08-26T09:40:11.000Z</time>
      </trkpt>
      <trkpt lat="47.58737" lon="-2.24141">
        <ele>57.86</ele>
        <time>2019-08-26T09:40:13.000Z</time>
      </trkpt>
      <trkpt lat="47.58737" lon="-2.24143">
        <ele>57.74</ele>
        <time>2019-08-26T09:40:14.000Z</time>
      </trkpt>
      <trkpt lat="47.58736" lon="-2.24144">
        <ele>57.75</ele>
        <time>2019-08-26T09:40:15.000Z</time>
      </trkpt>
      <trkpt lat="47.58736" lon="-2.24146">
        <ele>58.78</ele>
        <time>2019-08-26T09:40:17.000Z</time>
      </trkpt>
      <trkpt lat="47.58735" lon="-2.24148">
        <ele>59.34</ele>
        <time>2019-08-26T09:40:18.000Z</time>
      </trkpt>
      <trkpt lat="47.58735" lon="-2.2415">
        <ele>59.75</ele>
        <time>2019-08-26T09:40:19.000Z</time>
      </trkpt>
      <trkpt lat="47.58735" lon="-2.24152">
        <ele>60.02</ele>
        <time>2019-08-26T09:40:20.000Z</time>
      </trkpt>
      <trkpt lat="47.58735" lon="-2.24154">
        <ele>59.9</ele>
        <time>2019-08-26T09:40:21.000Z</time>
      </trkpt>
      <trkpt lat="47.58735" lon="-2.24156">
        <ele>59.95</ele>
        <time>2019-08-26T09:40:22.000Z</time>
      </trkpt>
      <trkpt lat="47.58735" lon="-2.24157">
        <ele>60.29</ele>
        <time>2019-08-26T09:40:23.000Z</time>
      </trkpt>
      <trkpt lat="47.58735" lon="-2.24159">
        <ele>60.64</ele>
        <time>2019-08-26T09:40:24.000Z</time>
      </trkpt>
      <trkpt lat="47.58735" lon="-2.2416">
        <ele>60.57</ele>
        <time>2019-08-26T09:40:25.000Z</time>
      </trkpt>
      <trkpt lat="47.58735" lon="-2.24162">
        <ele>60.65</ele>
        <time>2019-08-26T09:40:26.000Z</time>
      </trkpt>
      <trkpt lat="47.58735" lon="-2.24164">
        <ele>60.98</ele>
        <time>2019-08-26T09:40:27.000Z</time>
      </trkpt>
      <trkpt lat="47.58735" lon="-2.24166">
        <ele>61.84</ele>
        <time>2019-08-26T09:40:28.000Z</time>
      </trkpt>
      <trkpt lat="47.58735" lon="-2.24167">
        <ele>61.36</ele>
        <time>2019-08-26T09:40:29.000Z</time>
      </trkpt>
      <trkpt lat="47.58735" lon="-2.24169">
        <ele>61.11</ele>
        <time>2019-08-26T09:40:30.000Z</time>
      </trkpt>
      <trkpt lat="47.58736" lon="-2.2417">
        <ele>61.51</ele>
        <time>2019-08-26T09:40:31.000Z</time>
      </trkpt>
      <trkpt lat="47.58736" lon="-2.24171">
        <ele>61.5</ele>
        <time>2019-08-26T09:40:32.000Z</time>
      </trkpt>
      <trkpt lat="47.58738" lon="-2.24172">
        <ele>61.58</ele>
        <time>2019-08-26T09:40:33.000Z</time>
      </trkpt>
      <trkpt lat="47.58738" lon="-2.24173">
        <ele>61.82</ele>
        <time>2019-08-26T09:40:34.000Z</time>
      </trkpt>
      <trkpt lat="47.5874" lon="-2.24174">
        <ele>62.37</ele>
        <time>2019-08-26T09:40:35.000Z</time>
      </trkpt>
      <trkpt lat="47.58741" lon="-2.24175">
        <ele>62.63</ele>
        <time>2019-08-26T09:40:36.000Z</time>
      </trkpt>
      <trkpt lat="47.58742" lon="-2.24175">
        <ele>63.47</ele>
        <time>2019-08-26T09:40:37.000Z</time>
      </trkpt>
      <trkpt lat="47.58743" lon="-2.24175">
        <ele>63.31</ele>
        <time>2019-08-26T09:40:38.000Z</time>
      </trkpt>
      <trkpt lat="47.58744" lon="-2.24175">
        <ele>64.04</ele>
        <time>2019-08-26T09:40:39.000Z</time>
      </trkpt>
      <trkpt lat="47.58746" lon="-2.24175">
        <ele>63.81</ele>
        <time>2019-08-26T09:40:40.000Z</time>
      </trkpt>
      <trkpt lat="47.58747" lon="-2.24174">
        <ele>64.02</ele>
        <time>2019-08-26T09:40:41.000Z</time>
      </trkpt>
      <trkpt lat="47.58748" lon="-2.24174">
        <ele>64.22</ele>
        <time>2019-08-26T09:40:42.000Z</time>
      </trkpt>
      <trkpt lat="47.58749" lon="-2.24174">
        <ele>64.36</ele>
        <time>2019-08-26T09:40:43.000Z</time>
      </trkpt>
      <trkpt lat="47.58751" lon="-2.24173">
        <ele>64.92</ele>
        <time>2019-08-26T09:40:45.000Z</time>
      </trkpt>
      <trkpt lat="47.58752" lon="-2.24173">
        <ele>65.06</ele>
        <time>2019-08-26T09:40:46.000Z</time>
      </trkpt>
      <trkpt lat="47.58753" lon="-2.24173">
        <ele>64.66</ele>
        <time>2019-08-26T09:40:47.000Z</time>
      </trkpt>
      <trkpt lat="47.58754" lon="-2.24172">
        <ele>63.29</ele>
        <time>2019-08-26T09:40:48.000Z</time>
      </trkpt>
      <trkpt lat="47.58755" lon="-2.24172">
        <ele>63.2</ele>
        <time>2019-08-26T09:40:49.000Z</time>
      </trkpt>
      <trkpt lat="47.58756" lon="-2.24172">
        <ele>62.94</ele>
        <time>2019-08-26T09:40:50.000Z</time>
      </trkpt>
      <trkpt lat="47.58757" lon="-2.24171">
        <ele>63.3</ele>
        <time>2019-08-26T09:40:51.000Z</time>
      </trkpt>
      <trkpt lat="47.58759" lon="-2.24171">
        <ele>63.63</ele>
        <time>2019-08-26T09:40:52.000Z</time>
      </trkpt>
      <trkpt lat="47.5876" lon="-2.24171">
        <ele>63.82</ele>
        <time>2019-08-26T09:40:53.000Z</time>
      </trkpt>
      <trkpt lat="47.58761" lon="-2.24171">
        <ele>63.87</ele>
        <time>2019-08-26T09:40:54.000Z</time>
      </trkpt>
      <trkpt lat="47.58762" lon="-2.24171">
        <ele>64.69</ele>
        <time>2019-08-26T09:40:55.000Z</time>
      </trkpt>
      <trkpt lat="47.58764" lon="-2.24171">
        <ele>64.55</ele>
        <time>2019-08-26T09:40:56.000Z</time>
      </trkpt>
      <trkpt lat="47.58765" lon="-2.24171">
        <ele>64.84</ele>
        <time>2019-08-26T09:40:57.000Z</time>
      </trkpt>
      <trkpt lat="47.58766" lon="-2.2417">
        <ele>64.72</ele>
        <time>2019-08-26T09:40:58.000Z</time>
      </trkpt>
      <trkpt lat="47.58767" lon="-2.2417">
        <ele>64.33</ele>
        <time>2019-08-26T09:40:59.000Z</time>
      </trkpt>
      <trkpt lat="47.58768" lon="-2.24171">
        <ele>63.97</ele>
        <time>2019-08-26T09:41:00.000Z</time>
      </trkpt>
      <trkpt lat="47.58769" lon="-2.2417">
        <ele>63.37</ele>
        <time>2019-08-26T09:41:01.000Z</time>
      </trkpt>
      <trkpt lat="47.5877" lon="-2.24171">
        <ele>61.42</ele>
        <time>2019-08-26T09:41:03.000Z</time>
      </trkpt>
      <trkpt lat="47.58772" lon="-2.2417">
        <ele>61.34</ele>
        <time>2019-08-26T09:41:05.000Z</time>
      </trkpt>
      <trkpt lat="47.58773" lon="-2.2417">
        <ele>61.16</ele>
        <time>2019-08-26T09:41:06.000Z</time>
      </trkpt>
      <trkpt lat="47.58774" lon="-2.2417">
        <ele>60.43</ele>
        <time>2019-08-26T09:41:07.000Z</time>
      </trkpt>
      <trkpt lat="47.58776" lon="-2.2417">
        <ele>60.77</ele>
        <time>2019-08-26T09:41:08.000Z</time>
      </trkpt>
      <trkpt lat="47.58777" lon="-2.24169">
        <ele>61.36</ele>
        <time>2019-08-26T09:41:09.000Z</time>
      </trkpt>
      <trkpt lat="47.58778" lon="-2.24169">
        <ele>61.47</ele>
        <time>2019-08-26T09:41:10.000Z</time>
      </trkpt>
      <trkpt lat="47.5878" lon="-2.24169">
        <ele>61.59</ele>
        <time>2019-08-26T09:41:11.000Z</time>
      </trkpt>
      <trkpt lat="47.58781" lon="-2.24168">
        <ele>61.26</ele>
        <time>2019-08-26T09:41:12.000Z</time>
      </trkpt>
      <trkpt lat="47.58783" lon="-2.24168">
        <ele>61.37</ele>
        <time>2019-08-26T09:41:13.000Z</time>
      </trkpt>
      <trkpt lat="47.58784" lon="-2.24168">
        <ele>62.02</ele>
        <time>2019-08-26T09:41:14.000Z</time>
      </trkpt>
      <trkpt lat="47.58786" lon="-2.24166">
        <ele>60.99</ele>
        <time>2019-08-26T09:41:16.000Z</time>
      </trkpt>
      <trkpt lat="47.58787" lon="-2.24166">
        <ele>61.65</ele>
        <time>2019-08-26T09:41:17.000Z</time>
      </trkpt>
      <trkpt lat="47.58788" lon="-2.24165">
        <ele>61.72</ele>
        <time>2019-08-26T09:41:18.000Z</time>
      </trkpt>
      <trkpt lat="47.58789" lon="-2.24165">
        <ele>62.08</ele>
        <time>2019-08-26T09:41:19.000Z</time>
      </trkpt>
      <trkpt lat="47.58791" lon="-2.24164">
        <ele>62.17</ele>
        <time>2019-08-26T09:41:20.000Z</time>
      </trkpt>
      <trkpt lat="47.58793" lon="-2.24164">
        <ele>61.96</ele>
        <time>2019-08-26T09:41:21.000Z</time>
      </trkpt>
      <trkpt lat="47.58794" lon="-2.24164">
        <ele>61.41</ele>
        <time>2019-08-26T09:41:22.000Z</time>
      </trkpt>
      <trkpt lat="47.58796" lon="-2.24164">
        <ele>61.68</ele>
        <time>2019-08-26T09:41:23.000Z</time>
      </trkpt>
      <trkpt lat="47.58797" lon="-2.24164">
        <ele>61.77</ele>
        <time>2019-08-26T09:41:24.000Z</time>
      </trkpt>
      <trkpt lat="47.58798" lon="-2.24164">
        <ele>62.75</ele>
        <time>2019-08-26T09:41:25.000Z</time>
      </trkpt>
      <trkpt lat="47.58799" lon="-2.24164">
        <ele>62.88</ele>
        <time>2019-08-26T09:41:26.000Z</time>
      </trkpt>
      <trkpt lat="47.588" lon="-2.24164">
        <ele>62.42</ele>
        <time>2019-08-26T09:41:27.000Z</time>
      </trkpt>
      <trkpt lat="47.58801" lon="-2.24163">
        <ele>62.12</ele>
        <time>2019-08-26T09:41:28.000Z</time>
      </trkpt>
      <trkpt lat="47.58802" lon="-2.24163">
        <ele>60.97</ele>
        <time>2019-08-26T09:41:29.000Z</time>
      </trkpt>
      <trkpt lat="47.58803" lon="-2.24163">
        <ele>60.21</ele>
        <time>2019-08-26T09:41:30.000Z</time>
      </trkpt>
      <trkpt lat="47.58804" lon="-2.24163">
        <ele>59.61</ele>
        <time>2019-08-26T09:41:31.000Z</time>
      </trkpt>
      <trkpt lat="47.58805" lon="-2.24163">
        <ele>59.58</ele>
        <time>2019-08-26T09:41:32.000Z</time>
      </trkpt>
      <trkpt lat="47.58806" lon="-2.24162">
        <ele>58.71</ele>
        <time>2019-08-26T09:41:33.000Z</time>
      </trkpt>
      <trkpt lat="47.58807" lon="-2.24162">
        <ele>58.47</ele>
        <time>2019-08-26T09:41:35.000Z</time>
      </trkpt>
      <trkpt lat="47.58809" lon="-2.24162">
        <ele>58.67</ele>
        <time>2019-08-26T09:41:36.000Z</time>
      </trkpt>
      <trkpt lat="47.5881" lon="-2.24162">
        <ele>57.86</ele>
        <time>2019-08-26T09:41:37.000Z</time>
      </trkpt>
      <trkpt lat="47.58812" lon="-2.24161">
        <ele>57.5</ele>
        <time>2019-08-26T09:41:39.000Z</time>
      </trkpt>
      <trkpt lat="47.58813" lon="-2.24161">
        <ele>58.23</ele>
        <time>2019-08-26T09:41:40.000Z</time>
      </trkpt>
      <trkpt lat="47.58815" lon="-2.2416">
        <ele>58.19</ele>
        <time>2019-08-26T09:41:41.000Z</time>
      </trkpt>
      <trkpt lat="47.58816" lon="-2.2416">
        <ele>58.46</ele>
        <time>2019-08-26T09:41:42.000Z</time>
      </trkpt>
      <trkpt lat="47.58817" lon="-2.24159">
        <ele>57.97</ele>
        <time>2019-08-26T09:41:43.000Z</time>
      </trkpt>
      <trkpt lat="47.58818" lon="-2.24159">
        <ele>58</ele>
        <time>2019-08-26T09:41:44.000Z</time>
      </trkpt>
      <trkpt lat="47.58819" lon="-2.24158">
        <ele>57.99</ele>
        <time>2019-08-26T09:41:45.000Z</time>
      </trkpt>
      <trkpt lat="47.5882" lon="-2.24158">
        <ele>58.33</ele>
        <time>2019-08-26T09:41:46.000Z</time>
      </trkpt>
      <trkpt lat="47.58822" lon="-2.24157">
        <ele>57.7</ele>
        <time>2019-08-26T09:41:47.000Z</time>
      </trkpt>
      <trkpt lat="47.58823" lon="-2.24157">
        <ele>57.41</ele>
        <time>2019-08-26T09:41:48.000Z</time>
      </trkpt>
      <trkpt lat="47.58824" lon="-2.24156">
        <ele>57.27</ele>
        <time>2019-08-26T09:41:49.000Z</time>
      </trkpt>
      <trkpt lat="47.58825" lon="-2.24156">
        <ele>56.97</ele>
        <time>2019-08-26T09:41:50.000Z</time>
      </trkpt>
      <trkpt lat="47.58826" lon="-2.24155">
        <ele>57.85</ele>
        <time>2019-08-26T09:41:52.000Z</time>
      </trkpt>
      <trkpt lat="47.58827" lon="-2.24155">
        <ele>57.16</ele>
        <time>2019-08-26T09:41:53.000Z</time>
      </trkpt>
      <trkpt lat="47.58828" lon="-2.24155">
        <ele>57.42</ele>
        <time>2019-08-26T09:41:54.000Z</time>
      </trkpt>
      <trkpt lat="47.5883" lon="-2.24154">
        <ele>58.14</ele>
        <time>2019-08-26T09:41:55.000Z</time>
      </trkpt>
      <trkpt lat="47.58831" lon="-2.24154">
        <ele>58.62</ele>
        <time>2019-08-26T09:41:56.000Z</time>
      </trkpt>
      <trkpt lat="47.58831" lon="-2.24154">
        <ele>57.7</ele>
        <time>2019-08-26T09:41:57.000Z</time>
      </trkpt>
      <trkpt lat="47.58833" lon="-2.24153">
        <ele>57.01</ele>
        <time>2019-08-26T09:41:58.000Z</time>
      </trkpt>
      <trkpt lat="47.58834" lon="-2.24153">
        <ele>56.93</ele>
        <time>2019-08-26T09:41:59.000Z</time>
      </trkpt>
      <trkpt lat="47.58835" lon="-2.24152">
        <ele>57.43</ele>
        <time>2019-08-26T09:42:00.000Z</time>
      </trkpt>
      <trkpt lat="47.58837" lon="-2.24152">
        <ele>57.61</ele>
        <time>2019-08-26T09:42:02.000Z</time>
      </trkpt>
      <trkpt lat="47.58838" lon="-2.24151">
        <ele>56.84</ele>
        <time>2019-08-26T09:42:03.000Z</time>
      </trkpt>
      <trkpt lat="47.58839" lon="-2.24151">
        <ele>56.42</ele>
        <time>2019-08-26T09:42:04.000Z</time>
      </trkpt>
      <trkpt lat="47.58841" lon="-2.24151">
        <ele>56.93</ele>
        <time>2019-08-26T09:42:05.000Z</time>
      </trkpt>
      <trkpt lat="47.58843" lon="-2.2415">
        <ele>55.78</ele>
        <time>2019-08-26T09:42:06.000Z</time>
      </trkpt>
      <trkpt lat="47.58844" lon="-2.2415">
        <ele>55.79</ele>
        <time>2019-08-26T09:42:07.000Z</time>
      </trkpt>
      <trkpt lat="47.58845" lon="-2.24149">
        <ele>55.78</ele>
        <time>2019-08-26T09:42:08.000Z</time>
      </trkpt>
      <trkpt lat="47.58847" lon="-2.24149">
        <ele>54.86</ele>
        <time>2019-08-26T09:42:09.000Z</time>
      </trkpt>
      <trkpt lat="47.58848" lon="-2.24148">
        <ele>54.29</ele>
        <time>2019-08-26T09:42:10.000Z</time>
      </trkpt>
      <trkpt lat="47.58849" lon="-2.24148">
        <ele>54.88</ele>
        <time>2019-08-26T09:42:11.000Z</time>
      </trkpt>
      <trkpt lat="47.58851" lon="-2.24148">
        <ele>54.68</ele>
        <time>2019-08-26T09:42:12.000Z</time>
      </trkpt>
      <trkpt lat="47.58851" lon="-2.24147">
        <ele>55.27</ele>
        <time>2019-08-26T09:42:13.000Z</time>
      </trkpt>
      <trkpt lat="47.58852" lon="-2.24147">
        <ele>54.85</ele>
        <time>2019-08-26T09:42:14.000Z</time>
      </trkpt>
      <trkpt lat="47.58854" lon="-2.24147">
        <ele>55.12</ele>
        <time>2019-08-26T09:42:15.000Z</time>
      </trkpt>
      <trkpt lat="47.58855" lon="-2.24146">
        <ele>54.66</ele>
        <time>2019-08-26T09:42:16.000Z</time>
      </trkpt>
      <trkpt lat="47.58857" lon="-2.24145">
        <ele>55.23</ele>
        <time>2019-08-26T09:42:17.000Z</time>
      </trkpt>
      <trkpt lat="47.58858" lon="-2.24145">
        <ele>55.72</ele>
        <time>2019-08-26T09:42:18.000Z</time>
      </trkpt>
      <trkpt lat="47.58859" lon="-2.24145">
        <ele>55.65</ele>
        <time>2019-08-26T09:42:19.000Z</time>
      </trkpt>
      <trkpt lat="47.58861" lon="-2.24144">
        <ele>56.55</ele>
        <time>2019-08-26T09:42:20.000Z</time>
      </trkpt>
      <trkpt lat="47.58863" lon="-2.24143">
        <ele>56.27</ele>
        <time>2019-08-26T09:42:21.000Z</time>
      </trkpt>
      <trkpt lat="47.58865" lon="-2.24142">
        <ele>56.73</ele>
        <time>2019-08-26T09:42:22.000Z</time>
      </trkpt>
      <trkpt lat="47.58866" lon="-2.24141">
        <ele>57.08</ele>
        <time>2019-08-26T09:42:23.000Z</time>
      </trkpt>
      <trkpt lat="47.58868" lon="-2.2414">
        <ele>57.95</ele>
        <time>2019-08-26T09:42:24.000Z</time>
      </trkpt>
      <trkpt lat="47.58869" lon="-2.2414">
        <ele>56.67</ele>
        <time>2019-08-26T09:42:25.000Z</time>
      </trkpt>
      <trkpt lat="47.58871" lon="-2.24139">
        <ele>57.38</ele>
        <time>2019-08-26T09:42:26.000Z</time>
      </trkpt>
      <trkpt lat="47.58873" lon="-2.24139">
        <ele>57.49</ele>
        <time>2019-08-26T09:42:27.000Z</time>
      </trkpt>
      <trkpt lat="47.58874" lon="-2.24138">
        <ele>58.26</ele>
        <time>2019-08-26T09:42:28.000Z</time>
      </trkpt>
      <trkpt lat="47.58875" lon="-2.24138">
        <ele>58.05</ele>
        <time>2019-08-26T09:42:29.000Z</time>
      </trkpt>
      <trkpt lat="47.58876" lon="-2.24137">
        <ele>57.82</ele>
        <time>2019-08-26T09:42:30.000Z</time>
      </trkpt>
      <trkpt lat="47.58878" lon="-2.24137">
        <ele>57.26</ele>
        <time>2019-08-26T09:42:31.000Z</time>
      </trkpt>
      <trkpt lat="47.58878" lon="-2.24136">
        <ele>56.32</ele>
        <time>2019-08-26T09:42:32.000Z</time>
      </trkpt>
      <trkpt lat="47.5888" lon="-2.24136">
        <ele>55.61</ele>
        <time>2019-08-26T09:42:33.000Z</time>
      </trkpt>
      <trkpt lat="47.58881" lon="-2.24136">
        <ele>53.91</ele>
        <time>2019-08-26T09:42:34.000Z</time>
      </trkpt>
      <trkpt lat="47.58882" lon="-2.24135">
        <ele>54.14</ele>
        <time>2019-08-26T09:42:35.000Z</time>
      </trkpt>
      <trkpt lat="47.58883" lon="-2.24135">
        <ele>55.2</ele>
        <time>2019-08-26T09:42:36.000Z</time>
      </trkpt>
      <trkpt lat="47.58884" lon="-2.24135">
        <ele>56.44</ele>
        <time>2019-08-26T09:42:37.000Z</time>
      </trkpt>
      <trkpt lat="47.58886" lon="-2.24134">
        <ele>55.53</ele>
        <time>2019-08-26T09:42:38.000Z</time>
      </trkpt>
      <trkpt lat="47.58887" lon="-2.24134">
        <ele>55.74</ele>
        <time>2019-08-26T09:42:39.000Z</time>
      </trkpt>
      <trkpt lat="47.58889" lon="-2.24133">
        <ele>56.35</ele>
        <time>2019-08-26T09:42:40.000Z</time>
      </trkpt>
      <trkpt lat="47.5889" lon="-2.24132">
        <ele>57.22</ele>
        <time>2019-08-26T09:42:41.000Z</time>
      </trkpt>
      <trkpt lat="47.58891" lon="-2.24132">
        <ele>57.01</ele>
        <time>2019-08-26T09:42:42.000Z</time>
      </trkpt>
      <trkpt lat="47.58892" lon="-2.24132">
        <ele>56.62</ele>
        <time>2019-08-26T09:42:43.000Z</time>
      </trkpt>
      <trkpt lat="47.58894" lon="-2.24132">
        <ele>57.12</ele>
        <time>2019-08-26T09:42:44.000Z</time>
      </trkpt>
      <trkpt lat="47.58895" lon="-2.24132">
        <ele>57.21</ele>
        <time>2019-08-26T09:42:45.000Z</time>
      </trkpt>
      <trkpt lat="47.58896" lon="-2.24131">
        <ele>56.38</ele>
        <time>2019-08-26T09:42:46.000Z</time>
      </trkpt>
      <trkpt lat="47.58897" lon="-2.24131">
        <ele>56.15</ele>
        <time>2019-08-26T09:42:47.000Z</time>
      </trkpt>
      <trkpt lat="47.58899" lon="-2.2413">
        <ele>55.6</ele>
        <time>2019-08-26T09:42:48.000Z</time>
      </trkpt>
      <trkpt lat="47.589" lon="-2.2413">
        <ele>53.92</ele>
        <time>2019-08-26T09:42:49.000Z</time>
      </trkpt>
      <trkpt lat="47.58901" lon="-2.2413">
        <ele>53.99</ele>
        <time>2019-08-26T09:42:50.000Z</time>
      </trkpt>
      <trkpt lat="47.58902" lon="-2.24129">
        <ele>54.45</ele>
        <time>2019-08-26T09:42:51.000Z</time>
      </trkpt>
      <trkpt lat="47.58904" lon="-2.24129">
        <ele>54.6</ele>
        <time>2019-08-26T09:42:52.000Z</time>
      </trkpt>
      <trkpt lat="47.58905" lon="-2.24128">
        <ele>54.32</ele>
        <time>2019-08-26T09:42:53.000Z</time>
      </trkpt>
      <trkpt lat="47.58906" lon="-2.24127">
        <ele>53.57</ele>
        <time>2019-08-26T09:42:54.000Z</time>
      </trkpt>
      <trkpt lat="47.58907" lon="-2.24127">
        <ele>54.46</ele>
        <time>2019-08-26T09:42:55.000Z</time>
      </trkpt>
      <trkpt lat="47.58908" lon="-2.24126">
        <ele>55.14</ele>
        <time>2019-08-26T09:42:56.000Z</time>
      </trkpt>
      <trkpt lat="47.58909" lon="-2.24125">
        <ele>55.03</ele>
        <time>2019-08-26T09:42:57.000Z</time>
      </trkpt>
      <trkpt lat="47.5891" lon="-2.24125">
        <ele>54.61</ele>
        <time>2019-08-26T09:42:58.000Z</time>
      </trkpt>
      <trkpt lat="47.58911" lon="-2.24124">
        <ele>53.26</ele>
        <time>2019-08-26T09:42:59.000Z</time>
      </trkpt>
      <trkpt lat="47.58912" lon="-2.24123">
        <ele>52.92</ele>
        <time>2019-08-26T09:43:00.000Z</time>
      </trkpt>
      <trkpt lat="47.58914" lon="-2.24122">
        <ele>53.1</ele>
        <time>2019-08-26T09:43:01.000Z</time>
      </trkpt>
      <trkpt lat="47.58915" lon="-2.24121">
        <ele>52.96</ele>
        <time>2019-08-26T09:43:02.000Z</time>
      </trkpt>
      <trkpt lat="47.58916" lon="-2.2412">
        <ele>53.32</ele>
        <time>2019-08-26T09:43:03.000Z</time>
      </trkpt>
      <trkpt lat="47.58917" lon="-2.2412">
        <ele>53.79</ele>
        <time>2019-08-26T09:43:04.000Z</time>
      </trkpt>
      <trkpt lat="47.58918" lon="-2.24119">
        <ele>53.77</ele>
        <time>2019-08-26T09:43:05.000Z</time>
      </trkpt>
      <trkpt lat="47.58919" lon="-2.24118">
        <ele>53.46</ele>
        <time>2019-08-26T09:43:06.000Z</time>
      </trkpt>
      <trkpt lat="47.5892" lon="-2.24118">
        <ele>53.46</ele>
        <time>2019-08-26T09:43:07.000Z</time>
      </trkpt>
      <trkpt lat="47.58921" lon="-2.24117">
        <ele>53.86</ele>
        <time>2019-08-26T09:43:08.000Z</time>
      </trkpt>
      <trkpt lat="47.58923" lon="-2.24116">
        <ele>53.5</ele>
        <time>2019-08-26T09:43:09.000Z</time>
      </trkpt>
      <trkpt lat="47.58924" lon="-2.24116">
        <ele>53.74</ele>
        <time>2019-08-26T09:43:10.000Z</time>
      </trkpt>
      <trkpt lat="47.58925" lon="-2.24115">
        <ele>53.62</ele>
        <time>2019-08-26T09:43:11.000Z</time>
      </trkpt>
      <trkpt lat="47.58926" lon="-2.24115">
        <ele>53.32</ele>
        <time>2019-08-26T09:43:12.000Z</time>
      </trkpt>
      <trkpt lat="47.58927" lon="-2.24115">
        <ele>53.13</ele>
        <time>2019-08-26T09:43:13.000Z</time>
      </trkpt>
      <trkpt lat="47.58929" lon="-2.24115">
        <ele>53.81</ele>
        <time>2019-08-26T09:43:14.000Z</time>
      </trkpt>
      <trkpt lat="47.5893" lon="-2.24115">
        <ele>54.08</ele>
        <time>2019-08-26T09:43:15.000Z</time>
      </trkpt>
      <trkpt lat="47.58931" lon="-2.24115">
        <ele>53.83</ele>
        <time>2019-08-26T09:43:16.000Z</time>
      </trkpt>
      <trkpt lat="47.58931" lon="-2.24116">
        <ele>54.24</ele>
        <time>2019-08-26T09:43:17.000Z</time>
      </trkpt>
      <trkpt lat="47.58933" lon="-2.24117">
        <ele>54.29</ele>
        <time>2019-08-26T09:43:18.000Z</time>
      </trkpt>
      <trkpt lat="47.58934" lon="-2.24118">
        <ele>54.7</ele>
        <time>2019-08-26T09:43:19.000Z</time>
      </trkpt>
      <trkpt lat="47.58935" lon="-2.24119">
        <ele>55.04</ele>
        <time>2019-08-26T09:43:20.000Z</time>
      </trkpt>
      <trkpt lat="47.58936" lon="-2.2412">
        <ele>55.12</ele>
        <time>2019-08-26T09:43:21.000Z</time>
      </trkpt>
      <trkpt lat="47.58936" lon="-2.24122">
        <ele>55.05</ele>
        <time>2019-08-26T09:43:22.000Z</time>
      </trkpt>
      <trkpt lat="47.58937" lon="-2.24123">
        <ele>55.04</ele>
        <time>2019-08-26T09:43:23.000Z</time>
      </trkpt>
      <trkpt lat="47.58938" lon="-2.24125">
        <ele>54.53</ele>
        <time>2019-08-26T09:43:24.000Z</time>
      </trkpt>
      <trkpt lat="47.58939" lon="-2.24126">
        <ele>54.18</ele>
        <time>2019-08-26T09:43:25.000Z</time>
      </trkpt>
      <trkpt lat="47.5894" lon="-2.24128">
        <ele>53.98</ele>
        <time>2019-08-26T09:43:26.000Z</time>
      </trkpt>
      <trkpt lat="47.5894" lon="-2.24129">
        <ele>53.74</ele>
        <time>2019-08-26T09:43:27.000Z</time>
      </trkpt>
      <trkpt lat="47.58941" lon="-2.24131">
        <ele>53.44</ele>
        <time>2019-08-26T09:43:28.000Z</time>
      </trkpt>
      <trkpt lat="47.58941" lon="-2.24132">
        <ele>53.7</ele>
        <time>2019-08-26T09:43:29.000Z</time>
      </trkpt>
      <trkpt lat="47.58942" lon="-2.24134">
        <ele>53.41</ele>
        <time>2019-08-26T09:43:30.000Z</time>
      </trkpt>
      <trkpt lat="47.58942" lon="-2.24136">
        <ele>53.3</ele>
        <time>2019-08-26T09:43:31.000Z</time>
      </trkpt>
      <trkpt lat="47.58943" lon="-2.24137">
        <ele>52.96</ele>
        <time>2019-08-26T09:43:32.000Z</time>
      </trkpt>
      <trkpt lat="47.58944" lon="-2.24139">
        <ele>53.31</ele>
        <time>2019-08-26T09:43:33.000Z</time>
      </trkpt>
      <trkpt lat="47.58944" lon="-2.2414">
        <ele>53.28</ele>
        <time>2019-08-26T09:43:34.000Z</time>
      </trkpt>
      <trkpt lat="47.58945" lon="-2.24142">
        <ele>52.43</ele>
        <time>2019-08-26T09:43:35.000Z</time>
      </trkpt>
      <trkpt lat="47.58946" lon="-2.24143">
        <ele>52.12</ele>
        <time>2019-08-26T09:43:36.000Z</time>
      </trkpt>
      <trkpt lat="47.58946" lon="-2.24145">
        <ele>52.73</ele>
        <time>2019-08-26T09:43:37.000Z</time>
      </trkpt>
      <trkpt lat="47.58947" lon="-2.24146">
        <ele>53.18</ele>
        <time>2019-08-26T09:43:38.000Z</time>
      </trkpt>
      <trkpt lat="47.58947" lon="-2.24148">
        <ele>52.94</ele>
        <time>2019-08-26T09:43:39.000Z</time>
      </trkpt>
      <trkpt lat="47.58947" lon="-2.24149">
        <ele>53.6</ele>
        <time>2019-08-26T09:43:40.000Z</time>
      </trkpt>
      <trkpt lat="47.58948" lon="-2.24151">
        <ele>53.55</ele>
        <time>2019-08-26T09:43:41.000Z</time>
      </trkpt>
      <trkpt lat="47.58949" lon="-2.24152">
        <ele>54.05</ele>
        <time>2019-08-26T09:43:42.000Z</time>
      </trkpt>
      <trkpt lat="47.58949" lon="-2.24154">
        <ele>53.7</ele>
        <time>2019-08-26T09:43:43.000Z</time>
      </trkpt>
      <trkpt lat="47.5895" lon="-2.24155">
        <ele>53.57</ele>
        <time>2019-08-26T09:43:44.000Z</time>
      </trkpt>
      <trkpt lat="47.5895" lon="-2.24157">
        <ele>54</ele>
        <time>2019-08-26T09:43:45.000Z</time>
      </trkpt>
      <trkpt lat="47.5895" lon="-2.24159">
        <ele>53.49</ele>
        <time>2019-08-26T09:43:46.000Z</time>
      </trkpt>
      <trkpt lat="47.58951" lon="-2.24161">
        <ele>53.56</ele>
        <time>2019-08-26T09:43:47.000Z</time>
      </trkpt>
      <trkpt lat="47.58952" lon="-2.24162">
        <ele>52.72</ele>
        <time>2019-08-26T09:43:48.000Z</time>
      </trkpt>
      <trkpt lat="47.58952" lon="-2.24163">
        <ele>52.42</ele>
        <time>2019-08-26T09:43:49.000Z</time>
      </trkpt>
      <trkpt lat="47.58953" lon="-2.24165">
        <ele>52.32</ele>
        <time>2019-08-26T09:43:50.000Z</time>
      </trkpt>
      <trkpt lat="47.58954" lon="-2.24166">
        <ele>51.77</ele>
        <time>2019-08-26T09:43:51.000Z</time>
      </trkpt>
      <trkpt lat="47.58955" lon="-2.24168">
        <ele>52.26</ele>
        <time>2019-08-26T09:43:52.000Z</time>
      </trkpt>
      <trkpt lat="47.58955" lon="-2.24169">
        <ele>52.51</ele>
        <time>2019-08-26T09:43:53.000Z</time>
      </trkpt>
      <trkpt lat="47.58956" lon="-2.24171">
        <ele>52.73</ele>
        <time>2019-08-26T09:43:54.000Z</time>
      </trkpt>
      <trkpt lat="47.58957" lon="-2.24172">
        <ele>52.81</ele>
        <time>2019-08-26T09:43:55.000Z</time>
      </trkpt>
      <trkpt lat="47.58958" lon="-2.24174">
        <ele>53</ele>
        <time>2019-08-26T09:43:56.000Z</time>
      </trkpt>
      <trkpt lat="47.58958" lon="-2.24175">
        <ele>53.12</ele>
        <time>2019-08-26T09:43:57.000Z</time>
      </trkpt>
      <trkpt lat="47.58959" lon="-2.24177">
        <ele>52.71</ele>
        <time>2019-08-26T09:43:58.000Z</time>
      </trkpt>
      <trkpt lat="47.5896" lon="-2.24178">
        <ele>53.02</ele>
        <time>2019-08-26T09:43:59.000Z</time>
      </trkpt>
      <trkpt lat="47.58961" lon="-2.2418">
        <ele>53.03</ele>
        <time>2019-08-26T09:44:00.000Z</time>
      </trkpt>
      <trkpt lat="47.58962" lon="-2.24181">
        <ele>52.75</ele>
        <time>2019-08-26T09:44:01.000Z</time>
      </trkpt>
      <trkpt lat="47.58962" lon="-2.24182">
        <ele>51.98</ele>
        <time>2019-08-26T09:44:02.000Z</time>
      </trkpt>
      <trkpt lat="47.58963" lon="-2.24184">
        <ele>52.2</ele>
        <time>2019-08-26T09:44:03.000Z</time>
      </trkpt>
      <trkpt lat="47.58964" lon="-2.24185">
        <ele>52.15</ele>
        <time>2019-08-26T09:44:04.000Z</time>
      </trkpt>
      <trkpt lat="47.58965" lon="-2.24186">
        <ele>52.38</ele>
        <time>2019-08-26T09:44:05.000Z</time>
      </trkpt>
      <trkpt lat="47.58965" lon="-2.24188">
        <ele>52.48</ele>
        <time>2019-08-26T09:44:06.000Z</time>
      </trkpt>
      <trkpt lat="47.58966" lon="-2.2419">
        <ele>52.42</ele>
        <time>2019-08-26T09:44:07.000Z</time>
      </trkpt>
      <trkpt lat="47.58966" lon="-2.24192">
        <ele>52.49</ele>
        <time>2019-08-26T09:44:08.000Z</time>
      </trkpt>
      <trkpt lat="47.58967" lon="-2.24193">
        <ele>52.03</ele>
        <time>2019-08-26T09:44:09.000Z</time>
      </trkpt>
      <trkpt lat="47.58967" lon="-2.24195">
        <ele>51.92</ele>
        <time>2019-08-26T09:44:10.000Z</time>
      </trkpt>
      <trkpt lat="47.58967" lon="-2.24197">
        <ele>51.88</ele>
        <time>2019-08-26T09:44:11.000Z</time>
      </trkpt>
      <trkpt lat="47.58967" lon="-2.24199">
        <ele>52.16</ele>
        <time>2019-08-26T09:44:12.000Z</time>
      </trkpt>
      <trkpt lat="47.58967" lon="-2.24201">
        <ele>51.79</ele>
        <time>2019-08-26T09:44:13.000Z</time>
      </trkpt>
      <trkpt lat="47.58967" lon="-2.24202">
        <ele>51.65</ele>
        <time>2019-08-26T09:44:14.000Z</time>
      </trkpt>
      <trkpt lat="47.58967" lon="-2.24204">
        <ele>52.16</ele>
        <time>2019-08-26T09:44:15.000Z</time>
      </trkpt>
      <trkpt lat="47.58968" lon="-2.24205">
        <ele>52.29</ele>
        <time>2019-08-26T09:44:16.000Z</time>
      </trkpt>
      <trkpt lat="47.58968" lon="-2.24207">
        <ele>50.4</ele>
        <time>2019-08-26T09:44:17.000Z</time>
      </trkpt>
      <trkpt lat="47.58968" lon="-2.24209">
        <ele>50.41</ele>
        <time>2019-08-26T09:44:18.000Z</time>
      </trkpt>
      <trkpt lat="47.58968" lon="-2.24211">
        <ele>50.8</ele>
        <time>2019-08-26T09:44:19.000Z</time>
      </trkpt>
      <trkpt lat="47.58968" lon="-2.24213">
        <ele>51.46</ele>
        <time>2019-08-26T09:44:20.000Z</time>
      </trkpt>
      <trkpt lat="47.58968" lon="-2.24215">
        <ele>51.69</ele>
        <time>2019-08-26T09:44:21.000Z</time>
      </trkpt>
      <trkpt lat="47.58969" lon="-2.24216">
        <ele>51.68</ele>
        <time>2019-08-26T09:44:22.000Z</time>
      </trkpt>
      <trkpt lat="47.58969" lon="-2.24218">
        <ele>51.98</ele>
        <time>2019-08-26T09:44:23.000Z</time>
      </trkpt>
      <trkpt lat="47.58968" lon="-2.2422">
        <ele>52.76</ele>
        <time>2019-08-26T09:44:24.000Z</time>
      </trkpt>
      <trkpt lat="47.58968" lon="-2.24222">
        <ele>53.01</ele>
        <time>2019-08-26T09:44:25.000Z</time>
      </trkpt>
      <trkpt lat="47.58966" lon="-2.24222">
        <ele>53.13</ele>
        <time>2019-08-26T09:44:27.000Z</time>
      </trkpt>
      <trkpt lat="47.58965" lon="-2.24221">
        <ele>53.59</ele>
        <time>2019-08-26T09:44:30.000Z</time>
      </trkpt>
      <trkpt lat="47.58966" lon="-2.24223">
        <ele>54.23</ele>
        <time>2019-08-26T09:44:34.000Z</time>
      </trkpt>
      <trkpt lat="47.58966" lon="-2.24224">
        <ele>54.12</ele>
        <time>2019-08-26T09:44:39.000Z</time>
      </trkpt>
      <trkpt lat="47.58967" lon="-2.24226">
        <ele>53.21</ele>
        <time>2019-08-26T09:44:41.000Z</time>
      </trkpt>
      <trkpt lat="47.58966" lon="-2.24228">
        <ele>52.51</ele>
        <time>2019-08-26T09:44:42.000Z</time>
      </trkpt>
      <trkpt lat="47.58967" lon="-2.24231">
        <ele>52.34</ele>
        <time>2019-08-26T09:44:44.000Z</time>
      </trkpt>
      <trkpt lat="47.58967" lon="-2.24233">
        <ele>52.9</ele>
        <time>2019-08-26T09:44:45.000Z</time>
      </trkpt>
      <trkpt lat="47.58968" lon="-2.24234">
        <ele>53.12</ele>
        <time>2019-08-26T09:44:46.000Z</time>
      </trkpt>
      <trkpt lat="47.58968" lon="-2.24236">
        <ele>53.27</ele>
        <time>2019-08-26T09:44:47.000Z</time>
      </trkpt>
      <trkpt lat="47.58968" lon="-2.24237">
        <ele>54.88</ele>
        <time>2019-08-26T09:44:48.000Z</time>
      </trkpt>
      <trkpt lat="47.5897" lon="-2.24239">
        <ele>54.92</ele>
        <time>2019-08-26T09:44:50.000Z</time>
      </trkpt>
      <trkpt lat="47.5897" lon="-2.2424">
        <ele>53.79</ele>
        <time>2019-08-26T09:44:52.000Z</time>
      </trkpt>
      <trkpt lat="47.5897" lon="-2.24242">
        <ele>54.38</ele>
        <time>2019-08-26T09:44:53.000Z</time>
      </trkpt>
      <trkpt lat="47.5897" lon="-2.24244">
        <ele>52.87</ele>
        <time>2019-08-26T09:44:55.000Z</time>
      </trkpt>
      <trkpt lat="47.58971" lon="-2.24245">
        <ele>52.59</ele>
        <time>2019-08-26T09:44:57.000Z</time>
      </trkpt>
      <trkpt lat="47.58972" lon="-2.24247">
        <ele>48.79</ele>
        <time>2019-08-26T09:44:59.000Z</time>
      </trkpt>
      <trkpt lat="47.58971" lon="-2.2425">
        <ele>50.13</ele>
        <time>2019-08-26T09:45:01.000Z</time>
      </trkpt>
      <trkpt lat="47.58972" lon="-2.24252">
        <ele>50.05</ele>
        <time>2019-08-26T09:45:02.000Z</time>
      </trkpt>
      <trkpt lat="47.58973" lon="-2.24254">
        <ele>50.93</ele>
        <time>2019-08-26T09:45:03.000Z</time>
      </trkpt>
      <trkpt lat="47.58973" lon="-2.24255">
        <ele>52.18</ele>
        <time>2019-08-26T09:45:04.000Z</time>
      </trkpt>
      <trkpt lat="47.58974" lon="-2.24257">
        <ele>51.29</ele>
        <time>2019-08-26T09:45:05.000Z</time>
      </trkpt>
      <trkpt lat="47.58974" lon="-2.24259">
        <ele>51.33</ele>
        <time>2019-08-26T09:45:06.000Z</time>
      </trkpt>
      <trkpt lat="47.58974" lon="-2.24261">
        <ele>51.64</ele>
        <time>2019-08-26T09:45:07.000Z</time>
      </trkpt>
      <trkpt lat="47.58974" lon="-2.24263">
        <ele>50.34</ele>
        <time>2019-08-26T09:45:09.000Z</time>
      </trkpt>
      <trkpt lat="47.58975" lon="-2.24264">
        <ele>50.41</ele>
        <time>2019-08-26T09:45:10.000Z</time>
      </trkpt>
      <trkpt lat="47.58975" lon="-2.24266">
        <ele>50.2</ele>
        <time>2019-08-26T09:45:11.000Z</time>
      </trkpt>
      <trkpt lat="47.58975" lon="-2.24269">
        <ele>49.91</ele>
        <time>2019-08-26T09:45:12.000Z</time>
      </trkpt>
      <trkpt lat="47.58975" lon="-2.24272">
        <ele>50.57</ele>
        <time>2019-08-26T09:45:13.000Z</time>
      </trkpt>
      <trkpt lat="47.58975" lon="-2.24274">
        <ele>51.59</ele>
        <time>2019-08-26T09:45:14.000Z</time>
      </trkpt>
      <trkpt lat="47.58976" lon="-2.24276">
        <ele>52.89</ele>
        <time>2019-08-26T09:45:15.000Z</time>
      </trkpt>
      <trkpt lat="47.58976" lon="-2.24278">
        <ele>52.98</ele>
        <time>2019-08-26T09:45:16.000Z</time>
      </trkpt>
      <trkpt lat="47.58976" lon="-2.2428">
        <ele>53.37</ele>
        <time>2019-08-26T09:45:17.000Z</time>
      </trkpt>
      <trkpt lat="47.58976" lon="-2.24282">
        <ele>54.01</ele>
        <time>2019-08-26T09:45:18.000Z</time>
      </trkpt>
      <trkpt lat="47.58977" lon="-2.24284">
        <ele>53.89</ele>
        <time>2019-08-26T09:45:19.000Z</time>
      </trkpt>
      <trkpt lat="47.58977" lon="-2.24285">
        <ele>54.53</ele>
        <time>2019-08-26T09:45:20.000Z</time>
      </trkpt>
      <trkpt lat="47.58978" lon="-2.24286">
        <ele>55.46</ele>
        <time>2019-08-26T09:45:21.000Z</time>
      </trkpt>
      <trkpt lat="47.58979" lon="-2.24287">
        <ele>56.53</ele>
        <time>2019-08-26T09:45:22.000Z</time>
      </trkpt>
      <trkpt lat="47.58979" lon="-2.24289">
        <ele>57.6</ele>
        <time>2019-08-26T09:45:23.000Z</time>
      </trkpt>
      <trkpt lat="47.5898" lon="-2.2429">
        <ele>58.72</ele>
        <time>2019-08-26T09:45:24.000Z</time>
      </trkpt>
      <trkpt lat="47.5898" lon="-2.24292">
        <ele>59.2</ele>
        <time>2019-08-26T09:45:25.000Z</time>
      </trkpt>
      <trkpt lat="47.58981" lon="-2.24293">
        <ele>58.51</ele>
        <time>2019-08-26T09:45:26.000Z</time>
      </trkpt>
      <trkpt lat="47.58982" lon="-2.24294">
        <ele>58.44</ele>
        <time>2019-08-26T09:45:27.000Z</time>
      </trkpt>
      <trkpt lat="47.58983" lon="-2.24296">
        <ele>58.71</ele>
        <time>2019-08-26T09:45:28.000Z</time>
      </trkpt>
      <trkpt lat="47.58983" lon="-2.24298">
        <ele>59.65</ele>
        <time>2019-08-26T09:45:29.000Z</time>
      </trkpt>
      <trkpt lat="47.58984" lon="-2.243">
        <ele>59.62</ele>
        <time>2019-08-26T09:45:30.000Z</time>
      </trkpt>
      <trkpt lat="47.58984" lon="-2.24301">
        <ele>58.24</ele>
        <time>2019-08-26T09:45:31.000Z</time>
      </trkpt>
      <trkpt lat="47.58984" lon="-2.24303">
        <ele>56.8</ele>
        <time>2019-08-26T09:45:32.000Z</time>
      </trkpt>
      <trkpt lat="47.58985" lon="-2.24304">
        <ele>57.24</ele>
        <time>2019-08-26T09:45:33.000Z</time>
      </trkpt>
      <trkpt lat="47.58986" lon="-2.24305">
        <ele>57.89</ele>
        <time>2019-08-26T09:45:34.000Z</time>
      </trkpt>
      <trkpt lat="47.58987" lon="-2.24306">
        <ele>57.87</ele>
        <time>2019-08-26T09:45:35.000Z</time>
      </trkpt>
      <trkpt lat="47.58987" lon="-2.24308">
        <ele>58.71</ele>
        <time>2019-08-26T09:45:36.000Z</time>
      </trkpt>
      <trkpt lat="47.58988" lon="-2.2431">
        <ele>59.16</ele>
        <time>2019-08-26T09:45:37.000Z</time>
      </trkpt>
      <trkpt lat="47.58988" lon="-2.24311">
        <ele>59.15</ele>
        <time>2019-08-26T09:45:38.000Z</time>
      </trkpt>
      <trkpt lat="47.58988" lon="-2.24313">
        <ele>58.87</ele>
        <time>2019-08-26T09:45:39.000Z</time>
      </trkpt>
      <trkpt lat="47.58988" lon="-2.24315">
        <ele>59.01</ele>
        <time>2019-08-26T09:45:40.000Z</time>
      </trkpt>
      <trkpt lat="47.58989" lon="-2.24317">
        <ele>59.94</ele>
        <time>2019-08-26T09:45:41.000Z</time>
      </trkpt>
      <trkpt lat="47.58989" lon="-2.24319">
        <ele>61.61</ele>
        <time>2019-08-26T09:45:42.000Z</time>
      </trkpt>
      <trkpt lat="47.58989" lon="-2.24321">
        <ele>61.11</ele>
        <time>2019-08-26T09:45:43.000Z</time>
      </trkpt>
      <trkpt lat="47.58989" lon="-2.24323">
        <ele>60.71</ele>
        <time>2019-08-26T09:45:44.000Z</time>
      </trkpt>
      <trkpt lat="47.5899" lon="-2.24324">
        <ele>60.44</ele>
        <time>2019-08-26T09:45:45.000Z</time>
      </trkpt>
      <trkpt lat="47.5899" lon="-2.24326">
        <ele>60.34</ele>
        <time>2019-08-26T09:45:46.000Z</time>
      </trkpt>
      <trkpt lat="47.5899" lon="-2.24328">
        <ele>60.2</ele>
        <time>2019-08-26T09:45:47.000Z</time>
      </trkpt>
      <trkpt lat="47.5899" lon="-2.2433">
        <ele>59.97</ele>
        <time>2019-08-26T09:45:48.000Z</time>
      </trkpt>
      <trkpt lat="47.58991" lon="-2.24332">
        <ele>60.51</ele>
        <time>2019-08-26T09:45:49.000Z</time>
      </trkpt>
      <trkpt lat="47.58991" lon="-2.24333">
        <ele>60.96</ele>
        <time>2019-08-26T09:45:50.000Z</time>
      </trkpt>
      <trkpt lat="47.58991" lon="-2.24335">
        <ele>61.03</ele>
        <time>2019-08-26T09:45:51.000Z</time>
      </trkpt>
      <trkpt lat="47.58991" lon="-2.24337">
        <ele>60.95</ele>
        <time>2019-08-26T09:45:52.000Z</time>
      </trkpt>
      <trkpt lat="47.58992" lon="-2.24339">
        <ele>61.39</ele>
        <time>2019-08-26T09:45:53.000Z</time>
      </trkpt>
      <trkpt lat="47.58992" lon="-2.24341">
        <ele>60.88</ele>
        <time>2019-08-26T09:45:54.000Z</time>
      </trkpt>
      <trkpt lat="47.58992" lon="-2.24342">
        <ele>60.57</ele>
        <time>2019-08-26T09:45:55.000Z</time>
      </trkpt>
      <trkpt lat="47.58992" lon="-2.24344">
        <ele>60.5</ele>
        <time>2019-08-26T09:45:56.000Z</time>
      </trkpt>
      <trkpt lat="47.58993" lon="-2.24345">
        <ele>61.33</ele>
        <time>2019-08-26T09:45:57.000Z</time>
      </trkpt>
      <trkpt lat="47.58993" lon="-2.24347">
        <ele>60.78</ele>
        <time>2019-08-26T09:45:58.000Z</time>
      </trkpt>
      <trkpt lat="47.58994" lon="-2.24349">
        <ele>60.77</ele>
        <time>2019-08-26T09:45:59.000Z</time>
      </trkpt>
      <trkpt lat="47.58994" lon="-2.2435">
        <ele>60.88</ele>
        <time>2019-08-26T09:46:00.000Z</time>
      </trkpt>
      <trkpt lat="47.58994" lon="-2.24352">
        <ele>61.38</ele>
        <time>2019-08-26T09:46:01.000Z</time>
      </trkpt>
      <trkpt lat="47.58995" lon="-2.24354">
        <ele>62.27</ele>
        <time>2019-08-26T09:46:02.000Z</time>
      </trkpt>
      <trkpt lat="47.58995" lon="-2.24355">
        <ele>62.31</ele>
        <time>2019-08-26T09:46:03.000Z</time>
      </trkpt>
      <trkpt lat="47.58996" lon="-2.24357">
        <ele>62.1</ele>
        <time>2019-08-26T09:46:04.000Z</time>
      </trkpt>
      <trkpt lat="47.58997" lon="-2.24358">
        <ele>61.93</ele>
        <time>2019-08-26T09:46:05.000Z</time>
      </trkpt>
      <trkpt lat="47.58997" lon="-2.2436">
        <ele>62.85</ele>
        <time>2019-08-26T09:46:06.000Z</time>
      </trkpt>
      <trkpt lat="47.58998" lon="-2.24362">
        <ele>62.42</ele>
        <time>2019-08-26T09:46:07.000Z</time>
      </trkpt>
      <trkpt lat="47.58998" lon="-2.24363">
        <ele>62.65</ele>
        <time>2019-08-26T09:46:08.000Z</time>
      </trkpt>
      <trkpt lat="47.58999" lon="-2.24365">
        <ele>62.8</ele>
        <time>2019-08-26T09:46:09.000Z</time>
      </trkpt>
      <trkpt lat="47.58999" lon="-2.24366">
        <ele>62.59</ele>
        <time>2019-08-26T09:46:10.000Z</time>
      </trkpt>
      <trkpt lat="47.59" lon="-2.24368">
        <ele>63.39</ele>
        <time>2019-08-26T09:46:12.000Z</time>
      </trkpt>
      <trkpt lat="47.59001" lon="-2.24371">
        <ele>63.07</ele>
        <time>2019-08-26T09:46:14.000Z</time>
      </trkpt>
      <trkpt lat="47.59002" lon="-2.24373">
        <ele>62.12</ele>
        <time>2019-08-26T09:46:15.000Z</time>
      </trkpt>
      <trkpt lat="47.59002" lon="-2.24375">
        <ele>62.04</ele>
        <time>2019-08-26T09:46:16.000Z</time>
      </trkpt>
      <trkpt lat="47.59003" lon="-2.24376">
        <ele>62.2</ele>
        <time>2019-08-26T09:46:17.000Z</time>
      </trkpt>
      <trkpt lat="47.59004" lon="-2.24377">
        <ele>61.83</ele>
        <time>2019-08-26T09:46:18.000Z</time>
      </trkpt>
      <trkpt lat="47.59004" lon="-2.24379">
        <ele>62.58</ele>
        <time>2019-08-26T09:46:19.000Z</time>
      </trkpt>
      <trkpt lat="47.59005" lon="-2.2438">
        <ele>63.25</ele>
        <time>2019-08-26T09:46:20.000Z</time>
      </trkpt>
      <trkpt lat="47.59005" lon="-2.24382">
        <ele>61.49</ele>
        <time>2019-08-26T09:46:21.000Z</time>
      </trkpt>
      <trkpt lat="47.59006" lon="-2.24384">
        <ele>61.51</ele>
        <time>2019-08-26T09:46:22.000Z</time>
      </trkpt>
      <trkpt lat="47.59007" lon="-2.24384">
        <ele>61.17</ele>
        <time>2019-08-26T09:46:23.000Z</time>
      </trkpt>
      <trkpt lat="47.59007" lon="-2.24385">
        <ele>58.99</ele>
        <time>2019-08-26T09:46:24.000Z</time>
      </trkpt>
      <trkpt lat="47.59008" lon="-2.24386">
        <ele>59.26</ele>
        <time>2019-08-26T09:46:25.000Z</time>
      </trkpt>
      <trkpt lat="47.59009" lon="-2.24388">
        <ele>60.03</ele>
        <time>2019-08-26T09:46:27.000Z</time>
      </trkpt>
      <trkpt lat="47.59009" lon="-2.2439">
        <ele>60.29</ele>
        <time>2019-08-26T09:46:29.000Z</time>
      </trkpt>
      <trkpt lat="47.59009" lon="-2.24392">
        <ele>59.82</ele>
        <time>2019-08-26T09:46:30.000Z</time>
      </trkpt>
      <trkpt lat="47.59009" lon="-2.24394">
        <ele>59.43</ele>
        <time>2019-08-26T09:46:31.000Z</time>
      </trkpt>
      <trkpt lat="47.59009" lon="-2.24395">
        <ele>60.01</ele>
        <time>2019-08-26T09:46:32.000Z</time>
      </trkpt>
      <trkpt lat="47.5901" lon="-2.24397">
        <ele>60.11</ele>
        <time>2019-08-26T09:46:33.000Z</time>
      </trkpt>
      <trkpt lat="47.5901" lon="-2.24398">
        <ele>59.65</ele>
        <time>2019-08-26T09:46:34.000Z</time>
      </trkpt>
      <trkpt lat="47.59011" lon="-2.24399">
        <ele>59.52</ele>
        <time>2019-08-26T09:46:35.000Z</time>
      </trkpt>
      <trkpt lat="47.59011" lon="-2.24401">
        <ele>60.39</ele>
        <time>2019-08-26T09:46:36.000Z</time>
      </trkpt>
      <trkpt lat="47.59012" lon="-2.24403">
        <ele>59.97</ele>
        <time>2019-08-26T09:46:37.000Z</time>
      </trkpt>
      <trkpt lat="47.59011" lon="-2.24404">
        <ele>59.87</ele>
        <time>2019-08-26T09:46:38.000Z</time>
      </trkpt>
      <trkpt lat="47.59011" lon="-2.24406">
        <ele>60.31</ele>
        <time>2019-08-26T09:46:39.000Z</time>
      </trkpt>
      <trkpt lat="47.59011" lon="-2.24407">
        <ele>60.77</ele>
        <time>2019-08-26T09:46:40.000Z</time>
      </trkpt>
      <trkpt lat="47.59012" lon="-2.24409">
        <ele>60.2</ele>
        <time>2019-08-26T09:46:42.000Z</time>
      </trkpt>
      <trkpt lat="47.59013" lon="-2.2441">
        <ele>59.69</ele>
        <time>2019-08-26T09:46:43.000Z</time>
      </trkpt>
      <trkpt lat="47.59014" lon="-2.24412">
        <ele>61.99</ele>
        <time>2019-08-26T09:46:45.000Z</time>
      </trkpt>
      <trkpt lat="47.59014" lon="-2.24414">
        <ele>62.61</ele>
        <time>2019-08-26T09:46:47.000Z</time>
      </trkpt>
      <trkpt lat="47.59014" lon="-2.24416">
        <ele>64.15</ele>
        <time>2019-08-26T09:46:49.000Z</time>
      </trkpt>
      <trkpt lat="47.59014" lon="-2.24418">
        <ele>63.83</ele>
        <time>2019-08-26T09:46:51.000Z</time>
      </trkpt>
      <trkpt lat="47.59014" lon="-2.24421">
        <ele>63.01</ele>
        <time>2019-08-26T09:46:53.000Z</time>
      </trkpt>
      <trkpt lat="47.59013" lon="-2.24422">
        <ele>62.79</ele>
        <time>2019-08-26T09:46:54.000Z</time>
      </trkpt>
      <trkpt lat="47.59013" lon="-2.24424">
        <ele>62.82</ele>
        <time>2019-08-26T09:46:55.000Z</time>
      </trkpt>
      <trkpt lat="47.59013" lon="-2.24426">
        <ele>63.35</ele>
        <time>2019-08-26T09:46:56.000Z</time>
      </trkpt>
      <trkpt lat="47.59013" lon="-2.24428">
        <ele>64.71</ele>
        <time>2019-08-26T09:46:57.000Z</time>
      </trkpt>
      <trkpt lat="47.59012" lon="-2.2443">
        <ele>64.7</ele>
        <time>2019-08-26T09:46:58.000Z</time>
      </trkpt>
      <trkpt lat="47.59012" lon="-2.24432">
        <ele>65.58</ele>
        <time>2019-08-26T09:46:59.000Z</time>
      </trkpt>
      <trkpt lat="47.59011" lon="-2.24434">
        <ele>65.87</ele>
        <time>2019-08-26T09:47:00.000Z</time>
      </trkpt>
      <trkpt lat="47.5901" lon="-2.24436">
        <ele>67.55</ele>
        <time>2019-08-26T09:47:01.000Z</time>
      </trkpt>
      <trkpt lat="47.5901" lon="-2.24438">
        <ele>66.52</ele>
        <time>2019-08-26T09:47:02.000Z</time>
      </trkpt>
      <trkpt lat="47.59011" lon="-2.24439">
        <ele>66.74</ele>
        <time>2019-08-26T09:47:03.000Z</time>
      </trkpt>
      <trkpt lat="47.59011" lon="-2.24441">
        <ele>67.47</ele>
        <time>2019-08-26T09:47:04.000Z</time>
      </trkpt>
      <trkpt lat="47.59011" lon="-2.24442">
        <ele>67.09</ele>
        <time>2019-08-26T09:47:05.000Z</time>
      </trkpt>
      <trkpt lat="47.59012" lon="-2.24445">
        <ele>68.23</ele>
        <time>2019-08-26T09:47:07.000Z</time>
      </trkpt>
      <trkpt lat="47.59012" lon="-2.24446">
        <ele>68.97</ele>
        <time>2019-08-26T09:47:08.000Z</time>
      </trkpt>
      <trkpt lat="47.59013" lon="-2.24447">
        <ele>69.36</ele>
        <time>2019-08-26T09:47:09.000Z</time>
      </trkpt>
      <trkpt lat="47.59013" lon="-2.24448">
        <ele>69.7</ele>
        <time>2019-08-26T09:47:10.000Z</time>
      </trkpt>
      <trkpt lat="47.59014" lon="-2.2445">
        <ele>69.27</ele>
        <time>2019-08-26T09:47:11.000Z</time>
      </trkpt>
      <trkpt lat="47.59014" lon="-2.24451">
        <ele>70.91</ele>
        <time>2019-08-26T09:47:12.000Z</time>
      </trkpt>
      <trkpt lat="47.59015" lon="-2.24452">
        <ele>71.02</ele>
        <time>2019-08-26T09:47:13.000Z</time>
      </trkpt>
      <trkpt lat="47.59014" lon="-2.24454">
        <ele>72.27</ele>
        <time>2019-08-26T09:47:14.000Z</time>
      </trkpt>
      <trkpt lat="47.59014" lon="-2.24456">
        <ele>72.65</ele>
        <time>2019-08-26T09:47:15.000Z</time>
      </trkpt>
      <trkpt lat="47.59014" lon="-2.24458">
        <ele>71.96</ele>
        <time>2019-08-26T09:47:16.000Z</time>
      </trkpt>
      <trkpt lat="47.59014" lon="-2.24459">
        <ele>71.68</ele>
        <time>2019-08-26T09:47:17.000Z</time>
      </trkpt>
      <trkpt lat="47.59014" lon="-2.24462">
        <ele>71.82</ele>
        <time>2019-08-26T09:47:18.000Z</time>
      </trkpt>
      <trkpt lat="47.59014" lon="-2.24464">
        <ele>70.48</ele>
        <time>2019-08-26T09:47:19.000Z</time>
      </trkpt>
      <trkpt lat="47.59015" lon="-2.24466">
        <ele>71.5</ele>
        <time>2019-08-26T09:47:20.000Z</time>
      </trkpt>
      <trkpt lat="47.59015" lon="-2.24468">
        <ele>71.66</ele>
        <time>2019-08-26T09:47:21.000Z</time>
      </trkpt>
      <trkpt lat="47.59015" lon="-2.2447">
        <ele>71.39</ele>
        <time>2019-08-26T09:47:22.000Z</time>
      </trkpt>
      <trkpt lat="47.59015" lon="-2.24472">
        <ele>72.47</ele>
        <time>2019-08-26T09:47:23.000Z</time>
      </trkpt>
      <trkpt lat="47.59015" lon="-2.24474">
        <ele>72.63</ele>
        <time>2019-08-26T09:47:24.000Z</time>
      </trkpt>
      <trkpt lat="47.59015" lon="-2.24476">
        <ele>72.04</ele>
        <time>2019-08-26T09:47:25.000Z</time>
      </trkpt>
      <trkpt lat="47.59016" lon="-2.24477">
        <ele>71.93</ele>
        <time>2019-08-26T09:47:26.000Z</time>
      </trkpt>
      <trkpt lat="47.59016" lon="-2.24479">
        <ele>72.82</ele>
        <time>2019-08-26T09:47:27.000Z</time>
      </trkpt>
      <trkpt lat="47.59016" lon="-2.24481">
        <ele>73.08</ele>
        <time>2019-08-26T09:47:29.000Z</time>
      </trkpt>
      <trkpt lat="47.59017" lon="-2.24483">
        <ele>73.16</ele>
        <time>2019-08-26T09:47:30.000Z</time>
      </trkpt>
      <trkpt lat="47.59017" lon="-2.24485">
        <ele>74.02</ele>
        <time>2019-08-26T09:47:31.000Z</time>
      </trkpt>
      <trkpt lat="47.59017" lon="-2.24486">
        <ele>75.39</ele>
        <time>2019-08-26T09:47:32.000Z</time>
      </trkpt>
      <trkpt lat="47.59017" lon="-2.24488">
        <ele>75.92</ele>
        <time>2019-08-26T09:47:33.000Z</time>
      </trkpt>
      <trkpt lat="47.59017" lon="-2.2449">
        <ele>75.97</ele>
        <time>2019-08-26T09:47:34.000Z</time>
      </trkpt>
      <trkpt lat="47.59018" lon="-2.24491">
        <ele>73.17</ele>
        <time>2019-08-26T09:47:35.000Z</time>
      </trkpt>
      <trkpt lat="47.59018" lon="-2.24493">
        <ele>73.84</ele>
        <time>2019-08-26T09:47:36.000Z</time>
      </trkpt>
      <trkpt lat="47.59019" lon="-2.24494">
        <ele>72</ele>
        <time>2019-08-26T09:47:37.000Z</time>
      </trkpt>
      <trkpt lat="47.5902" lon="-2.24495">
        <ele>71.81</ele>
        <time>2019-08-26T09:47:39.000Z</time>
      </trkpt>
      <trkpt lat="47.59021" lon="-2.24498">
        <ele>72.46</ele>
        <time>2019-08-26T09:47:41.000Z</time>
      </trkpt>
      <trkpt lat="47.59021" lon="-2.24499">
        <ele>72.6</ele>
        <time>2019-08-26T09:47:42.000Z</time>
      </trkpt>
      <trkpt lat="47.59022" lon="-2.245">
        <ele>71.33</ele>
        <time>2019-08-26T09:47:43.000Z</time>
      </trkpt>
      <trkpt lat="47.59023" lon="-2.24501">
        <ele>71.71</ele>
        <time>2019-08-26T09:47:44.000Z</time>
      </trkpt>
      <trkpt lat="47.59023" lon="-2.24502">
        <ele>72.6</ele>
        <time>2019-08-26T09:47:45.000Z</time>
      </trkpt>
      <trkpt lat="47.59024" lon="-2.24504">
        <ele>72.59</ele>
        <time>2019-08-26T09:47:46.000Z</time>
      </trkpt>
      <trkpt lat="47.59024" lon="-2.24505">
        <ele>71.89</ele>
        <time>2019-08-26T09:47:47.000Z</time>
      </trkpt>
      <trkpt lat="47.59024" lon="-2.24507">
        <ele>71.88</ele>
        <time>2019-08-26T09:47:49.000Z</time>
      </trkpt>
      <trkpt lat="47.59023" lon="-2.24509">
        <ele>71.84</ele>
        <time>2019-08-26T09:47:50.000Z</time>
      </trkpt>
      <trkpt lat="47.59023" lon="-2.24511">
        <ele>72.53</ele>
        <time>2019-08-26T09:47:51.000Z</time>
      </trkpt>
      <trkpt lat="47.59023" lon="-2.24512">
        <ele>73.01</ele>
        <time>2019-08-26T09:47:52.000Z</time>
      </trkpt>
      <trkpt lat="47.59023" lon="-2.24513">
        <ele>72.74</ele>
        <time>2019-08-26T09:47:53.000Z</time>
      </trkpt>
      <trkpt lat="47.59023" lon="-2.24515">
        <ele>72.2</ele>
        <time>2019-08-26T09:47:54.000Z</time>
      </trkpt>
      <trkpt lat="47.59022" lon="-2.24517">
        <ele>72.82</ele>
        <time>2019-08-26T09:47:55.000Z</time>
      </trkpt>
      <trkpt lat="47.59022" lon="-2.24519">
        <ele>73.56</ele>
        <time>2019-08-26T09:47:56.000Z</time>
      </trkpt>
      <trkpt lat="47.59022" lon="-2.24521">
        <ele>73.11</ele>
        <time>2019-08-26T09:47:57.000Z</time>
      </trkpt>
      <trkpt lat="47.59021" lon="-2.24522">
        <ele>73.39</ele>
        <time>2019-08-26T09:47:58.000Z</time>
      </trkpt>
      <trkpt lat="47.59021" lon="-2.24524">
        <ele>73.48</ele>
        <time>2019-08-26T09:47:59.000Z</time>
      </trkpt>
      <trkpt lat="47.59022" lon="-2.24526">
        <ele>73.12</ele>
        <time>2019-08-26T09:48:01.000Z</time>
      </trkpt>
      <trkpt lat="47.59021" lon="-2.24527">
        <ele>73.74</ele>
        <time>2019-08-26T09:48:02.000Z</time>
      </trkpt>
      <trkpt lat="47.59021" lon="-2.2453">
        <ele>73.74</ele>
        <time>2019-08-26T09:48:04.000Z</time>
      </trkpt>
      <trkpt lat="47.5902" lon="-2.24531">
        <ele>73.03</ele>
        <time>2019-08-26T09:48:05.000Z</time>
      </trkpt>
      <trkpt lat="47.5902" lon="-2.24533">
        <ele>73.49</ele>
        <time>2019-08-26T09:48:06.000Z</time>
      </trkpt>
      <trkpt lat="47.59019" lon="-2.24534">
        <ele>73.74</ele>
        <time>2019-08-26T09:48:07.000Z</time>
      </trkpt>
      <trkpt lat="47.59018" lon="-2.24536">
        <ele>75.1</ele>
        <time>2019-08-26T09:48:08.000Z</time>
      </trkpt>
      <trkpt lat="47.59018" lon="-2.24538">
        <ele>75.44</ele>
        <time>2019-08-26T09:48:09.000Z</time>
      </trkpt>
      <trkpt lat="47.59017" lon="-2.2454">
        <ele>76.29</ele>
        <time>2019-08-26T09:48:10.000Z</time>
      </trkpt>
      <trkpt lat="47.59016" lon="-2.24542">
        <ele>75.74</ele>
        <time>2019-08-26T09:48:11.000Z</time>
      </trkpt>
      <trkpt lat="47.59016" lon="-2.24544">
        <ele>76.17</ele>
        <time>2019-08-26T09:48:12.000Z</time>
      </trkpt>
      <trkpt lat="47.59016" lon="-2.24545">
        <ele>75.09</ele>
        <time>2019-08-26T09:48:13.000Z</time>
      </trkpt>
      <trkpt lat="47.59015" lon="-2.24547">
        <ele>74.7</ele>
        <time>2019-08-26T09:48:14.000Z</time>
      </trkpt>
      <trkpt lat="47.59015" lon="-2.24548">
        <ele>75.61</ele>
        <time>2019-08-26T09:48:15.000Z</time>
      </trkpt>
      <trkpt lat="47.59015" lon="-2.2455">
        <ele>76.87</ele>
        <time>2019-08-26T09:48:16.000Z</time>
      </trkpt>
      <trkpt lat="47.59014" lon="-2.24552">
        <ele>77.74</ele>
        <time>2019-08-26T09:48:17.000Z</time>
      </trkpt>
      <trkpt lat="47.59014" lon="-2.24553">
        <ele>78.05</ele>
        <time>2019-08-26T09:48:18.000Z</time>
      </trkpt>
      <trkpt lat="47.59014" lon="-2.24554">
        <ele>78.8</ele>
        <time>2019-08-26T09:48:19.000Z</time>
      </trkpt>
      <trkpt lat="47.59013" lon="-2.24556">
        <ele>78.15</ele>
        <time>2019-08-26T09:48:20.000Z</time>
      </trkpt>
      <trkpt lat="47.59013" lon="-2.24557">
        <ele>77.71</ele>
        <time>2019-08-26T09:48:21.000Z</time>
      </trkpt>
      <trkpt lat="47.59012" lon="-2.24559">
        <ele>78.6</ele>
        <time>2019-08-26T09:48:22.000Z</time>
      </trkpt>
      <trkpt lat="47.59012" lon="-2.2456">
        <ele>78.9</ele>
        <time>2019-08-26T09:48:23.000Z</time>
      </trkpt>
      <trkpt lat="47.59011" lon="-2.24562">
        <ele>79.76</ele>
        <time>2019-08-26T09:48:25.000Z</time>
      </trkpt>
      <trkpt lat="47.5901" lon="-2.24564">
        <ele>80.73</ele>
        <time>2019-08-26T09:48:26.000Z</time>
      </trkpt>
      <trkpt lat="47.5901" lon="-2.24565">
        <ele>80.67</ele>
        <time>2019-08-26T09:48:27.000Z</time>
      </trkpt>
      <trkpt lat="47.59009" lon="-2.24566">
        <ele>80.53</ele>
        <time>2019-08-26T09:48:28.000Z</time>
      </trkpt>
      <trkpt lat="47.59008" lon="-2.24568">
        <ele>81.32</ele>
        <time>2019-08-26T09:48:29.000Z</time>
      </trkpt>
      <trkpt lat="47.59008" lon="-2.24569">
        <ele>82.05</ele>
        <time>2019-08-26T09:48:30.000Z</time>
      </trkpt>
      <trkpt lat="47.59007" lon="-2.24571">
        <ele>82.07</ele>
        <time>2019-08-26T09:48:31.000Z</time>
      </trkpt>
      <trkpt lat="47.59006" lon="-2.24572">
        <ele>82.14</ele>
        <time>2019-08-26T09:48:32.000Z</time>
      </trkpt>
      <trkpt lat="47.59005" lon="-2.24574">
        <ele>82.05</ele>
        <time>2019-08-26T09:48:33.000Z</time>
      </trkpt>
      <trkpt lat="47.59005" lon="-2.24575">
        <ele>81.98</ele>
        <time>2019-08-26T09:48:34.000Z</time>
      </trkpt>
      <trkpt lat="47.59004" lon="-2.24576">
        <ele>81.76</ele>
        <time>2019-08-26T09:48:35.000Z</time>
      </trkpt>
      <trkpt lat="47.59003" lon="-2.24579">
        <ele>81.89</ele>
        <time>2019-08-26T09:48:37.000Z</time>
      </trkpt>
      <trkpt lat="47.59002" lon="-2.2458">
        <ele>81.33</ele>
        <time>2019-08-26T09:48:38.000Z</time>
      </trkpt>
      <trkpt lat="47.59001" lon="-2.24582">
        <ele>81.99</ele>
        <time>2019-08-26T09:48:40.000Z</time>
      </trkpt>
      <trkpt lat="47.59" lon="-2.24583">
        <ele>82.53</ele>
        <time>2019-08-26T09:48:42.000Z</time>
      </trkpt>
      <trkpt lat="47.58999" lon="-2.24584">
        <ele>83.28</ele>
        <time>2019-08-26T09:48:43.000Z</time>
      </trkpt>
      <trkpt lat="47.58999" lon="-2.24585">
        <ele>83.38</ele>
        <time>2019-08-26T09:48:44.000Z</time>
      </trkpt>
      <trkpt lat="47.58998" lon="-2.24587">
        <ele>82.8</ele>
        <time>2019-08-26T09:48:45.000Z</time>
      </trkpt>
      <trkpt lat="47.58997" lon="-2.24588">
        <ele>83.02</ele>
        <time>2019-08-26T09:48:46.000Z</time>
      </trkpt>
      <trkpt lat="47.58996" lon="-2.24589">
        <ele>83.93</ele>
        <time>2019-08-26T09:48:48.000Z</time>
      </trkpt>
      <trkpt lat="47.58995" lon="-2.24591">
        <ele>83.63</ele>
        <time>2019-08-26T09:48:49.000Z</time>
      </trkpt>
      <trkpt lat="47.58994" lon="-2.24592">
        <ele>84.64</ele>
        <time>2019-08-26T09:48:50.000Z</time>
      </trkpt>
      <trkpt lat="47.58993" lon="-2.24594">
        <ele>85.26</ele>
        <time>2019-08-26T09:48:52.000Z</time>
      </trkpt>
      <trkpt lat="47.58993" lon="-2.24595">
        <ele>85.41</ele>
        <time>2019-08-26T09:48:53.000Z</time>
      </trkpt>
      <trkpt lat="47.58992" lon="-2.24597">
        <ele>84.14</ele>
        <time>2019-08-26T09:48:54.000Z</time>
      </trkpt>
      <trkpt lat="47.58992" lon="-2.24599">
        <ele>84.94</ele>
        <time>2019-08-26T09:48:55.000Z</time>
      </trkpt>
      <trkpt lat="47.58991" lon="-2.24601">
        <ele>85.62</ele>
        <time>2019-08-26T09:48:56.000Z</time>
      </trkpt>
      <trkpt lat="47.5899" lon="-2.24603">
        <ele>85.72</ele>
        <time>2019-08-26T09:48:57.000Z</time>
      </trkpt>
      <trkpt lat="47.58989" lon="-2.24604">
        <ele>86.27</ele>
        <time>2019-08-26T09:48:58.000Z</time>
      </trkpt>
      <trkpt lat="47.58988" lon="-2.24606">
        <ele>86.73</ele>
        <time>2019-08-26T09:48:59.000Z</time>
      </trkpt>
      <trkpt lat="47.58987" lon="-2.24608">
        <ele>87.14</ele>
        <time>2019-08-26T09:49:00.000Z</time>
      </trkpt>
      <trkpt lat="47.58987" lon="-2.24609">
        <ele>84.47</ele>
        <time>2019-08-26T09:49:02.000Z</time>
      </trkpt>
      <trkpt lat="47.58986" lon="-2.24611">
        <ele>85.1</ele>
        <time>2019-08-26T09:49:04.000Z</time>
      </trkpt>
      <trkpt lat="47.58986" lon="-2.24614">
        <ele>83.71</ele>
        <time>2019-08-26T09:49:06.000Z</time>
      </trkpt>
      <trkpt lat="47.58986" lon="-2.24615">
        <ele>82.93</ele>
        <time>2019-08-26T09:49:07.000Z</time>
      </trkpt>
      <trkpt lat="47.58986" lon="-2.24617">
        <ele>82.34</ele>
        <time>2019-08-26T09:49:08.000Z</time>
      </trkpt>
      <trkpt lat="47.58986" lon="-2.24618">
        <ele>82.26</ele>
        <time>2019-08-26T09:49:09.000Z</time>
      </trkpt>
      <trkpt lat="47.58987" lon="-2.2462">
        <ele>82.93</ele>
        <time>2019-08-26T09:49:10.000Z</time>
      </trkpt>
      <trkpt lat="47.58987" lon="-2.24621">
        <ele>83.29</ele>
        <time>2019-08-26T09:49:11.000Z</time>
      </trkpt>
      <trkpt lat="47.58987" lon="-2.24623">
        <ele>82.98</ele>
        <time>2019-08-26T09:49:12.000Z</time>
      </trkpt>
      <trkpt lat="47.58987" lon="-2.24625">
        <ele>83.41</ele>
        <time>2019-08-26T09:49:13.000Z</time>
      </trkpt>
      <trkpt lat="47.58987" lon="-2.24627">
        <ele>83.47</ele>
        <time>2019-08-26T09:49:14.000Z</time>
      </trkpt>
      <trkpt lat="47.58987" lon="-2.24629">
        <ele>83.48</ele>
        <time>2019-08-26T09:49:15.000Z</time>
      </trkpt>
      <trkpt lat="47.58986" lon="-2.24631">
        <ele>85.31</ele>
        <time>2019-08-26T09:49:16.000Z</time>
      </trkpt>
      <trkpt lat="47.58986" lon="-2.24633">
        <ele>86.07</ele>
        <time>2019-08-26T09:49:17.000Z</time>
      </trkpt>
      <trkpt lat="47.58986" lon="-2.24634">
        <ele>85.69</ele>
        <time>2019-08-26T09:49:18.000Z</time>
      </trkpt>
      <trkpt lat="47.58987" lon="-2.24636">
        <ele>84.09</ele>
        <time>2019-08-26T09:49:19.000Z</time>
      </trkpt>
      <trkpt lat="47.58987" lon="-2.24637">
        <ele>84.15</ele>
        <time>2019-08-26T09:49:20.000Z</time>
      </trkpt>
      <trkpt lat="47.58987" lon="-2.24638">
        <ele>83.23</ele>
        <time>2019-08-26T09:49:21.000Z</time>
      </trkpt>
      <trkpt lat="47.58986" lon="-2.2464">
        <ele>81.32</ele>
        <time>2019-08-26T09:49:22.000Z</time>
      </trkpt>
      <trkpt lat="47.58985" lon="-2.24641">
        <ele>80.1</ele>
        <time>2019-08-26T09:49:23.000Z</time>
      </trkpt>
      <trkpt lat="47.58985" lon="-2.24643">
        <ele>82.18</ele>
        <time>2019-08-26T09:49:24.000Z</time>
      </trkpt>
      <trkpt lat="47.58984" lon="-2.24646">
        <ele>83.94</ele>
        <time>2019-08-26T09:49:25.000Z</time>
      </trkpt>
      <trkpt lat="47.58984" lon="-2.24648">
        <ele>83.75</ele>
        <time>2019-08-26T09:49:26.000Z</time>
      </trkpt>
      <trkpt lat="47.58984" lon="-2.2465">
        <ele>82.79</ele>
        <time>2019-08-26T09:49:28.000Z</time>
      </trkpt>
      <trkpt lat="47.58984" lon="-2.24652">
        <ele>82.88</ele>
        <time>2019-08-26T09:49:29.000Z</time>
      </trkpt>
      <trkpt lat="47.58984" lon="-2.24654">
        <ele>82.92</ele>
        <time>2019-08-26T09:49:30.000Z</time>
      </trkpt>
      <trkpt lat="47.58984" lon="-2.24656">
        <ele>82.59</ele>
        <time>2019-08-26T09:49:31.000Z</time>
      </trkpt>
      <trkpt lat="47.58984" lon="-2.24658">
        <ele>82.66</ele>
        <time>2019-08-26T09:49:32.000Z</time>
      </trkpt>
      <trkpt lat="47.58984" lon="-2.2466">
        <ele>83.12</ele>
        <time>2019-08-26T09:49:33.000Z</time>
      </trkpt>
      <trkpt lat="47.58985" lon="-2.24661">
        <ele>82.73</ele>
        <time>2019-08-26T09:49:34.000Z</time>
      </trkpt>
      <trkpt lat="47.58986" lon="-2.24662">
        <ele>82.15</ele>
        <time>2019-08-26T09:49:35.000Z</time>
      </trkpt>
      <trkpt lat="47.58986" lon="-2.24664">
        <ele>80.34</ele>
        <time>2019-08-26T09:49:36.000Z</time>
      </trkpt>
      <trkpt lat="47.58987" lon="-2.24666">
        <ele>79.67</ele>
        <time>2019-08-26T09:49:37.000Z</time>
      </trkpt>
      <trkpt lat="47.58987" lon="-2.24667">
        <ele>80.32</ele>
        <time>2019-08-26T09:49:38.000Z</time>
      </trkpt>
      <trkpt lat="47.58988" lon="-2.24669">
        <ele>80.65</ele>
        <time>2019-08-26T09:49:39.000Z</time>
      </trkpt>
      <trkpt lat="47.58989" lon="-2.2467">
        <ele>80.89</ele>
        <time>2019-08-26T09:49:40.000Z</time>
      </trkpt>
      <trkpt lat="47.58989" lon="-2.24672">
        <ele>80.41</ele>
        <time>2019-08-26T09:49:41.000Z</time>
      </trkpt>
      <trkpt lat="47.5899" lon="-2.24673">
        <ele>80.4</ele>
        <time>2019-08-26T09:49:42.000Z</time>
      </trkpt>
      <trkpt lat="47.58991" lon="-2.24675">
        <ele>80.22</ele>
        <time>2019-08-26T09:49:43.000Z</time>
      </trkpt>
      <trkpt lat="47.58991" lon="-2.24676">
        <ele>79.96</ele>
        <time>2019-08-26T09:49:44.000Z</time>
      </trkpt>
      <trkpt lat="47.58991" lon="-2.24678">
        <ele>80</ele>
        <time>2019-08-26T09:49:45.000Z</time>
      </trkpt>
      <trkpt lat="47.58991" lon="-2.2468">
        <ele>79.85</ele>
        <time>2019-08-26T09:49:46.000Z</time>
      </trkpt>
      <trkpt lat="47.58992" lon="-2.24682">
        <ele>79.88</ele>
        <time>2019-08-26T09:49:47.000Z</time>
      </trkpt>
      <trkpt lat="47.58992" lon="-2.24684">
        <ele>80.38</ele>
        <time>2019-08-26T09:49:48.000Z</time>
      </trkpt>
      <trkpt lat="47.58992" lon="-2.24686">
        <ele>79.67</ele>
        <time>2019-08-26T09:49:49.000Z</time>
      </trkpt>
      <trkpt lat="47.58993" lon="-2.24688">
        <ele>79.75</ele>
        <time>2019-08-26T09:49:50.000Z</time>
      </trkpt>
      <trkpt lat="47.58994" lon="-2.2469">
        <ele>80.06</ele>
        <time>2019-08-26T09:49:51.000Z</time>
      </trkpt>
      <trkpt lat="47.58994" lon="-2.24691">
        <ele>80.91</ele>
        <time>2019-08-26T09:49:52.000Z</time>
      </trkpt>
      <trkpt lat="47.58995" lon="-2.24693">
        <ele>81.44</ele>
        <time>2019-08-26T09:49:53.000Z</time>
      </trkpt>
      <trkpt lat="47.58995" lon="-2.24694">
        <ele>81.15</ele>
        <time>2019-08-26T09:49:54.000Z</time>
      </trkpt>
      <trkpt lat="47.58996" lon="-2.24696">
        <ele>80.73</ele>
        <time>2019-08-26T09:49:55.000Z</time>
      </trkpt>
      <trkpt lat="47.58996" lon="-2.24697">
        <ele>80.25</ele>
        <time>2019-08-26T09:49:56.000Z</time>
      </trkpt>
      <trkpt lat="47.58996" lon="-2.24699">
        <ele>80.41</ele>
        <time>2019-08-26T09:49:57.000Z</time>
      </trkpt>
      <trkpt lat="47.58997" lon="-2.247">
        <ele>79.92</ele>
        <time>2019-08-26T09:49:58.000Z</time>
      </trkpt>
      <trkpt lat="47.58997" lon="-2.24701">
        <ele>79.98</ele>
        <time>2019-08-26T09:49:59.000Z</time>
      </trkpt>
      <trkpt lat="47.58997" lon="-2.24703">
        <ele>80.09</ele>
        <time>2019-08-26T09:50:00.000Z</time>
      </trkpt>
      <trkpt lat="47.58998" lon="-2.24705">
        <ele>79.85</ele>
        <time>2019-08-26T09:50:01.000Z</time>
      </trkpt>
      <trkpt lat="47.58998" lon="-2.24706">
        <ele>79.79</ele>
        <time>2019-08-26T09:50:02.000Z</time>
      </trkpt>
      <trkpt lat="47.58999" lon="-2.24708">
        <ele>79.27</ele>
        <time>2019-08-26T09:50:03.000Z</time>
      </trkpt>
      <trkpt lat="47.58999" lon="-2.24709">
        <ele>79.2</ele>
        <time>2019-08-26T09:50:04.000Z</time>
      </trkpt>
      <trkpt lat="47.58999" lon="-2.24711">
        <ele>79.29</ele>
        <time>2019-08-26T09:50:05.000Z</time>
      </trkpt>
      <trkpt lat="47.59" lon="-2.24712">
        <ele>80</ele>
        <time>2019-08-26T09:50:06.000Z</time>
      </trkpt>
      <trkpt lat="47.59" lon="-2.24714">
        <ele>80.06</ele>
        <time>2019-08-26T09:50:07.000Z</time>
      </trkpt>
      <trkpt lat="47.59001" lon="-2.24715">
        <ele>79.8</ele>
        <time>2019-08-26T09:50:08.000Z</time>
      </trkpt>
      <trkpt lat="47.59001" lon="-2.24716">
        <ele>79.08</ele>
        <time>2019-08-26T09:50:09.000Z</time>
      </trkpt>
      <trkpt lat="47.59001" lon="-2.24718">
        <ele>79.73</ele>
        <time>2019-08-26T09:50:10.000Z</time>
      </trkpt>
      <trkpt lat="47.59002" lon="-2.24719">
        <ele>79.88</ele>
        <time>2019-08-26T09:50:11.000Z</time>
      </trkpt>
      <trkpt lat="47.59002" lon="-2.24721">
        <ele>79.48</ele>
        <time>2019-08-26T09:50:12.000Z</time>
      </trkpt>
      <trkpt lat="47.59003" lon="-2.24722">
        <ele>80.22</ele>
        <time>2019-08-26T09:50:13.000Z</time>
      </trkpt>
      <trkpt lat="47.59003" lon="-2.24724">
        <ele>81.42</ele>
        <time>2019-08-26T09:50:14.000Z</time>
      </trkpt>
      <trkpt lat="47.59004" lon="-2.24725">
        <ele>81.92</ele>
        <time>2019-08-26T09:50:15.000Z</time>
      </trkpt>
      <trkpt lat="47.59005" lon="-2.24727">
        <ele>81.57</ele>
        <time>2019-08-26T09:50:16.000Z</time>
      </trkpt>
      <trkpt lat="47.59006" lon="-2.24728">
        <ele>81.66</ele>
        <time>2019-08-26T09:50:17.000Z</time>
      </trkpt>
      <trkpt lat="47.59006" lon="-2.2473">
        <ele>81.89</ele>
        <time>2019-08-26T09:50:18.000Z</time>
      </trkpt>
      <trkpt lat="47.59007" lon="-2.24731">
        <ele>82.4</ele>
        <time>2019-08-26T09:50:19.000Z</time>
      </trkpt>
      <trkpt lat="47.59008" lon="-2.24733">
        <ele>83.43</ele>
        <time>2019-08-26T09:50:20.000Z</time>
      </trkpt>
      <trkpt lat="47.59008" lon="-2.24734">
        <ele>84.49</ele>
        <time>2019-08-26T09:50:21.000Z</time>
      </trkpt>
      <trkpt lat="47.59009" lon="-2.24735">
        <ele>84.93</ele>
        <time>2019-08-26T09:50:22.000Z</time>
      </trkpt>
      <trkpt lat="47.5901" lon="-2.24736">
        <ele>85.04</ele>
        <time>2019-08-26T09:50:23.000Z</time>
      </trkpt>
      <trkpt lat="47.59011" lon="-2.24737">
        <ele>84.8</ele>
        <time>2019-08-26T09:50:24.000Z</time>
      </trkpt>
      <trkpt lat="47.59012" lon="-2.24738">
        <ele>84.89</ele>
        <time>2019-08-26T09:50:25.000Z</time>
      </trkpt>
      <trkpt lat="47.59012" lon="-2.24739">
        <ele>84.75</ele>
        <time>2019-08-26T09:50:26.000Z</time>
      </trkpt>
      <trkpt lat="47.59013" lon="-2.24741">
        <ele>84.27</ele>
        <time>2019-08-26T09:50:27.000Z</time>
      </trkpt>
      <trkpt lat="47.59013" lon="-2.24742">
        <ele>84.65</ele>
        <time>2019-08-26T09:50:28.000Z</time>
      </trkpt>
      <trkpt lat="47.59014" lon="-2.24744">
        <ele>84.23</ele>
        <time>2019-08-26T09:50:29.000Z</time>
      </trkpt>
      <trkpt lat="47.59014" lon="-2.24745">
        <ele>84.24</ele>
        <time>2019-08-26T09:50:30.000Z</time>
      </trkpt>
      <trkpt lat="47.59015" lon="-2.24746">
        <ele>84.26</ele>
        <time>2019-08-26T09:50:31.000Z</time>
      </trkpt>
      <trkpt lat="47.59016" lon="-2.24748">
        <ele>84.38</ele>
        <time>2019-08-26T09:50:32.000Z</time>
      </trkpt>
      <trkpt lat="47.59016" lon="-2.24749">
        <ele>85.17</ele>
        <time>2019-08-26T09:50:33.000Z</time>
      </trkpt>
      <trkpt lat="47.59017" lon="-2.24751">
        <ele>85.12</ele>
        <time>2019-08-26T09:50:34.000Z</time>
      </trkpt>
      <trkpt lat="47.59017" lon="-2.24752">
        <ele>84.06</ele>
        <time>2019-08-26T09:50:35.000Z</time>
      </trkpt>
      <trkpt lat="47.59018" lon="-2.24753">
        <ele>84.21</ele>
        <time>2019-08-26T09:50:36.000Z</time>
      </trkpt>
      <trkpt lat="47.59018" lon="-2.24755">
        <ele>83.75</ele>
        <time>2019-08-26T09:50:37.000Z</time>
      </trkpt>
      <trkpt lat="47.59019" lon="-2.24756">
        <ele>83.77</ele>
        <time>2019-08-26T09:50:38.000Z</time>
      </trkpt>
      <trkpt lat="47.59019" lon="-2.24757">
        <ele>83.24</ele>
        <time>2019-08-26T09:50:39.000Z</time>
      </trkpt>
      <trkpt lat="47.5902" lon="-2.2476">
        <ele>83.57</ele>
        <time>2019-08-26T09:50:41.000Z</time>
      </trkpt>
      <trkpt lat="47.59021" lon="-2.24761">
        <ele>83.43</ele>
        <time>2019-08-26T09:50:42.000Z</time>
      </trkpt>
      <trkpt lat="47.59021" lon="-2.24763">
        <ele>83.2</ele>
        <time>2019-08-26T09:50:43.000Z</time>
      </trkpt>
      <trkpt lat="47.59022" lon="-2.24764">
        <ele>82.61</ele>
        <time>2019-08-26T09:50:44.000Z</time>
      </trkpt>
      <trkpt lat="47.59023" lon="-2.24766">
        <ele>82.67</ele>
        <time>2019-08-26T09:50:46.000Z</time>
      </trkpt>
      <trkpt lat="47.59023" lon="-2.24768">
        <ele>83.21</ele>
        <time>2019-08-26T09:50:47.000Z</time>
      </trkpt>
      <trkpt lat="47.59024" lon="-2.24769">
        <ele>83.97</ele>
        <time>2019-08-26T09:50:48.000Z</time>
      </trkpt>
      <trkpt lat="47.59025" lon="-2.2477">
        <ele>84.18</ele>
        <time>2019-08-26T09:50:49.000Z</time>
      </trkpt>
      <trkpt lat="47.59026" lon="-2.24772">
        <ele>84.76</ele>
        <time>2019-08-26T09:50:50.000Z</time>
      </trkpt>
      <trkpt lat="47.59028" lon="-2.24772">
        <ele>83.38</ele>
        <time>2019-08-26T09:50:51.000Z</time>
      </trkpt>
      <trkpt lat="47.59029" lon="-2.24773">
        <ele>82.79</ele>
        <time>2019-08-26T09:50:52.000Z</time>
      </trkpt>
      <trkpt lat="47.59029" lon="-2.24774">
        <ele>82.43</ele>
        <time>2019-08-26T09:50:53.000Z</time>
      </trkpt>
      <trkpt lat="47.59031" lon="-2.24774">
        <ele>82.08</ele>
        <time>2019-08-26T09:50:54.000Z</time>
      </trkpt>
      <trkpt lat="47.59032" lon="-2.24774">
        <ele>79.11</ele>
        <time>2019-08-26T09:50:56.000Z</time>
      </trkpt>
      <trkpt lat="47.59033" lon="-2.24774">
        <ele>79.18</ele>
        <time>2019-08-26T09:50:57.000Z</time>
      </trkpt>
      <trkpt lat="47.59034" lon="-2.24773">
        <ele>79.28</ele>
        <time>2019-08-26T09:50:58.000Z</time>
      </trkpt>
      <trkpt lat="47.59036" lon="-2.24772">
        <ele>78.81</ele>
        <time>2019-08-26T09:50:59.000Z</time>
      </trkpt>
      <trkpt lat="47.59037" lon="-2.24771">
        <ele>79</ele>
        <time>2019-08-26T09:51:00.000Z</time>
      </trkpt>
      <trkpt lat="47.59037" lon="-2.24771">
        <ele>78.54</ele>
        <time>2019-08-26T09:51:01.000Z</time>
      </trkpt>
      <trkpt lat="47.59039" lon="-2.2477">
        <ele>78.76</ele>
        <time>2019-08-26T09:51:02.000Z</time>
      </trkpt>
      <trkpt lat="47.5904" lon="-2.2477">
        <ele>78.56</ele>
        <time>2019-08-26T09:51:03.000Z</time>
      </trkpt>
      <trkpt lat="47.59041" lon="-2.24768">
        <ele>79.3</ele>
        <time>2019-08-26T09:51:05.000Z</time>
      </trkpt>
      <trkpt lat="47.59042" lon="-2.24768">
        <ele>80.15</ele>
        <time>2019-08-26T09:51:06.000Z</time>
      </trkpt>
      <trkpt lat="47.59043" lon="-2.24768">
        <ele>80.29</ele>
        <time>2019-08-26T09:51:07.000Z</time>
      </trkpt>
      <trkpt lat="47.59044" lon="-2.24767">
        <ele>80.46</ele>
        <time>2019-08-26T09:51:08.000Z</time>
      </trkpt>
      <trkpt lat="47.59045" lon="-2.24767">
        <ele>80.54</ele>
        <time>2019-08-26T09:51:09.000Z</time>
      </trkpt>
      <trkpt lat="47.59047" lon="-2.24766">
        <ele>78.68</ele>
        <time>2019-08-26T09:51:10.000Z</time>
      </trkpt>
      <trkpt lat="47.59048" lon="-2.24766">
        <ele>77.82</ele>
        <time>2019-08-26T09:51:12.000Z</time>
      </trkpt>
      <trkpt lat="47.59049" lon="-2.24766">
        <ele>78.19</ele>
        <time>2019-08-26T09:51:13.000Z</time>
      </trkpt>
      <trkpt lat="47.5905" lon="-2.24766">
        <ele>78.53</ele>
        <time>2019-08-26T09:51:14.000Z</time>
      </trkpt>
      <trkpt lat="47.59052" lon="-2.24766">
        <ele>77.48</ele>
        <time>2019-08-26T09:51:16.000Z</time>
      </trkpt>
      <trkpt lat="47.59053" lon="-2.24767">
        <ele>76.97</ele>
        <time>2019-08-26T09:51:18.000Z</time>
      </trkpt>
      <trkpt lat="47.59055" lon="-2.24768">
        <ele>75.74</ele>
        <time>2019-08-26T09:51:19.000Z</time>
      </trkpt>
      <trkpt lat="47.59056" lon="-2.24768">
        <ele>75.68</ele>
        <time>2019-08-26T09:51:20.000Z</time>
      </trkpt>
      <trkpt lat="47.59057" lon="-2.24769">
        <ele>75.42</ele>
        <time>2019-08-26T09:51:21.000Z</time>
      </trkpt>
      <trkpt lat="47.59059" lon="-2.24769">
        <ele>75.59</ele>
        <time>2019-08-26T09:51:22.000Z</time>
      </trkpt>
      <trkpt lat="47.5906" lon="-2.24769">
        <ele>76.23</ele>
        <time>2019-08-26T09:51:23.000Z</time>
      </trkpt>
      <trkpt lat="47.59062" lon="-2.24769">
        <ele>76.07</ele>
        <time>2019-08-26T09:51:24.000Z</time>
      </trkpt>
      <trkpt lat="47.59063" lon="-2.24769">
        <ele>76.58</ele>
        <time>2019-08-26T09:51:25.000Z</time>
      </trkpt>
      <trkpt lat="47.59065" lon="-2.24769">
        <ele>76.95</ele>
        <time>2019-08-26T09:51:26.000Z</time>
      </trkpt>
      <trkpt lat="47.59065" lon="-2.24768">
        <ele>76.93</ele>
        <time>2019-08-26T09:51:27.000Z</time>
      </trkpt>
      <trkpt lat="47.59066" lon="-2.24768">
        <ele>78.16</ele>
        <time>2019-08-26T09:51:28.000Z</time>
      </trkpt>
      <trkpt lat="47.59068" lon="-2.24768">
        <ele>77.79</ele>
        <time>2019-08-26T09:51:29.000Z</time>
      </trkpt>
      <trkpt lat="47.59069" lon="-2.24768">
        <ele>77.69</ele>
        <time>2019-08-26T09:51:30.000Z</time>
      </trkpt>
      <trkpt lat="47.5907" lon="-2.24768">
        <ele>78.18</ele>
        <time>2019-08-26T09:51:31.000Z</time>
      </trkpt>
      <trkpt lat="47.59071" lon="-2.24767">
        <ele>77.39</ele>
        <time>2019-08-26T09:51:32.000Z</time>
      </trkpt>
      <trkpt lat="47.59073" lon="-2.24767">
        <ele>76.89</ele>
        <time>2019-08-26T09:51:33.000Z</time>
      </trkpt>
      <trkpt lat="47.59074" lon="-2.24767">
        <ele>76.57</ele>
        <time>2019-08-26T09:51:34.000Z</time>
      </trkpt>
      <trkpt lat="47.59075" lon="-2.24767">
        <ele>76.39</ele>
        <time>2019-08-26T09:51:35.000Z</time>
      </trkpt>
      <trkpt lat="47.59076" lon="-2.24767">
        <ele>77.29</ele>
        <time>2019-08-26T09:51:36.000Z</time>
      </trkpt>
      <trkpt lat="47.59078" lon="-2.24767">
        <ele>77.24</ele>
        <time>2019-08-26T09:51:37.000Z</time>
      </trkpt>
      <trkpt lat="47.59079" lon="-2.24766">
        <ele>77.79</ele>
        <time>2019-08-26T09:51:38.000Z</time>
      </trkpt>
      <trkpt lat="47.5908" lon="-2.24766">
        <ele>78.04</ele>
        <time>2019-08-26T09:51:39.000Z</time>
      </trkpt>
      <trkpt lat="47.59081" lon="-2.24766">
        <ele>78.74</ele>
        <time>2019-08-26T09:51:40.000Z</time>
      </trkpt>
      <trkpt lat="47.59082" lon="-2.24766">
        <ele>78.66</ele>
        <time>2019-08-26T09:51:41.000Z</time>
      </trkpt>
      <trkpt lat="47.59083" lon="-2.24766">
        <ele>78.97</ele>
        <time>2019-08-26T09:51:42.000Z</time>
      </trkpt>
      <trkpt lat="47.59084" lon="-2.24766">
        <ele>79.15</ele>
        <time>2019-08-26T09:51:43.000Z</time>
      </trkpt>
      <trkpt lat="47.59086" lon="-2.24766">
        <ele>78.86</ele>
        <time>2019-08-26T09:51:44.000Z</time>
      </trkpt>
      <trkpt lat="47.59087" lon="-2.24766">
        <ele>78.64</ele>
        <time>2019-08-26T09:51:45.000Z</time>
      </trkpt>
      <trkpt lat="47.59088" lon="-2.24766">
        <ele>77.35</ele>
        <time>2019-08-26T09:51:46.000Z</time>
      </trkpt>
      <trkpt lat="47.59089" lon="-2.24766">
        <ele>77.13</ele>
        <time>2019-08-26T09:51:47.000Z</time>
      </trkpt>
      <trkpt lat="47.5909" lon="-2.24767">
        <ele>75.63</ele>
        <time>2019-08-26T09:51:48.000Z</time>
      </trkpt>
      <trkpt lat="47.59091" lon="-2.24767">
        <ele>75.56</ele>
        <time>2019-08-26T09:51:49.000Z</time>
      </trkpt>
      <trkpt lat="47.59092" lon="-2.24768">
        <ele>75.99</ele>
        <time>2019-08-26T09:51:50.000Z</time>
      </trkpt>
      <trkpt lat="47.59094" lon="-2.24768">
        <ele>76.56</ele>
        <time>2019-08-26T09:51:51.000Z</time>
      </trkpt>
      <trkpt lat="47.59094" lon="-2.24768">
        <ele>76.94</ele>
        <time>2019-08-26T09:51:52.000Z</time>
      </trkpt>
      <trkpt lat="47.59096" lon="-2.24768">
        <ele>77.54</ele>
        <time>2019-08-26T09:51:53.000Z</time>
      </trkpt>
      <trkpt lat="47.59097" lon="-2.24768">
        <ele>76.01</ele>
        <time>2019-08-26T09:51:54.000Z</time>
      </trkpt>
      <trkpt lat="47.59098" lon="-2.24767">
        <ele>76.43</ele>
        <time>2019-08-26T09:51:55.000Z</time>
      </trkpt>
      <trkpt lat="47.59099" lon="-2.24767">
        <ele>76.16</ele>
        <time>2019-08-26T09:51:56.000Z</time>
      </trkpt>
      <trkpt lat="47.591" lon="-2.24767">
        <ele>75.81</ele>
        <time>2019-08-26T09:51:57.000Z</time>
      </trkpt>
      <trkpt lat="47.59101" lon="-2.24767">
        <ele>76.41</ele>
        <time>2019-08-26T09:51:58.000Z</time>
      </trkpt>
      <trkpt lat="47.59102" lon="-2.24767">
        <ele>76.52</ele>
        <time>2019-08-26T09:51:59.000Z</time>
      </trkpt>
      <trkpt lat="47.59103" lon="-2.24767">
        <ele>76.61</ele>
        <time>2019-08-26T09:52:00.000Z</time>
      </trkpt>
      <trkpt lat="47.59105" lon="-2.24767">
        <ele>77.31</ele>
        <time>2019-08-26T09:52:01.000Z</time>
      </trkpt>
      <trkpt lat="47.59106" lon="-2.24767">
        <ele>78.26</ele>
        <time>2019-08-26T09:52:02.000Z</time>
      </trkpt>
      <trkpt lat="47.59108" lon="-2.24767">
        <ele>77.9</ele>
        <time>2019-08-26T09:52:03.000Z</time>
      </trkpt>
      <trkpt lat="47.59109" lon="-2.24767">
        <ele>77.68</ele>
        <time>2019-08-26T09:52:04.000Z</time>
      </trkpt>
      <trkpt lat="47.5911" lon="-2.24767">
        <ele>78.13</ele>
        <time>2019-08-26T09:52:05.000Z</time>
      </trkpt>
      <trkpt lat="47.59111" lon="-2.24767">
        <ele>77.51</ele>
        <time>2019-08-26T09:52:06.000Z</time>
      </trkpt>
      <trkpt lat="47.59113" lon="-2.24767">
        <ele>77.23</ele>
        <time>2019-08-26T09:52:07.000Z</time>
      </trkpt>
      <trkpt lat="47.59114" lon="-2.24768">
        <ele>76.6</ele>
        <time>2019-08-26T09:52:08.000Z</time>
      </trkpt>
      <trkpt lat="47.59115" lon="-2.24768">
        <ele>75.92</ele>
        <time>2019-08-26T09:52:09.000Z</time>
      </trkpt>
      <trkpt lat="47.59116" lon="-2.24768">
        <ele>76.03</ele>
        <time>2019-08-26T09:52:10.000Z</time>
      </trkpt>
      <trkpt lat="47.59118" lon="-2.24769">
        <ele>75.59</ele>
        <time>2019-08-26T09:52:11.000Z</time>
      </trkpt>
      <trkpt lat="47.59119" lon="-2.24769">
        <ele>75.1</ele>
        <time>2019-08-26T09:52:12.000Z</time>
      </trkpt>
      <trkpt lat="47.5912" lon="-2.24769">
        <ele>74.95</ele>
        <time>2019-08-26T09:52:13.000Z</time>
      </trkpt>
      <trkpt lat="47.59122" lon="-2.24769">
        <ele>74.35</ele>
        <time>2019-08-26T09:52:14.000Z</time>
      </trkpt>
      <trkpt lat="47.59123" lon="-2.24769">
        <ele>74.98</ele>
        <time>2019-08-26T09:52:15.000Z</time>
      </trkpt>
      <trkpt lat="47.59125" lon="-2.24769">
        <ele>76.06</ele>
        <time>2019-08-26T09:52:16.000Z</time>
      </trkpt>
      <trkpt lat="47.59126" lon="-2.24769">
        <ele>75.28</ele>
        <time>2019-08-26T09:52:17.000Z</time>
      </trkpt>
      <trkpt lat="47.59127" lon="-2.24769">
        <ele>75.39</ele>
        <time>2019-08-26T09:52:18.000Z</time>
      </trkpt>
      <trkpt lat="47.59128" lon="-2.2477">
        <ele>74.86</ele>
        <time>2019-08-26T09:52:19.000Z</time>
      </trkpt>
      <trkpt lat="47.59129" lon="-2.2477">
        <ele>74.46</ele>
        <time>2019-08-26T09:52:20.000Z</time>
      </trkpt>
      <trkpt lat="47.59131" lon="-2.2477">
        <ele>74.45</ele>
        <time>2019-08-26T09:52:21.000Z</time>
      </trkpt>
      <trkpt lat="47.59132" lon="-2.2477">
        <ele>74.27</ele>
        <time>2019-08-26T09:52:22.000Z</time>
      </trkpt>
      <trkpt lat="47.59134" lon="-2.2477">
        <ele>74.51</ele>
        <time>2019-08-26T09:52:23.000Z</time>
      </trkpt>
      <trkpt lat="47.59135" lon="-2.24771">
        <ele>73.86</ele>
        <time>2019-08-26T09:52:24.000Z</time>
      </trkpt>
      <trkpt lat="47.59136" lon="-2.24771">
        <ele>73.7</ele>
        <time>2019-08-26T09:52:25.000Z</time>
      </trkpt>
      <trkpt lat="47.59137" lon="-2.24771">
        <ele>73.6</ele>
        <time>2019-08-26T09:52:26.000Z</time>
      </trkpt>
      <trkpt lat="47.59138" lon="-2.24772">
        <ele>73.86</ele>
        <time>2019-08-26T09:52:27.000Z</time>
      </trkpt>
      <trkpt lat="47.59139" lon="-2.24772">
        <ele>73.87</ele>
        <time>2019-08-26T09:52:28.000Z</time>
      </trkpt>
      <trkpt lat="47.5914" lon="-2.24772">
        <ele>73.86</ele>
        <time>2019-08-26T09:52:29.000Z</time>
      </trkpt>
      <trkpt lat="47.59142" lon="-2.24773">
        <ele>73.5</ele>
        <time>2019-08-26T09:52:30.000Z</time>
      </trkpt>
      <trkpt lat="47.59143" lon="-2.24774">
        <ele>73.81</ele>
        <time>2019-08-26T09:52:31.000Z</time>
      </trkpt>
      <trkpt lat="47.59144" lon="-2.24774">
        <ele>74.1</ele>
        <time>2019-08-26T09:52:32.000Z</time>
      </trkpt>
      <trkpt lat="47.59146" lon="-2.24775">
        <ele>73.82</ele>
        <time>2019-08-26T09:52:33.000Z</time>
      </trkpt>
      <trkpt lat="47.59147" lon="-2.24775">
        <ele>73.44</ele>
        <time>2019-08-26T09:52:34.000Z</time>
      </trkpt>
      <trkpt lat="47.59148" lon="-2.24776">
        <ele>72.55</ele>
        <time>2019-08-26T09:52:35.000Z</time>
      </trkpt>
      <trkpt lat="47.5915" lon="-2.24776">
        <ele>72.58</ele>
        <time>2019-08-26T09:52:36.000Z</time>
      </trkpt>
      <trkpt lat="47.59151" lon="-2.24776">
        <ele>72.1</ele>
        <time>2019-08-26T09:52:37.000Z</time>
      </trkpt>
      <trkpt lat="47.59152" lon="-2.24776">
        <ele>71.22</ele>
        <time>2019-08-26T09:52:38.000Z</time>
      </trkpt>
      <trkpt lat="47.59153" lon="-2.24776">
        <ele>70.23</ele>
        <time>2019-08-26T09:52:39.000Z</time>
      </trkpt>
      <trkpt lat="47.59154" lon="-2.24776">
        <ele>70.78</ele>
        <time>2019-08-26T09:52:40.000Z</time>
      </trkpt>
      <trkpt lat="47.59155" lon="-2.24776">
        <ele>72.07</ele>
        <time>2019-08-26T09:52:41.000Z</time>
      </trkpt>
      <trkpt lat="47.59157" lon="-2.24776">
        <ele>70.82</ele>
        <time>2019-08-26T09:52:43.000Z</time>
      </trkpt>
      <trkpt lat="47.59158" lon="-2.24776">
        <ele>71.43</ele>
        <time>2019-08-26T09:52:44.000Z</time>
      </trkpt>
      <trkpt lat="47.59159" lon="-2.24777">
        <ele>71.3</ele>
        <time>2019-08-26T09:52:45.000Z</time>
      </trkpt>
      <trkpt lat="47.5916" lon="-2.24777">
        <ele>71.19</ele>
        <time>2019-08-26T09:52:46.000Z</time>
      </trkpt>
      <trkpt lat="47.59161" lon="-2.24777">
        <ele>71.21</ele>
        <time>2019-08-26T09:52:47.000Z</time>
      </trkpt>
      <trkpt lat="47.59162" lon="-2.24776">
        <ele>71.53</ele>
        <time>2019-08-26T09:52:48.000Z</time>
      </trkpt>
      <trkpt lat="47.59163" lon="-2.24776">
        <ele>72.1</ele>
        <time>2019-08-26T09:52:49.000Z</time>
      </trkpt>
      <trkpt lat="47.59165" lon="-2.24776">
        <ele>71.75</ele>
        <time>2019-08-26T09:52:50.000Z</time>
      </trkpt>
      <trkpt lat="47.59166" lon="-2.24776">
        <ele>71.15</ele>
        <time>2019-08-26T09:52:51.000Z</time>
      </trkpt>
      <trkpt lat="47.59167" lon="-2.24776">
        <ele>71.25</ele>
        <time>2019-08-26T09:52:52.000Z</time>
      </trkpt>
      <trkpt lat="47.59169" lon="-2.24776">
        <ele>71.5</ele>
        <time>2019-08-26T09:52:53.000Z</time>
      </trkpt>
      <trkpt lat="47.5917" lon="-2.24775">
        <ele>71.5</ele>
        <time>2019-08-26T09:52:54.000Z</time>
      </trkpt>
      <trkpt lat="47.59171" lon="-2.24775">
        <ele>71.17</ele>
        <time>2019-08-26T09:52:55.000Z</time>
      </trkpt>
      <trkpt lat="47.59173" lon="-2.24774">
        <ele>71</ele>
        <time>2019-08-26T09:52:56.000Z</time>
      </trkpt>
      <trkpt lat="47.59174" lon="-2.24774">
        <ele>71.12</ele>
        <time>2019-08-26T09:52:57.000Z</time>
      </trkpt>
      <trkpt lat="47.59176" lon="-2.24773">
        <ele>70.96</ele>
        <time>2019-08-26T09:52:58.000Z</time>
      </trkpt>
      <trkpt lat="47.59178" lon="-2.24773">
        <ele>70.6</ele>
        <time>2019-08-26T09:52:59.000Z</time>
      </trkpt>
      <trkpt lat="47.59179" lon="-2.24773">
        <ele>70.39</ele>
        <time>2019-08-26T09:53:00.000Z</time>
      </trkpt>
      <trkpt lat="47.5918" lon="-2.24772">
        <ele>70.03</ele>
        <time>2019-08-26T09:53:01.000Z</time>
      </trkpt>
      <trkpt lat="47.59182" lon="-2.24772">
        <ele>70.09</ele>
        <time>2019-08-26T09:53:02.000Z</time>
      </trkpt>
      <trkpt lat="47.59183" lon="-2.24771">
        <ele>70.37</ele>
        <time>2019-08-26T09:53:03.000Z</time>
      </trkpt>
      <trkpt lat="47.59184" lon="-2.24771">
        <ele>69.71</ele>
        <time>2019-08-26T09:53:04.000Z</time>
      </trkpt>
      <trkpt lat="47.59185" lon="-2.24771">
        <ele>68.97</ele>
        <time>2019-08-26T09:53:05.000Z</time>
      </trkpt>
      <trkpt lat="47.59186" lon="-2.24771">
        <ele>68.6</ele>
        <time>2019-08-26T09:53:06.000Z</time>
      </trkpt>
      <trkpt lat="47.59187" lon="-2.24771">
        <ele>68.47</ele>
        <time>2019-08-26T09:53:07.000Z</time>
      </trkpt>
      <trkpt lat="47.59188" lon="-2.24771">
        <ele>68.28</ele>
        <time>2019-08-26T09:53:08.000Z</time>
      </trkpt>
      <trkpt lat="47.59189" lon="-2.2477">
        <ele>68.14</ele>
        <time>2019-08-26T09:53:09.000Z</time>
      </trkpt>
      <trkpt lat="47.5919" lon="-2.2477">
        <ele>68.15</ele>
        <time>2019-08-26T09:53:10.000Z</time>
      </trkpt>
      <trkpt lat="47.59191" lon="-2.2477">
        <ele>67.98</ele>
        <time>2019-08-26T09:53:11.000Z</time>
      </trkpt>
      <trkpt lat="47.59193" lon="-2.2477">
        <ele>67.76</ele>
        <time>2019-08-26T09:53:13.000Z</time>
      </trkpt>
      <trkpt lat="47.59194" lon="-2.2477">
        <ele>67.8</ele>
        <time>2019-08-26T09:53:14.000Z</time>
      </trkpt>
      <trkpt lat="47.59195" lon="-2.24769">
        <ele>67.41</ele>
        <time>2019-08-26T09:53:15.000Z</time>
      </trkpt>
      <trkpt lat="47.59196" lon="-2.24769">
        <ele>66.97</ele>
        <time>2019-08-26T09:53:16.000Z</time>
      </trkpt>
      <trkpt lat="47.59197" lon="-2.24769">
        <ele>67.04</ele>
        <time>2019-08-26T09:53:17.000Z</time>
      </trkpt>
      <trkpt lat="47.59198" lon="-2.24768">
        <ele>66.75</ele>
        <time>2019-08-26T09:53:18.000Z</time>
      </trkpt>
      <trkpt lat="47.59199" lon="-2.24768">
        <ele>66.66</ele>
        <time>2019-08-26T09:53:19.000Z</time>
      </trkpt>
      <trkpt lat="47.592" lon="-2.24768">
        <ele>66.17</ele>
        <time>2019-08-26T09:53:20.000Z</time>
      </trkpt>
      <trkpt lat="47.59201" lon="-2.24767">
        <ele>66.43</ele>
        <time>2019-08-26T09:53:21.000Z</time>
      </trkpt>
      <trkpt lat="47.59203" lon="-2.24767">
        <ele>66.48</ele>
        <time>2019-08-26T09:53:22.000Z</time>
      </trkpt>
      <trkpt lat="47.59203" lon="-2.24767">
        <ele>66.9</ele>
        <time>2019-08-26T09:53:23.000Z</time>
      </trkpt>
      <trkpt lat="47.59205" lon="-2.24767">
        <ele>67.04</ele>
        <time>2019-08-26T09:53:24.000Z</time>
      </trkpt>
      <trkpt lat="47.59206" lon="-2.24767">
        <ele>66.92</ele>
        <time>2019-08-26T09:53:25.000Z</time>
      </trkpt>
      <trkpt lat="47.59207" lon="-2.24766">
        <ele>67.15</ele>
        <time>2019-08-26T09:53:26.000Z</time>
      </trkpt>
      <trkpt lat="47.59208" lon="-2.24766">
        <ele>67.39</ele>
        <time>2019-08-26T09:53:27.000Z</time>
      </trkpt>
      <trkpt lat="47.59209" lon="-2.24765">
        <ele>67.5</ele>
        <time>2019-08-26T09:53:28.000Z</time>
      </trkpt>
      <trkpt lat="47.59211" lon="-2.24765">
        <ele>66.62</ele>
        <time>2019-08-26T09:53:30.000Z</time>
      </trkpt>
      <trkpt lat="47.59212" lon="-2.24765">
        <ele>64.62</ele>
        <time>2019-08-26T09:53:32.000Z</time>
      </trkpt>
      <trkpt lat="47.59214" lon="-2.24763">
        <ele>64.93</ele>
        <time>2019-08-26T09:53:34.000Z</time>
      </trkpt>
      <trkpt lat="47.59214" lon="-2.24762">
        <ele>64.34</ele>
        <time>2019-08-26T09:53:35.000Z</time>
      </trkpt>
      <trkpt lat="47.59216" lon="-2.24761">
        <ele>64.36</ele>
        <time>2019-08-26T09:53:37.000Z</time>
      </trkpt>
      <trkpt lat="47.59217" lon="-2.2476">
        <ele>63.49</ele>
        <time>2019-08-26T09:53:38.000Z</time>
      </trkpt>
      <trkpt lat="47.59219" lon="-2.24759">
        <ele>61.84</ele>
        <time>2019-08-26T09:53:40.000Z</time>
      </trkpt>
      <trkpt lat="47.5922" lon="-2.24757">
        <ele>61.62</ele>
        <time>2019-08-26T09:53:41.000Z</time>
      </trkpt>
      <trkpt lat="47.59221" lon="-2.24756">
        <ele>61.7</ele>
        <time>2019-08-26T09:53:42.000Z</time>
      </trkpt>
      <trkpt lat="47.59222" lon="-2.24755">
        <ele>61.52</ele>
        <time>2019-08-26T09:53:43.000Z</time>
      </trkpt>
      <trkpt lat="47.59223" lon="-2.24754">
        <ele>61.18</ele>
        <time>2019-08-26T09:53:44.000Z</time>
      </trkpt>
      <trkpt lat="47.59224" lon="-2.24752">
        <ele>60.72</ele>
        <time>2019-08-26T09:53:45.000Z</time>
      </trkpt>
      <trkpt lat="47.59225" lon="-2.24751">
        <ele>60.68</ele>
        <time>2019-08-26T09:53:46.000Z</time>
      </trkpt>
      <trkpt lat="47.59226" lon="-2.2475">
        <ele>60.13</ele>
        <time>2019-08-26T09:53:47.000Z</time>
      </trkpt>
      <trkpt lat="47.59227" lon="-2.24748">
        <ele>59.79</ele>
        <time>2019-08-26T09:53:48.000Z</time>
      </trkpt>
      <trkpt lat="47.59229" lon="-2.24746">
        <ele>60.54</ele>
        <time>2019-08-26T09:53:49.000Z</time>
      </trkpt>
      <trkpt lat="47.59229" lon="-2.24745">
        <ele>61.91</ele>
        <time>2019-08-26T09:53:50.000Z</time>
      </trkpt>
      <trkpt lat="47.5923" lon="-2.24744">
        <ele>61.55</ele>
        <time>2019-08-26T09:53:51.000Z</time>
      </trkpt>
      <trkpt lat="47.59232" lon="-2.24743">
        <ele>61.04</ele>
        <time>2019-08-26T09:53:52.000Z</time>
      </trkpt>
      <trkpt lat="47.59233" lon="-2.24742">
        <ele>61.78</ele>
        <time>2019-08-26T09:53:53.000Z</time>
      </trkpt>
      <trkpt lat="47.59234" lon="-2.24742">
        <ele>62.25</ele>
        <time>2019-08-26T09:53:54.000Z</time>
      </trkpt>
      <trkpt lat="47.59236" lon="-2.24741">
        <ele>63.27</ele>
        <time>2019-08-26T09:53:55.000Z</time>
      </trkpt>
      <trkpt lat="47.59237" lon="-2.24741">
        <ele>64.08</ele>
        <time>2019-08-26T09:53:56.000Z</time>
      </trkpt>
      <trkpt lat="47.59239" lon="-2.2474">
        <ele>64.23</ele>
        <time>2019-08-26T09:53:57.000Z</time>
      </trkpt>
      <trkpt lat="47.5924" lon="-2.2474">
        <ele>64.42</ele>
        <time>2019-08-26T09:53:58.000Z</time>
      </trkpt>
      <trkpt lat="47.59242" lon="-2.2474">
        <ele>64.06</ele>
        <time>2019-08-26T09:53:59.000Z</time>
      </trkpt>
      <trkpt lat="47.59243" lon="-2.24739">
        <ele>64.38</ele>
        <time>2019-08-26T09:54:00.000Z</time>
      </trkpt>
      <trkpt lat="47.59245" lon="-2.24739">
        <ele>64.71</ele>
        <time>2019-08-26T09:54:01.000Z</time>
      </trkpt>
      <trkpt lat="47.59246" lon="-2.24738">
        <ele>65.41</ele>
        <time>2019-08-26T09:54:02.000Z</time>
      </trkpt>
      <trkpt lat="47.59247" lon="-2.24738">
        <ele>65.34</ele>
        <time>2019-08-26T09:54:03.000Z</time>
      </trkpt>
      <trkpt lat="47.59248" lon="-2.24737">
        <ele>65.28</ele>
        <time>2019-08-26T09:54:04.000Z</time>
      </trkpt>
      <trkpt lat="47.5925" lon="-2.24737">
        <ele>65</ele>
        <time>2019-08-26T09:54:05.000Z</time>
      </trkpt>
      <trkpt lat="47.59251" lon="-2.24737">
        <ele>64.92</ele>
        <time>2019-08-26T09:54:06.000Z</time>
      </trkpt>
      <trkpt lat="47.59253" lon="-2.24736">
        <ele>64.86</ele>
        <time>2019-08-26T09:54:07.000Z</time>
      </trkpt>
      <trkpt lat="47.59254" lon="-2.24736">
        <ele>64.3</ele>
        <time>2019-08-26T09:54:08.000Z</time>
      </trkpt>
      <trkpt lat="47.59255" lon="-2.24736">
        <ele>63.73</ele>
        <time>2019-08-26T09:54:09.000Z</time>
      </trkpt>
      <trkpt lat="47.59257" lon="-2.24736">
        <ele>64.28</ele>
        <time>2019-08-26T09:54:10.000Z</time>
      </trkpt>
      <trkpt lat="47.59258" lon="-2.24735">
        <ele>63.36</ele>
        <time>2019-08-26T09:54:11.000Z</time>
      </trkpt>
      <trkpt lat="47.59259" lon="-2.24735">
        <ele>63.48</ele>
        <time>2019-08-26T09:54:12.000Z</time>
      </trkpt>
      <trkpt lat="47.59261" lon="-2.24735">
        <ele>63.86</ele>
        <time>2019-08-26T09:54:13.000Z</time>
      </trkpt>
      <trkpt lat="47.59262" lon="-2.24735">
        <ele>63.89</ele>
        <time>2019-08-26T09:54:14.000Z</time>
      </trkpt>
      <trkpt lat="47.59263" lon="-2.24735">
        <ele>63.78</ele>
        <time>2019-08-26T09:54:15.000Z</time>
      </trkpt>
      <trkpt lat="47.59264" lon="-2.24735">
        <ele>63.48</ele>
        <time>2019-08-26T09:54:16.000Z</time>
      </trkpt>
      <trkpt lat="47.59266" lon="-2.24735">
        <ele>63.36</ele>
        <time>2019-08-26T09:54:17.000Z</time>
      </trkpt>
      <trkpt lat="47.59267" lon="-2.24735">
        <ele>62.68</ele>
        <time>2019-08-26T09:54:18.000Z</time>
      </trkpt>
      <trkpt lat="47.59268" lon="-2.24735">
        <ele>62.89</ele>
        <time>2019-08-26T09:54:19.000Z</time>
      </trkpt>
      <trkpt lat="47.59269" lon="-2.24734">
        <ele>61.02</ele>
        <time>2019-08-26T09:54:21.000Z</time>
      </trkpt>
      <trkpt lat="47.59271" lon="-2.24734">
        <ele>62.78</ele>
        <time>2019-08-26T09:54:23.000Z</time>
      </trkpt>
      <trkpt lat="47.59272" lon="-2.24734">
        <ele>62.77</ele>
        <time>2019-08-26T09:54:24.000Z</time>
      </trkpt>
      <trkpt lat="47.59273" lon="-2.24734">
        <ele>63.59</ele>
        <time>2019-08-26T09:54:25.000Z</time>
      </trkpt>
      <trkpt lat="47.59274" lon="-2.24734">
        <ele>63.84</ele>
        <time>2019-08-26T09:54:26.000Z</time>
      </trkpt>
      <trkpt lat="47.59275" lon="-2.24734">
        <ele>62.87</ele>
        <time>2019-08-26T09:54:27.000Z</time>
      </trkpt>
      <trkpt lat="47.59275" lon="-2.24734">
        <ele>64.08</ele>
        <time>2019-08-26T09:54:28.000Z</time>
      </trkpt>
      <trkpt lat="47.59277" lon="-2.24734">
        <ele>63.96</ele>
        <time>2019-08-26T09:54:29.000Z</time>
      </trkpt>
      <trkpt lat="47.59278" lon="-2.24733">
        <ele>63.9</ele>
        <time>2019-08-26T09:54:30.000Z</time>
      </trkpt>
      <trkpt lat="47.59279" lon="-2.24733">
        <ele>64.38</ele>
        <time>2019-08-26T09:54:31.000Z</time>
      </trkpt>
      <trkpt lat="47.5928" lon="-2.24732">
        <ele>64.8</ele>
        <time>2019-08-26T09:54:32.000Z</time>
      </trkpt>
      <trkpt lat="47.59282" lon="-2.24732">
        <ele>64.61</ele>
        <time>2019-08-26T09:54:33.000Z</time>
      </trkpt>
      <trkpt lat="47.59283" lon="-2.24731">
        <ele>65.01</ele>
        <time>2019-08-26T09:54:34.000Z</time>
      </trkpt>
      <trkpt lat="47.59284" lon="-2.24731">
        <ele>65.09</ele>
        <time>2019-08-26T09:54:35.000Z</time>
      </trkpt>
      <trkpt lat="47.59285" lon="-2.2473">
        <ele>64.87</ele>
        <time>2019-08-26T09:54:36.000Z</time>
      </trkpt>
      <trkpt lat="47.59287" lon="-2.24729">
        <ele>65.72</ele>
        <time>2019-08-26T09:54:37.000Z</time>
      </trkpt>
      <trkpt lat="47.59288" lon="-2.24729">
        <ele>65.43</ele>
        <time>2019-08-26T09:54:38.000Z</time>
      </trkpt>
      <trkpt lat="47.59289" lon="-2.24728">
        <ele>65.2</ele>
        <time>2019-08-26T09:54:39.000Z</time>
      </trkpt>
      <trkpt lat="47.5929" lon="-2.24728">
        <ele>65.89</ele>
        <time>2019-08-26T09:54:40.000Z</time>
      </trkpt>
      <trkpt lat="47.59291" lon="-2.24728">
        <ele>66.36</ele>
        <time>2019-08-26T09:54:41.000Z</time>
      </trkpt>
      <trkpt lat="47.59292" lon="-2.24728">
        <ele>66.82</ele>
        <time>2019-08-26T09:54:42.000Z</time>
      </trkpt>
      <trkpt lat="47.59293" lon="-2.24728">
        <ele>66.6</ele>
        <time>2019-08-26T09:54:43.000Z</time>
      </trkpt>
      <trkpt lat="47.59295" lon="-2.24727">
        <ele>66.7</ele>
        <time>2019-08-26T09:54:44.000Z</time>
      </trkpt>
      <trkpt lat="47.59296" lon="-2.24727">
        <ele>67.69</ele>
        <time>2019-08-26T09:54:45.000Z</time>
      </trkpt>
      <trkpt lat="47.59297" lon="-2.24727">
        <ele>67.26</ele>
        <time>2019-08-26T09:54:46.000Z</time>
      </trkpt>
      <trkpt lat="47.59298" lon="-2.24727">
        <ele>66.96</ele>
        <time>2019-08-26T09:54:47.000Z</time>
      </trkpt>
      <trkpt lat="47.593" lon="-2.24727">
        <ele>66.23</ele>
        <time>2019-08-26T09:54:48.000Z</time>
      </trkpt>
      <trkpt lat="47.59301" lon="-2.24727">
        <ele>66.56</ele>
        <time>2019-08-26T09:54:49.000Z</time>
      </trkpt>
      <trkpt lat="47.59302" lon="-2.24726">
        <ele>67.18</ele>
        <time>2019-08-26T09:54:50.000Z</time>
      </trkpt>
      <trkpt lat="47.59303" lon="-2.24726">
        <ele>67.39</ele>
        <time>2019-08-26T09:54:51.000Z</time>
      </trkpt>
      <trkpt lat="47.59304" lon="-2.24726">
        <ele>67.8</ele>
        <time>2019-08-26T09:54:52.000Z</time>
      </trkpt>
      <trkpt lat="47.59305" lon="-2.24725">
        <ele>67.85</ele>
        <time>2019-08-26T09:54:53.000Z</time>
      </trkpt>
      <trkpt lat="47.59306" lon="-2.24725">
        <ele>68.21</ele>
        <time>2019-08-26T09:54:54.000Z</time>
      </trkpt>
      <trkpt lat="47.59308" lon="-2.24725">
        <ele>68.49</ele>
        <time>2019-08-26T09:54:55.000Z</time>
      </trkpt>
      <trkpt lat="47.59309" lon="-2.24724">
        <ele>68.36</ele>
        <time>2019-08-26T09:54:56.000Z</time>
      </trkpt>
      <trkpt lat="47.5931" lon="-2.24724">
        <ele>68.8</ele>
        <time>2019-08-26T09:54:57.000Z</time>
      </trkpt>
      <trkpt lat="47.59311" lon="-2.24724">
        <ele>69.52</ele>
        <time>2019-08-26T09:54:58.000Z</time>
      </trkpt>
      <trkpt lat="47.59312" lon="-2.24723">
        <ele>70.16</ele>
        <time>2019-08-26T09:54:59.000Z</time>
      </trkpt>
      <trkpt lat="47.59313" lon="-2.24723">
        <ele>70.81</ele>
        <time>2019-08-26T09:55:00.000Z</time>
      </trkpt>
      <trkpt lat="47.59314" lon="-2.24722">
        <ele>71.45</ele>
        <time>2019-08-26T09:55:01.000Z</time>
      </trkpt>
      <trkpt lat="47.59316" lon="-2.24722">
        <ele>70.11</ele>
        <time>2019-08-26T09:55:02.000Z</time>
      </trkpt>
      <trkpt lat="47.59317" lon="-2.24722">
        <ele>69.91</ele>
        <time>2019-08-26T09:55:03.000Z</time>
      </trkpt>
      <trkpt lat="47.59317" lon="-2.24722">
        <ele>70.26</ele>
        <time>2019-08-26T09:55:04.000Z</time>
      </trkpt>
      <trkpt lat="47.59319" lon="-2.24722">
        <ele>70.7</ele>
        <time>2019-08-26T09:55:05.000Z</time>
      </trkpt>
      <trkpt lat="47.5932" lon="-2.24722">
        <ele>69.24</ele>
        <time>2019-08-26T09:55:07.000Z</time>
      </trkpt>
      <trkpt lat="47.59322" lon="-2.24721">
        <ele>69.35</ele>
        <time>2019-08-26T09:55:08.000Z</time>
      </trkpt>
      <trkpt lat="47.59322" lon="-2.24721">
        <ele>69.62</ele>
        <time>2019-08-26T09:55:09.000Z</time>
      </trkpt>
      <trkpt lat="47.59324" lon="-2.2472">
        <ele>69.41</ele>
        <time>2019-08-26T09:55:10.000Z</time>
      </trkpt>
      <trkpt lat="47.59325" lon="-2.2472">
        <ele>70.16</ele>
        <time>2019-08-26T09:55:11.000Z</time>
      </trkpt>
      <trkpt lat="47.59326" lon="-2.24719">
        <ele>70.54</ele>
        <time>2019-08-26T09:55:12.000Z</time>
      </trkpt>
      <trkpt lat="47.59327" lon="-2.24719">
        <ele>71.04</ele>
        <time>2019-08-26T09:55:13.000Z</time>
      </trkpt>
      <trkpt lat="47.59328" lon="-2.24718">
        <ele>70.18</ele>
        <time>2019-08-26T09:55:14.000Z</time>
      </trkpt>
      <trkpt lat="47.59329" lon="-2.24718">
        <ele>71.11</ele>
        <time>2019-08-26T09:55:15.000Z</time>
      </trkpt>
      <trkpt lat="47.5933" lon="-2.24718">
        <ele>71.6</ele>
        <time>2019-08-26T09:55:16.000Z</time>
      </trkpt>
      <trkpt lat="47.59331" lon="-2.24718">
        <ele>72.45</ele>
        <time>2019-08-26T09:55:17.000Z</time>
      </trkpt>
      <trkpt lat="47.59333" lon="-2.24717">
        <ele>73.22</ele>
        <time>2019-08-26T09:55:18.000Z</time>
      </trkpt>
      <trkpt lat="47.59334" lon="-2.24716">
        <ele>73.5</ele>
        <time>2019-08-26T09:55:19.000Z</time>
      </trkpt>
      <trkpt lat="47.59335" lon="-2.24715">
        <ele>73.76</ele>
        <time>2019-08-26T09:55:20.000Z</time>
      </trkpt>
      <trkpt lat="47.59336" lon="-2.24715">
        <ele>74.6</ele>
        <time>2019-08-26T09:55:21.000Z</time>
      </trkpt>
      <trkpt lat="47.59337" lon="-2.24714">
        <ele>75.1</ele>
        <time>2019-08-26T09:55:22.000Z</time>
      </trkpt>
      <trkpt lat="47.59338" lon="-2.24713">
        <ele>75.47</ele>
        <time>2019-08-26T09:55:23.000Z</time>
      </trkpt>
      <trkpt lat="47.5934" lon="-2.24713">
        <ele>75.79</ele>
        <time>2019-08-26T09:55:24.000Z</time>
      </trkpt>
      <trkpt lat="47.59341" lon="-2.24712">
        <ele>75.99</ele>
        <time>2019-08-26T09:55:25.000Z</time>
      </trkpt>
      <trkpt lat="47.59342" lon="-2.24711">
        <ele>75.83</ele>
        <time>2019-08-26T09:55:26.000Z</time>
      </trkpt>
      <trkpt lat="47.59343" lon="-2.24711">
        <ele>76.21</ele>
        <time>2019-08-26T09:55:27.000Z</time>
      </trkpt>
      <trkpt lat="47.59344" lon="-2.2471">
        <ele>75.97</ele>
        <time>2019-08-26T09:55:28.000Z</time>
      </trkpt>
      <trkpt lat="47.59345" lon="-2.2471">
        <ele>75.63</ele>
        <time>2019-08-26T09:55:29.000Z</time>
      </trkpt>
      <trkpt lat="47.59346" lon="-2.2471">
        <ele>75.86</ele>
        <time>2019-08-26T09:55:30.000Z</time>
      </trkpt>
      <trkpt lat="47.59347" lon="-2.24709">
        <ele>76.77</ele>
        <time>2019-08-26T09:55:31.000Z</time>
      </trkpt>
      <trkpt lat="47.59348" lon="-2.24709">
        <ele>76.87</ele>
        <time>2019-08-26T09:55:33.000Z</time>
      </trkpt>
      <trkpt lat="47.59349" lon="-2.24708">
        <ele>76.34</ele>
        <time>2019-08-26T09:55:34.000Z</time>
      </trkpt>
      <trkpt lat="47.59351" lon="-2.24708">
        <ele>76.6</ele>
        <time>2019-08-26T09:55:35.000Z</time>
      </trkpt>
      <trkpt lat="47.59352" lon="-2.24708">
        <ele>76.13</ele>
        <time>2019-08-26T09:55:36.000Z</time>
      </trkpt>
      <trkpt lat="47.59353" lon="-2.24707">
        <ele>75.49</ele>
        <time>2019-08-26T09:55:37.000Z</time>
      </trkpt>
      <trkpt lat="47.59355" lon="-2.24706">
        <ele>76.27</ele>
        <time>2019-08-26T09:55:39.000Z</time>
      </trkpt>
      <trkpt lat="47.59356" lon="-2.24705">
        <ele>76.15</ele>
        <time>2019-08-26T09:55:40.000Z</time>
      </trkpt>
      <trkpt lat="47.59356" lon="-2.24705">
        <ele>76.77</ele>
        <time>2019-08-26T09:55:41.000Z</time>
      </trkpt>
      <trkpt lat="47.59358" lon="-2.24704">
        <ele>76.72</ele>
        <time>2019-08-26T09:55:42.000Z</time>
      </trkpt>
      <trkpt lat="47.59358" lon="-2.24704">
        <ele>78.32</ele>
        <time>2019-08-26T09:55:43.000Z</time>
      </trkpt>
      <trkpt lat="47.59359" lon="-2.24703">
        <ele>78.97</ele>
        <time>2019-08-26T09:55:44.000Z</time>
      </trkpt>
      <trkpt lat="47.5936" lon="-2.24703">
        <ele>78.62</ele>
        <time>2019-08-26T09:55:45.000Z</time>
      </trkpt>
      <trkpt lat="47.59361" lon="-2.24702">
        <ele>79.3</ele>
        <time>2019-08-26T09:55:46.000Z</time>
      </trkpt>
      <trkpt lat="47.59362" lon="-2.24702">
        <ele>79.83</ele>
        <time>2019-08-26T09:55:47.000Z</time>
      </trkpt>
      <trkpt lat="47.59364" lon="-2.24701">
        <ele>80.1</ele>
        <time>2019-08-26T09:55:48.000Z</time>
      </trkpt>
      <trkpt lat="47.59365" lon="-2.24701">
        <ele>79.87</ele>
        <time>2019-08-26T09:55:49.000Z</time>
      </trkpt>
      <trkpt lat="47.59366" lon="-2.24701">
        <ele>78.86</ele>
        <time>2019-08-26T09:55:50.000Z</time>
      </trkpt>
      <trkpt lat="47.59367" lon="-2.247">
        <ele>79.1</ele>
        <time>2019-08-26T09:55:51.000Z</time>
      </trkpt>
      <trkpt lat="47.59368" lon="-2.247">
        <ele>79.53</ele>
        <time>2019-08-26T09:55:52.000Z</time>
      </trkpt>
      <trkpt lat="47.59369" lon="-2.24699">
        <ele>80.08</ele>
        <time>2019-08-26T09:55:53.000Z</time>
      </trkpt>
      <trkpt lat="47.5937" lon="-2.24699">
        <ele>81.18</ele>
        <time>2019-08-26T09:55:54.000Z</time>
      </trkpt>
      <trkpt lat="47.59372" lon="-2.24698">
        <ele>82.53</ele>
        <time>2019-08-26T09:55:55.000Z</time>
      </trkpt>
      <trkpt lat="47.59373" lon="-2.24698">
        <ele>84.16</ele>
        <time>2019-08-26T09:55:57.000Z</time>
      </trkpt>
      <trkpt lat="47.59374" lon="-2.24697">
        <ele>84.88</ele>
        <time>2019-08-26T09:55:58.000Z</time>
      </trkpt>
      <trkpt lat="47.59375" lon="-2.24697">
        <ele>84.26</ele>
        <time>2019-08-26T09:55:59.000Z</time>
      </trkpt>
      <trkpt lat="47.59376" lon="-2.24696">
        <ele>83.9</ele>
        <time>2019-08-26T09:56:00.000Z</time>
      </trkpt>
      <trkpt lat="47.59377" lon="-2.24695">
        <ele>84.51</ele>
        <time>2019-08-26T09:56:01.000Z</time>
      </trkpt>
      <trkpt lat="47.59378" lon="-2.24695">
        <ele>83.96</ele>
        <time>2019-08-26T09:56:02.000Z</time>
      </trkpt>
      <trkpt lat="47.59379" lon="-2.24694">
        <ele>84.64</ele>
        <time>2019-08-26T09:56:03.000Z</time>
      </trkpt>
      <trkpt lat="47.5938" lon="-2.24693">
        <ele>85.47</ele>
        <time>2019-08-26T09:56:04.000Z</time>
      </trkpt>
      <trkpt lat="47.59382" lon="-2.24693">
        <ele>85.49</ele>
        <time>2019-08-26T09:56:05.000Z</time>
      </trkpt>
      <trkpt lat="47.59382" lon="-2.24692">
        <ele>85.76</ele>
        <time>2019-08-26T09:56:06.000Z</time>
      </trkpt>
      <trkpt lat="47.59383" lon="-2.24691">
        <ele>86.13</ele>
        <time>2019-08-26T09:56:07.000Z</time>
      </trkpt>
      <trkpt lat="47.59385" lon="-2.2469">
        <ele>86.44</ele>
        <time>2019-08-26T09:56:09.000Z</time>
      </trkpt>
      <trkpt lat="47.59386" lon="-2.24689">
        <ele>84.4</ele>
        <time>2019-08-26T09:56:11.000Z</time>
      </trkpt>
      <trkpt lat="47.59388" lon="-2.24689">
        <ele>85.74</ele>
        <time>2019-08-26T09:56:13.000Z</time>
      </trkpt>
      <trkpt lat="47.59389" lon="-2.24688">
        <ele>86.56</ele>
        <time>2019-08-26T09:56:15.000Z</time>
      </trkpt>
      <trkpt lat="47.5939" lon="-2.24687">
        <ele>87.83</ele>
        <time>2019-08-26T09:56:17.000Z</time>
      </trkpt>
      <trkpt lat="47.59391" lon="-2.24686">
        <ele>87.94</ele>
        <time>2019-08-26T09:56:18.000Z</time>
      </trkpt>
      <trkpt lat="47.59392" lon="-2.24685">
        <ele>87.63</ele>
        <time>2019-08-26T09:56:19.000Z</time>
      </trkpt>
      <trkpt lat="47.59393" lon="-2.24684">
        <ele>87.83</ele>
        <time>2019-08-26T09:56:20.000Z</time>
      </trkpt>
      <trkpt lat="47.59395" lon="-2.24683">
        <ele>88.33</ele>
        <time>2019-08-26T09:56:22.000Z</time>
      </trkpt>
      <trkpt lat="47.59396" lon="-2.24681">
        <ele>88</ele>
        <time>2019-08-26T09:56:24.000Z</time>
      </trkpt>
      <trkpt lat="47.59397" lon="-2.24679">
        <ele>88.46</ele>
        <time>2019-08-26T09:56:26.000Z</time>
      </trkpt>
      <trkpt lat="47.59398" lon="-2.24678">
        <ele>88.89</ele>
        <time>2019-08-26T09:56:27.000Z</time>
      </trkpt>
      <trkpt lat="47.59399" lon="-2.24677">
        <ele>88.81</ele>
        <time>2019-08-26T09:56:28.000Z</time>
      </trkpt>
      <trkpt lat="47.59399" lon="-2.24676">
        <ele>88.37</ele>
        <time>2019-08-26T09:56:29.000Z</time>
      </trkpt>
      <trkpt lat="47.594" lon="-2.24675">
        <ele>88.28</ele>
        <time>2019-08-26T09:56:30.000Z</time>
      </trkpt>
      <trkpt lat="47.59401" lon="-2.24673">
        <ele>88.29</ele>
        <time>2019-08-26T09:56:32.000Z</time>
      </trkpt>
      <trkpt lat="47.59402" lon="-2.24672">
        <ele>87.82</ele>
        <time>2019-08-26T09:56:33.000Z</time>
      </trkpt>
      <trkpt lat="47.59403" lon="-2.24671">
        <ele>88.28</ele>
        <time>2019-08-26T09:56:34.000Z</time>
      </trkpt>
      <trkpt lat="47.59404" lon="-2.2467">
        <ele>88.52</ele>
        <time>2019-08-26T09:56:35.000Z</time>
      </trkpt>
      <trkpt lat="47.59404" lon="-2.24669">
        <ele>88.85</ele>
        <time>2019-08-26T09:56:36.000Z</time>
      </trkpt>
      <trkpt lat="47.59405" lon="-2.24668">
        <ele>89.44</ele>
        <time>2019-08-26T09:56:37.000Z</time>
      </trkpt>
      <trkpt lat="47.59406" lon="-2.24667">
        <ele>89.57</ele>
        <time>2019-08-26T09:56:38.000Z</time>
      </trkpt>
      <trkpt lat="47.59406" lon="-2.24666">
        <ele>89.58</ele>
        <time>2019-08-26T09:56:39.000Z</time>
      </trkpt>
      <trkpt lat="47.59407" lon="-2.24665">
        <ele>90.05</ele>
        <time>2019-08-26T09:56:40.000Z</time>
      </trkpt>
      <trkpt lat="47.59408" lon="-2.24663">
        <ele>90.59</ele>
        <time>2019-08-26T09:56:42.000Z</time>
      </trkpt>
      <trkpt lat="47.59409" lon="-2.24662">
        <ele>90.69</ele>
        <time>2019-08-26T09:56:43.000Z</time>
      </trkpt>
      <trkpt lat="47.59409" lon="-2.24661">
        <ele>90.81</ele>
        <time>2019-08-26T09:56:44.000Z</time>
      </trkpt>
      <trkpt lat="47.59411" lon="-2.24659">
        <ele>91.44</ele>
        <time>2019-08-26T09:56:46.000Z</time>
      </trkpt>
      <trkpt lat="47.59411" lon="-2.24658">
        <ele>91.98</ele>
        <time>2019-08-26T09:56:47.000Z</time>
      </trkpt>
      <trkpt lat="47.59412" lon="-2.24658">
        <ele>91.81</ele>
        <time>2019-08-26T09:56:49.000Z</time>
      </trkpt>
      <trkpt lat="47.59414" lon="-2.24657">
        <ele>92.34</ele>
        <time>2019-08-26T09:56:51.000Z</time>
      </trkpt>
      <trkpt lat="47.59415" lon="-2.24656">
        <ele>92.59</ele>
        <time>2019-08-26T09:56:52.000Z</time>
      </trkpt>
      <trkpt lat="47.59416" lon="-2.24656">
        <ele>92.37</ele>
        <time>2019-08-26T09:56:53.000Z</time>
      </trkpt>
      <trkpt lat="47.59417" lon="-2.24655">
        <ele>92.13</ele>
        <time>2019-08-26T09:56:54.000Z</time>
      </trkpt>
      <trkpt lat="47.59418" lon="-2.24654">
        <ele>91.92</ele>
        <time>2019-08-26T09:56:55.000Z</time>
      </trkpt>
      <trkpt lat="47.59419" lon="-2.24654">
        <ele>91.5</ele>
        <time>2019-08-26T09:56:56.000Z</time>
      </trkpt>
      <trkpt lat="47.5942" lon="-2.24653">
        <ele>91.2</ele>
        <time>2019-08-26T09:56:57.000Z</time>
      </trkpt>
      <trkpt lat="47.59421" lon="-2.24652">
        <ele>91.55</ele>
        <time>2019-08-26T09:56:59.000Z</time>
      </trkpt>
      <trkpt lat="47.59423" lon="-2.24652">
        <ele>91.49</ele>
        <time>2019-08-26T09:57:01.000Z</time>
      </trkpt>
      <trkpt lat="47.59423" lon="-2.24651">
        <ele>92.32</ele>
        <time>2019-08-26T09:57:02.000Z</time>
      </trkpt>
      <trkpt lat="47.59425" lon="-2.2465">
        <ele>93.51</ele>
        <time>2019-08-26T09:57:04.000Z</time>
      </trkpt>
      <trkpt lat="47.59426" lon="-2.2465">
        <ele>94.37</ele>
        <time>2019-08-26T09:57:05.000Z</time>
      </trkpt>
      <trkpt lat="47.59427" lon="-2.24649">
        <ele>94.54</ele>
        <time>2019-08-26T09:57:06.000Z</time>
      </trkpt>
      <trkpt lat="47.59428" lon="-2.24649">
        <ele>94.79</ele>
        <time>2019-08-26T09:57:07.000Z</time>
      </trkpt>
      <trkpt lat="47.5943" lon="-2.24647">
        <ele>96.98</ele>
        <time>2019-08-26T09:57:09.000Z</time>
      </trkpt>
      <trkpt lat="47.59431" lon="-2.24646">
        <ele>95.11</ele>
        <time>2019-08-26T09:57:13.000Z</time>
      </trkpt>
      <trkpt lat="47.59433" lon="-2.24645">
        <ele>91.31</ele>
        <time>2019-08-26T09:57:15.000Z</time>
      </trkpt>
      <trkpt lat="47.59433" lon="-2.24644">
        <ele>90.66</ele>
        <time>2019-08-26T09:57:16.000Z</time>
      </trkpt>
      <trkpt lat="47.59435" lon="-2.24644">
        <ele>91.25</ele>
        <time>2019-08-26T09:57:18.000Z</time>
      </trkpt>
      <trkpt lat="47.59436" lon="-2.24643">
        <ele>92.31</ele>
        <time>2019-08-26T09:57:19.000Z</time>
      </trkpt>
      <trkpt lat="47.59438" lon="-2.24642">
        <ele>91.94</ele>
        <time>2019-08-26T09:57:21.000Z</time>
      </trkpt>
      <trkpt lat="47.59439" lon="-2.24642">
        <ele>92.16</ele>
        <time>2019-08-26T09:57:22.000Z</time>
      </trkpt>
      <trkpt lat="47.5944" lon="-2.24641">
        <ele>92.35</ele>
        <time>2019-08-26T09:57:23.000Z</time>
      </trkpt>
      <trkpt lat="47.59441" lon="-2.24641">
        <ele>92.71</ele>
        <time>2019-08-26T09:57:24.000Z</time>
      </trkpt>
      <trkpt lat="47.59442" lon="-2.2464">
        <ele>92.21</ele>
        <time>2019-08-26T09:57:25.000Z</time>
      </trkpt>
      <trkpt lat="47.59444" lon="-2.24639">
        <ele>92.33</ele>
        <time>2019-08-26T09:57:26.000Z</time>
      </trkpt>
      <trkpt lat="47.59445" lon="-2.24638">
        <ele>91.7</ele>
        <time>2019-08-26T09:57:27.000Z</time>
      </trkpt>
      <trkpt lat="47.59446" lon="-2.24637">
        <ele>92.29</ele>
        <time>2019-08-26T09:57:28.000Z</time>
      </trkpt>
      <trkpt lat="47.59447" lon="-2.24636">
        <ele>92.72</ele>
        <time>2019-08-26T09:57:29.000Z</time>
      </trkpt>
      <trkpt lat="47.59448" lon="-2.24636">
        <ele>92.65</ele>
        <time>2019-08-26T09:57:30.000Z</time>
      </trkpt>
      <trkpt lat="47.59449" lon="-2.24635">
        <ele>92.12</ele>
        <time>2019-08-26T09:57:31.000Z</time>
      </trkpt>
      <trkpt lat="47.59451" lon="-2.24634">
        <ele>91.99</ele>
        <time>2019-08-26T09:57:32.000Z</time>
      </trkpt>
      <trkpt lat="47.59452" lon="-2.24633">
        <ele>92.13</ele>
        <time>2019-08-26T09:57:33.000Z</time>
      </trkpt>
      <trkpt lat="47.59453" lon="-2.24633">
        <ele>92.4</ele>
        <time>2019-08-26T09:57:34.000Z</time>
      </trkpt>
      <trkpt lat="47.59454" lon="-2.24632">
        <ele>91.09</ele>
        <time>2019-08-26T09:57:36.000Z</time>
      </trkpt>
      <trkpt lat="47.59455" lon="-2.24631">
        <ele>91.97</ele>
        <time>2019-08-26T09:57:38.000Z</time>
      </trkpt>
      <trkpt lat="47.59456" lon="-2.2463">
        <ele>90.92</ele>
        <time>2019-08-26T09:57:40.000Z</time>
      </trkpt>
      <trkpt lat="47.59457" lon="-2.2463">
        <ele>90.7</ele>
        <time>2019-08-26T09:57:41.000Z</time>
      </trkpt>
      <trkpt lat="47.59459" lon="-2.24629">
        <ele>90.47</ele>
        <time>2019-08-26T09:57:42.000Z</time>
      </trkpt>
      <trkpt lat="47.5946" lon="-2.24628">
        <ele>90.66</ele>
        <time>2019-08-26T09:57:43.000Z</time>
      </trkpt>
      <trkpt lat="47.5946" lon="-2.24627">
        <ele>90.97</ele>
        <time>2019-08-26T09:57:44.000Z</time>
      </trkpt>
      <trkpt lat="47.59462" lon="-2.24627">
        <ele>90.28</ele>
        <time>2019-08-26T09:57:45.000Z</time>
      </trkpt>
      <trkpt lat="47.59463" lon="-2.24626">
        <ele>90.85</ele>
        <time>2019-08-26T09:57:46.000Z</time>
      </trkpt>
      <trkpt lat="47.59464" lon="-2.24626">
        <ele>91.74</ele>
        <time>2019-08-26T09:57:47.000Z</time>
      </trkpt>
      <trkpt lat="47.59466" lon="-2.24625">
        <ele>92.44</ele>
        <time>2019-08-26T09:57:48.000Z</time>
      </trkpt>
      <trkpt lat="47.59467" lon="-2.24624">
        <ele>91.74</ele>
        <time>2019-08-26T09:57:49.000Z</time>
      </trkpt>
      <trkpt lat="47.59468" lon="-2.24624">
        <ele>91.85</ele>
        <time>2019-08-26T09:57:50.000Z</time>
      </trkpt>
      <trkpt lat="47.59469" lon="-2.24623">
        <ele>92.58</ele>
        <time>2019-08-26T09:57:51.000Z</time>
      </trkpt>
      <trkpt lat="47.5947" lon="-2.24623">
        <ele>92.4</ele>
        <time>2019-08-26T09:57:52.000Z</time>
      </trkpt>
      <trkpt lat="47.59472" lon="-2.24622">
        <ele>92.57</ele>
        <time>2019-08-26T09:57:53.000Z</time>
      </trkpt>
      <trkpt lat="47.59473" lon="-2.24621">
        <ele>92.94</ele>
        <time>2019-08-26T09:57:54.000Z</time>
      </trkpt>
      <trkpt lat="47.59474" lon="-2.24621">
        <ele>93.71</ele>
        <time>2019-08-26T09:57:55.000Z</time>
      </trkpt>
      <trkpt lat="47.59475" lon="-2.2462">
        <ele>93.78</ele>
        <time>2019-08-26T09:57:56.000Z</time>
      </trkpt>
      <trkpt lat="47.59476" lon="-2.24619">
        <ele>93.66</ele>
        <time>2019-08-26T09:57:57.000Z</time>
      </trkpt>
      <trkpt lat="47.59477" lon="-2.24619">
        <ele>93.5</ele>
        <time>2019-08-26T09:57:58.000Z</time>
      </trkpt>
      <trkpt lat="47.59478" lon="-2.24618">
        <ele>93.53</ele>
        <time>2019-08-26T09:57:59.000Z</time>
      </trkpt>
      <trkpt lat="47.59479" lon="-2.24617">
        <ele>93.84</ele>
        <time>2019-08-26T09:58:00.000Z</time>
      </trkpt>
      <trkpt lat="47.5948" lon="-2.24616">
        <ele>93.8</ele>
        <time>2019-08-26T09:58:02.000Z</time>
      </trkpt>
      <trkpt lat="47.59482" lon="-2.24617">
        <ele>94.53</ele>
        <time>2019-08-26T09:58:04.000Z</time>
      </trkpt>
      <trkpt lat="47.59483" lon="-2.24617">
        <ele>94.18</ele>
        <time>2019-08-26T09:58:06.000Z</time>
      </trkpt>
      <trkpt lat="47.59485" lon="-2.24616">
        <ele>93.35</ele>
        <time>2019-08-26T09:58:08.000Z</time>
      </trkpt>
      <trkpt lat="47.59486" lon="-2.24615">
        <ele>92.99</ele>
        <time>2019-08-26T09:58:09.000Z</time>
      </trkpt>
      <trkpt lat="47.59486" lon="-2.24615">
        <ele>93.45</ele>
        <time>2019-08-26T09:58:10.000Z</time>
      </trkpt>
      <trkpt lat="47.59488" lon="-2.24614">
        <ele>93.7</ele>
        <time>2019-08-26T09:58:11.000Z</time>
      </trkpt>
      <trkpt lat="47.59489" lon="-2.24613">
        <ele>93.87</ele>
        <time>2019-08-26T09:58:12.000Z</time>
      </trkpt>
      <trkpt lat="47.5949" lon="-2.24613">
        <ele>93.92</ele>
        <time>2019-08-26T09:58:13.000Z</time>
      </trkpt>
      <trkpt lat="47.59491" lon="-2.24612">
        <ele>94.14</ele>
        <time>2019-08-26T09:58:14.000Z</time>
      </trkpt>
      <trkpt lat="47.59492" lon="-2.24612">
        <ele>94.6</ele>
        <time>2019-08-26T09:58:15.000Z</time>
      </trkpt>
      <trkpt lat="47.59493" lon="-2.24611">
        <ele>95.42</ele>
        <time>2019-08-26T09:58:16.000Z</time>
      </trkpt>
      <trkpt lat="47.59494" lon="-2.24611">
        <ele>94.97</ele>
        <time>2019-08-26T09:58:17.000Z</time>
      </trkpt>
      <trkpt lat="47.59496" lon="-2.2461">
        <ele>96.34</ele>
        <time>2019-08-26T09:58:19.000Z</time>
      </trkpt>
      <trkpt lat="47.59497" lon="-2.24609">
        <ele>97.09</ele>
        <time>2019-08-26T09:58:20.000Z</time>
      </trkpt>
      <trkpt lat="47.59498" lon="-2.24609">
        <ele>97.48</ele>
        <time>2019-08-26T09:58:21.000Z</time>
      </trkpt>
      <trkpt lat="47.59499" lon="-2.24609">
        <ele>96.92</ele>
        <time>2019-08-26T09:58:22.000Z</time>
      </trkpt>
      <trkpt lat="47.595" lon="-2.24609">
        <ele>97.1</ele>
        <time>2019-08-26T09:58:23.000Z</time>
      </trkpt>
      <trkpt lat="47.59501" lon="-2.24608">
        <ele>97.59</ele>
        <time>2019-08-26T09:58:24.000Z</time>
      </trkpt>
      <trkpt lat="47.59502" lon="-2.24608">
        <ele>98.23</ele>
        <time>2019-08-26T09:58:25.000Z</time>
      </trkpt>
      <trkpt lat="47.59504" lon="-2.24607">
        <ele>98.6</ele>
        <time>2019-08-26T09:58:27.000Z</time>
      </trkpt>
      <trkpt lat="47.59505" lon="-2.24607">
        <ele>98.64</ele>
        <time>2019-08-26T09:58:28.000Z</time>
      </trkpt>
      <trkpt lat="47.59506" lon="-2.24607">
        <ele>98.19</ele>
        <time>2019-08-26T09:58:29.000Z</time>
      </trkpt>
      <trkpt lat="47.59507" lon="-2.24606">
        <ele>97.46</ele>
        <time>2019-08-26T09:58:31.000Z</time>
      </trkpt>
      <trkpt lat="47.59509" lon="-2.24605">
        <ele>97.64</ele>
        <time>2019-08-26T09:58:32.000Z</time>
      </trkpt>
      <trkpt lat="47.5951" lon="-2.24605">
        <ele>97.88</ele>
        <time>2019-08-26T09:58:33.000Z</time>
      </trkpt>
      <trkpt lat="47.59512" lon="-2.24604">
        <ele>98.21</ele>
        <time>2019-08-26T09:58:34.000Z</time>
      </trkpt>
      <trkpt lat="47.59512" lon="-2.24604">
        <ele>98.52</ele>
        <time>2019-08-26T09:58:35.000Z</time>
      </trkpt>
      <trkpt lat="47.59514" lon="-2.24604">
        <ele>98.84</ele>
        <time>2019-08-26T09:58:36.000Z</time>
      </trkpt>
      <trkpt lat="47.59515" lon="-2.24603">
        <ele>98.57</ele>
        <time>2019-08-26T09:58:37.000Z</time>
      </trkpt>
      <trkpt lat="47.59516" lon="-2.24603">
        <ele>98.53</ele>
        <time>2019-08-26T09:58:38.000Z</time>
      </trkpt>
      <trkpt lat="47.59517" lon="-2.24603">
        <ele>98.34</ele>
        <time>2019-08-26T09:58:39.000Z</time>
      </trkpt>
      <trkpt lat="47.59518" lon="-2.24603">
        <ele>97.79</ele>
        <time>2019-08-26T09:58:40.000Z</time>
      </trkpt>
      <trkpt lat="47.59519" lon="-2.24602">
        <ele>97.58</ele>
        <time>2019-08-26T09:58:41.000Z</time>
      </trkpt>
      <trkpt lat="47.5952" lon="-2.24602">
        <ele>97.97</ele>
        <time>2019-08-26T09:58:42.000Z</time>
      </trkpt>
      <trkpt lat="47.59521" lon="-2.24602">
        <ele>98.31</ele>
        <time>2019-08-26T09:58:43.000Z</time>
      </trkpt>
      <trkpt lat="47.59522" lon="-2.24602">
        <ele>98.66</ele>
        <time>2019-08-26T09:58:44.000Z</time>
      </trkpt>
      <trkpt lat="47.59523" lon="-2.24602">
        <ele>98.02</ele>
        <time>2019-08-26T09:58:45.000Z</time>
      </trkpt>
      <trkpt lat="47.59524" lon="-2.24602">
        <ele>98.01</ele>
        <time>2019-08-26T09:58:46.000Z</time>
      </trkpt>
      <trkpt lat="47.59525" lon="-2.24601">
        <ele>97.34</ele>
        <time>2019-08-26T09:58:47.000Z</time>
      </trkpt>
      <trkpt lat="47.59526" lon="-2.24601">
        <ele>97.57</ele>
        <time>2019-08-26T09:58:48.000Z</time>
      </trkpt>
      <trkpt lat="47.59528" lon="-2.24601">
        <ele>98.14</ele>
        <time>2019-08-26T09:58:49.000Z</time>
      </trkpt>
      <trkpt lat="47.59528" lon="-2.246">
        <ele>98.22</ele>
        <time>2019-08-26T09:58:50.000Z</time>
      </trkpt>
      <trkpt lat="47.5953" lon="-2.246">
        <ele>97.03</ele>
        <time>2019-08-26T09:58:52.000Z</time>
      </trkpt>
      <trkpt lat="47.59531" lon="-2.246">
        <ele>97.27</ele>
        <time>2019-08-26T09:58:53.000Z</time>
      </trkpt>
      <trkpt lat="47.59532" lon="-2.24599">
        <ele>96.96</ele>
        <time>2019-08-26T09:58:54.000Z</time>
      </trkpt>
      <trkpt lat="47.59533" lon="-2.24599">
        <ele>96.76</ele>
        <time>2019-08-26T09:58:55.000Z</time>
      </trkpt>
      <trkpt lat="47.59535" lon="-2.24599">
        <ele>96.8</ele>
        <time>2019-08-26T09:58:56.000Z</time>
      </trkpt>
      <trkpt lat="47.59536" lon="-2.24599">
        <ele>96.82</ele>
        <time>2019-08-26T09:58:57.000Z</time>
      </trkpt>
      <trkpt lat="47.59537" lon="-2.24598">
        <ele>96.7</ele>
        <time>2019-08-26T09:58:58.000Z</time>
      </trkpt>
      <trkpt lat="47.59538" lon="-2.24598">
        <ele>96.75</ele>
        <time>2019-08-26T09:58:59.000Z</time>
      </trkpt>
      <trkpt lat="47.59539" lon="-2.24598">
        <ele>97.29</ele>
        <time>2019-08-26T09:59:00.000Z</time>
      </trkpt>
      <trkpt lat="47.59541" lon="-2.24598">
        <ele>97.91</ele>
        <time>2019-08-26T09:59:01.000Z</time>
      </trkpt>
      <trkpt lat="47.59542" lon="-2.24598">
        <ele>98.06</ele>
        <time>2019-08-26T09:59:02.000Z</time>
      </trkpt>
      <trkpt lat="47.59543" lon="-2.24599">
        <ele>97.87</ele>
        <time>2019-08-26T09:59:03.000Z</time>
      </trkpt>
      <trkpt lat="47.59544" lon="-2.24599">
        <ele>98.74</ele>
        <time>2019-08-26T09:59:04.000Z</time>
      </trkpt>
      <trkpt lat="47.59545" lon="-2.246">
        <ele>98.61</ele>
        <time>2019-08-26T09:59:05.000Z</time>
      </trkpt>
      <trkpt lat="47.59547" lon="-2.246">
        <ele>99.11</ele>
        <time>2019-08-26T09:59:06.000Z</time>
      </trkpt>
      <trkpt lat="47.59548" lon="-2.246">
        <ele>99.44</ele>
        <time>2019-08-26T09:59:07.000Z</time>
      </trkpt>
      <trkpt lat="47.59549" lon="-2.246">
        <ele>98.98</ele>
        <time>2019-08-26T09:59:08.000Z</time>
      </trkpt>
      <trkpt lat="47.5955" lon="-2.246">
        <ele>99.32</ele>
        <time>2019-08-26T09:59:09.000Z</time>
      </trkpt>
      <trkpt lat="47.59551" lon="-2.246">
        <ele>99.29</ele>
        <time>2019-08-26T09:59:10.000Z</time>
      </trkpt>
      <trkpt lat="47.59552" lon="-2.246">
        <ele>99.46</ele>
        <time>2019-08-26T09:59:11.000Z</time>
      </trkpt>
      <trkpt lat="47.59554" lon="-2.246">
        <ele>99.67</ele>
        <time>2019-08-26T09:59:12.000Z</time>
      </trkpt>
      <trkpt lat="47.59555" lon="-2.246">
        <ele>100.28</ele>
        <time>2019-08-26T09:59:14.000Z</time>
      </trkpt>
      <trkpt lat="47.59557" lon="-2.24599">
        <ele>100.62</ele>
        <time>2019-08-26T09:59:15.000Z</time>
      </trkpt>
      <trkpt lat="47.59558" lon="-2.24599">
        <ele>100.88</ele>
        <time>2019-08-26T09:59:16.000Z</time>
      </trkpt>
      <trkpt lat="47.59559" lon="-2.24598">
        <ele>100.55</ele>
        <time>2019-08-26T09:59:17.000Z</time>
      </trkpt>
      <trkpt lat="47.5956" lon="-2.24597">
        <ele>100.76</ele>
        <time>2019-08-26T09:59:18.000Z</time>
      </trkpt>
      <trkpt lat="47.59562" lon="-2.24597">
        <ele>100.98</ele>
        <time>2019-08-26T09:59:19.000Z</time>
      </trkpt>
      <trkpt lat="47.59563" lon="-2.24596">
        <ele>101.58</ele>
        <time>2019-08-26T09:59:20.000Z</time>
      </trkpt>
      <trkpt lat="47.59564" lon="-2.24595">
        <ele>102</ele>
        <time>2019-08-26T09:59:21.000Z</time>
      </trkpt>
      <trkpt lat="47.59565" lon="-2.24595">
        <ele>102.08</ele>
        <time>2019-08-26T09:59:22.000Z</time>
      </trkpt>
      <trkpt lat="47.59567" lon="-2.24594">
        <ele>101.49</ele>
        <time>2019-08-26T09:59:23.000Z</time>
      </trkpt>
      <trkpt lat="47.59568" lon="-2.24593">
        <ele>101.33</ele>
        <time>2019-08-26T09:59:24.000Z</time>
      </trkpt>
      <trkpt lat="47.5957" lon="-2.24592">
        <ele>100.6</ele>
        <time>2019-08-26T09:59:25.000Z</time>
      </trkpt>
      <trkpt lat="47.59571" lon="-2.24591">
        <ele>100.79</ele>
        <time>2019-08-26T09:59:26.000Z</time>
      </trkpt>
      <trkpt lat="47.59572" lon="-2.2459">
        <ele>101.12</ele>
        <time>2019-08-26T09:59:27.000Z</time>
      </trkpt>
      <trkpt lat="47.59573" lon="-2.24589">
        <ele>101.94</ele>
        <time>2019-08-26T09:59:28.000Z</time>
      </trkpt>
      <trkpt lat="47.59575" lon="-2.24589">
        <ele>102.45</ele>
        <time>2019-08-26T09:59:29.000Z</time>
      </trkpt>
      <trkpt lat="47.59576" lon="-2.24589">
        <ele>103.25</ele>
        <time>2019-08-26T09:59:30.000Z</time>
      </trkpt>
      <trkpt lat="47.59576" lon="-2.24588">
        <ele>103.2</ele>
        <time>2019-08-26T09:59:31.000Z</time>
      </trkpt>
      <trkpt lat="47.59578" lon="-2.24586">
        <ele>103.53</ele>
        <time>2019-08-26T09:59:33.000Z</time>
      </trkpt>
      <trkpt lat="47.59579" lon="-2.24584">
        <ele>103.85</ele>
        <time>2019-08-26T09:59:35.000Z</time>
      </trkpt>
      <trkpt lat="47.5958" lon="-2.24583">
        <ele>104.71</ele>
        <time>2019-08-26T09:59:37.000Z</time>
      </trkpt>
      <trkpt lat="47.59581" lon="-2.24581">
        <ele>104.45</ele>
        <time>2019-08-26T09:59:39.000Z</time>
      </trkpt>
      <trkpt lat="47.59582" lon="-2.24579">
        <ele>104.79</ele>
        <time>2019-08-26T09:59:40.000Z</time>
      </trkpt>
      <trkpt lat="47.59583" lon="-2.24578">
        <ele>105.67</ele>
        <time>2019-08-26T09:59:41.000Z</time>
      </trkpt>
      <trkpt lat="47.59584" lon="-2.24577">
        <ele>105.66</ele>
        <time>2019-08-26T09:59:42.000Z</time>
      </trkpt>
      <trkpt lat="47.59584" lon="-2.24575">
        <ele>106.06</ele>
        <time>2019-08-26T09:59:43.000Z</time>
      </trkpt>
      <trkpt lat="47.59586" lon="-2.24574">
        <ele>105.82</ele>
        <time>2019-08-26T09:59:44.000Z</time>
      </trkpt>
      <trkpt lat="47.59586" lon="-2.24573">
        <ele>105.64</ele>
        <time>2019-08-26T09:59:45.000Z</time>
      </trkpt>
      <trkpt lat="47.59588" lon="-2.24571">
        <ele>106.4</ele>
        <time>2019-08-26T09:59:46.000Z</time>
      </trkpt>
      <trkpt lat="47.59589" lon="-2.2457">
        <ele>105.91</ele>
        <time>2019-08-26T09:59:47.000Z</time>
      </trkpt>
      <trkpt lat="47.5959" lon="-2.24569">
        <ele>105.9</ele>
        <time>2019-08-26T09:59:48.000Z</time>
      </trkpt>
      <trkpt lat="47.59591" lon="-2.24568">
        <ele>105.68</ele>
        <time>2019-08-26T09:59:49.000Z</time>
      </trkpt>
      <trkpt lat="47.59591" lon="-2.24567">
        <ele>105.82</ele>
        <time>2019-08-26T09:59:50.000Z</time>
      </trkpt>
      <trkpt lat="47.59592" lon="-2.24565">
        <ele>106.14</ele>
        <time>2019-08-26T09:59:51.000Z</time>
      </trkpt>
      <trkpt lat="47.59593" lon="-2.24564">
        <ele>105.43</ele>
        <time>2019-08-26T09:59:53.000Z</time>
      </trkpt>
      <trkpt lat="47.59594" lon="-2.24563">
        <ele>105.83</ele>
        <time>2019-08-26T09:59:54.000Z</time>
      </trkpt>
      <trkpt lat="47.59594" lon="-2.24562">
        <ele>105.72</ele>
        <time>2019-08-26T09:59:55.000Z</time>
      </trkpt>
      <trkpt lat="47.59595" lon="-2.2456">
        <ele>105.32</ele>
        <time>2019-08-26T09:59:56.000Z</time>
      </trkpt>
      <trkpt lat="47.59596" lon="-2.24558">
        <ele>105.21</ele>
        <time>2019-08-26T09:59:58.000Z</time>
      </trkpt>
      <trkpt lat="47.59597" lon="-2.24557">
        <ele>105.32</ele>
        <time>2019-08-26T09:59:59.000Z</time>
      </trkpt>
      <trkpt lat="47.59598" lon="-2.24556">
        <ele>105.32</ele>
        <time>2019-08-26T10:00:00.000Z</time>
      </trkpt>
      <trkpt lat="47.59599" lon="-2.24554">
        <ele>105.17</ele>
        <time>2019-08-26T10:00:01.000Z</time>
      </trkpt>
      <trkpt lat="47.596" lon="-2.24553">
        <ele>104.66</ele>
        <time>2019-08-26T10:00:02.000Z</time>
      </trkpt>
      <trkpt lat="47.59601" lon="-2.24552">
        <ele>104.51</ele>
        <time>2019-08-26T10:00:03.000Z</time>
      </trkpt>
      <trkpt lat="47.59602" lon="-2.2455">
        <ele>104.04</ele>
        <time>2019-08-26T10:00:04.000Z</time>
      </trkpt>
      <trkpt lat="47.59602" lon="-2.24549">
        <ele>104.01</ele>
        <time>2019-08-26T10:00:05.000Z</time>
      </trkpt>
      <trkpt lat="47.59603" lon="-2.24548">
        <ele>104.56</ele>
        <time>2019-08-26T10:00:06.000Z</time>
      </trkpt>
      <trkpt lat="47.59604" lon="-2.24546">
        <ele>104.85</ele>
        <time>2019-08-26T10:00:07.000Z</time>
      </trkpt>
      <trkpt lat="47.59605" lon="-2.24545">
        <ele>104.58</ele>
        <time>2019-08-26T10:00:08.000Z</time>
      </trkpt>
      <trkpt lat="47.59605" lon="-2.24544">
        <ele>104.52</ele>
        <time>2019-08-26T10:00:09.000Z</time>
      </trkpt>
      <trkpt lat="47.59607" lon="-2.24542">
        <ele>104.47</ele>
        <time>2019-08-26T10:00:10.000Z</time>
      </trkpt>
      <trkpt lat="47.59607" lon="-2.24541">
        <ele>104.55</ele>
        <time>2019-08-26T10:00:11.000Z</time>
      </trkpt>
      <trkpt lat="47.59608" lon="-2.2454">
        <ele>104.95</ele>
        <time>2019-08-26T10:00:12.000Z</time>
      </trkpt>
      <trkpt lat="47.59609" lon="-2.24539">
        <ele>105.45</ele>
        <time>2019-08-26T10:00:13.000Z</time>
      </trkpt>
      <trkpt lat="47.5961" lon="-2.24537">
        <ele>105.91</ele>
        <time>2019-08-26T10:00:14.000Z</time>
      </trkpt>
      <trkpt lat="47.59611" lon="-2.24536">
        <ele>106.49</ele>
        <time>2019-08-26T10:00:15.000Z</time>
      </trkpt>
      <trkpt lat="47.59612" lon="-2.24535">
        <ele>106.53</ele>
        <time>2019-08-26T10:00:16.000Z</time>
      </trkpt>
      <trkpt lat="47.59613" lon="-2.24534">
        <ele>106.49</ele>
        <time>2019-08-26T10:00:17.000Z</time>
      </trkpt>
      <trkpt lat="47.59614" lon="-2.24533">
        <ele>105.73</ele>
        <time>2019-08-26T10:00:18.000Z</time>
      </trkpt>
      <trkpt lat="47.59615" lon="-2.24532">
        <ele>105.7</ele>
        <time>2019-08-26T10:00:19.000Z</time>
      </trkpt>
      <trkpt lat="47.59617" lon="-2.2453">
        <ele>105.41</ele>
        <time>2019-08-26T10:00:20.000Z</time>
      </trkpt>
      <trkpt lat="47.59617" lon="-2.2453">
        <ele>105.62</ele>
        <time>2019-08-26T10:00:21.000Z</time>
      </trkpt>
      <trkpt lat="47.59618" lon="-2.24528">
        <ele>105.55</ele>
        <time>2019-08-26T10:00:22.000Z</time>
      </trkpt>
      <trkpt lat="47.59619" lon="-2.24527">
        <ele>105.84</ele>
        <time>2019-08-26T10:00:23.000Z</time>
      </trkpt>
      <trkpt lat="47.5962" lon="-2.24527">
        <ele>105.78</ele>
        <time>2019-08-26T10:00:24.000Z</time>
      </trkpt>
      <trkpt lat="47.59621" lon="-2.24526">
        <ele>105.27</ele>
        <time>2019-08-26T10:00:25.000Z</time>
      </trkpt>
      <trkpt lat="47.59622" lon="-2.24526">
        <ele>104.99</ele>
        <time>2019-08-26T10:00:26.000Z</time>
      </trkpt>
      <trkpt lat="47.59623" lon="-2.24526">
        <ele>105.3</ele>
        <time>2019-08-26T10:00:27.000Z</time>
      </trkpt>
      <trkpt lat="47.59625" lon="-2.24526">
        <ele>104.63</ele>
        <time>2019-08-26T10:00:29.000Z</time>
      </trkpt>
      <trkpt lat="47.59626" lon="-2.24526">
        <ele>105.13</ele>
        <time>2019-08-26T10:00:31.000Z</time>
      </trkpt>
      <trkpt lat="47.59628" lon="-2.24526">
        <ele>105.06</ele>
        <time>2019-08-26T10:00:32.000Z</time>
      </trkpt>
      <trkpt lat="47.59629" lon="-2.24525">
        <ele>104.5</ele>
        <time>2019-08-26T10:00:33.000Z</time>
      </trkpt>
      <trkpt lat="47.5963" lon="-2.24526">
        <ele>104.16</ele>
        <time>2019-08-26T10:00:34.000Z</time>
      </trkpt>
      <trkpt lat="47.59631" lon="-2.24526">
        <ele>102.5</ele>
        <time>2019-08-26T10:00:36.000Z</time>
      </trkpt>
      <trkpt lat="47.59633" lon="-2.24526">
        <ele>102.91</ele>
        <time>2019-08-26T10:00:38.000Z</time>
      </trkpt>
      <trkpt lat="47.59634" lon="-2.24526">
        <ele>102.41</ele>
        <time>2019-08-26T10:00:39.000Z</time>
      </trkpt>
      <trkpt lat="47.59636" lon="-2.24526">
        <ele>102.05</ele>
        <time>2019-08-26T10:00:40.000Z</time>
      </trkpt>
      <trkpt lat="47.59636" lon="-2.24525">
        <ele>102.48</ele>
        <time>2019-08-26T10:00:41.000Z</time>
      </trkpt>
      <trkpt lat="47.59637" lon="-2.24523">
        <ele>102.55</ele>
        <time>2019-08-26T10:00:42.000Z</time>
      </trkpt>
      <trkpt lat="47.59638" lon="-2.24522">
        <ele>103.08</ele>
        <time>2019-08-26T10:00:43.000Z</time>
      </trkpt>
      <trkpt lat="47.59638" lon="-2.24521">
        <ele>103.5</ele>
        <time>2019-08-26T10:00:44.000Z</time>
      </trkpt>
      <trkpt lat="47.59639" lon="-2.24519">
        <ele>102.16</ele>
        <time>2019-08-26T10:00:45.000Z</time>
      </trkpt>
      <trkpt lat="47.5964" lon="-2.24518">
        <ele>101.86</ele>
        <time>2019-08-26T10:00:46.000Z</time>
      </trkpt>
      <trkpt lat="47.59641" lon="-2.24518">
        <ele>100.88</ele>
        <time>2019-08-26T10:00:47.000Z</time>
      </trkpt>
      <trkpt lat="47.59642" lon="-2.24517">
        <ele>100.95</ele>
        <time>2019-08-26T10:00:49.000Z</time>
      </trkpt>
      <trkpt lat="47.59643" lon="-2.24517">
        <ele>100.97</ele>
        <time>2019-08-26T10:00:50.000Z</time>
      </trkpt>
      <trkpt lat="47.59644" lon="-2.24517">
        <ele>100.48</ele>
        <time>2019-08-26T10:00:51.000Z</time>
      </trkpt>
      <trkpt lat="47.59646" lon="-2.24517">
        <ele>99.65</ele>
        <time>2019-08-26T10:00:53.000Z</time>
      </trkpt>
      <trkpt lat="47.59647" lon="-2.24517">
        <ele>99.83</ele>
        <time>2019-08-26T10:00:55.000Z</time>
      </trkpt>
      <trkpt lat="47.59646" lon="-2.24519">
        <ele>101.56</ele>
        <time>2019-08-26T10:01:40.000Z</time>
      </trkpt>
      <trkpt lat="47.59646" lon="-2.24521">
        <ele>101.52</ele>
        <time>2019-08-26T10:01:41.000Z</time>
      </trkpt>
      <trkpt lat="47.59645" lon="-2.24523">
        <ele>101.66</ele>
        <time>2019-08-26T10:01:42.000Z</time>
      </trkpt>
      <trkpt lat="47.59645" lon="-2.24524">
        <ele>101.51</ele>
        <time>2019-08-26T10:01:43.000Z</time>
      </trkpt>
      <trkpt lat="47.59644" lon="-2.24526">
        <ele>101.09</ele>
        <time>2019-08-26T10:01:44.000Z</time>
      </trkpt>
      <trkpt lat="47.59644" lon="-2.24527">
        <ele>100.71</ele>
        <time>2019-08-26T10:01:45.000Z</time>
      </trkpt>
      <trkpt lat="47.59644" lon="-2.24529">
        <ele>101.08</ele>
        <time>2019-08-26T10:01:46.000Z</time>
      </trkpt>
      <trkpt lat="47.59644" lon="-2.24532">
        <ele>101.3</ele>
        <time>2019-08-26T10:01:48.000Z</time>
      </trkpt>
      <trkpt lat="47.59645" lon="-2.24534">
        <ele>101.91</ele>
        <time>2019-08-26T10:01:50.000Z</time>
      </trkpt>
      <trkpt lat="47.59646" lon="-2.24535">
        <ele>102.34</ele>
        <time>2019-08-26T10:01:53.000Z</time>
      </trkpt>
      <trkpt lat="47.59645" lon="-2.24536">
        <ele>103.18</ele>
        <time>2019-08-26T10:01:55.000Z</time>
      </trkpt>
      <trkpt lat="47.59645" lon="-2.24538">
        <ele>104.64</ele>
        <time>2019-08-26T10:01:58.000Z</time>
      </trkpt>
      <trkpt lat="47.59646" lon="-2.24537">
        <ele>105.69</ele>
        <time>2019-08-26T10:02:20.000Z</time>
      </trkpt>
      <trkpt lat="47.59647" lon="-2.24535">
        <ele>106.13</ele>
        <time>2019-08-26T10:02:21.000Z</time>
      </trkpt>
      <trkpt lat="47.59647" lon="-2.24533">
        <ele>105.61</ele>
        <time>2019-08-26T10:02:22.000Z</time>
      </trkpt>
      <trkpt lat="47.59647" lon="-2.24531">
        <ele>105.62</ele>
        <time>2019-08-26T10:02:23.000Z</time>
      </trkpt>
      <trkpt lat="47.59647" lon="-2.24529">
        <ele>105.57</ele>
        <time>2019-08-26T10:02:24.000Z</time>
      </trkpt>
      <trkpt lat="47.59647" lon="-2.24528">
        <ele>105.68</ele>
        <time>2019-08-26T10:02:25.000Z</time>
      </trkpt>
      <trkpt lat="47.59648" lon="-2.24526">
        <ele>106.12</ele>
        <time>2019-08-26T10:02:26.000Z</time>
      </trkpt>
      <trkpt lat="47.59648" lon="-2.24525">
        <ele>105.71</ele>
        <time>2019-08-26T10:02:27.000Z</time>
      </trkpt>
      <trkpt lat="47.59648" lon="-2.24523">
        <ele>105.72</ele>
        <time>2019-08-26T10:02:29.000Z</time>
      </trkpt>
      <trkpt lat="47.59649" lon="-2.24521">
        <ele>104.9</ele>
        <time>2019-08-26T10:02:31.000Z</time>
      </trkpt>
      <trkpt lat="47.59649" lon="-2.24519">
        <ele>104.86</ele>
        <time>2019-08-26T10:02:34.000Z</time>
      </trkpt>
      <trkpt lat="47.5965" lon="-2.24518">
        <ele>105.04</ele>
        <time>2019-08-26T10:02:35.000Z</time>
      </trkpt>
      <trkpt lat="47.5965" lon="-2.24517">
        <ele>104.74</ele>
        <time>2019-08-26T10:02:36.000Z</time>
      </trkpt>
      <trkpt lat="47.59652" lon="-2.24515">
        <ele>104.72</ele>
        <time>2019-08-26T10:02:38.000Z</time>
      </trkpt>
      <trkpt lat="47.59653" lon="-2.24514">
        <ele>104.85</ele>
        <time>2019-08-26T10:02:39.000Z</time>
      </trkpt>
      <trkpt lat="47.59654" lon="-2.24513">
        <ele>104.79</ele>
        <time>2019-08-26T10:02:40.000Z</time>
      </trkpt>
      <trkpt lat="47.59655" lon="-2.24512">
        <ele>104.68</ele>
        <time>2019-08-26T10:02:41.000Z</time>
      </trkpt>
      <trkpt lat="47.59656" lon="-2.24512">
        <ele>104.51</ele>
        <time>2019-08-26T10:02:42.000Z</time>
      </trkpt>
      <trkpt lat="47.59657" lon="-2.24511">
        <ele>103.96</ele>
        <time>2019-08-26T10:02:43.000Z</time>
      </trkpt>
      <trkpt lat="47.59658" lon="-2.24511">
        <ele>103.67</ele>
        <time>2019-08-26T10:02:44.000Z</time>
      </trkpt>
      <trkpt lat="47.59659" lon="-2.2451">
        <ele>103.8</ele>
        <time>2019-08-26T10:02:45.000Z</time>
      </trkpt>
      <trkpt lat="47.5966" lon="-2.24509">
        <ele>103.6</ele>
        <time>2019-08-26T10:02:46.000Z</time>
      </trkpt>
      <trkpt lat="47.59661" lon="-2.24509">
        <ele>103.45</ele>
        <time>2019-08-26T10:02:47.000Z</time>
      </trkpt>
      <trkpt lat="47.59662" lon="-2.24508">
        <ele>103.61</ele>
        <time>2019-08-26T10:02:48.000Z</time>
      </trkpt>
      <trkpt lat="47.59663" lon="-2.24507">
        <ele>103.15</ele>
        <time>2019-08-26T10:02:49.000Z</time>
      </trkpt>
      <trkpt lat="47.59664" lon="-2.24506">
        <ele>103.14</ele>
        <time>2019-08-26T10:02:50.000Z</time>
      </trkpt>
      <trkpt lat="47.59665" lon="-2.24506">
        <ele>102.75</ele>
        <time>2019-08-26T10:02:51.000Z</time>
      </trkpt>
      <trkpt lat="47.59666" lon="-2.24505">
        <ele>102.76</ele>
        <time>2019-08-26T10:02:52.000Z</time>
      </trkpt>
      <trkpt lat="47.59667" lon="-2.24506">
        <ele>101.99</ele>
        <time>2019-08-26T10:02:54.000Z</time>
      </trkpt>
      <trkpt lat="47.59668" lon="-2.24506">
        <ele>102.02</ele>
        <time>2019-08-26T10:02:55.000Z</time>
      </trkpt>
      <trkpt lat="47.5967" lon="-2.24507">
        <ele>102.35</ele>
        <time>2019-08-26T10:02:56.000Z</time>
      </trkpt>
      <trkpt lat="47.59671" lon="-2.24507">
        <ele>102.61</ele>
        <time>2019-08-26T10:02:57.000Z</time>
      </trkpt>
      <trkpt lat="47.59671" lon="-2.24508">
        <ele>102.51</ele>
        <time>2019-08-26T10:02:58.000Z</time>
      </trkpt>
      <trkpt lat="47.59672" lon="-2.2451">
        <ele>102.9</ele>
        <time>2019-08-26T10:02:59.000Z</time>
      </trkpt>
      <trkpt lat="47.59672" lon="-2.24511">
        <ele>103.01</ele>
        <time>2019-08-26T10:03:00.000Z</time>
      </trkpt>
      <trkpt lat="47.59672" lon="-2.24513">
        <ele>102.58</ele>
        <time>2019-08-26T10:03:01.000Z</time>
      </trkpt>
      <trkpt lat="47.59673" lon="-2.24515">
        <ele>102.7</ele>
        <time>2019-08-26T10:03:02.000Z</time>
      </trkpt>
      <trkpt lat="47.59673" lon="-2.24516">
        <ele>102.46</ele>
        <time>2019-08-26T10:03:03.000Z</time>
      </trkpt>
      <trkpt lat="47.59672" lon="-2.24518">
        <ele>102.11</ele>
        <time>2019-08-26T10:03:04.000Z</time>
      </trkpt>
      <trkpt lat="47.59671" lon="-2.24519">
        <ele>102.06</ele>
        <time>2019-08-26T10:03:05.000Z</time>
      </trkpt>
      <trkpt lat="47.5967" lon="-2.2452">
        <ele>102.48</ele>
        <time>2019-08-26T10:03:06.000Z</time>
      </trkpt>
      <trkpt lat="47.59669" lon="-2.2452">
        <ele>102.72</ele>
        <time>2019-08-26T10:03:07.000Z</time>
      </trkpt>
      <trkpt lat="47.59668" lon="-2.2452">
        <ele>102.88</ele>
        <time>2019-08-26T10:03:08.000Z</time>
      </trkpt>
      <trkpt lat="47.59667" lon="-2.24521">
        <ele>103.5</ele>
        <time>2019-08-26T10:03:09.000Z</time>
      </trkpt>
      <trkpt lat="47.59666" lon="-2.24521">
        <ele>103.94</ele>
        <time>2019-08-26T10:03:10.000Z</time>
      </trkpt>
      <trkpt lat="47.59665" lon="-2.24521">
        <ele>104</ele>
        <time>2019-08-26T10:03:11.000Z</time>
      </trkpt>
      <trkpt lat="47.59664" lon="-2.24522">
        <ele>103.68</ele>
        <time>2019-08-26T10:03:12.000Z</time>
      </trkpt>
      <trkpt lat="47.59663" lon="-2.24522">
        <ele>103.73</ele>
        <time>2019-08-26T10:03:13.000Z</time>
      </trkpt>
      <trkpt lat="47.59662" lon="-2.24523">
        <ele>103.69</ele>
        <time>2019-08-26T10:03:14.000Z</time>
      </trkpt>
      <trkpt lat="47.59661" lon="-2.24523">
        <ele>104.34</ele>
        <time>2019-08-26T10:03:17.000Z</time>
      </trkpt>
      <trkpt lat="47.5966" lon="-2.24523">
        <ele>104.13</ele>
        <time>2019-08-26T10:03:19.000Z</time>
      </trkpt>
      <trkpt lat="47.59658" lon="-2.24523">
        <ele>104.03</ele>
        <time>2019-08-26T10:03:21.000Z</time>
      </trkpt>
      <trkpt lat="47.59657" lon="-2.24524">
        <ele>104.65</ele>
        <time>2019-08-26T10:03:24.000Z</time>
      </trkpt>
      <trkpt lat="47.59656" lon="-2.24524">
        <ele>104.78</ele>
        <time>2019-08-26T10:03:26.000Z</time>
      </trkpt>
      <trkpt lat="47.59655" lon="-2.24526">
        <ele>104.9</ele>
        <time>2019-08-26T10:03:46.000Z</time>
      </trkpt>
      <trkpt lat="47.59655" lon="-2.24527">
        <ele>105.04</ele>
        <time>2019-08-26T10:03:47.000Z</time>
      </trkpt>
      <trkpt lat="47.59655" lon="-2.24529">
        <ele>104.92</ele>
        <time>2019-08-26T10:03:49.000Z</time>
      </trkpt>
      <trkpt lat="47.59655" lon="-2.24527">
        <ele>105.27</ele>
        <time>2019-08-26T10:03:55.000Z</time>
      </trkpt>
      <trkpt lat="47.59655" lon="-2.24526">
        <ele>105.39</ele>
        <time>2019-08-26T10:03:58.000Z</time>
      </trkpt>
      <trkpt lat="47.59656" lon="-2.24524">
        <ele>106.6</ele>
        <time>2019-08-26T10:05:11.000Z</time>
      </trkpt>
      <trkpt lat="47.59657" lon="-2.24523">
        <ele>106.56</ele>
        <time>2019-08-26T10:05:13.000Z</time>
      </trkpt>
      <trkpt lat="47.59658" lon="-2.24523">
        <ele>107.62</ele>
        <time>2019-08-26T10:05:15.000Z</time>
      </trkpt>
      <trkpt lat="47.59659" lon="-2.24524">
        <ele>107.17</ele>
        <time>2019-08-26T10:05:17.000Z</time>
      </trkpt>
      <trkpt lat="47.5966" lon="-2.24525">
        <ele>108</ele>
        <time>2019-08-26T10:05:19.000Z</time>
      </trkpt>
      <trkpt lat="47.59662" lon="-2.24526">
        <ele>107.94</ele>
        <time>2019-08-26T10:05:21.000Z</time>
      </trkpt>
      <trkpt lat="47.59663" lon="-2.24526">
        <ele>106.49</ele>
        <time>2019-08-26T10:05:23.000Z</time>
      </trkpt>
      <trkpt lat="47.59664" lon="-2.24525">
        <ele>106.15</ele>
        <time>2019-08-26T10:05:24.000Z</time>
      </trkpt>
      <trkpt lat="47.59665" lon="-2.24525">
        <ele>106.03</ele>
        <time>2019-08-26T10:05:25.000Z</time>
      </trkpt>
      <trkpt lat="47.59666" lon="-2.24525">
        <ele>106.08</ele>
        <time>2019-08-26T10:05:26.000Z</time>
      </trkpt>
      <trkpt lat="47.59668" lon="-2.24524">
        <ele>105.66</ele>
        <time>2019-08-26T10:05:28.000Z</time>
      </trkpt>
      <trkpt lat="47.5967" lon="-2.24523">
        <ele>105.18</ele>
        <time>2019-08-26T10:05:30.000Z</time>
      </trkpt>
      <trkpt lat="47.59671" lon="-2.24523">
        <ele>105.23</ele>
        <time>2019-08-26T10:05:31.000Z</time>
      </trkpt>
      <trkpt lat="47.59672" lon="-2.24523">
        <ele>104.4</ele>
        <time>2019-08-26T10:05:33.000Z</time>
      </trkpt>
      <trkpt lat="47.59673" lon="-2.24522">
        <ele>104.32</ele>
        <time>2019-08-26T10:05:34.000Z</time>
      </trkpt>
      <trkpt lat="47.59674" lon="-2.24521">
        <ele>105.07</ele>
        <time>2019-08-26T10:05:35.000Z</time>
      </trkpt>
      <trkpt lat="47.59675" lon="-2.2452">
        <ele>105.75</ele>
        <time>2019-08-26T10:05:36.000Z</time>
      </trkpt>
      <trkpt lat="47.59676" lon="-2.24518">
        <ele>105.68</ele>
        <time>2019-08-26T10:05:37.000Z</time>
      </trkpt>
      <trkpt lat="47.59677" lon="-2.24516">
        <ele>105.36</ele>
        <time>2019-08-26T10:05:38.000Z</time>
      </trkpt>
      <trkpt lat="47.59677" lon="-2.24515">
        <ele>105.47</ele>
        <time>2019-08-26T10:05:39.000Z</time>
      </trkpt>
      <trkpt lat="47.59677" lon="-2.24513">
        <ele>105.94</ele>
        <time>2019-08-26T10:05:40.000Z</time>
      </trkpt>
      <trkpt lat="47.59677" lon="-2.24511">
        <ele>106.6</ele>
        <time>2019-08-26T10:05:41.000Z</time>
      </trkpt>
      <trkpt lat="47.59677" lon="-2.24509">
        <ele>106.74</ele>
        <time>2019-08-26T10:05:42.000Z</time>
      </trkpt>
      <trkpt lat="47.59677" lon="-2.24508">
        <ele>106.03</ele>
        <time>2019-08-26T10:05:43.000Z</time>
      </trkpt>
      <trkpt lat="47.59676" lon="-2.24506">
        <ele>106.08</ele>
        <time>2019-08-26T10:05:44.000Z</time>
      </trkpt>
      <trkpt lat="47.59676" lon="-2.24504">
        <ele>106.5</ele>
        <time>2019-08-26T10:05:45.000Z</time>
      </trkpt>
      <trkpt lat="47.59676" lon="-2.24502">
        <ele>105.4</ele>
        <time>2019-08-26T10:05:46.000Z</time>
      </trkpt>
      <trkpt lat="47.59675" lon="-2.24501">
        <ele>105.2</ele>
        <time>2019-08-26T10:05:47.000Z</time>
      </trkpt>
      <trkpt lat="47.59675" lon="-2.24499">
        <ele>104.81</ele>
        <time>2019-08-26T10:05:48.000Z</time>
      </trkpt>
      <trkpt lat="47.59675" lon="-2.24497">
        <ele>104.55</ele>
        <time>2019-08-26T10:05:49.000Z</time>
      </trkpt>
      <trkpt lat="47.59674" lon="-2.24496">
        <ele>104.77</ele>
        <time>2019-08-26T10:05:50.000Z</time>
      </trkpt>
      <trkpt lat="47.59674" lon="-2.24495">
        <ele>104.78</ele>
        <time>2019-08-26T10:05:51.000Z</time>
      </trkpt>
      <trkpt lat="47.59673" lon="-2.24493">
        <ele>104.79</ele>
        <time>2019-08-26T10:05:52.000Z</time>
      </trkpt>
      <trkpt lat="47.59673" lon="-2.24491">
        <ele>105.36</ele>
        <time>2019-08-26T10:05:53.000Z</time>
      </trkpt>
      <trkpt lat="47.59672" lon="-2.24489">
        <ele>105.36</ele>
        <time>2019-08-26T10:05:55.000Z</time>
      </trkpt>
      <trkpt lat="47.59672" lon="-2.24487">
        <ele>106.07</ele>
        <time>2019-08-26T10:05:56.000Z</time>
      </trkpt>
      <trkpt lat="47.59671" lon="-2.24486">
        <ele>106.27</ele>
        <time>2019-08-26T10:05:57.000Z</time>
      </trkpt>
      <trkpt lat="47.59671" lon="-2.24484">
        <ele>105.96</ele>
        <time>2019-08-26T10:05:58.000Z</time>
      </trkpt>
      <trkpt lat="47.59671" lon="-2.24482">
        <ele>106.7</ele>
        <time>2019-08-26T10:05:59.000Z</time>
      </trkpt>
      <trkpt lat="47.59671" lon="-2.2448">
        <ele>106.89</ele>
        <time>2019-08-26T10:06:00.000Z</time>
      </trkpt>
      <trkpt lat="47.5967" lon="-2.24479">
        <ele>106.51</ele>
        <time>2019-08-26T10:06:01.000Z</time>
      </trkpt>
      <trkpt lat="47.5967" lon="-2.24477">
        <ele>106.64</ele>
        <time>2019-08-26T10:06:02.000Z</time>
      </trkpt>
      <trkpt lat="47.5967" lon="-2.24475">
        <ele>106.45</ele>
        <time>2019-08-26T10:06:03.000Z</time>
      </trkpt>
      <trkpt lat="47.5967" lon="-2.24474">
        <ele>106.2</ele>
        <time>2019-08-26T10:06:04.000Z</time>
      </trkpt>
      <trkpt lat="47.59669" lon="-2.24472">
        <ele>106.41</ele>
        <time>2019-08-26T10:06:05.000Z</time>
      </trkpt>
      <trkpt lat="47.59669" lon="-2.2447">
        <ele>106.56</ele>
        <time>2019-08-26T10:06:06.000Z</time>
      </trkpt>
      <trkpt lat="47.59669" lon="-2.24468">
        <ele>106.2</ele>
        <time>2019-08-26T10:06:07.000Z</time>
      </trkpt>
      <trkpt lat="47.59669" lon="-2.24467">
        <ele>106.23</ele>
        <time>2019-08-26T10:06:08.000Z</time>
      </trkpt>
      <trkpt lat="47.59668" lon="-2.24465">
        <ele>105.96</ele>
        <time>2019-08-26T10:06:09.000Z</time>
      </trkpt>
      <trkpt lat="47.59668" lon="-2.24463">
        <ele>106.06</ele>
        <time>2019-08-26T10:06:10.000Z</time>
      </trkpt>
      <trkpt lat="47.59668" lon="-2.24461">
        <ele>106.12</ele>
        <time>2019-08-26T10:06:11.000Z</time>
      </trkpt>
      <trkpt lat="47.59668" lon="-2.24459">
        <ele>106.13</ele>
        <time>2019-08-26T10:06:12.000Z</time>
      </trkpt>
      <trkpt lat="47.59667" lon="-2.24457">
        <ele>105.76</ele>
        <time>2019-08-26T10:06:13.000Z</time>
      </trkpt>
      <trkpt lat="47.59667" lon="-2.24455">
        <ele>105.74</ele>
        <time>2019-08-26T10:06:14.000Z</time>
      </trkpt>
      <trkpt lat="47.59666" lon="-2.24453">
        <ele>105.21</ele>
        <time>2019-08-26T10:06:15.000Z</time>
      </trkpt>
      <trkpt lat="47.59666" lon="-2.24451">
        <ele>104.18</ele>
        <time>2019-08-26T10:06:16.000Z</time>
      </trkpt>
      <trkpt lat="47.59666" lon="-2.24449">
        <ele>104.22</ele>
        <time>2019-08-26T10:06:17.000Z</time>
      </trkpt>
      <trkpt lat="47.59667" lon="-2.24447">
        <ele>103.34</ele>
        <time>2019-08-26T10:06:18.000Z</time>
      </trkpt>
      <trkpt lat="47.59667" lon="-2.24444">
        <ele>103.7</ele>
        <time>2019-08-26T10:06:19.000Z</time>
      </trkpt>
      <trkpt lat="47.59667" lon="-2.24442">
        <ele>103.65</ele>
        <time>2019-08-26T10:06:20.000Z</time>
      </trkpt>
      <trkpt lat="47.59666" lon="-2.2444">
        <ele>103.94</ele>
        <time>2019-08-26T10:06:21.000Z</time>
      </trkpt>
      <trkpt lat="47.59666" lon="-2.24438">
        <ele>103.96</ele>
        <time>2019-08-26T10:06:22.000Z</time>
      </trkpt>
      <trkpt lat="47.59666" lon="-2.24436">
        <ele>104.03</ele>
        <time>2019-08-26T10:06:23.000Z</time>
      </trkpt>
      <trkpt lat="47.59666" lon="-2.24434">
        <ele>104.29</ele>
        <time>2019-08-26T10:06:24.000Z</time>
      </trkpt>
      <trkpt lat="47.59666" lon="-2.24433">
        <ele>104.27</ele>
        <time>2019-08-26T10:06:25.000Z</time>
      </trkpt>
      <trkpt lat="47.59666" lon="-2.24431">
        <ele>104.38</ele>
        <time>2019-08-26T10:06:26.000Z</time>
      </trkpt>
      <trkpt lat="47.59666" lon="-2.24429">
        <ele>104.5</ele>
        <time>2019-08-26T10:06:27.000Z</time>
      </trkpt>
      <trkpt lat="47.59666" lon="-2.24427">
        <ele>104.56</ele>
        <time>2019-08-26T10:06:28.000Z</time>
      </trkpt>
      <trkpt lat="47.59666" lon="-2.24425">
        <ele>104.67</ele>
        <time>2019-08-26T10:06:29.000Z</time>
      </trkpt>
      <trkpt lat="47.59665" lon="-2.24423">
        <ele>104.78</ele>
        <time>2019-08-26T10:06:30.000Z</time>
      </trkpt>
      <trkpt lat="47.59665" lon="-2.24422">
        <ele>104.7</ele>
        <time>2019-08-26T10:06:31.000Z</time>
      </trkpt>
      <trkpt lat="47.59665" lon="-2.2442">
        <ele>104.48</ele>
        <time>2019-08-26T10:06:32.000Z</time>
      </trkpt>
      <trkpt lat="47.59666" lon="-2.24419">
        <ele>104.44</ele>
        <time>2019-08-26T10:06:33.000Z</time>
      </trkpt>
      <trkpt lat="47.59665" lon="-2.24416">
        <ele>104.8</ele>
        <time>2019-08-26T10:06:35.000Z</time>
      </trkpt>
      <trkpt lat="47.59665" lon="-2.24414">
        <ele>105.31</ele>
        <time>2019-08-26T10:06:36.000Z</time>
      </trkpt>
      <trkpt lat="47.59665" lon="-2.24413">
        <ele>104.78</ele>
        <time>2019-08-26T10:06:37.000Z</time>
      </trkpt>
      <trkpt lat="47.59665" lon="-2.24411">
        <ele>105.37</ele>
        <time>2019-08-26T10:06:38.000Z</time>
      </trkpt>
      <trkpt lat="47.59665" lon="-2.2441">
        <ele>105.73</ele>
        <time>2019-08-26T10:06:39.000Z</time>
      </trkpt>
      <trkpt lat="47.59665" lon="-2.24408">
        <ele>105.75</ele>
        <time>2019-08-26T10:06:40.000Z</time>
      </trkpt>
      <trkpt lat="47.59665" lon="-2.24407">
        <ele>106.18</ele>
        <time>2019-08-26T10:06:41.000Z</time>
      </trkpt>
      <trkpt lat="47.59664" lon="-2.24405">
        <ele>106.6</ele>
        <time>2019-08-26T10:06:42.000Z</time>
      </trkpt>
      <trkpt lat="47.59664" lon="-2.24404">
        <ele>106.99</ele>
        <time>2019-08-26T10:06:43.000Z</time>
      </trkpt>
      <trkpt lat="47.59664" lon="-2.24402">
        <ele>107.03</ele>
        <time>2019-08-26T10:06:44.000Z</time>
      </trkpt>
      <trkpt lat="47.59663" lon="-2.24401">
        <ele>106.51</ele>
        <time>2019-08-26T10:06:45.000Z</time>
      </trkpt>
      <trkpt lat="47.59663" lon="-2.24399">
        <ele>107</ele>
        <time>2019-08-26T10:06:46.000Z</time>
      </trkpt>
      <trkpt lat="47.59662" lon="-2.24398">
        <ele>106.93</ele>
        <time>2019-08-26T10:06:47.000Z</time>
      </trkpt>
      <trkpt lat="47.59662" lon="-2.24396">
        <ele>107.39</ele>
        <time>2019-08-26T10:06:48.000Z</time>
      </trkpt>
      <trkpt lat="47.59661" lon="-2.24395">
        <ele>106.96</ele>
        <time>2019-08-26T10:06:49.000Z</time>
      </trkpt>
      <trkpt lat="47.5966" lon="-2.24394">
        <ele>106.46</ele>
        <time>2019-08-26T10:06:50.000Z</time>
      </trkpt>
      <trkpt lat="47.59659" lon="-2.24393">
        <ele>105.96</ele>
        <time>2019-08-26T10:06:51.000Z</time>
      </trkpt>
      <trkpt lat="47.59658" lon="-2.24392">
        <ele>105.58</ele>
        <time>2019-08-26T10:06:52.000Z</time>
      </trkpt>
      <trkpt lat="47.59657" lon="-2.2439">
        <ele>105.14</ele>
        <time>2019-08-26T10:06:53.000Z</time>
      </trkpt>
      <trkpt lat="47.59656" lon="-2.24389">
        <ele>104.06</ele>
        <time>2019-08-26T10:06:54.000Z</time>
      </trkpt>
      <trkpt lat="47.59655" lon="-2.24388">
        <ele>102.99</ele>
        <time>2019-08-26T10:06:55.000Z</time>
      </trkpt>
      <trkpt lat="47.59655" lon="-2.24386">
        <ele>102</ele>
        <time>2019-08-26T10:06:56.000Z</time>
      </trkpt>
      <trkpt lat="47.59654" lon="-2.24385">
        <ele>102.24</ele>
        <time>2019-08-26T10:06:57.000Z</time>
      </trkpt>
      <trkpt lat="47.59654" lon="-2.24383">
        <ele>102.18</ele>
        <time>2019-08-26T10:06:58.000Z</time>
      </trkpt>
      <trkpt lat="47.59654" lon="-2.24382">
        <ele>102.17</ele>
        <time>2019-08-26T10:06:59.000Z</time>
      </trkpt>
      <trkpt lat="47.59654" lon="-2.2438">
        <ele>102.41</ele>
        <time>2019-08-26T10:07:00.000Z</time>
      </trkpt>
      <trkpt lat="47.59654" lon="-2.24378">
        <ele>102.57</ele>
        <time>2019-08-26T10:07:01.000Z</time>
      </trkpt>
      <trkpt lat="47.59654" lon="-2.24377">
        <ele>101.65</ele>
        <time>2019-08-26T10:07:02.000Z</time>
      </trkpt>
      <trkpt lat="47.59654" lon="-2.24375">
        <ele>101.98</ele>
        <time>2019-08-26T10:07:03.000Z</time>
      </trkpt>
      <trkpt lat="47.59654" lon="-2.24374">
        <ele>102.22</ele>
        <time>2019-08-26T10:07:04.000Z</time>
      </trkpt>
      <trkpt lat="47.59654" lon="-2.24372">
        <ele>102.05</ele>
        <time>2019-08-26T10:07:05.000Z</time>
      </trkpt>
      <trkpt lat="47.59654" lon="-2.2437">
        <ele>101.67</ele>
        <time>2019-08-26T10:07:06.000Z</time>
      </trkpt>
      <trkpt lat="47.59654" lon="-2.24369">
        <ele>101.45</ele>
        <time>2019-08-26T10:07:07.000Z</time>
      </trkpt>
      <trkpt lat="47.59654" lon="-2.24367">
        <ele>101.82</ele>
        <time>2019-08-26T10:07:08.000Z</time>
      </trkpt>
      <trkpt lat="47.59654" lon="-2.24365">
        <ele>102.32</ele>
        <time>2019-08-26T10:07:09.000Z</time>
      </trkpt>
      <trkpt lat="47.59654" lon="-2.24364">
        <ele>102.64</ele>
        <time>2019-08-26T10:07:10.000Z</time>
      </trkpt>
      <trkpt lat="47.59654" lon="-2.24363">
        <ele>102.69</ele>
        <time>2019-08-26T10:07:11.000Z</time>
      </trkpt>
      <trkpt lat="47.59654" lon="-2.24361">
        <ele>103.51</ele>
        <time>2019-08-26T10:07:12.000Z</time>
      </trkpt>
      <trkpt lat="47.59653" lon="-2.2436">
        <ele>104.05</ele>
        <time>2019-08-26T10:07:13.000Z</time>
      </trkpt>
      <trkpt lat="47.59653" lon="-2.24359">
        <ele>103.82</ele>
        <time>2019-08-26T10:07:14.000Z</time>
      </trkpt>
      <trkpt lat="47.59652" lon="-2.24357">
        <ele>103.55</ele>
        <time>2019-08-26T10:07:15.000Z</time>
      </trkpt>
      <trkpt lat="47.59652" lon="-2.24356">
        <ele>103.68</ele>
        <time>2019-08-26T10:07:16.000Z</time>
      </trkpt>
      <trkpt lat="47.59651" lon="-2.24354">
        <ele>103.88</ele>
        <time>2019-08-26T10:07:17.000Z</time>
      </trkpt>
      <trkpt lat="47.59651" lon="-2.24353">
        <ele>104.02</ele>
        <time>2019-08-26T10:07:18.000Z</time>
      </trkpt>
      <trkpt lat="47.5965" lon="-2.24351">
        <ele>104.2</ele>
        <time>2019-08-26T10:07:19.000Z</time>
      </trkpt>
      <trkpt lat="47.59651" lon="-2.24349">
        <ele>104.57</ele>
        <time>2019-08-26T10:07:20.000Z</time>
      </trkpt>
      <trkpt lat="47.59651" lon="-2.24347">
        <ele>105.29</ele>
        <time>2019-08-26T10:07:21.000Z</time>
      </trkpt>
      <trkpt lat="47.5965" lon="-2.24345">
        <ele>105.32</ele>
        <time>2019-08-26T10:07:22.000Z</time>
      </trkpt>
      <trkpt lat="47.5965" lon="-2.24343">
        <ele>105.46</ele>
        <time>2019-08-26T10:07:23.000Z</time>
      </trkpt>
      <trkpt lat="47.5965" lon="-2.24342">
        <ele>106.63</ele>
        <time>2019-08-26T10:07:24.000Z</time>
      </trkpt>
      <trkpt lat="47.59649" lon="-2.2434">
        <ele>106.73</ele>
        <time>2019-08-26T10:07:25.000Z</time>
      </trkpt>
      <trkpt lat="47.59649" lon="-2.24339">
        <ele>106.45</ele>
        <time>2019-08-26T10:07:26.000Z</time>
      </trkpt>
      <trkpt lat="47.59648" lon="-2.24337">
        <ele>106.14</ele>
        <time>2019-08-26T10:07:27.000Z</time>
      </trkpt>
      <trkpt lat="47.59647" lon="-2.24336">
        <ele>105.66</ele>
        <time>2019-08-26T10:07:28.000Z</time>
      </trkpt>
      <trkpt lat="47.59647" lon="-2.24334">
        <ele>105.75</ele>
        <time>2019-08-26T10:07:29.000Z</time>
      </trkpt>
      <trkpt lat="47.59646" lon="-2.24333">
        <ele>105.59</ele>
        <time>2019-08-26T10:07:30.000Z</time>
      </trkpt>
      <trkpt lat="47.59646" lon="-2.24331">
        <ele>105.81</ele>
        <time>2019-08-26T10:07:31.000Z</time>
      </trkpt>
      <trkpt lat="47.59645" lon="-2.24329">
        <ele>105.95</ele>
        <time>2019-08-26T10:07:32.000Z</time>
      </trkpt>
      <trkpt lat="47.59644" lon="-2.24327">
        <ele>106.17</ele>
        <time>2019-08-26T10:07:33.000Z</time>
      </trkpt>
      <trkpt lat="47.59643" lon="-2.24325">
        <ele>105.86</ele>
        <time>2019-08-26T10:07:34.000Z</time>
      </trkpt>
      <trkpt lat="47.59642" lon="-2.24324">
        <ele>105.69</ele>
        <time>2019-08-26T10:07:35.000Z</time>
      </trkpt>
      <trkpt lat="47.59642" lon="-2.24322">
        <ele>105.79</ele>
        <time>2019-08-26T10:07:36.000Z</time>
      </trkpt>
      <trkpt lat="47.59642" lon="-2.2432">
        <ele>105.85</ele>
        <time>2019-08-26T10:07:37.000Z</time>
      </trkpt>
      <trkpt lat="47.59641" lon="-2.24319">
        <ele>105.98</ele>
        <time>2019-08-26T10:07:38.000Z</time>
      </trkpt>
      <trkpt lat="47.59641" lon="-2.24317">
        <ele>105.45</ele>
        <time>2019-08-26T10:07:39.000Z</time>
      </trkpt>
      <trkpt lat="47.59641" lon="-2.24316">
        <ele>105.99</ele>
        <time>2019-08-26T10:07:40.000Z</time>
      </trkpt>
      <trkpt lat="47.59641" lon="-2.24314">
        <ele>106.89</ele>
        <time>2019-08-26T10:07:41.000Z</time>
      </trkpt>
      <trkpt lat="47.59641" lon="-2.24312">
        <ele>107.02</ele>
        <time>2019-08-26T10:07:42.000Z</time>
      </trkpt>
      <trkpt lat="47.59641" lon="-2.24311">
        <ele>107.3</ele>
        <time>2019-08-26T10:07:43.000Z</time>
      </trkpt>
      <trkpt lat="47.59641" lon="-2.24309">
        <ele>107.55</ele>
        <time>2019-08-26T10:07:44.000Z</time>
      </trkpt>
      <trkpt lat="47.59641" lon="-2.24308">
        <ele>107.6</ele>
        <time>2019-08-26T10:07:45.000Z</time>
      </trkpt>
      <trkpt lat="47.5964" lon="-2.24306">
        <ele>107.72</ele>
        <time>2019-08-26T10:07:46.000Z</time>
      </trkpt>
      <trkpt lat="47.59639" lon="-2.24305">
        <ele>108.38</ele>
        <time>2019-08-26T10:07:47.000Z</time>
      </trkpt>
      <trkpt lat="47.59639" lon="-2.24303">
        <ele>108.54</ele>
        <time>2019-08-26T10:07:48.000Z</time>
      </trkpt>
      <trkpt lat="47.59639" lon="-2.24301">
        <ele>108.94</ele>
        <time>2019-08-26T10:07:49.000Z</time>
      </trkpt>
      <trkpt lat="47.59639" lon="-2.243">
        <ele>109.13</ele>
        <time>2019-08-26T10:07:50.000Z</time>
      </trkpt>
      <trkpt lat="47.59638" lon="-2.24298">
        <ele>109.62</ele>
        <time>2019-08-26T10:07:51.000Z</time>
      </trkpt>
      <trkpt lat="47.59638" lon="-2.24297">
        <ele>109.67</ele>
        <time>2019-08-26T10:07:52.000Z</time>
      </trkpt>
      <trkpt lat="47.59638" lon="-2.24295">
        <ele>109.99</ele>
        <time>2019-08-26T10:07:53.000Z</time>
      </trkpt>
      <trkpt lat="47.59637" lon="-2.24293">
        <ele>109.93</ele>
        <time>2019-08-26T10:07:54.000Z</time>
      </trkpt>
      <trkpt lat="47.59637" lon="-2.24291">
        <ele>109.86</ele>
        <time>2019-08-26T10:07:55.000Z</time>
      </trkpt>
      <trkpt lat="47.59636" lon="-2.24289">
        <ele>108.67</ele>
        <time>2019-08-26T10:07:56.000Z</time>
      </trkpt>
      <trkpt lat="47.59635" lon="-2.24288">
        <ele>108.39</ele>
        <time>2019-08-26T10:07:57.000Z</time>
      </trkpt>
      <trkpt lat="47.59634" lon="-2.24287">
        <ele>108.13</ele>
        <time>2019-08-26T10:07:58.000Z</time>
      </trkpt>
      <trkpt lat="47.59634" lon="-2.24286">
        <ele>108.22</ele>
        <time>2019-08-26T10:07:59.000Z</time>
      </trkpt>
      <trkpt lat="47.59633" lon="-2.24286">
        <ele>108.19</ele>
        <time>2019-08-26T10:08:00.000Z</time>
      </trkpt>
      <trkpt lat="47.59631" lon="-2.24286">
        <ele>109.37</ele>
        <time>2019-08-26T10:08:02.000Z</time>
      </trkpt>
      <trkpt lat="47.59629" lon="-2.24287">
        <ele>109.75</ele>
        <time>2019-08-26T10:08:04.000Z</time>
      </trkpt>
      <trkpt lat="47.59628" lon="-2.24286">
        <ele>109.62</ele>
        <time>2019-08-26T10:08:06.000Z</time>
      </trkpt>
      <trkpt lat="47.59627" lon="-2.24286">
        <ele>109.29</ele>
        <time>2019-08-26T10:08:07.000Z</time>
      </trkpt>
      <trkpt lat="47.59626" lon="-2.24286">
        <ele>109.03</ele>
        <time>2019-08-26T10:08:08.000Z</time>
      </trkpt>
      <trkpt lat="47.59625" lon="-2.24285">
        <ele>109.18</ele>
        <time>2019-08-26T10:08:10.000Z</time>
      </trkpt>
      <trkpt lat="47.59624" lon="-2.24286">
        <ele>110.11</ele>
        <time>2019-08-26T10:09:06.000Z</time>
      </trkpt>
      <trkpt lat="47.59623" lon="-2.24285">
        <ele>112.19</ele>
        <time>2019-08-26T10:09:08.000Z</time>
      </trkpt>
      <trkpt lat="47.59622" lon="-2.24286">
        <ele>113.47</ele>
        <time>2019-08-26T10:09:11.000Z</time>
      </trkpt>
      <trkpt lat="47.59621" lon="-2.24288">
        <ele>113.7</ele>
        <time>2019-08-26T10:09:15.000Z</time>
      </trkpt>
      <trkpt lat="47.59621" lon="-2.24289">
        <ele>112.77</ele>
        <time>2019-08-26T10:09:17.000Z</time>
      </trkpt>
      <trkpt lat="47.5962" lon="-2.2429">
        <ele>112.93</ele>
        <time>2019-08-26T10:09:30.000Z</time>
      </trkpt>
      <trkpt lat="47.59619" lon="-2.24289">
        <ele>112.65</ele>
        <time>2019-08-26T10:09:31.000Z</time>
      </trkpt>
      <trkpt lat="47.59617" lon="-2.24288">
        <ele>113.01</ele>
        <time>2019-08-26T10:09:33.000Z</time>
      </trkpt>
      <trkpt lat="47.59616" lon="-2.24288">
        <ele>113.6</ele>
        <time>2019-08-26T10:09:34.000Z</time>
      </trkpt>
      <trkpt lat="47.59615" lon="-2.24286">
        <ele>113.78</ele>
        <time>2019-08-26T10:09:35.000Z</time>
      </trkpt>
      <trkpt lat="47.59614" lon="-2.24285">
        <ele>112.54</ele>
        <time>2019-08-26T10:09:36.000Z</time>
      </trkpt>
      <trkpt lat="47.59614" lon="-2.24283">
        <ele>111.56</ele>
        <time>2019-08-26T10:09:37.000Z</time>
      </trkpt>
      <trkpt lat="47.59613" lon="-2.2428">
        <ele>110.96</ele>
        <time>2019-08-26T10:09:38.000Z</time>
      </trkpt>
      <trkpt lat="47.59613" lon="-2.24278">
        <ele>110.37</ele>
        <time>2019-08-26T10:09:39.000Z</time>
      </trkpt>
      <trkpt lat="47.59612" lon="-2.24277">
        <ele>109.7</ele>
        <time>2019-08-26T10:09:40.000Z</time>
      </trkpt>
      <trkpt lat="47.59612" lon="-2.24276">
        <ele>107.67</ele>
        <time>2019-08-26T10:09:41.000Z</time>
      </trkpt>
      <trkpt lat="47.59611" lon="-2.24275">
        <ele>108</ele>
        <time>2019-08-26T10:09:42.000Z</time>
      </trkpt>
      <trkpt lat="47.5961" lon="-2.24274">
        <ele>108.75</ele>
        <time>2019-08-26T10:09:43.000Z</time>
      </trkpt>
      <trkpt lat="47.59609" lon="-2.24272">
        <ele>107.61</ele>
        <time>2019-08-26T10:09:45.000Z</time>
      </trkpt>
      <trkpt lat="47.59608" lon="-2.2427">
        <ele>105.98</ele>
        <time>2019-08-26T10:09:47.000Z</time>
      </trkpt>
      <trkpt lat="47.59607" lon="-2.2427">
        <ele>106.2</ele>
        <time>2019-08-26T10:09:48.000Z</time>
      </trkpt>
      <trkpt lat="47.59606" lon="-2.24267">
        <ele>107.29</ele>
        <time>2019-08-26T10:09:50.000Z</time>
      </trkpt>
      <trkpt lat="47.59605" lon="-2.24265">
        <ele>107.12</ele>
        <time>2019-08-26T10:09:51.000Z</time>
      </trkpt>
      <trkpt lat="47.59605" lon="-2.24263">
        <ele>106.69</ele>
        <time>2019-08-26T10:09:52.000Z</time>
      </trkpt>
      <trkpt lat="47.59604" lon="-2.24262">
        <ele>105.82</ele>
        <time>2019-08-26T10:09:53.000Z</time>
      </trkpt>
      <trkpt lat="47.59604" lon="-2.2426">
        <ele>105.8</ele>
        <time>2019-08-26T10:09:54.000Z</time>
      </trkpt>
      <trkpt lat="47.59602" lon="-2.24259">
        <ele>105.07</ele>
        <time>2019-08-26T10:09:55.000Z</time>
      </trkpt>
      <trkpt lat="47.59601" lon="-2.24258">
        <ele>105.14</ele>
        <time>2019-08-26T10:09:56.000Z</time>
      </trkpt>
      <trkpt lat="47.596" lon="-2.24256">
        <ele>105.03</ele>
        <time>2019-08-26T10:09:57.000Z</time>
      </trkpt>
      <trkpt lat="47.596" lon="-2.24254">
        <ele>104.67</ele>
        <time>2019-08-26T10:09:58.000Z</time>
      </trkpt>
      <trkpt lat="47.59599" lon="-2.24253">
        <ele>103.7</ele>
        <time>2019-08-26T10:09:59.000Z</time>
      </trkpt>
      <trkpt lat="47.59598" lon="-2.24251">
        <ele>104.03</ele>
        <time>2019-08-26T10:10:00.000Z</time>
      </trkpt>
      <trkpt lat="47.59597" lon="-2.24249">
        <ele>104.15</ele>
        <time>2019-08-26T10:10:01.000Z</time>
      </trkpt>
      <trkpt lat="47.59596" lon="-2.24247">
        <ele>104.39</ele>
        <time>2019-08-26T10:10:02.000Z</time>
      </trkpt>
      <trkpt lat="47.59596" lon="-2.24245">
        <ele>105.26</ele>
        <time>2019-08-26T10:10:03.000Z</time>
      </trkpt>
      <trkpt lat="47.59595" lon="-2.24244">
        <ele>105.1</ele>
        <time>2019-08-26T10:10:04.000Z</time>
      </trkpt>
      <trkpt lat="47.59594" lon="-2.24242">
        <ele>105.5</ele>
        <time>2019-08-26T10:10:05.000Z</time>
      </trkpt>
      <trkpt lat="47.59595" lon="-2.2424">
        <ele>105.21</ele>
        <time>2019-08-26T10:10:06.000Z</time>
      </trkpt>
      <trkpt lat="47.59596" lon="-2.24237">
        <ele>103.65</ele>
        <time>2019-08-26T10:10:07.000Z</time>
      </trkpt>
      <trkpt lat="47.59596" lon="-2.24235">
        <ele>103.33</ele>
        <time>2019-08-26T10:10:08.000Z</time>
      </trkpt>
      <trkpt lat="47.59597" lon="-2.24234">
        <ele>102.5</ele>
        <time>2019-08-26T10:10:09.000Z</time>
      </trkpt>
      <trkpt lat="47.59597" lon="-2.24232">
        <ele>102.99</ele>
        <time>2019-08-26T10:10:10.000Z</time>
      </trkpt>
      <trkpt lat="47.59598" lon="-2.2423">
        <ele>103.05</ele>
        <time>2019-08-26T10:10:11.000Z</time>
      </trkpt>
      <trkpt lat="47.59598" lon="-2.24228">
        <ele>102.7</ele>
        <time>2019-08-26T10:10:12.000Z</time>
      </trkpt>
      <trkpt lat="47.59598" lon="-2.24226">
        <ele>103.05</ele>
        <time>2019-08-26T10:10:13.000Z</time>
      </trkpt>
      <trkpt lat="47.59598" lon="-2.24225">
        <ele>103.49</ele>
        <time>2019-08-26T10:10:14.000Z</time>
      </trkpt>
      <trkpt lat="47.59598" lon="-2.24223">
        <ele>103.99</ele>
        <time>2019-08-26T10:10:15.000Z</time>
      </trkpt>
      <trkpt lat="47.59598" lon="-2.24221">
        <ele>103.14</ele>
        <time>2019-08-26T10:10:16.000Z</time>
      </trkpt>
      <trkpt lat="47.59598" lon="-2.24219">
        <ele>103.66</ele>
        <time>2019-08-26T10:10:17.000Z</time>
      </trkpt>
      <trkpt lat="47.59598" lon="-2.24218">
        <ele>104.29</ele>
        <time>2019-08-26T10:10:18.000Z</time>
      </trkpt>
      <trkpt lat="47.59598" lon="-2.24216">
        <ele>103.98</ele>
        <time>2019-08-26T10:10:19.000Z</time>
      </trkpt>
      <trkpt lat="47.59598" lon="-2.24215">
        <ele>104.75</ele>
        <time>2019-08-26T10:10:20.000Z</time>
      </trkpt>
      <trkpt lat="47.59598" lon="-2.24213">
        <ele>105.41</ele>
        <time>2019-08-26T10:10:21.000Z</time>
      </trkpt>
      <trkpt lat="47.59597" lon="-2.24211">
        <ele>105.69</ele>
        <time>2019-08-26T10:10:22.000Z</time>
      </trkpt>
      <trkpt lat="47.59597" lon="-2.2421">
        <ele>106.2</ele>
        <time>2019-08-26T10:10:23.000Z</time>
      </trkpt>
      <trkpt lat="47.59597" lon="-2.24208">
        <ele>107.37</ele>
        <time>2019-08-26T10:10:24.000Z</time>
      </trkpt>
      <trkpt lat="47.59597" lon="-2.24206">
        <ele>107.29</ele>
        <time>2019-08-26T10:10:25.000Z</time>
      </trkpt>
      <trkpt lat="47.59597" lon="-2.24204">
        <ele>107.21</ele>
        <time>2019-08-26T10:10:26.000Z</time>
      </trkpt>
      <trkpt lat="47.59597" lon="-2.24202">
        <ele>107.29</ele>
        <time>2019-08-26T10:10:27.000Z</time>
      </trkpt>
      <trkpt lat="47.59597" lon="-2.24199">
        <ele>106.94</ele>
        <time>2019-08-26T10:10:28.000Z</time>
      </trkpt>
      <trkpt lat="47.59597" lon="-2.24197">
        <ele>106.82</ele>
        <time>2019-08-26T10:10:29.000Z</time>
      </trkpt>
      <trkpt lat="47.59597" lon="-2.24195">
        <ele>106.91</ele>
        <time>2019-08-26T10:10:30.000Z</time>
      </trkpt>
      <trkpt lat="47.59597" lon="-2.24193">
        <ele>106.73</ele>
        <time>2019-08-26T10:10:31.000Z</time>
      </trkpt>
      <trkpt lat="47.59596" lon="-2.24191">
        <ele>106.8</ele>
        <time>2019-08-26T10:10:32.000Z</time>
      </trkpt>
      <trkpt lat="47.59596" lon="-2.24189">
        <ele>106.44</ele>
        <time>2019-08-26T10:10:33.000Z</time>
      </trkpt>
      <trkpt lat="47.59596" lon="-2.24187">
        <ele>106.53</ele>
        <time>2019-08-26T10:10:34.000Z</time>
      </trkpt>
      <trkpt lat="47.59596" lon="-2.24184">
        <ele>106.37</ele>
        <time>2019-08-26T10:10:35.000Z</time>
      </trkpt>
      <trkpt lat="47.59596" lon="-2.24182">
        <ele>106.25</ele>
        <time>2019-08-26T10:10:36.000Z</time>
      </trkpt>
      <trkpt lat="47.59595" lon="-2.2418">
        <ele>106.87</ele>
        <time>2019-08-26T10:10:37.000Z</time>
      </trkpt>
      <trkpt lat="47.59595" lon="-2.24178">
        <ele>107.17</ele>
        <time>2019-08-26T10:10:38.000Z</time>
      </trkpt>
      <trkpt lat="47.59595" lon="-2.24176">
        <ele>106.52</ele>
        <time>2019-08-26T10:10:39.000Z</time>
      </trkpt>
      <trkpt lat="47.59595" lon="-2.24175">
        <ele>106.83</ele>
        <time>2019-08-26T10:10:40.000Z</time>
      </trkpt>
      <trkpt lat="47.59595" lon="-2.24173">
        <ele>106.86</ele>
        <time>2019-08-26T10:10:41.000Z</time>
      </trkpt>
      <trkpt lat="47.59595" lon="-2.24171">
        <ele>106.55</ele>
        <time>2019-08-26T10:10:42.000Z</time>
      </trkpt>
      <trkpt lat="47.59595" lon="-2.24169">
        <ele>106.25</ele>
        <time>2019-08-26T10:10:43.000Z</time>
      </trkpt>
      <trkpt lat="47.59595" lon="-2.24167">
        <ele>105.77</ele>
        <time>2019-08-26T10:10:44.000Z</time>
      </trkpt>
      <trkpt lat="47.59595" lon="-2.24165">
        <ele>106.71</ele>
        <time>2019-08-26T10:10:45.000Z</time>
      </trkpt>
      <trkpt lat="47.59594" lon="-2.24164">
        <ele>107.21</ele>
        <time>2019-08-26T10:10:46.000Z</time>
      </trkpt>
      <trkpt lat="47.59594" lon="-2.24163">
        <ele>108.19</ele>
        <time>2019-08-26T10:10:47.000Z</time>
      </trkpt>
      <trkpt lat="47.59594" lon="-2.2416">
        <ele>108.23</ele>
        <time>2019-08-26T10:10:49.000Z</time>
      </trkpt>
      <trkpt lat="47.59594" lon="-2.24158">
        <ele>107.55</ele>
        <time>2019-08-26T10:10:50.000Z</time>
      </trkpt>
      <trkpt lat="47.59594" lon="-2.24157">
        <ele>108.34</ele>
        <time>2019-08-26T10:10:51.000Z</time>
      </trkpt>
      <trkpt lat="47.59594" lon="-2.24155">
        <ele>108.23</ele>
        <time>2019-08-26T10:10:52.000Z</time>
      </trkpt>
      <trkpt lat="47.59594" lon="-2.24152">
        <ele>107.91</ele>
        <time>2019-08-26T10:10:54.000Z</time>
      </trkpt>
      <trkpt lat="47.59594" lon="-2.24151">
        <ele>108.19</ele>
        <time>2019-08-26T10:10:55.000Z</time>
      </trkpt>
      <trkpt lat="47.59595" lon="-2.24148">
        <ele>108.62</ele>
        <time>2019-08-26T10:10:57.000Z</time>
      </trkpt>
      <trkpt lat="47.59595" lon="-2.24147">
        <ele>108.6</ele>
        <time>2019-08-26T10:10:58.000Z</time>
      </trkpt>
      <trkpt lat="47.59595" lon="-2.24144">
        <ele>109.16</ele>
        <time>2019-08-26T10:11:00.000Z</time>
      </trkpt>
      <trkpt lat="47.59594" lon="-2.24142">
        <ele>109.05</ele>
        <time>2019-08-26T10:11:01.000Z</time>
      </trkpt>
      <trkpt lat="47.59594" lon="-2.24141">
        <ele>107.93</ele>
        <time>2019-08-26T10:11:03.000Z</time>
      </trkpt>
      <trkpt lat="47.59593" lon="-2.24139">
        <ele>111.6</ele>
        <time>2019-08-26T10:11:23.000Z</time>
      </trkpt>
      <trkpt lat="47.59593" lon="-2.24137">
        <ele>110.82</ele>
        <time>2019-08-26T10:11:24.000Z</time>
      </trkpt>
      <trkpt lat="47.59592" lon="-2.24136">
        <ele>110.87</ele>
        <time>2019-08-26T10:11:25.000Z</time>
      </trkpt>
      <trkpt lat="47.59591" lon="-2.24135">
        <ele>110.35</ele>
        <time>2019-08-26T10:11:26.000Z</time>
      </trkpt>
      <trkpt lat="47.59591" lon="-2.24134">
        <ele>109.79</ele>
        <time>2019-08-26T10:11:27.000Z</time>
      </trkpt>
      <trkpt lat="47.5959" lon="-2.24133">
        <ele>109.39</ele>
        <time>2019-08-26T10:11:28.000Z</time>
      </trkpt>
      <trkpt lat="47.59589" lon="-2.24131">
        <ele>109.14</ele>
        <time>2019-08-26T10:11:29.000Z</time>
      </trkpt>
      <trkpt lat="47.59589" lon="-2.24129">
        <ele>109.55</ele>
        <time>2019-08-26T10:11:30.000Z</time>
      </trkpt>
      <trkpt lat="47.59588" lon="-2.24127">
        <ele>110.18</ele>
        <time>2019-08-26T10:11:32.000Z</time>
      </trkpt>
      <trkpt lat="47.59588" lon="-2.24125">
        <ele>113.1</ele>
        <time>2019-08-26T10:12:05.000Z</time>
      </trkpt>
      <trkpt lat="47.59588" lon="-2.24123">
        <ele>112.67</ele>
        <time>2019-08-26T10:12:07.000Z</time>
      </trkpt>
      <trkpt lat="47.59588" lon="-2.2412">
        <ele>112.93</ele>
        <time>2019-08-26T10:12:09.000Z</time>
      </trkpt>
      <trkpt lat="47.59588" lon="-2.24118">
        <ele>112.59</ele>
        <time>2019-08-26T10:12:10.000Z</time>
      </trkpt>
      <trkpt lat="47.59588" lon="-2.24117">
        <ele>112.33</ele>
        <time>2019-08-26T10:12:11.000Z</time>
      </trkpt>
      <trkpt lat="47.59588" lon="-2.24115">
        <ele>111.79</ele>
        <time>2019-08-26T10:12:12.000Z</time>
      </trkpt>
      <trkpt lat="47.59588" lon="-2.24113">
        <ele>111.63</ele>
        <time>2019-08-26T10:12:13.000Z</time>
      </trkpt>
      <trkpt lat="47.59588" lon="-2.24111">
        <ele>110.78</ele>
        <time>2019-08-26T10:12:14.000Z</time>
      </trkpt>
      <trkpt lat="47.59588" lon="-2.24109">
        <ele>110.51</ele>
        <time>2019-08-26T10:12:15.000Z</time>
      </trkpt>
      <trkpt lat="47.59588" lon="-2.24107">
        <ele>109.94</ele>
        <time>2019-08-26T10:12:16.000Z</time>
      </trkpt>
      <trkpt lat="47.59588" lon="-2.24105">
        <ele>109.45</ele>
        <time>2019-08-26T10:12:17.000Z</time>
      </trkpt>
      <trkpt lat="47.59589" lon="-2.24104">
        <ele>109.18</ele>
        <time>2019-08-26T10:12:18.000Z</time>
      </trkpt>
      <trkpt lat="47.59589" lon="-2.24102">
        <ele>109.24</ele>
        <time>2019-08-26T10:12:19.000Z</time>
      </trkpt>
      <trkpt lat="47.59589" lon="-2.241">
        <ele>109.17</ele>
        <time>2019-08-26T10:12:20.000Z</time>
      </trkpt>
      <trkpt lat="47.59589" lon="-2.24099">
        <ele>108.92</ele>
        <time>2019-08-26T10:12:21.000Z</time>
      </trkpt>
      <trkpt lat="47.5959" lon="-2.24097">
        <ele>109.05</ele>
        <time>2019-08-26T10:12:22.000Z</time>
      </trkpt>
      <trkpt lat="47.59591" lon="-2.24096">
        <ele>108.83</ele>
        <time>2019-08-26T10:12:23.000Z</time>
      </trkpt>
      <trkpt lat="47.59591" lon="-2.24094">
        <ele>109.34</ele>
        <time>2019-08-26T10:12:24.000Z</time>
      </trkpt>
      <trkpt lat="47.59591" lon="-2.24093">
        <ele>109.22</ele>
        <time>2019-08-26T10:12:25.000Z</time>
      </trkpt>
      <trkpt lat="47.59592" lon="-2.24091">
        <ele>108.75</ele>
        <time>2019-08-26T10:12:26.000Z</time>
      </trkpt>
      <trkpt lat="47.59592" lon="-2.24089">
        <ele>108.19</ele>
        <time>2019-08-26T10:12:27.000Z</time>
      </trkpt>
      <trkpt lat="47.59592" lon="-2.24088">
        <ele>108.72</ele>
        <time>2019-08-26T10:12:28.000Z</time>
      </trkpt>
      <trkpt lat="47.59592" lon="-2.24086">
        <ele>108.6</ele>
        <time>2019-08-26T10:12:29.000Z</time>
      </trkpt>
      <trkpt lat="47.59592" lon="-2.24084">
        <ele>108.69</ele>
        <time>2019-08-26T10:12:30.000Z</time>
      </trkpt>
      <trkpt lat="47.59592" lon="-2.24083">
        <ele>108.87</ele>
        <time>2019-08-26T10:12:31.000Z</time>
      </trkpt>
      <trkpt lat="47.59592" lon="-2.24081">
        <ele>109.11</ele>
        <time>2019-08-26T10:12:32.000Z</time>
      </trkpt>
      <trkpt lat="47.59592" lon="-2.24079">
        <ele>109.32</ele>
        <time>2019-08-26T10:12:33.000Z</time>
      </trkpt>
      <trkpt lat="47.59592" lon="-2.24077">
        <ele>109.2</ele>
        <time>2019-08-26T10:12:34.000Z</time>
      </trkpt>
      <trkpt lat="47.59592" lon="-2.24075">
        <ele>109.42</ele>
        <time>2019-08-26T10:12:35.000Z</time>
      </trkpt>
      <trkpt lat="47.59592" lon="-2.24074">
        <ele>109.72</ele>
        <time>2019-08-26T10:12:36.000Z</time>
      </trkpt>
      <trkpt lat="47.59592" lon="-2.24072">
        <ele>109.76</ele>
        <time>2019-08-26T10:12:37.000Z</time>
      </trkpt>
      <trkpt lat="47.59592" lon="-2.2407">
        <ele>109.54</ele>
        <time>2019-08-26T10:12:38.000Z</time>
      </trkpt>
      <trkpt lat="47.59593" lon="-2.24068">
        <ele>109.72</ele>
        <time>2019-08-26T10:12:39.000Z</time>
      </trkpt>
      <trkpt lat="47.59593" lon="-2.24066">
        <ele>109.84</ele>
        <time>2019-08-26T10:12:40.000Z</time>
      </trkpt>
      <trkpt lat="47.59594" lon="-2.24064">
        <ele>110.15</ele>
        <time>2019-08-26T10:12:41.000Z</time>
      </trkpt>
      <trkpt lat="47.59594" lon="-2.24062">
        <ele>110.16</ele>
        <time>2019-08-26T10:12:42.000Z</time>
      </trkpt>
      <trkpt lat="47.59594" lon="-2.2406">
        <ele>110.17</ele>
        <time>2019-08-26T10:12:43.000Z</time>
      </trkpt>
      <trkpt lat="47.59594" lon="-2.24059">
        <ele>110.37</ele>
        <time>2019-08-26T10:12:44.000Z</time>
      </trkpt>
      <trkpt lat="47.59594" lon="-2.24057">
        <ele>110.02</ele>
        <time>2019-08-26T10:12:45.000Z</time>
      </trkpt>
      <trkpt lat="47.59594" lon="-2.24055">
        <ele>110.16</ele>
        <time>2019-08-26T10:12:46.000Z</time>
      </trkpt>
      <trkpt lat="47.59594" lon="-2.24054">
        <ele>109.87</ele>
        <time>2019-08-26T10:12:47.000Z</time>
      </trkpt>
      <trkpt lat="47.59595" lon="-2.24052">
        <ele>110.17</ele>
        <time>2019-08-26T10:12:48.000Z</time>
      </trkpt>
      <trkpt lat="47.59595" lon="-2.2405">
        <ele>110.07</ele>
        <time>2019-08-26T10:12:49.000Z</time>
      </trkpt>
      <trkpt lat="47.59596" lon="-2.24048">
        <ele>109.91</ele>
        <time>2019-08-26T10:12:50.000Z</time>
      </trkpt>
      <trkpt lat="47.59596" lon="-2.24047">
        <ele>109.85</ele>
        <time>2019-08-26T10:12:51.000Z</time>
      </trkpt>
      <trkpt lat="47.59596" lon="-2.24045">
        <ele>109.92</ele>
        <time>2019-08-26T10:12:52.000Z</time>
      </trkpt>
      <trkpt lat="47.59596" lon="-2.24043">
        <ele>109.7</ele>
        <time>2019-08-26T10:12:53.000Z</time>
      </trkpt>
      <trkpt lat="47.59596" lon="-2.24041">
        <ele>109.29</ele>
        <time>2019-08-26T10:12:54.000Z</time>
      </trkpt>
      <trkpt lat="47.59596" lon="-2.2404">
        <ele>109.36</ele>
        <time>2019-08-26T10:12:55.000Z</time>
      </trkpt>
      <trkpt lat="47.59597" lon="-2.24038">
        <ele>109.34</ele>
        <time>2019-08-26T10:12:56.000Z</time>
      </trkpt>
      <trkpt lat="47.59597" lon="-2.24037">
        <ele>108.85</ele>
        <time>2019-08-26T10:12:57.000Z</time>
      </trkpt>
      <trkpt lat="47.59597" lon="-2.24035">
        <ele>109.03</ele>
        <time>2019-08-26T10:12:58.000Z</time>
      </trkpt>
      <trkpt lat="47.59597" lon="-2.24034">
        <ele>109.05</ele>
        <time>2019-08-26T10:12:59.000Z</time>
      </trkpt>
      <trkpt lat="47.59597" lon="-2.24032">
        <ele>108.92</ele>
        <time>2019-08-26T10:13:00.000Z</time>
      </trkpt>
      <trkpt lat="47.59597" lon="-2.24031">
        <ele>109.04</ele>
        <time>2019-08-26T10:13:01.000Z</time>
      </trkpt>
      <trkpt lat="47.59598" lon="-2.24029">
        <ele>109.5</ele>
        <time>2019-08-26T10:13:02.000Z</time>
      </trkpt>
      <trkpt lat="47.59598" lon="-2.24028">
        <ele>109.75</ele>
        <time>2019-08-26T10:13:03.000Z</time>
      </trkpt>
      <trkpt lat="47.59598" lon="-2.24026">
        <ele>110.07</ele>
        <time>2019-08-26T10:13:04.000Z</time>
      </trkpt>
      <trkpt lat="47.59598" lon="-2.24025">
        <ele>110.05</ele>
        <time>2019-08-26T10:13:05.000Z</time>
      </trkpt>
      <trkpt lat="47.59598" lon="-2.24023">
        <ele>110.38</ele>
        <time>2019-08-26T10:13:06.000Z</time>
      </trkpt>
      <trkpt lat="47.59597" lon="-2.24022">
        <ele>110.29</ele>
        <time>2019-08-26T10:13:07.000Z</time>
      </trkpt>
      <trkpt lat="47.59597" lon="-2.2402">
        <ele>110.68</ele>
        <time>2019-08-26T10:13:08.000Z</time>
      </trkpt>
      <trkpt lat="47.59597" lon="-2.24018">
        <ele>110.89</ele>
        <time>2019-08-26T10:13:09.000Z</time>
      </trkpt>
      <trkpt lat="47.59597" lon="-2.24016">
        <ele>110.81</ele>
        <time>2019-08-26T10:13:10.000Z</time>
      </trkpt>
      <trkpt lat="47.59597" lon="-2.24015">
        <ele>110.7</ele>
        <time>2019-08-26T10:13:11.000Z</time>
      </trkpt>
      <trkpt lat="47.59597" lon="-2.24013">
        <ele>110.28</ele>
        <time>2019-08-26T10:13:12.000Z</time>
      </trkpt>
      <trkpt lat="47.59597" lon="-2.24011">
        <ele>110.64</ele>
        <time>2019-08-26T10:13:13.000Z</time>
      </trkpt>
      <trkpt lat="47.59597" lon="-2.24009">
        <ele>110.42</ele>
        <time>2019-08-26T10:13:14.000Z</time>
      </trkpt>
      <trkpt lat="47.59597" lon="-2.24008">
        <ele>110.27</ele>
        <time>2019-08-26T10:13:15.000Z</time>
      </trkpt>
      <trkpt lat="47.59597" lon="-2.24006">
        <ele>110.08</ele>
        <time>2019-08-26T10:13:16.000Z</time>
      </trkpt>
      <trkpt lat="47.59597" lon="-2.24005">
        <ele>110.46</ele>
        <time>2019-08-26T10:13:17.000Z</time>
      </trkpt>
      <trkpt lat="47.59598" lon="-2.24003">
        <ele>110.54</ele>
        <time>2019-08-26T10:13:18.000Z</time>
      </trkpt>
      <trkpt lat="47.59598" lon="-2.24001">
        <ele>110.9</ele>
        <time>2019-08-26T10:13:19.000Z</time>
      </trkpt>
      <trkpt lat="47.59598" lon="-2.24">
        <ele>110.81</ele>
        <time>2019-08-26T10:13:20.000Z</time>
      </trkpt>
      <trkpt lat="47.59598" lon="-2.23998">
        <ele>111.06</ele>
        <time>2019-08-26T10:13:21.000Z</time>
      </trkpt>
      <trkpt lat="47.59599" lon="-2.23996">
        <ele>111.36</ele>
        <time>2019-08-26T10:13:22.000Z</time>
      </trkpt>
      <trkpt lat="47.59599" lon="-2.23994">
        <ele>111.27</ele>
        <time>2019-08-26T10:13:23.000Z</time>
      </trkpt>
      <trkpt lat="47.59599" lon="-2.23993">
        <ele>111.23</ele>
        <time>2019-08-26T10:13:24.000Z</time>
      </trkpt>
      <trkpt lat="47.59599" lon="-2.23991">
        <ele>110.8</ele>
        <time>2019-08-26T10:13:25.000Z</time>
      </trkpt>
      <trkpt lat="47.59599" lon="-2.23989">
        <ele>110.42</ele>
        <time>2019-08-26T10:13:26.000Z</time>
      </trkpt>
      <trkpt lat="47.59599" lon="-2.23988">
        <ele>110.48</ele>
        <time>2019-08-26T10:13:27.000Z</time>
      </trkpt>
      <trkpt lat="47.59599" lon="-2.23986">
        <ele>110.58</ele>
        <time>2019-08-26T10:13:28.000Z</time>
      </trkpt>
      <trkpt lat="47.596" lon="-2.23984">
        <ele>110.71</ele>
        <time>2019-08-26T10:13:29.000Z</time>
      </trkpt>
      <trkpt lat="47.596" lon="-2.23982">
        <ele>110.32</ele>
        <time>2019-08-26T10:13:30.000Z</time>
      </trkpt>
      <trkpt lat="47.596" lon="-2.2398">
        <ele>110.41</ele>
        <time>2019-08-26T10:13:31.000Z</time>
      </trkpt>
      <trkpt lat="47.596" lon="-2.23979">
        <ele>109.49</ele>
        <time>2019-08-26T10:13:32.000Z</time>
      </trkpt>
      <trkpt lat="47.596" lon="-2.23977">
        <ele>109.03</ele>
        <time>2019-08-26T10:13:33.000Z</time>
      </trkpt>
      <trkpt lat="47.596" lon="-2.23975">
        <ele>109.11</ele>
        <time>2019-08-26T10:13:34.000Z</time>
      </trkpt>
      <trkpt lat="47.596" lon="-2.23973">
        <ele>109.41</ele>
        <time>2019-08-26T10:13:35.000Z</time>
      </trkpt>
      <trkpt lat="47.59601" lon="-2.23972">
        <ele>108.97</ele>
        <time>2019-08-26T10:13:36.000Z</time>
      </trkpt>
      <trkpt lat="47.59601" lon="-2.2397">
        <ele>108.52</ele>
        <time>2019-08-26T10:13:37.000Z</time>
      </trkpt>
      <trkpt lat="47.59602" lon="-2.23968">
        <ele>108.23</ele>
        <time>2019-08-26T10:13:38.000Z</time>
      </trkpt>
      <trkpt lat="47.59602" lon="-2.23967">
        <ele>108.12</ele>
        <time>2019-08-26T10:13:39.000Z</time>
      </trkpt>
      <trkpt lat="47.59602" lon="-2.23965">
        <ele>108.41</ele>
        <time>2019-08-26T10:13:40.000Z</time>
      </trkpt>
      <trkpt lat="47.59602" lon="-2.23964">
        <ele>108.11</ele>
        <time>2019-08-26T10:13:41.000Z</time>
      </trkpt>
      <trkpt lat="47.59603" lon="-2.23962">
        <ele>107.79</ele>
        <time>2019-08-26T10:13:42.000Z</time>
      </trkpt>
      <trkpt lat="47.59604" lon="-2.23961">
        <ele>108.34</ele>
        <time>2019-08-26T10:13:43.000Z</time>
      </trkpt>
      <trkpt lat="47.59604" lon="-2.23959">
        <ele>108.38</ele>
        <time>2019-08-26T10:13:44.000Z</time>
      </trkpt>
      <trkpt lat="47.59604" lon="-2.23958">
        <ele>108.38</ele>
        <time>2019-08-26T10:13:45.000Z</time>
      </trkpt>
      <trkpt lat="47.59604" lon="-2.23957">
        <ele>108.58</ele>
        <time>2019-08-26T10:13:46.000Z</time>
      </trkpt>
      <trkpt lat="47.59605" lon="-2.23955">
        <ele>108.63</ele>
        <time>2019-08-26T10:13:47.000Z</time>
      </trkpt>
      <trkpt lat="47.59605" lon="-2.23954">
        <ele>109.43</ele>
        <time>2019-08-26T10:13:48.000Z</time>
      </trkpt>
      <trkpt lat="47.59605" lon="-2.23953">
        <ele>110.09</ele>
        <time>2019-08-26T10:13:49.000Z</time>
      </trkpt>
      <trkpt lat="47.59605" lon="-2.23951">
        <ele>110.29</ele>
        <time>2019-08-26T10:13:50.000Z</time>
      </trkpt>
      <trkpt lat="47.59606" lon="-2.2395">
        <ele>110.03</ele>
        <time>2019-08-26T10:13:51.000Z</time>
      </trkpt>
      <trkpt lat="47.59606" lon="-2.23948">
        <ele>110.39</ele>
        <time>2019-08-26T10:13:52.000Z</time>
      </trkpt>
      <trkpt lat="47.59607" lon="-2.23947">
        <ele>110.58</ele>
        <time>2019-08-26T10:13:53.000Z</time>
      </trkpt>
      <trkpt lat="47.59607" lon="-2.23945">
        <ele>110.42</ele>
        <time>2019-08-26T10:13:54.000Z</time>
      </trkpt>
      <trkpt lat="47.59607" lon="-2.23943">
        <ele>110.47</ele>
        <time>2019-08-26T10:13:55.000Z</time>
      </trkpt>
      <trkpt lat="47.59608" lon="-2.23941">
        <ele>110.62</ele>
        <time>2019-08-26T10:13:56.000Z</time>
      </trkpt>
      <trkpt lat="47.59608" lon="-2.23939">
        <ele>110.57</ele>
        <time>2019-08-26T10:13:57.000Z</time>
      </trkpt>
      <trkpt lat="47.59608" lon="-2.23937">
        <ele>110.83</ele>
        <time>2019-08-26T10:13:58.000Z</time>
      </trkpt>
      <trkpt lat="47.59608" lon="-2.23936">
        <ele>111.05</ele>
        <time>2019-08-26T10:13:59.000Z</time>
      </trkpt>
      <trkpt lat="47.59608" lon="-2.23934">
        <ele>111.3</ele>
        <time>2019-08-26T10:14:00.000Z</time>
      </trkpt>
      <trkpt lat="47.59609" lon="-2.23932">
        <ele>111.75</ele>
        <time>2019-08-26T10:14:01.000Z</time>
      </trkpt>
      <trkpt lat="47.59609" lon="-2.23931">
        <ele>111.77</ele>
        <time>2019-08-26T10:14:02.000Z</time>
      </trkpt>
      <trkpt lat="47.59609" lon="-2.23929">
        <ele>112.01</ele>
        <time>2019-08-26T10:14:03.000Z</time>
      </trkpt>
      <trkpt lat="47.59609" lon="-2.23927">
        <ele>111.86</ele>
        <time>2019-08-26T10:14:04.000Z</time>
      </trkpt>
      <trkpt lat="47.59609" lon="-2.23926">
        <ele>111.7</ele>
        <time>2019-08-26T10:14:05.000Z</time>
      </trkpt>
      <trkpt lat="47.5961" lon="-2.23924">
        <ele>111.56</ele>
        <time>2019-08-26T10:14:06.000Z</time>
      </trkpt>
      <trkpt lat="47.5961" lon="-2.23923">
        <ele>111.43</ele>
        <time>2019-08-26T10:14:07.000Z</time>
      </trkpt>
      <trkpt lat="47.5961" lon="-2.23921">
        <ele>111.36</ele>
        <time>2019-08-26T10:14:08.000Z</time>
      </trkpt>
      <trkpt lat="47.59611" lon="-2.2392">
        <ele>111.8</ele>
        <time>2019-08-26T10:14:09.000Z</time>
      </trkpt>
      <trkpt lat="47.59612" lon="-2.23918">
        <ele>111.41</ele>
        <time>2019-08-26T10:14:10.000Z</time>
      </trkpt>
      <trkpt lat="47.59612" lon="-2.23916">
        <ele>111.29</ele>
        <time>2019-08-26T10:14:11.000Z</time>
      </trkpt>
      <trkpt lat="47.59613" lon="-2.23915">
        <ele>111.5</ele>
        <time>2019-08-26T10:14:12.000Z</time>
      </trkpt>
      <trkpt lat="47.59613" lon="-2.23913">
        <ele>111.93</ele>
        <time>2019-08-26T10:14:13.000Z</time>
      </trkpt>
      <trkpt lat="47.59613" lon="-2.23911">
        <ele>112.4</ele>
        <time>2019-08-26T10:14:14.000Z</time>
      </trkpt>
      <trkpt lat="47.59613" lon="-2.23909">
        <ele>112.79</ele>
        <time>2019-08-26T10:14:15.000Z</time>
      </trkpt>
      <trkpt lat="47.59614" lon="-2.23907">
        <ele>112.27</ele>
        <time>2019-08-26T10:14:16.000Z</time>
      </trkpt>
      <trkpt lat="47.59615" lon="-2.23905">
        <ele>112.38</ele>
        <time>2019-08-26T10:14:17.000Z</time>
      </trkpt>
      <trkpt lat="47.59616" lon="-2.23903">
        <ele>112.28</ele>
        <time>2019-08-26T10:14:18.000Z</time>
      </trkpt>
      <trkpt lat="47.59617" lon="-2.23902">
        <ele>112.44</ele>
        <time>2019-08-26T10:14:19.000Z</time>
      </trkpt>
      <trkpt lat="47.59617" lon="-2.239">
        <ele>112.57</ele>
        <time>2019-08-26T10:14:20.000Z</time>
      </trkpt>
      <trkpt lat="47.59617" lon="-2.23899">
        <ele>111.97</ele>
        <time>2019-08-26T10:14:21.000Z</time>
      </trkpt>
      <trkpt lat="47.59618" lon="-2.23898">
        <ele>112.37</ele>
        <time>2019-08-26T10:14:22.000Z</time>
      </trkpt>
      <trkpt lat="47.5962" lon="-2.23898">
        <ele>112.33</ele>
        <time>2019-08-26T10:14:23.000Z</time>
      </trkpt>
      <trkpt lat="47.5962" lon="-2.23898">
        <ele>112.17</ele>
        <time>2019-08-26T10:14:24.000Z</time>
      </trkpt>
      <trkpt lat="47.59621" lon="-2.23899">
        <ele>111.85</ele>
        <time>2019-08-26T10:14:25.000Z</time>
      </trkpt>
      <trkpt lat="47.59622" lon="-2.239">
        <ele>112.41</ele>
        <time>2019-08-26T10:14:26.000Z</time>
      </trkpt>
      <trkpt lat="47.59623" lon="-2.23901">
        <ele>113.04</ele>
        <time>2019-08-26T10:14:27.000Z</time>
      </trkpt>
      <trkpt lat="47.59624" lon="-2.23904">
        <ele>112.91</ele>
        <time>2019-08-26T10:14:29.000Z</time>
      </trkpt>
      <trkpt lat="47.59625" lon="-2.23906">
        <ele>113.39</ele>
        <time>2019-08-26T10:14:30.000Z</time>
      </trkpt>
      <trkpt lat="47.59625" lon="-2.23908">
        <ele>113.13</ele>
        <time>2019-08-26T10:14:32.000Z</time>
      </trkpt>
      <trkpt lat="47.59624" lon="-2.23909">
        <ele>113.19</ele>
        <time>2019-08-26T10:14:33.000Z</time>
      </trkpt>
      <trkpt lat="47.59623" lon="-2.2391">
        <ele>113.09</ele>
        <time>2019-08-26T10:14:34.000Z</time>
      </trkpt>
      <trkpt lat="47.59621" lon="-2.23911">
        <ele>113.04</ele>
        <time>2019-08-26T10:14:36.000Z</time>
      </trkpt>
      <trkpt lat="47.59621" lon="-2.23912">
        <ele>114.23</ele>
        <time>2019-08-26T10:14:42.000Z</time>
      </trkpt>
    </trkseg>
  </trk>
</gpx>